<?xml version='1.0' encoding='UTF-8'?><gpx version="1.1" creator="JPX - https://github.com/jenetics/jpx" xmlns="http://www.topografix.com/GPX/1/1"><trk><trkseg><trkpt lat="43.99589" lon="11.0138517"><ele>936.0</ele><time>2026-04-04T11:29:23.833Z</time></trkpt><trkpt lat="43.9958483" lon="11.013765"><ele>936.0000000000001</ele><time>2026-04-04T11:29:25.338Z</time></trkpt><trkpt lat="43.995835" lon="11.013675"><ele>936.0</ele><time>2026-04-04T11:29:26.334Z</time></trkpt><trkpt lat="43.9958217" lon="11.013585"><ele>936.0</ele><time>2026-04-04T11:29:27.334Z</time></trkpt><trkpt lat="43.9958067" lon="11.0134933"><ele>936.0000000000001</ele><time>2026-04-04T11:29:28.333Z</time></trkpt><trkpt lat="43.9957833" lon="11.0134017"><ele>936.0</ele><time>2026-04-04T11:29:29.334Z</time></trkpt><trkpt lat="43.9957533" lon="11.0133167"><ele>936.0</ele><time>2026-04-04T11:29:30.332Z</time></trkpt><trkpt lat="43.9956933" lon="11.0131867"><ele>936.0</ele><time>2026-04-04T11:29:32.335Z</time></trkpt><trkpt lat="43.99563" lon="11.013045"><ele>936.0</ele><time>2026-04-04T11:29:34.334Z</time></trkpt><trkpt lat="43.995585" lon="11.0129633"><ele>936.0</ele><time>2026-04-04T11:29:35.334Z</time></trkpt><trkpt lat="43.99555" lon="11.0128767"><ele>936.0</ele><time>2026-04-04T11:29:36.335Z</time></trkpt><trkpt lat="43.9955217" lon="11.01277"><ele>936.0</ele><time>2026-04-04T11:29:37.334Z</time></trkpt><trkpt lat="43.995495" lon="11.0126633"><ele>936.0</ele><time>2026-04-04T11:29:38.334Z</time></trkpt><trkpt lat="43.9954567" lon="11.0125717"><ele>939.1666666666666</ele><time>2026-04-04T11:29:39.335Z</time></trkpt><trkpt lat="43.995415" lon="11.0124767"><ele>942.3333333333333</ele><time>2026-04-04T11:29:40.332Z</time></trkpt><trkpt lat="43.9953717" lon="11.0123783"><ele>945.5</ele><time>2026-04-04T11:29:41.333Z</time></trkpt><trkpt lat="43.9953283" lon="11.01228"><ele>948.6666666666666</ele><time>2026-04-04T11:29:42.333Z</time></trkpt><trkpt lat="43.99529" lon="11.0121933"><ele>951.8333333333333</ele><time>2026-04-04T11:29:43.335Z</time></trkpt><trkpt lat="43.99527" lon="11.0121033"><ele>955.0</ele><time>2026-04-04T11:29:44.334Z</time></trkpt><trkpt lat="43.9952533" lon="11.011935"><ele>954.9999999999999</ele><time>2026-04-04T11:29:46.333Z</time></trkpt><trkpt lat="43.9952417" lon="11.0117783"><ele>955.0</ele><time>2026-04-04T11:29:48.335Z</time></trkpt><trkpt lat="43.9952183" lon="11.0116583"><ele>955.0</ele><time>2026-04-04T11:29:50.334Z</time></trkpt><trkpt lat="43.9951933" lon="11.011555"><ele>955.0</ele><time>2026-04-04T11:29:52.335Z</time></trkpt><trkpt lat="43.9951633" lon="11.011465"><ele>954.9999999999999</ele><time>2026-04-04T11:29:55.334Z</time></trkpt><trkpt lat="43.9951217" lon="11.0113817"><ele>955.0</ele><time>2026-04-04T11:29:57.335Z</time></trkpt><trkpt lat="43.9950733" lon="11.0112917"><ele>954.1666666666666</ele><time>2026-04-04T11:29:59.334Z</time></trkpt><trkpt lat="43.9950267" lon="11.0111633"><ele>953.3333333333333</ele><time>2026-04-04T11:30:01.334Z</time></trkpt><trkpt lat="43.9949783" lon="11.011005"><ele>952.5</ele><time>2026-04-04T11:30:03.333Z</time></trkpt><trkpt lat="43.9949533" lon="11.01092"><ele>951.6666666666667</ele><time>2026-04-04T11:30:04.334Z</time></trkpt><trkpt lat="43.9949433" lon="11.0108233"><ele>950.8333333333334</ele><time>2026-04-04T11:30:05.334Z</time></trkpt><trkpt lat="43.9949333" lon="11.0107183"><ele>950.0</ele><time>2026-04-04T11:30:06.334Z</time></trkpt><trkpt lat="43.9949167" lon="11.01063"><ele>950.0</ele><time>2026-04-04T11:30:07.334Z</time></trkpt><trkpt lat="43.9949" lon="11.0104767"><ele>950.0</ele><time>2026-04-04T11:30:09.334Z</time></trkpt><trkpt lat="43.994875" lon="11.01036"><ele>950.0</ele><time>2026-04-04T11:30:11.333Z</time></trkpt><trkpt lat="43.9948833" lon="11.0102633"><ele>950.0</ele><time>2026-04-04T11:30:14.334Z</time></trkpt><trkpt lat="43.9949383" lon="11.010175"><ele>950.0</ele><time>2026-04-04T11:30:16.334Z</time></trkpt><trkpt lat="43.99503" lon="11.0101"><ele>955.3333333333334</ele><time>2026-04-04T11:30:18.334Z</time></trkpt><trkpt lat="43.99511" lon="11.0099967"><ele>960.6666666666667</ele><time>2026-04-04T11:30:20.334Z</time></trkpt><trkpt lat="43.995165" lon="11.0098517"><ele>966.0</ele><time>2026-04-04T11:30:22.333Z</time></trkpt><trkpt lat="43.995195" lon="11.00977"><ele>971.3333333333333</ele><time>2026-04-04T11:30:23.334Z</time></trkpt><trkpt lat="43.9952217" lon="11.0096767"><ele>976.6666666666666</ele><time>2026-04-04T11:30:24.333Z</time></trkpt><trkpt lat="43.9952533" lon="11.00958"><ele>982.0</ele><time>2026-04-04T11:30:25.333Z</time></trkpt><trkpt lat="43.995285" lon="11.00949"><ele>982.0</ele><time>2026-04-04T11:30:26.333Z</time></trkpt><trkpt lat="43.9953183" lon="11.009415"><ele>982.0</ele><time>2026-04-04T11:30:27.333Z</time></trkpt><trkpt lat="43.9953833" lon="11.0093017"><ele>982.0</ele><time>2026-04-04T11:30:29.333Z</time></trkpt><trkpt lat="43.9954717" lon="11.0092367"><ele>982.0</ele><time>2026-04-04T11:30:31.333Z</time></trkpt><trkpt lat="43.9955767" lon="11.00915"><ele>982.0</ele><time>2026-04-04T11:30:33.334Z</time></trkpt><trkpt lat="43.9956383" lon="11.0090367"><ele>983.2</ele><time>2026-04-04T11:30:35.334Z</time></trkpt><trkpt lat="43.9956917" lon="11.008905"><ele>984.4000000000001</ele><time>2026-04-04T11:30:37.335Z</time></trkpt><trkpt lat="43.9957433" lon="11.008785"><ele>985.5999999999999</ele><time>2026-04-04T11:30:39.334Z</time></trkpt><trkpt lat="43.9957733" lon="11.0086517"><ele>986.8</ele><time>2026-04-04T11:30:41.334Z</time></trkpt><trkpt lat="43.9957733" lon="11.0085033"><ele>988.0</ele><time>2026-04-04T11:30:43.334Z</time></trkpt><trkpt lat="43.9957533" lon="11.0083383"><ele>990.0</ele><time>2026-04-04T11:30:45.335Z</time></trkpt><trkpt lat="43.99571" lon="11.0081933"><ele>992.0</ele><time>2026-04-04T11:30:47.334Z</time></trkpt><trkpt lat="43.9956667" lon="11.008035"><ele>994.0</ele><time>2026-04-04T11:30:49.334Z</time></trkpt><trkpt lat="43.9956633" lon="11.0078667"><ele>996.0</ele><time>2026-04-04T11:30:51.334Z</time></trkpt><trkpt lat="43.99566" lon="11.0077733"><ele>998.0</ele><time>2026-04-04T11:30:52.334Z</time></trkpt><trkpt lat="43.995655" lon="11.0076783"><ele>998.0</ele><time>2026-04-04T11:30:53.334Z</time></trkpt><trkpt lat="43.9956567" lon="11.007585"><ele>998.0</ele><time>2026-04-04T11:30:54.335Z</time></trkpt><trkpt lat="43.9956417" lon="11.007415"><ele>998.0</ele><time>2026-04-04T11:30:56.334Z</time></trkpt><trkpt lat="43.9956283" lon="11.0072483"><ele>998.0</ele><time>2026-04-04T11:30:58.334Z</time></trkpt><trkpt lat="43.9956017" lon="11.0071517"><ele>998.0</ele><time>2026-04-04T11:31:00.335Z</time></trkpt><trkpt lat="43.995675" lon="11.0071233"><ele>997.5000000000001</ele><time>2026-04-04T11:32:59.335Z</time></trkpt><trkpt lat="43.9957067" lon="11.0070417"><ele>997.0</ele><time>2026-04-04T11:33:01.335Z</time></trkpt><trkpt lat="43.9957317" lon="11.006935"><ele>996.5</ele><time>2026-04-04T11:33:03.334Z</time></trkpt><trkpt lat="43.99575" lon="11.0068383"><ele>996.0</ele><time>2026-04-04T11:33:05.335Z</time></trkpt><trkpt lat="43.99578" lon="11.0067533"><ele>995.5000000000001</ele><time>2026-04-04T11:33:07.335Z</time></trkpt><trkpt lat="43.99583" lon="11.00667"><ele>995.0</ele><time>2026-04-04T11:33:09.333Z</time></trkpt><trkpt lat="43.9958933" lon="11.0065733"><ele>995.0</ele><time>2026-04-04T11:33:11.334Z</time></trkpt><trkpt lat="43.9959683" lon="11.0064767"><ele>995.0</ele><time>2026-04-04T11:33:13.336Z</time></trkpt><trkpt lat="43.99602" lon="11.0064033"><ele>995.0</ele><time>2026-04-04T11:33:16.334Z</time></trkpt><trkpt lat="43.996075" lon="11.0062883"><ele>995.0</ele><time>2026-04-04T11:33:23.335Z</time></trkpt><trkpt lat="43.99613" lon="11.006175"><ele>995.0</ele><time>2026-04-04T11:33:26.335Z</time></trkpt><trkpt lat="43.9961983" lon="11.0060817"><ele>995.0</ele><time>2026-04-04T11:33:28.334Z</time></trkpt><trkpt lat="43.9962633" lon="11.0059983"><ele>995.0</ele><time>2026-04-04T11:33:30.335Z</time></trkpt><trkpt lat="43.9963333" lon="11.0058867"><ele>995.0</ele><time>2026-04-04T11:33:32.333Z</time></trkpt><trkpt lat="43.9964067" lon="11.0057467"><ele>995.0</ele><time>2026-04-04T11:33:34.334Z</time></trkpt><trkpt lat="43.9964633" lon="11.0055883"><ele>995.0</ele><time>2026-04-04T11:33:36.335Z</time></trkpt><trkpt lat="43.99652" lon="11.005425"><ele>992.2</ele><time>2026-04-04T11:33:38.335Z</time></trkpt><trkpt lat="43.99654" lon="11.00534"><ele>989.4</ele><time>2026-04-04T11:33:39.334Z</time></trkpt><trkpt lat="43.9965733" lon="11.0051917"><ele>986.5999999999999</ele><time>2026-04-04T11:33:41.334Z</time></trkpt><trkpt lat="43.9966167" lon="11.0050383"><ele>983.8</ele><time>2026-04-04T11:33:43.335Z</time></trkpt><trkpt lat="43.9966433" lon="11.0048633"><ele>981.0</ele><time>2026-04-04T11:33:45.335Z</time></trkpt><trkpt lat="43.99666" lon="11.0047733"><ele>982.6666666666666</ele><time>2026-04-04T11:33:46.335Z</time></trkpt><trkpt lat="43.9966833" lon="11.0046833"><ele>984.3333333333333</ele><time>2026-04-04T11:33:47.333Z</time></trkpt><trkpt lat="43.99671" lon="11.0045933"><ele>986.0</ele><time>2026-04-04T11:33:48.335Z</time></trkpt><trkpt lat="43.9967283" lon="11.0045"><ele>987.6666666666666</ele><time>2026-04-04T11:33:49.334Z</time></trkpt><trkpt lat="43.996755" lon="11.0044133"><ele>989.3333333333333</ele><time>2026-04-04T11:33:50.334Z</time></trkpt><trkpt lat="43.9968017" lon="11.0042783"><ele>991.0</ele><time>2026-04-04T11:33:52.334Z</time></trkpt><trkpt lat="43.9968267" lon="11.0041567"><ele>987.6666666666666</ele><time>2026-04-04T11:33:54.334Z</time></trkpt><trkpt lat="43.9968633" lon="11.0040467"><ele>984.3333333333333</ele><time>2026-04-04T11:33:56.335Z</time></trkpt><trkpt lat="43.996915" lon="11.0039317"><ele>981.0</ele><time>2026-04-04T11:33:58.335Z</time></trkpt><trkpt lat="43.996955" lon="11.00383"><ele>977.6666666666667</ele><time>2026-04-04T11:34:00.334Z</time></trkpt><trkpt lat="43.996995" lon="11.0037333"><ele>974.3333333333334</ele><time>2026-04-04T11:34:02.334Z</time></trkpt><trkpt lat="43.997035" lon="11.0036417"><ele>971.0</ele><time>2026-04-04T11:34:04.334Z</time></trkpt><trkpt lat="43.9970783" lon="11.0035517"><ele>971.0000000000001</ele><time>2026-04-04T11:34:06.333Z</time></trkpt><trkpt lat="43.9971217" lon="11.0034717"><ele>971.0</ele><time>2026-04-04T11:34:08.335Z</time></trkpt><trkpt lat="43.9971833" lon="11.0033783"><ele>971.0</ele><time>2026-04-04T11:34:10.334Z</time></trkpt><trkpt lat="43.99725" lon="11.0032917"><ele>971.0</ele><time>2026-04-04T11:34:12.334Z</time></trkpt><trkpt lat="43.9972917" lon="11.00321"><ele>971.0000000000001</ele><time>2026-04-04T11:34:14.335Z</time></trkpt><trkpt lat="43.9973067" lon="11.0030783"><ele>971.0</ele><time>2026-04-04T11:34:17.334Z</time></trkpt><trkpt lat="43.9972733" lon="11.002985"><ele>969.0000000000001</ele><time>2026-04-04T11:34:19.336Z</time></trkpt><trkpt lat="43.997245" lon="11.0028767"><ele>967.0</ele><time>2026-04-04T11:34:21.334Z</time></trkpt><trkpt lat="43.997215" lon="11.0027583"><ele>965.0</ele><time>2026-04-04T11:34:23.333Z</time></trkpt><trkpt lat="43.997195" lon="11.002655"><ele>963.0</ele><time>2026-04-04T11:34:25.335Z</time></trkpt><trkpt lat="43.9971917" lon="11.0025417"><ele>961.0000000000001</ele><time>2026-04-04T11:34:27.335Z</time></trkpt><trkpt lat="43.997185" lon="11.0024167"><ele>959.0</ele><time>2026-04-04T11:34:29.336Z</time></trkpt><trkpt lat="43.9971767" lon="11.0022883"><ele>958.1666666666667</ele><time>2026-04-04T11:34:31.335Z</time></trkpt><trkpt lat="43.9971583" lon="11.0021617"><ele>957.3333333333334</ele><time>2026-04-04T11:34:33.334Z</time></trkpt><trkpt lat="43.997135" lon="11.0020417"><ele>956.5</ele><time>2026-04-04T11:34:35.335Z</time></trkpt><trkpt lat="43.9971" lon="11.0019267"><ele>955.6666666666667</ele><time>2026-04-04T11:34:37.335Z</time></trkpt><trkpt lat="43.99708" lon="11.0018083"><ele>954.8333333333334</ele><time>2026-04-04T11:34:39.334Z</time></trkpt><trkpt lat="43.99706" lon="11.0016967"><ele>954.0</ele><time>2026-04-04T11:34:41.335Z</time></trkpt><trkpt lat="43.9970283" lon="11.0016017"><ele>954.0</ele><time>2026-04-04T11:34:43.334Z</time></trkpt><trkpt lat="43.9969633" lon="11.0015417"><ele>954.0</ele><time>2026-04-04T11:34:45.334Z</time></trkpt><trkpt lat="43.99691" lon="11.0014533"><ele>954.0</ele><time>2026-04-04T11:34:47.334Z</time></trkpt><trkpt lat="43.996865" lon="11.00137"><ele>954.0</ele><time>2026-04-04T11:34:49.335Z</time></trkpt><trkpt lat="43.9968217" lon="11.001305"><ele>954.0</ele><time>2026-04-04T11:34:52.334Z</time></trkpt><trkpt lat="43.996775" lon="11.0011917"><ele>954.0</ele><time>2026-04-04T11:34:55.334Z</time></trkpt><trkpt lat="43.996725" lon="11.001105"><ele>954.0</ele><time>2026-04-04T11:34:57.335Z</time></trkpt><trkpt lat="43.99668" lon="11.0010283"><ele>954.0</ele><time>2026-04-04T11:34:59.334Z</time></trkpt><trkpt lat="43.9966667" lon="11.0009083"><ele>954.0</ele><time>2026-04-04T11:35:02.335Z</time></trkpt><trkpt lat="43.9966767" lon="11.000795"><ele>954.0</ele><time>2026-04-04T11:35:04.338Z</time></trkpt><trkpt lat="43.996685" lon="11.000655"><ele>954.0</ele><time>2026-04-04T11:35:06.336Z</time></trkpt><trkpt lat="43.9966817" lon="11.0005267"><ele>954.0</ele><time>2026-04-04T11:35:08.334Z</time></trkpt><trkpt lat="43.9966833" lon="11.0004267"><ele>954.0</ele><time>2026-04-04T11:35:10.335Z</time></trkpt><trkpt lat="43.99669" lon="11.00031"><ele>954.0</ele><time>2026-04-04T11:35:12.335Z</time></trkpt><trkpt lat="43.9967033" lon="11.00018"><ele>954.0</ele><time>2026-04-04T11:35:14.334Z</time></trkpt><trkpt lat="43.9966783" lon="11.0000717"><ele>954.0</ele><time>2026-04-04T11:35:16.336Z</time></trkpt><trkpt lat="43.9966183" lon="10.9999867"><ele>954.0</ele><time>2026-04-04T11:35:18.334Z</time></trkpt><trkpt lat="43.9965433" lon="10.9998917"><ele>954.0</ele><time>2026-04-04T11:35:20.335Z</time></trkpt><trkpt lat="43.9964817" lon="10.99978"><ele>948.8000000000001</ele><time>2026-04-04T11:35:22.335Z</time></trkpt><trkpt lat="43.99644" lon="10.9996433"><ele>943.6000000000001</ele><time>2026-04-04T11:35:24.334Z</time></trkpt><trkpt lat="43.99641" lon="10.999525"><ele>938.4</ele><time>2026-04-04T11:35:26.335Z</time></trkpt><trkpt lat="43.9963283" lon="10.9994383"><ele>933.2</ele><time>2026-04-04T11:35:28.334Z</time></trkpt><trkpt lat="43.9962133" lon="10.9993867"><ele>928.0</ele><time>2026-04-04T11:35:30.335Z</time></trkpt><trkpt lat="43.9960967" lon="10.999345"><ele>928.0</ele><time>2026-04-04T11:35:32.335Z</time></trkpt><trkpt lat="43.9959817" lon="10.9993417"><ele>928.0</ele><time>2026-04-04T11:35:34.333Z</time></trkpt><trkpt lat="43.9958783" lon="10.9993117"><ele>928.0</ele><time>2026-04-04T11:35:36.335Z</time></trkpt><trkpt lat="43.9957867" lon="10.9993"><ele>928.0</ele><time>2026-04-04T11:35:38.334Z</time></trkpt><trkpt lat="43.9957" lon="10.9992767"><ele>928.0</ele><time>2026-04-04T11:35:40.335Z</time></trkpt><trkpt lat="43.99561" lon="10.9992367"><ele>925.3333333333333</ele><time>2026-04-04T11:35:42.335Z</time></trkpt><trkpt lat="43.9955283" lon="10.9991767"><ele>922.6666666666666</ele><time>2026-04-04T11:35:44.334Z</time></trkpt><trkpt lat="43.9954683" lon="10.9991033"><ele>920.0</ele><time>2026-04-04T11:35:46.334Z</time></trkpt><trkpt lat="43.9954333" lon="10.9990117"><ele>917.3333333333333</ele><time>2026-04-04T11:35:48.335Z</time></trkpt><trkpt lat="43.9954083" lon="10.9989183"><ele>914.6666666666666</ele><time>2026-04-04T11:35:50.335Z</time></trkpt><trkpt lat="43.9953917" lon="10.9988183"><ele>912.0</ele><time>2026-04-04T11:35:52.335Z</time></trkpt><trkpt lat="43.99538" lon="10.99872"><ele>912.0</ele><time>2026-04-04T11:35:54.335Z</time></trkpt><trkpt lat="43.995385" lon="10.99862"><ele>912.0</ele><time>2026-04-04T11:35:56.335Z</time></trkpt><trkpt lat="43.9954033" lon="10.998495"><ele>912.0</ele><time>2026-04-04T11:35:58.335Z</time></trkpt><trkpt lat="43.9954217" lon="10.99836"><ele>912.0</ele><time>2026-04-04T11:36:00.335Z</time></trkpt><trkpt lat="43.9954183" lon="10.998235"><ele>912.0</ele><time>2026-04-04T11:36:02.335Z</time></trkpt><trkpt lat="43.995395" lon="10.9981133"><ele>912.0</ele><time>2026-04-04T11:36:04.334Z</time></trkpt><trkpt lat="43.9953517" lon="10.997985"><ele>912.2</ele><time>2026-04-04T11:36:06.335Z</time></trkpt><trkpt lat="43.9953133" lon="10.997875"><ele>912.4000000000001</ele><time>2026-04-04T11:36:08.335Z</time></trkpt><trkpt lat="43.995275" lon="10.9977633"><ele>912.5999999999999</ele><time>2026-04-04T11:36:10.334Z</time></trkpt><trkpt lat="43.9952233" lon="10.9976383"><ele>912.8</ele><time>2026-04-04T11:36:12.335Z</time></trkpt><trkpt lat="43.9951717" lon="10.9975217"><ele>913.0</ele><time>2026-04-04T11:36:14.334Z</time></trkpt><trkpt lat="43.9951367" lon="10.99741"><ele>913.0</ele><time>2026-04-04T11:36:16.335Z</time></trkpt><trkpt lat="43.9951083" lon="10.9973067"><ele>913.0</ele><time>2026-04-04T11:36:18.335Z</time></trkpt><trkpt lat="43.9950467" lon="10.9971983"><ele>913.0</ele><time>2026-04-04T11:36:20.335Z</time></trkpt><trkpt lat="43.9950267" lon="10.997055"><ele>913.0</ele><time>2026-04-04T11:36:22.334Z</time></trkpt><trkpt lat="43.9949967" lon="10.9969267"><ele>913.0</ele><time>2026-04-04T11:36:24.334Z</time></trkpt><trkpt lat="43.9949283" lon="10.9968217"><ele>906.8</ele><time>2026-04-04T11:36:26.333Z</time></trkpt><trkpt lat="43.9948483" lon="10.9967283"><ele>900.5999999999999</ele><time>2026-04-04T11:36:28.335Z</time></trkpt><trkpt lat="43.9947883" lon="10.9966017"><ele>894.4000000000001</ele><time>2026-04-04T11:36:30.334Z</time></trkpt><trkpt lat="43.9947233" lon="10.9965083"><ele>888.2</ele><time>2026-04-04T11:36:32.335Z</time></trkpt><trkpt lat="43.9946317" lon="10.9964333"><ele>882.0</ele><time>2026-04-04T11:36:34.333Z</time></trkpt><trkpt lat="43.9945467" lon="10.9963517"><ele>882.0</ele><time>2026-04-04T11:36:36.335Z</time></trkpt><trkpt lat="43.9944783" lon="10.9962817"><ele>882.0</ele><time>2026-04-04T11:36:38.333Z</time></trkpt><trkpt lat="43.9944167" lon="10.9962217"><ele>882.0</ele><time>2026-04-04T11:36:40.335Z</time></trkpt><trkpt lat="43.9943483" lon="10.9961083"><ele>882.0</ele><time>2026-04-04T11:38:15.332Z</time></trkpt><trkpt lat="43.9943067" lon="10.9960383"><ele>882.0</ele><time>2026-04-04T11:38:17.332Z</time></trkpt><trkpt lat="43.994245" lon="10.9959517"><ele>882.0</ele><time>2026-04-04T11:38:20.333Z</time></trkpt><trkpt lat="43.9941917" lon="10.9958383"><ele>878.6666666666666</ele><time>2026-04-04T11:38:23.334Z</time></trkpt><trkpt lat="43.9941633" lon="10.9957333"><ele>875.3333333333333</ele><time>2026-04-04T11:38:25.332Z</time></trkpt><trkpt lat="43.9941383" lon="10.9956367"><ele>872.0</ele><time>2026-04-04T11:38:27.333Z</time></trkpt><trkpt lat="43.9941067" lon="10.99554"><ele>868.6666666666666</ele><time>2026-04-04T11:38:29.334Z</time></trkpt><trkpt lat="43.994065" lon="10.99545"><ele>865.3333333333333</ele><time>2026-04-04T11:38:31.333Z</time></trkpt><trkpt lat="43.9940217" lon="10.9953517"><ele>862.0</ele><time>2026-04-04T11:38:33.332Z</time></trkpt><trkpt lat="43.993995" lon="10.9952317"><ele>862.0</ele><time>2026-04-04T11:38:35.333Z</time></trkpt><trkpt lat="43.99396" lon="10.9951067"><ele>862.0</ele><time>2026-04-04T11:38:37.334Z</time></trkpt><trkpt lat="43.9939233" lon="10.994985"><ele>862.0</ele><time>2026-04-04T11:38:39.335Z</time></trkpt><trkpt lat="43.9938983" lon="10.9948083"><ele>862.0</ele><time>2026-04-04T11:38:41.334Z</time></trkpt><trkpt lat="43.9938867" lon="10.9947167"><ele>862.0</ele><time>2026-04-04T11:38:42.333Z</time></trkpt><trkpt lat="43.993865" lon="10.9945617"><ele>860.8</ele><time>2026-04-04T11:38:44.333Z</time></trkpt><trkpt lat="43.99384" lon="10.9944217"><ele>859.6</ele><time>2026-04-04T11:38:46.335Z</time></trkpt><trkpt lat="43.9938083" lon="10.994285"><ele>858.3999999999999</ele><time>2026-04-04T11:38:48.333Z</time></trkpt><trkpt lat="43.9937767" lon="10.9941467"><ele>857.1999999999999</ele><time>2026-04-04T11:38:50.334Z</time></trkpt><trkpt lat="43.993755" lon="10.993995"><ele>856.0</ele><time>2026-04-04T11:38:52.335Z</time></trkpt><trkpt lat="43.993735" lon="10.9938367"><ele>855.1999999999999</ele><time>2026-04-04T11:38:54.333Z</time></trkpt><trkpt lat="43.9937283" lon="10.99369"><ele>854.3999999999999</ele><time>2026-04-04T11:38:56.332Z</time></trkpt><trkpt lat="43.9937217" lon="10.99355"><ele>853.6</ele><time>2026-04-04T11:38:58.334Z</time></trkpt><trkpt lat="43.993715" lon="10.9934083"><ele>852.8</ele><time>2026-04-04T11:39:00.334Z</time></trkpt><trkpt lat="43.9937383" lon="10.993255"><ele>852.0</ele><time>2026-04-04T11:39:02.334Z</time></trkpt><trkpt lat="43.993765" lon="10.9931267"><ele>850.6</ele><time>2026-04-04T11:39:04.334Z</time></trkpt><trkpt lat="43.99377" lon="10.992995"><ele>849.2</ele><time>2026-04-04T11:39:06.333Z</time></trkpt><trkpt lat="43.9937783" lon="10.9928533"><ele>847.8</ele><time>2026-04-04T11:39:08.333Z</time></trkpt><trkpt lat="43.9937867" lon="10.9927283"><ele>846.4</ele><time>2026-04-04T11:39:10.334Z</time></trkpt><trkpt lat="43.993815" lon="10.9926167"><ele>845.0</ele><time>2026-04-04T11:39:12.333Z</time></trkpt><trkpt lat="43.9938583" lon="10.9924883"><ele>843.2</ele><time>2026-04-04T11:39:14.334Z</time></trkpt><trkpt lat="43.9938767" lon="10.9923433"><ele>841.4</ele><time>2026-04-04T11:39:16.335Z</time></trkpt><trkpt lat="43.9938833" lon="10.992195"><ele>839.5999999999999</ele><time>2026-04-04T11:39:18.334Z</time></trkpt><trkpt lat="43.9938933" lon="10.9920533"><ele>837.8</ele><time>2026-04-04T11:39:20.333Z</time></trkpt><trkpt lat="43.99388" lon="10.991925"><ele>836.0</ele><time>2026-04-04T11:39:22.334Z</time></trkpt><trkpt lat="43.9938683" lon="10.9918"><ele>833.5999999999999</ele><time>2026-04-04T11:39:24.334Z</time></trkpt><trkpt lat="43.9938683" lon="10.9916667"><ele>831.2</ele><time>2026-04-04T11:39:26.334Z</time></trkpt><trkpt lat="43.9938583" lon="10.9915333"><ele>828.8</ele><time>2026-04-04T11:39:28.335Z</time></trkpt><trkpt lat="43.993845" lon="10.9914117"><ele>826.4000000000001</ele><time>2026-04-04T11:39:30.334Z</time></trkpt><trkpt lat="43.9938233" lon="10.9912617"><ele>824.0</ele><time>2026-04-04T11:39:32.333Z</time></trkpt><trkpt lat="43.9937833" lon="10.9911083"><ele>824.0</ele><time>2026-04-04T11:39:34.334Z</time></trkpt><trkpt lat="43.99376" lon="10.9910267"><ele>824.0</ele><time>2026-04-04T11:39:35.334Z</time></trkpt><trkpt lat="43.99372" lon="10.99087"><ele>824.0</ele><time>2026-04-04T11:39:37.334Z</time></trkpt><trkpt lat="43.99368" lon="10.9907117"><ele>824.0</ele><time>2026-04-04T11:39:39.333Z</time></trkpt><trkpt lat="43.9936583" lon="10.9906233"><ele>824.0</ele><time>2026-04-04T11:39:40.334Z</time></trkpt><trkpt lat="43.9936167" lon="10.99048"><ele>822.2</ele><time>2026-04-04T11:39:42.334Z</time></trkpt><trkpt lat="43.9935667" lon="10.9903533"><ele>820.4000000000001</ele><time>2026-04-04T11:39:44.334Z</time></trkpt><trkpt lat="43.9935167" lon="10.9902417"><ele>818.6</ele><time>2026-04-04T11:39:46.333Z</time></trkpt><trkpt lat="43.9934717" lon="10.9901317"><ele>816.8</ele><time>2026-04-04T11:39:48.335Z</time></trkpt><trkpt lat="43.9934083" lon="10.9900467"><ele>815.0</ele><time>2026-04-04T11:39:50.333Z</time></trkpt><trkpt lat="43.9933383" lon="10.989985"><ele>811.6</ele><time>2026-04-04T11:39:52.333Z</time></trkpt><trkpt lat="43.9932617" lon="10.9899483"><ele>808.2</ele><time>2026-04-04T11:39:54.333Z</time></trkpt><trkpt lat="43.9931883" lon="10.9899"><ele>804.8</ele><time>2026-04-04T11:39:56.334Z</time></trkpt><trkpt lat="43.99311" lon="10.9897933"><ele>801.4</ele><time>2026-04-04T11:39:58.334Z</time></trkpt><trkpt lat="43.9930517" lon="10.9896833"><ele>798.0</ele><time>2026-04-04T11:40:00.334Z</time></trkpt><trkpt lat="43.992975" lon="10.9895883"><ele>798.0</ele><time>2026-04-04T11:40:02.334Z</time></trkpt><trkpt lat="43.9928933" lon="10.989485"><ele>798.0</ele><time>2026-04-04T11:40:04.334Z</time></trkpt><trkpt lat="43.9928283" lon="10.989365"><ele>798.0</ele><time>2026-04-04T11:40:06.334Z</time></trkpt><trkpt lat="43.992775" lon="10.98922"><ele>798.0</ele><time>2026-04-04T11:40:08.334Z</time></trkpt><trkpt lat="43.9927333" lon="10.98908"><ele>798.0</ele><time>2026-04-04T11:40:10.334Z</time></trkpt><trkpt lat="43.9926983" lon="10.9889333"><ele>797.8</ele><time>2026-04-04T11:40:12.333Z</time></trkpt><trkpt lat="43.9926717" lon="10.98879"><ele>797.5999999999999</ele><time>2026-04-04T11:40:14.333Z</time></trkpt><trkpt lat="43.9926417" lon="10.9886517"><ele>797.4000000000001</ele><time>2026-04-04T11:40:16.332Z</time></trkpt><trkpt lat="43.9926083" lon="10.988505"><ele>797.2</ele><time>2026-04-04T11:40:18.333Z</time></trkpt><trkpt lat="43.9925667" lon="10.9883617"><ele>797.0</ele><time>2026-04-04T11:40:20.334Z</time></trkpt><trkpt lat="43.9925283" lon="10.9882183"><ele>791.8</ele><time>2026-04-04T11:40:22.334Z</time></trkpt><trkpt lat="43.9924983" lon="10.9880583"><ele>786.6</ele><time>2026-04-04T11:40:24.335Z</time></trkpt><trkpt lat="43.9924683" lon="10.987885"><ele>781.4</ele><time>2026-04-04T11:40:26.334Z</time></trkpt><trkpt lat="43.9924567" lon="10.9877917"><ele>776.1999999999999</ele><time>2026-04-04T11:40:27.334Z</time></trkpt><trkpt lat="43.9924217" lon="10.987645"><ele>771.0</ele><time>2026-04-04T11:40:29.332Z</time></trkpt><trkpt lat="43.992395" lon="10.987505"><ele>770.5714285714286</ele><time>2026-04-04T11:40:31.333Z</time></trkpt><trkpt lat="43.99237" lon="10.98742"><ele>770.1428571428571</ele><time>2026-04-04T11:40:32.332Z</time></trkpt><trkpt lat="43.992315" lon="10.9872833"><ele>769.7142857142857</ele><time>2026-04-04T11:40:34.334Z</time></trkpt><trkpt lat="43.9922817" lon="10.9872033"><ele>769.2857142857142</ele><time>2026-04-04T11:40:35.334Z</time></trkpt><trkpt lat="43.992245" lon="10.9871233"><ele>768.8571428571429</ele><time>2026-04-04T11:40:36.334Z</time></trkpt><trkpt lat="43.9922117" lon="10.9870483"><ele>768.4285714285713</ele><time>2026-04-04T11:40:37.335Z</time></trkpt><trkpt lat="43.9921683" lon="10.98697"><ele>768.0</ele><time>2026-04-04T11:40:38.334Z</time></trkpt><trkpt lat="43.992125" lon="10.986905"><ele>767.9999999999999</ele><time>2026-04-04T11:40:39.334Z</time></trkpt><trkpt lat="43.9920817" lon="10.9868283"><ele>768.0</ele><time>2026-04-04T11:40:40.333Z</time></trkpt><trkpt lat="43.9920367" lon="10.9867633"><ele>768.0</ele><time>2026-04-04T11:40:41.335Z</time></trkpt><trkpt lat="43.9919917" lon="10.9866867"><ele>768.0</ele><time>2026-04-04T11:40:42.335Z</time></trkpt><trkpt lat="43.99195" lon="10.98661"><ele>768.0</ele><time>2026-04-04T11:40:43.334Z</time></trkpt><trkpt lat="43.9919067" lon="10.9865283"><ele>767.9999999999999</ele><time>2026-04-04T11:40:44.333Z</time></trkpt><trkpt lat="43.991865" lon="10.986435"><ele>768.0</ele><time>2026-04-04T11:40:45.332Z</time></trkpt><trkpt lat="43.991815" lon="10.98635"><ele>766.3333333333334</ele><time>2026-04-04T11:40:46.335Z</time></trkpt><trkpt lat="43.9917667" lon="10.9862733"><ele>764.6666666666666</ele><time>2026-04-04T11:40:47.333Z</time></trkpt><trkpt lat="43.991725" lon="10.9861883"><ele>763.0</ele><time>2026-04-04T11:40:48.335Z</time></trkpt><trkpt lat="43.99168" lon="10.986105"><ele>761.3333333333333</ele><time>2026-04-04T11:40:49.334Z</time></trkpt><trkpt lat="43.9916283" lon="10.9860133"><ele>759.6666666666666</ele><time>2026-04-04T11:40:50.334Z</time></trkpt><trkpt lat="43.991575" lon="10.9859267"><ele>758.0</ele><time>2026-04-04T11:40:51.333Z</time></trkpt><trkpt lat="43.991525" lon="10.9858533"><ele>755.0</ele><time>2026-04-04T11:40:52.335Z</time></trkpt><trkpt lat="43.9914617" lon="10.9857617"><ele>752.0</ele><time>2026-04-04T11:40:54.334Z</time></trkpt><trkpt lat="43.99144" lon="10.985645"><ele>749.0</ele><time>2026-04-04T11:41:44.334Z</time></trkpt><trkpt lat="43.9915333" lon="10.985645"><ele>746.0</ele><time>2026-04-04T11:41:47.334Z</time></trkpt><trkpt lat="43.9916383" lon="10.9857033"><ele>743.0</ele><time>2026-04-04T11:41:49.335Z</time></trkpt><trkpt lat="43.9917317" lon="10.985735"><ele>741.5999999999999</ele><time>2026-04-04T11:41:50.333Z</time></trkpt><trkpt lat="43.99182" lon="10.9857817"><ele>740.1999999999999</ele><time>2026-04-04T11:41:51.334Z</time></trkpt><trkpt lat="43.9919033" lon="10.9858167"><ele>738.8</ele><time>2026-04-04T11:41:52.335Z</time></trkpt><trkpt lat="43.991985" lon="10.9858767"><ele>737.4</ele><time>2026-04-04T11:41:53.334Z</time></trkpt><trkpt lat="43.9920717" lon="10.985955"><ele>736.0</ele><time>2026-04-04T11:41:54.334Z</time></trkpt><trkpt lat="43.992175" lon="10.9860383"><ele>736.75</ele><time>2026-04-04T11:41:55.334Z</time></trkpt><trkpt lat="43.992285" lon="10.9861217"><ele>737.5</ele><time>2026-04-04T11:41:56.334Z</time></trkpt><trkpt lat="43.9923867" lon="10.9861933"><ele>738.25</ele><time>2026-04-04T11:41:57.334Z</time></trkpt><trkpt lat="43.992485" lon="10.9862567"><ele>739.0</ele><time>2026-04-04T11:41:58.333Z</time></trkpt><trkpt lat="43.9925817" lon="10.98633"><ele>739.0</ele><time>2026-04-04T11:41:59.334Z</time></trkpt><trkpt lat="43.99268" lon="10.9863933"><ele>739.0</ele><time>2026-04-04T11:42:00.333Z</time></trkpt><trkpt lat="43.9927767" lon="10.9864517"><ele>739.0</ele><time>2026-04-04T11:42:01.335Z</time></trkpt><trkpt lat="43.9928667" lon="10.9865083"><ele>739.0</ele><time>2026-04-04T11:42:02.335Z</time></trkpt><trkpt lat="43.9929517" lon="10.986565"><ele>739.0</ele><time>2026-04-04T11:42:03.335Z</time></trkpt><trkpt lat="43.993025" lon="10.986625"><ele>739.1666666666667</ele><time>2026-04-04T11:42:04.334Z</time></trkpt><trkpt lat="43.9930967" lon="10.9866867"><ele>739.3333333333334</ele><time>2026-04-04T11:42:05.335Z</time></trkpt><trkpt lat="43.9931667" lon="10.9867517"><ele>739.5</ele><time>2026-04-04T11:42:06.335Z</time></trkpt><trkpt lat="43.99324" lon="10.9868233"><ele>739.6666666666666</ele><time>2026-04-04T11:42:07.335Z</time></trkpt><trkpt lat="43.9933117" lon="10.9869067"><ele>739.8333333333333</ele><time>2026-04-04T11:42:08.334Z</time></trkpt><trkpt lat="43.993375" lon="10.9870083"><ele>740.0</ele><time>2026-04-04T11:42:09.334Z</time></trkpt><trkpt lat="43.993435" lon="10.9871133"><ele>740.0</ele><time>2026-04-04T11:42:10.335Z</time></trkpt><trkpt lat="43.9934917" lon="10.9872283"><ele>740.0</ele><time>2026-04-04T11:42:11.335Z</time></trkpt><trkpt lat="43.9935433" lon="10.98733"><ele>740.0</ele><time>2026-04-04T11:42:12.335Z</time></trkpt><trkpt lat="43.9935933" lon="10.9874167"><ele>740.0</ele><time>2026-04-04T11:42:13.335Z</time></trkpt><trkpt lat="43.9936533" lon="10.987475"><ele>740.0</ele><time>2026-04-04T11:42:14.335Z</time></trkpt><trkpt lat="43.9937183" lon="10.9875233"><ele>740.0</ele><time>2026-04-04T11:42:15.334Z</time></trkpt><trkpt lat="43.993785" lon="10.9875717"><ele>743.5</ele><time>2026-04-04T11:42:16.334Z</time></trkpt><trkpt lat="43.9938583" lon="10.9876317"><ele>747.0</ele><time>2026-04-04T11:42:17.336Z</time></trkpt><trkpt lat="43.9939233" lon="10.9876767"><ele>750.5</ele><time>2026-04-04T11:42:18.336Z</time></trkpt><trkpt lat="43.9939933" lon="10.98773"><ele>754.0</ele><time>2026-04-04T11:42:19.335Z</time></trkpt><trkpt lat="43.9940517" lon="10.9877917"><ele>757.5</ele><time>2026-04-04T11:42:20.335Z</time></trkpt><trkpt lat="43.99411" lon="10.9878633"><ele>761.0</ele><time>2026-04-04T11:42:21.335Z</time></trkpt><trkpt lat="43.9941683" lon="10.98795"><ele>758.0</ele><time>2026-04-04T11:42:22.335Z</time></trkpt><trkpt lat="43.9942117" lon="10.9880633"><ele>755.0</ele><time>2026-04-04T11:42:23.334Z</time></trkpt><trkpt lat="43.9942467" lon="10.9881733"><ele>752.0</ele><time>2026-04-04T11:42:24.334Z</time></trkpt><trkpt lat="43.994275" lon="10.9882817"><ele>749.0</ele><time>2026-04-04T11:42:25.335Z</time></trkpt><trkpt lat="43.9943033" lon="10.9883783"><ele>746.0</ele><time>2026-04-04T11:42:26.334Z</time></trkpt><trkpt lat="43.9943367" lon="10.98847"><ele>743.0</ele><time>2026-04-04T11:42:27.335Z</time></trkpt><trkpt lat="43.9943817" lon="10.9885633"><ele>743.0</ele><time>2026-04-04T11:42:28.335Z</time></trkpt><trkpt lat="43.9944317" lon="10.9886617"><ele>743.0</ele><time>2026-04-04T11:42:29.334Z</time></trkpt><trkpt lat="43.9944717" lon="10.9887583"><ele>743.0</ele><time>2026-04-04T11:42:30.334Z</time></trkpt><trkpt lat="43.9945333" lon="10.988855"><ele>743.0</ele><time>2026-04-04T11:42:31.335Z</time></trkpt><trkpt lat="43.9945867" lon="10.9889533"><ele>743.0</ele><time>2026-04-04T11:42:32.334Z</time></trkpt><trkpt lat="43.99464" lon="10.9890383"><ele>743.0</ele><time>2026-04-04T11:42:33.334Z</time></trkpt><trkpt lat="43.99469" lon="10.989125"><ele>743.5714285714286</ele><time>2026-04-04T11:42:34.335Z</time></trkpt><trkpt lat="43.9947383" lon="10.9891933"><ele>744.1428571428571</ele><time>2026-04-04T11:42:35.334Z</time></trkpt><trkpt lat="43.994785" lon="10.9892583"><ele>744.7142857142857</ele><time>2026-04-04T11:42:36.334Z</time></trkpt><trkpt lat="43.9948383" lon="10.9893233"><ele>745.2857142857142</ele><time>2026-04-04T11:42:37.336Z</time></trkpt><trkpt lat="43.9949017" lon="10.9893817"><ele>745.8571428571429</ele><time>2026-04-04T11:42:38.334Z</time></trkpt><trkpt lat="43.9949617" lon="10.9894467"><ele>746.4285714285713</ele><time>2026-04-04T11:42:39.335Z</time></trkpt><trkpt lat="43.9950317" lon="10.9895117"><ele>747.0</ele><time>2026-04-04T11:42:40.334Z</time></trkpt><trkpt lat="43.9951033" lon="10.98957"><ele>747.0</ele><time>2026-04-04T11:42:41.335Z</time></trkpt><trkpt lat="43.9951683" lon="10.9896267"><ele>747.0</ele><time>2026-04-04T11:42:42.335Z</time></trkpt><trkpt lat="43.9952433" lon="10.9896617"><ele>747.0</ele><time>2026-04-04T11:42:43.334Z</time></trkpt><trkpt lat="43.9953233" lon="10.9896817"><ele>747.0</ele><time>2026-04-04T11:42:44.334Z</time></trkpt><trkpt lat="43.9954717" lon="10.9897433"><ele>747.0</ele><time>2026-04-04T11:42:46.335Z</time></trkpt><trkpt lat="43.9955667" lon="10.98979"><ele>747.0</ele><time>2026-04-04T11:42:47.334Z</time></trkpt><trkpt lat="43.9956567" lon="10.98985"><ele>747.0</ele><time>2026-04-04T11:42:48.336Z</time></trkpt><trkpt lat="43.9957417" lon="10.98993"><ele>747.0</ele><time>2026-04-04T11:42:49.336Z</time></trkpt><trkpt lat="43.9958267" lon="10.9900283"><ele>747.0</ele><time>2026-04-04T11:42:50.333Z</time></trkpt><trkpt lat="43.9958967" lon="10.9901417"><ele>747.0</ele><time>2026-04-04T11:42:51.335Z</time></trkpt><trkpt lat="43.9959667" lon="10.99026"><ele>746.2</ele><time>2026-04-04T11:42:52.335Z</time></trkpt><trkpt lat="43.9960283" lon="10.9903733"><ele>745.4000000000001</ele><time>2026-04-04T11:42:53.335Z</time></trkpt><trkpt lat="43.9960917" lon="10.99048"><ele>744.5999999999999</ele><time>2026-04-04T11:42:54.335Z</time></trkpt><trkpt lat="43.9961583" lon="10.9905817"><ele>743.8</ele><time>2026-04-04T11:42:55.336Z</time></trkpt><trkpt lat="43.9962133" lon="10.9906917"><ele>743.0</ele><time>2026-04-04T11:42:56.335Z</time></trkpt><trkpt lat="43.9962767" lon="10.99079"><ele>748.8333333333333</ele><time>2026-04-04T11:42:57.335Z</time></trkpt><trkpt lat="43.9963317" lon="10.99087"><ele>754.6666666666666</ele><time>2026-04-04T11:42:58.335Z</time></trkpt><trkpt lat="43.9963767" lon="10.990945"><ele>760.5</ele><time>2026-04-04T11:42:59.335Z</time></trkpt><trkpt lat="43.9964217" lon="10.991015"><ele>766.3333333333333</ele><time>2026-04-04T11:43:00.334Z</time></trkpt><trkpt lat="43.9964683" lon="10.99108"><ele>772.1666666666666</ele><time>2026-04-04T11:43:01.335Z</time></trkpt><trkpt lat="43.9965217" lon="10.9911417"><ele>778.0</ele><time>2026-04-04T11:43:02.334Z</time></trkpt><trkpt lat="43.9966117" lon="10.9912183"><ele>779.75</ele><time>2026-04-04T11:43:04.334Z</time></trkpt><trkpt lat="43.9967067" lon="10.9912667"><ele>781.5</ele><time>2026-04-04T11:43:06.334Z</time></trkpt><trkpt lat="43.996825" lon="10.9913033"><ele>783.25</ele><time>2026-04-04T11:43:08.334Z</time></trkpt><trkpt lat="43.9969417" lon="10.9913267"><ele>785.0</ele><time>2026-04-04T11:43:10.335Z</time></trkpt><trkpt lat="43.9970583" lon="10.991275"><ele>785.0000000000001</ele><time>2026-04-04T11:43:12.335Z</time></trkpt><trkpt lat="43.9971283" lon="10.9912367"><ele>785.0</ele><time>2026-04-04T11:43:13.335Z</time></trkpt><trkpt lat="43.9972017" lon="10.9911983"><ele>785.0</ele><time>2026-04-04T11:43:14.333Z</time></trkpt><trkpt lat="43.9972767" lon="10.991165"><ele>785.0</ele><time>2026-04-04T11:43:15.334Z</time></trkpt><trkpt lat="43.99734" lon="10.99114"><ele>785.0000000000001</ele><time>2026-04-04T11:43:16.336Z</time></trkpt><trkpt lat="43.9974633" lon="10.9911417"><ele>785.0</ele><time>2026-04-04T11:43:18.335Z</time></trkpt><trkpt lat="43.997535" lon="10.9911817"><ele>787.3333333333334</ele><time>2026-04-04T11:43:19.335Z</time></trkpt><trkpt lat="43.99761" lon="10.9912217"><ele>789.6666666666667</ele><time>2026-04-04T11:43:20.335Z</time></trkpt><trkpt lat="43.9976833" lon="10.9912567"><ele>792.0</ele><time>2026-04-04T11:43:21.335Z</time></trkpt><trkpt lat="43.9977733" lon="10.9912833"><ele>794.3333333333333</ele><time>2026-04-04T11:43:22.335Z</time></trkpt><trkpt lat="43.9978583" lon="10.9913083"><ele>796.6666666666666</ele><time>2026-04-04T11:43:23.336Z</time></trkpt><trkpt lat="43.9979367" lon="10.9913367"><ele>799.0</ele><time>2026-04-04T11:43:24.335Z</time></trkpt><trkpt lat="43.9979983" lon="10.9913733"><ele>799.0</ele><time>2026-04-04T11:43:25.336Z</time></trkpt><trkpt lat="43.9981033" lon="10.991385"><ele>799.0</ele><time>2026-04-04T11:43:27.335Z</time></trkpt><trkpt lat="43.9981683" lon="10.9913533"><ele>799.0</ele><time>2026-04-04T11:43:29.335Z</time></trkpt><trkpt lat="43.9981333" lon="10.9911833"><ele>799.0</ele><time>2026-04-04T11:43:31.335Z</time></trkpt><trkpt lat="43.9981" lon="10.9910617"><ele>799.0</ele><time>2026-04-04T11:43:32.335Z</time></trkpt><trkpt lat="43.99807" lon="10.9909533"><ele>798.9999999999999</ele><time>2026-04-04T11:43:33.333Z</time></trkpt><trkpt lat="43.9980467" lon="10.9908483"><ele>799.0</ele><time>2026-04-04T11:43:34.335Z</time></trkpt><trkpt lat="43.99802" lon="10.99075"><ele>799.0</ele><time>2026-04-04T11:43:35.335Z</time></trkpt><trkpt lat="43.9979983" lon="10.99065"><ele>799.0</ele><time>2026-04-04T11:43:36.334Z</time></trkpt><trkpt lat="43.9979817" lon="10.990555"><ele>798.9999999999999</ele><time>2026-04-04T11:43:37.336Z</time></trkpt><trkpt lat="43.9979733" lon="10.9904"><ele>799.0</ele><time>2026-04-04T11:43:39.333Z</time></trkpt><trkpt lat="43.9980233" lon="10.9902633"><ele>797.9999999999999</ele><time>2026-04-04T11:43:41.335Z</time></trkpt><trkpt lat="43.9980433" lon="10.990115"><ele>797.0</ele><time>2026-04-04T11:43:43.336Z</time></trkpt><trkpt lat="43.9980317" lon="10.9900283"><ele>796.0</ele><time>2026-04-04T11:43:44.334Z</time></trkpt><trkpt lat="43.9980183" lon="10.98994"><ele>795.0</ele><time>2026-04-04T11:43:45.334Z</time></trkpt><trkpt lat="43.9979583" lon="10.9898483"><ele>793.9999999999999</ele><time>2026-04-04T11:43:46.335Z</time></trkpt><trkpt lat="43.9979067" lon="10.989745"><ele>793.0</ele><time>2026-04-04T11:43:47.335Z</time></trkpt><trkpt lat="43.9978533" lon="10.989645"><ele>792.9999999999999</ele><time>2026-04-04T11:43:48.335Z</time></trkpt><trkpt lat="43.9977983" lon="10.9895483"><ele>793.0</ele><time>2026-04-04T11:43:49.336Z</time></trkpt><trkpt lat="43.9977667" lon="10.9894667"><ele>793.0</ele><time>2026-04-04T11:43:50.337Z</time></trkpt><trkpt lat="43.9977717" lon="10.9893633"><ele>793.0</ele><time>2026-04-04T11:43:51.334Z</time></trkpt><trkpt lat="43.99778" lon="10.989245"><ele>792.9999999999999</ele><time>2026-04-04T11:43:52.335Z</time></trkpt><trkpt lat="43.997805" lon="10.98912"><ele>793.0</ele><time>2026-04-04T11:43:53.335Z</time></trkpt><trkpt lat="43.9978217" lon="10.989005"><ele>793.9999999999999</ele><time>2026-04-04T11:43:54.334Z</time></trkpt><trkpt lat="43.99784" lon="10.98888"><ele>795.0</ele><time>2026-04-04T11:43:55.336Z</time></trkpt><trkpt lat="43.9978383" lon="10.98876"><ele>796.0</ele><time>2026-04-04T11:43:56.335Z</time></trkpt><trkpt lat="43.997825" lon="10.98865"><ele>797.0</ele><time>2026-04-04T11:43:57.334Z</time></trkpt><trkpt lat="43.9977967" lon="10.9885517"><ele>797.9999999999999</ele><time>2026-04-04T11:43:58.334Z</time></trkpt><trkpt lat="43.9977517" lon="10.9884667"><ele>799.0</ele><time>2026-04-04T11:43:59.335Z</time></trkpt><trkpt lat="43.99768" lon="10.988395"><ele>799.8333333333333</ele><time>2026-04-04T11:44:00.335Z</time></trkpt><trkpt lat="43.9976017" lon="10.9883283"><ele>800.6666666666666</ele><time>2026-04-04T11:44:01.336Z</time></trkpt><trkpt lat="43.99753" lon="10.98826"><ele>801.5</ele><time>2026-04-04T11:44:02.335Z</time></trkpt><trkpt lat="43.997475" lon="10.9881733"><ele>802.3333333333333</ele><time>2026-04-04T11:44:03.333Z</time></trkpt><trkpt lat="43.997445" lon="10.9880783"><ele>803.1666666666666</ele><time>2026-04-04T11:44:04.335Z</time></trkpt><trkpt lat="43.99742" lon="10.9879933"><ele>804.0</ele><time>2026-04-04T11:44:05.334Z</time></trkpt><trkpt lat="43.9974117" lon="10.9878217"><ele>804.0</ele><time>2026-04-04T11:44:07.334Z</time></trkpt><trkpt lat="43.9974333" lon="10.987735"><ele>804.0</ele><time>2026-04-04T11:44:08.332Z</time></trkpt><trkpt lat="43.9974967" lon="10.9876433"><ele>804.0</ele><time>2026-04-04T11:44:09.332Z</time></trkpt><trkpt lat="43.9975417" lon="10.9875683"><ele>804.0</ele><time>2026-04-04T11:44:10.335Z</time></trkpt><trkpt lat="43.9975917" lon="10.987495"><ele>804.0</ele><time>2026-04-04T11:44:11.332Z</time></trkpt><trkpt lat="43.9976617" lon="10.9874233"><ele>804.0</ele><time>2026-04-04T11:44:12.333Z</time></trkpt><trkpt lat="43.9977433" lon="10.9873583"><ele>803.8000000000001</ele><time>2026-04-04T11:44:13.333Z</time></trkpt><trkpt lat="43.997805" lon="10.987305"><ele>803.6</ele><time>2026-04-04T11:44:14.332Z</time></trkpt><trkpt lat="43.997875" lon="10.9872633"><ele>803.4</ele><time>2026-04-04T11:44:15.332Z</time></trkpt><trkpt lat="43.9979517" lon="10.9872283"><ele>803.2</ele><time>2026-04-04T11:44:17.332Z</time></trkpt><trkpt lat="43.9980333" lon="10.987225"><ele>803.0</ele><time>2026-04-04T11:44:19.336Z</time></trkpt><trkpt lat="43.9979417" lon="10.987435"><ele>803.1666666666667</ele><time>2026-04-04T11:44:23.333Z</time></trkpt><trkpt lat="43.9978767" lon="10.987555"><ele>803.3333333333334</ele><time>2026-04-04T11:44:24.334Z</time></trkpt><trkpt lat="43.9978317" lon="10.98768"><ele>803.5</ele><time>2026-04-04T11:44:25.334Z</time></trkpt><trkpt lat="43.99781" lon="10.9877933"><ele>803.6666666666667</ele><time>2026-04-04T11:44:26.333Z</time></trkpt><trkpt lat="43.9978217" lon="10.9878967"><ele>803.8333333333334</ele><time>2026-04-04T11:44:27.333Z</time></trkpt><trkpt lat="43.9978583" lon="10.9879717"><ele>804.0</ele><time>2026-04-04T11:44:28.335Z</time></trkpt><trkpt lat="43.9979267" lon="10.9880117"><ele>804.0</ele><time>2026-04-04T11:44:29.334Z</time></trkpt><trkpt lat="43.9979983" lon="10.9880633"><ele>804.0</ele><time>2026-04-04T11:44:30.333Z</time></trkpt><trkpt lat="43.9980867" lon="10.9881183"><ele>804.0</ele><time>2026-04-04T11:44:31.335Z</time></trkpt><trkpt lat="43.9981633" lon="10.98819"><ele>804.0</ele><time>2026-04-04T11:44:32.332Z</time></trkpt><trkpt lat="43.9982217" lon="10.9882883"><ele>804.0</ele><time>2026-04-04T11:44:33.333Z</time></trkpt><trkpt lat="43.9982633" lon="10.9884283"><ele>802.75</ele><time>2026-04-04T11:44:34.332Z</time></trkpt><trkpt lat="43.998295" lon="10.9886083"><ele>801.5</ele><time>2026-04-04T11:44:35.333Z</time></trkpt><trkpt lat="43.99831" lon="10.98879"><ele>800.25</ele><time>2026-04-04T11:44:36.335Z</time></trkpt><trkpt lat="43.9983167" lon="10.98897"><ele>799.0</ele><time>2026-04-04T11:44:37.334Z</time></trkpt><trkpt lat="43.998325" lon="10.989145"><ele>805.8000000000001</ele><time>2026-04-04T11:44:38.332Z</time></trkpt><trkpt lat="43.99835" lon="10.9892883"><ele>812.6</ele><time>2026-04-04T11:44:39.333Z</time></trkpt><trkpt lat="43.99839" lon="10.9894017"><ele>819.4</ele><time>2026-04-04T11:44:40.334Z</time></trkpt><trkpt lat="43.9984367" lon="10.9895083"><ele>826.2</ele><time>2026-04-04T11:44:41.333Z</time></trkpt><trkpt lat="43.9984933" lon="10.9896167"><ele>833.0</ele><time>2026-04-04T11:44:42.333Z</time></trkpt><trkpt lat="43.9985617" lon="10.989725"><ele>833.0</ele><time>2026-04-04T11:44:43.334Z</time></trkpt><trkpt lat="43.9986233" lon="10.9898467"><ele>833.0</ele><time>2026-04-04T11:44:44.333Z</time></trkpt><trkpt lat="43.9986933" lon="10.98995"><ele>833.0</ele><time>2026-04-04T11:44:45.332Z</time></trkpt><trkpt lat="43.9987633" lon="10.9900533"><ele>833.0</ele><time>2026-04-04T11:44:46.334Z</time></trkpt><trkpt lat="43.9988183" lon="10.9901617"><ele>833.0</ele><time>2026-04-04T11:44:47.334Z</time></trkpt><trkpt lat="43.9988783" lon="10.9902433"><ele>833.0000000000001</ele><time>2026-04-04T11:44:48.333Z</time></trkpt><trkpt lat="43.99892" lon="10.9903233"><ele>833.0</ele><time>2026-04-04T11:44:49.333Z</time></trkpt><trkpt lat="43.998965" lon="10.990385"><ele>833.0</ele><time>2026-04-04T11:44:50.332Z</time></trkpt><trkpt lat="43.99904" lon="10.9904217"><ele>833.0</ele><time>2026-04-04T11:44:52.334Z</time></trkpt><trkpt lat="43.9990683" lon="10.99028"><ele>833.0000000000001</ele><time>2026-04-04T11:44:54.334Z</time></trkpt><trkpt lat="43.9990433" lon="10.9901633"><ele>833.0</ele><time>2026-04-04T11:44:55.332Z</time></trkpt><trkpt lat="43.9989533" lon="10.9899283"><ele>833.0</ele><time>2026-04-04T11:44:56.334Z</time></trkpt><trkpt lat="43.998885" lon="10.9897433"><ele>833.0</ele><time>2026-04-04T11:44:57.332Z</time></trkpt><trkpt lat="43.99884" lon="10.98958"><ele>833.0</ele><time>2026-04-04T11:44:58.335Z</time></trkpt><trkpt lat="43.9988067" lon="10.98941"><ele>833.0</ele><time>2026-04-04T11:44:59.334Z</time></trkpt><trkpt lat="43.9988033" lon="10.9892467"><ele>835.75</ele><time>2026-04-04T11:45:00.333Z</time></trkpt><trkpt lat="43.998815" lon="10.989075"><ele>838.5</ele><time>2026-04-04T11:45:01.334Z</time></trkpt><trkpt lat="43.9988383" lon="10.988905"><ele>841.25</ele><time>2026-04-04T11:45:02.333Z</time></trkpt><trkpt lat="43.9988617" lon="10.9887233"><ele>844.0</ele><time>2026-04-04T11:45:03.333Z</time></trkpt><trkpt lat="43.998875" lon="10.98854"><ele>844.0</ele><time>2026-04-04T11:45:04.334Z</time></trkpt><trkpt lat="43.998885" lon="10.988375"><ele>844.0</ele><time>2026-04-04T11:45:05.334Z</time></trkpt><trkpt lat="43.99888" lon="10.9882017"><ele>844.0</ele><time>2026-04-04T11:45:06.333Z</time></trkpt><trkpt lat="43.9988683" lon="10.9880183"><ele>844.0</ele><time>2026-04-04T11:45:07.333Z</time></trkpt><trkpt lat="43.9988517" lon="10.9878367"><ele>845.25</ele><time>2026-04-04T11:45:08.334Z</time></trkpt><trkpt lat="43.9988317" lon="10.9876483"><ele>846.5</ele><time>2026-04-04T11:45:09.334Z</time></trkpt><trkpt lat="43.9988133" lon="10.9874583"><ele>847.75</ele><time>2026-04-04T11:45:10.335Z</time></trkpt><trkpt lat="43.9988" lon="10.9872817"><ele>849.0</ele><time>2026-04-04T11:45:11.333Z</time></trkpt><trkpt lat="43.9988" lon="10.9871383"><ele>849.2</ele><time>2026-04-04T11:45:12.334Z</time></trkpt><trkpt lat="43.9988017" lon="10.9869917"><ele>849.4000000000001</ele><time>2026-04-04T11:45:13.333Z</time></trkpt><trkpt lat="43.9988133" lon="10.986845"><ele>849.6</ele><time>2026-04-04T11:45:14.334Z</time></trkpt><trkpt lat="43.9988367" lon="10.986695"><ele>849.8</ele><time>2026-04-04T11:45:15.334Z</time></trkpt><trkpt lat="43.99887" lon="10.9865517"><ele>850.0</ele><time>2026-04-04T11:45:16.334Z</time></trkpt><trkpt lat="43.99889" lon="10.986425"><ele>849.9999999999999</ele><time>2026-04-04T11:45:17.334Z</time></trkpt><trkpt lat="43.9989083" lon="10.98631"><ele>850.0</ele><time>2026-04-04T11:45:18.334Z</time></trkpt><trkpt lat="43.9989117" lon="10.9861983"><ele>850.0</ele><time>2026-04-04T11:45:19.334Z</time></trkpt><trkpt lat="43.9989033" lon="10.986095"><ele>850.0</ele><time>2026-04-04T11:45:20.333Z</time></trkpt><trkpt lat="43.9988783" lon="10.985995"><ele>849.9999999999999</ele><time>2026-04-04T11:45:21.333Z</time></trkpt><trkpt lat="43.9988567" lon="10.98588"><ele>850.0</ele><time>2026-04-04T11:45:22.333Z</time></trkpt><trkpt lat="43.9988367" lon="10.9857617"><ele>848.4</ele><time>2026-04-04T11:45:23.333Z</time></trkpt><trkpt lat="43.9988367" lon="10.9856317"><ele>846.8</ele><time>2026-04-04T11:45:24.332Z</time></trkpt><trkpt lat="43.9988483" lon="10.9854917"><ele>845.2</ele><time>2026-04-04T11:45:25.335Z</time></trkpt><trkpt lat="43.9988683" lon="10.98536"><ele>843.6</ele><time>2026-04-04T11:45:26.334Z</time></trkpt><trkpt lat="43.9989" lon="10.9852333"><ele>842.0</ele><time>2026-04-04T11:45:27.332Z</time></trkpt><trkpt lat="43.9989367" lon="10.9851333"><ele>842.0</ele><time>2026-04-04T11:45:28.335Z</time></trkpt><trkpt lat="43.998985" lon="10.9850417"><ele>842.0</ele><time>2026-04-04T11:45:29.335Z</time></trkpt><trkpt lat="43.9990533" lon="10.984965"><ele>842.0</ele><time>2026-04-04T11:45:30.334Z</time></trkpt><trkpt lat="43.999165" lon="10.9848983"><ele>842.0</ele><time>2026-04-04T11:45:31.334Z</time></trkpt><trkpt lat="43.9992967" lon="10.98484"><ele>842.0</ele><time>2026-04-04T11:45:32.334Z</time></trkpt><trkpt lat="43.999415" lon="10.9847717"><ele>845.4000000000001</ele><time>2026-04-04T11:45:33.334Z</time></trkpt><trkpt lat="43.9995217" lon="10.9847083"><ele>848.8000000000001</ele><time>2026-04-04T11:45:34.334Z</time></trkpt><trkpt lat="43.9996067" lon="10.9846467"><ele>852.2</ele><time>2026-04-04T11:45:35.333Z</time></trkpt><trkpt lat="43.999695" lon="10.9845833"><ele>855.6</ele><time>2026-04-04T11:45:36.334Z</time></trkpt><trkpt lat="43.999785" lon="10.9845333"><ele>859.0</ele><time>2026-04-04T11:45:37.335Z</time></trkpt><trkpt lat="43.99988" lon="10.984485"><ele>859.0</ele><time>2026-04-04T11:45:38.333Z</time></trkpt><trkpt lat="43.9999833" lon="10.9844533"><ele>859.0000000000001</ele><time>2026-04-04T11:45:39.334Z</time></trkpt><trkpt lat="44.0000983" lon="10.984425"><ele>859.0000000000001</ele><time>2026-04-04T11:45:40.334Z</time></trkpt><trkpt lat="44.000205" lon="10.9844017"><ele>859.0</ele><time>2026-04-04T11:45:41.334Z</time></trkpt><trkpt lat="44.000305" lon="10.98438"><ele>859.0</ele><time>2026-04-04T11:45:42.335Z</time></trkpt><trkpt lat="44.0004217" lon="10.9843733"><ele>859.0</ele><time>2026-04-04T11:45:43.334Z</time></trkpt><trkpt lat="44.0005217" lon="10.9843667"><ele>859.0000000000001</ele><time>2026-04-04T11:45:44.334Z</time></trkpt><trkpt lat="44.000635" lon="10.98437"><ele>859.0000000000001</ele><time>2026-04-04T11:45:45.334Z</time></trkpt><trkpt lat="44.0007433" lon="10.9843683"><ele>859.0</ele><time>2026-04-04T11:45:46.334Z</time></trkpt><trkpt lat="44.0008483" lon="10.98437"><ele>859.0</ele><time>2026-04-04T11:45:47.333Z</time></trkpt><trkpt lat="44.0009683" lon="10.98439"><ele>862.25</ele><time>2026-04-04T11:45:48.333Z</time></trkpt><trkpt lat="44.0010833" lon="10.98442"><ele>865.5</ele><time>2026-04-04T11:45:49.335Z</time></trkpt><trkpt lat="44.0012033" lon="10.9844483"><ele>868.75</ele><time>2026-04-04T11:45:50.334Z</time></trkpt><trkpt lat="44.0013117" lon="10.9844867"><ele>872.0</ele><time>2026-04-04T11:45:51.334Z</time></trkpt><trkpt lat="44.0014333" lon="10.9845333"><ele>872.0</ele><time>2026-04-04T11:45:52.334Z</time></trkpt><trkpt lat="44.0015467" lon="10.984575"><ele>872.0</ele><time>2026-04-04T11:45:53.334Z</time></trkpt><trkpt lat="44.001645" lon="10.98462"><ele>872.0</ele><time>2026-04-04T11:45:54.334Z</time></trkpt><trkpt lat="44.0017533" lon="10.9846567"><ele>872.0</ele><time>2026-04-04T11:45:55.335Z</time></trkpt><trkpt lat="44.0018583" lon="10.9847033"><ele>872.0</ele><time>2026-04-04T11:45:56.334Z</time></trkpt><trkpt lat="44.001965" lon="10.9847533"><ele>871.8</ele><time>2026-04-04T11:45:57.333Z</time></trkpt><trkpt lat="44.00208" lon="10.984795"><ele>871.6</ele><time>2026-04-04T11:45:58.335Z</time></trkpt><trkpt lat="44.002185" lon="10.98485"><ele>871.3999999999999</ele><time>2026-04-04T11:45:59.334Z</time></trkpt><trkpt lat="44.0022783" lon="10.9848883"><ele>871.1999999999999</ele><time>2026-04-04T11:46:00.333Z</time></trkpt><trkpt lat="44.00237" lon="10.9849167"><ele>871.0</ele><time>2026-04-04T11:46:01.334Z</time></trkpt><trkpt lat="44.0024633" lon="10.9849433"><ele>870.4999999999999</ele><time>2026-04-04T11:46:02.335Z</time></trkpt><trkpt lat="44.00255" lon="10.9849483"><ele>870.0</ele><time>2026-04-04T11:46:03.333Z</time></trkpt><trkpt lat="44.00263" lon="10.9849367"><ele>869.5</ele><time>2026-04-04T11:46:04.334Z</time></trkpt><trkpt lat="44.0027133" lon="10.9849383"><ele>869.0</ele><time>2026-04-04T11:46:05.335Z</time></trkpt><trkpt lat="44.002795" lon="10.984915"><ele>868.4999999999999</ele><time>2026-04-04T11:46:06.335Z</time></trkpt><trkpt lat="44.0028817" lon="10.9848833"><ele>868.0</ele><time>2026-04-04T11:46:07.334Z</time></trkpt><trkpt lat="44.002965" lon="10.98483"><ele>867.9999999999999</ele><time>2026-04-04T11:46:08.334Z</time></trkpt><trkpt lat="44.0030483" lon="10.9847817"><ele>868.0</ele><time>2026-04-04T11:46:09.333Z</time></trkpt><trkpt lat="44.0031267" lon="10.9847317"><ele>868.0</ele><time>2026-04-04T11:46:10.334Z</time></trkpt><trkpt lat="44.003195" lon="10.9846983"><ele>868.0</ele><time>2026-04-04T11:46:11.335Z</time></trkpt><trkpt lat="44.0032633" lon="10.98468"><ele>867.9999999999999</ele><time>2026-04-04T11:46:12.334Z</time></trkpt><trkpt lat="44.0033433" lon="10.9846667"><ele>868.0</ele><time>2026-04-04T11:46:13.335Z</time></trkpt><trkpt lat="44.0034133" lon="10.984675"><ele>868.1666666666666</ele><time>2026-04-04T11:46:14.334Z</time></trkpt><trkpt lat="44.0034783" lon="10.9846933"><ele>868.3333333333333</ele><time>2026-04-04T11:46:15.332Z</time></trkpt><trkpt lat="44.003525" lon="10.9847717"><ele>868.5</ele><time>2026-04-04T11:46:16.334Z</time></trkpt><trkpt lat="44.0035717" lon="10.9848717"><ele>868.6666666666667</ele><time>2026-04-04T11:46:17.334Z</time></trkpt><trkpt lat="44.0036067" lon="10.984985"><ele>868.8333333333334</ele><time>2026-04-04T11:46:18.333Z</time></trkpt><trkpt lat="44.0036383" lon="10.9851033"><ele>869.0</ele><time>2026-04-04T11:46:19.334Z</time></trkpt><trkpt lat="44.00366" lon="10.9852383"><ele>874.2</ele><time>2026-04-04T11:46:20.334Z</time></trkpt><trkpt lat="44.003675" lon="10.98539"><ele>879.4000000000001</ele><time>2026-04-04T11:46:21.332Z</time></trkpt><trkpt lat="44.003695" lon="10.985535"><ele>884.6</ele><time>2026-04-04T11:46:22.335Z</time></trkpt><trkpt lat="44.003715" lon="10.9856867"><ele>889.8</ele><time>2026-04-04T11:46:23.334Z</time></trkpt><trkpt lat="44.00373" lon="10.9858283"><ele>895.0</ele><time>2026-04-04T11:46:24.334Z</time></trkpt><trkpt lat="44.00374" lon="10.9859317"><ele>899.5</ele><time>2026-04-04T11:46:25.334Z</time></trkpt><trkpt lat="44.003805" lon="10.986045"><ele>904.0</ele><time>2026-04-04T11:46:27.334Z</time></trkpt><trkpt lat="44.0038817" lon="10.9861283"><ele>908.5</ele><time>2026-04-04T11:46:29.336Z</time></trkpt><trkpt lat="44.0040167" lon="10.9861483"><ele>913.0</ele><time>2026-04-04T11:46:31.334Z</time></trkpt><trkpt lat="44.00413" lon="10.9861267"><ele>908.4</ele><time>2026-04-04T11:46:32.335Z</time></trkpt><trkpt lat="44.004265" lon="10.9861217"><ele>903.8</ele><time>2026-04-04T11:46:34.335Z</time></trkpt><trkpt lat="44.004365" lon="10.9861283"><ele>899.2</ele><time>2026-04-04T11:46:35.334Z</time></trkpt><trkpt lat="44.0044533" lon="10.9861517"><ele>894.6</ele><time>2026-04-04T11:46:36.335Z</time></trkpt><trkpt lat="44.0045233" lon="10.9861817"><ele>890.0</ele><time>2026-04-04T11:46:37.334Z</time></trkpt><trkpt lat="44.0045883" lon="10.98622"><ele>890.0000000000001</ele><time>2026-04-04T11:46:38.335Z</time></trkpt><trkpt lat="44.0046683" lon="10.986275"><ele>890.0</ele><time>2026-04-04T11:46:39.334Z</time></trkpt><trkpt lat="44.0047267" lon="10.9863217"><ele>890.0</ele><time>2026-04-04T11:46:40.335Z</time></trkpt><trkpt lat="44.0047883" lon="10.986435"><ele>890.0</ele><time>2026-04-04T11:46:42.335Z</time></trkpt><trkpt lat="44.0048317" lon="10.98657"><ele>890.0000000000001</ele><time>2026-04-04T11:46:44.334Z</time></trkpt><trkpt lat="44.004885" lon="10.98665"><ele>890.0</ele><time>2026-04-04T11:46:46.335Z</time></trkpt><trkpt lat="44.00499" lon="10.98664"><ele>890.5000000000001</ele><time>2026-04-04T11:46:48.334Z</time></trkpt><trkpt lat="44.0050883" lon="10.98657"><ele>891.0</ele><time>2026-04-04T11:46:50.333Z</time></trkpt><trkpt lat="44.00515" lon="10.9865317"><ele>891.5</ele><time>2026-04-04T11:46:51.333Z</time></trkpt><trkpt lat="44.0052333" lon="10.9864967"><ele>892.0</ele><time>2026-04-04T11:46:52.335Z</time></trkpt><trkpt lat="44.005315" lon="10.9864617"><ele>892.5000000000001</ele><time>2026-04-04T11:46:53.334Z</time></trkpt><trkpt lat="44.0054067" lon="10.986415"><ele>893.0</ele><time>2026-04-04T11:46:54.334Z</time></trkpt><trkpt lat="44.005505" lon="10.9863317"><ele>893.0</ele><time>2026-04-04T11:46:55.335Z</time></trkpt><trkpt lat="44.005595" lon="10.9862467"><ele>893.0</ele><time>2026-04-04T11:46:56.334Z</time></trkpt><trkpt lat="44.0056883" lon="10.9861717"><ele>893.0</ele><time>2026-04-04T11:46:57.335Z</time></trkpt><trkpt lat="44.0057883" lon="10.9861133"><ele>893.0</ele><time>2026-04-04T11:46:58.334Z</time></trkpt><trkpt lat="44.0058733" lon="10.986075"><ele>893.0</ele><time>2026-04-04T11:46:59.335Z</time></trkpt><trkpt lat="44.0059567" lon="10.986055"><ele>895.4</ele><time>2026-04-04T11:47:00.334Z</time></trkpt><trkpt lat="44.0060483" lon="10.9860667"><ele>897.8</ele><time>2026-04-04T11:47:01.334Z</time></trkpt><trkpt lat="44.006135" lon="10.9860933"><ele>900.2</ele><time>2026-04-04T11:47:02.335Z</time></trkpt><trkpt lat="44.00621" lon="10.9861567"><ele>902.6</ele><time>2026-04-04T11:47:03.334Z</time></trkpt><trkpt lat="44.006275" lon="10.9862567"><ele>905.0</ele><time>2026-04-04T11:47:04.334Z</time></trkpt><trkpt lat="44.00632" lon="10.986395"><ele>905.0000000000001</ele><time>2026-04-04T11:47:05.335Z</time></trkpt><trkpt lat="44.0063567" lon="10.9865517"><ele>905.0</ele><time>2026-04-04T11:47:06.335Z</time></trkpt><trkpt lat="44.00639" lon="10.9866867"><ele>905.0</ele><time>2026-04-04T11:47:07.334Z</time></trkpt><trkpt lat="44.0064267" lon="10.98679"><ele>905.0</ele><time>2026-04-04T11:47:08.333Z</time></trkpt><trkpt lat="44.006465" lon="10.98688"><ele>905.0000000000001</ele><time>2026-04-04T11:47:09.333Z</time></trkpt><trkpt lat="44.0065017" lon="10.9869583"><ele>905.0</ele><time>2026-04-04T11:47:10.335Z</time></trkpt><trkpt lat="44.0065817" lon="10.9870017"><ele>906.4</ele><time>2026-04-04T11:47:12.334Z</time></trkpt><trkpt lat="44.006645" lon="10.9868767"><ele>907.8</ele><time>2026-04-04T11:47:14.334Z</time></trkpt><trkpt lat="44.0066767" lon="10.9867717"><ele>909.2</ele><time>2026-04-04T11:47:15.335Z</time></trkpt><trkpt lat="44.0066967" lon="10.9866533"><ele>910.6</ele><time>2026-04-04T11:47:16.336Z</time></trkpt><trkpt lat="44.0067017" lon="10.9865217"><ele>912.0</ele><time>2026-04-04T11:47:17.335Z</time></trkpt><trkpt lat="44.0067117" lon="10.9863717"><ele>912.0</ele><time>2026-04-04T11:47:18.334Z</time></trkpt><trkpt lat="44.0067117" lon="10.9862267"><ele>912.0</ele><time>2026-04-04T11:47:19.335Z</time></trkpt><trkpt lat="44.0067117" lon="10.9860833"><ele>912.0</ele><time>2026-04-04T11:47:20.334Z</time></trkpt><trkpt lat="44.0067283" lon="10.985945"><ele>912.0</ele><time>2026-04-04T11:47:21.335Z</time></trkpt><trkpt lat="44.0067467" lon="10.9858067"><ele>912.0</ele><time>2026-04-04T11:47:22.335Z</time></trkpt><trkpt lat="44.0067617" lon="10.98568"><ele>910.5</ele><time>2026-04-04T11:47:23.335Z</time></trkpt><trkpt lat="44.0067833" lon="10.9855433"><ele>909.0</ele><time>2026-04-04T11:47:24.335Z</time></trkpt><trkpt lat="44.0068067" lon="10.9854283"><ele>907.5</ele><time>2026-04-04T11:47:25.335Z</time></trkpt><trkpt lat="44.00683" lon="10.98533"><ele>906.0</ele><time>2026-04-04T11:47:26.334Z</time></trkpt><trkpt lat="44.006855" lon="10.98524"><ele>904.5</ele><time>2026-04-04T11:47:27.335Z</time></trkpt><trkpt lat="44.0068817" lon="10.9851583"><ele>903.0</ele><time>2026-04-04T11:47:28.335Z</time></trkpt><trkpt lat="44.0069233" lon="10.9850833"><ele>903.0</ele><time>2026-04-04T11:47:29.334Z</time></trkpt><trkpt lat="44.00699" lon="10.985105"><ele>903.0</ele><time>2026-04-04T11:47:30.334Z</time></trkpt><trkpt lat="44.007105" lon="10.9851233"><ele>903.0</ele><time>2026-04-04T11:47:32.335Z</time></trkpt><trkpt lat="44.0071767" lon="10.9851733"><ele>903.0</ele><time>2026-04-04T11:47:33.335Z</time></trkpt><trkpt lat="44.0072567" lon="10.9852383"><ele>903.0</ele><time>2026-04-04T11:47:34.335Z</time></trkpt><trkpt lat="44.0073283" lon="10.9852883"><ele>903.0</ele><time>2026-04-04T11:47:35.335Z</time></trkpt><trkpt lat="44.0074" lon="10.9853167"><ele>903.0</ele><time>2026-04-04T11:47:36.335Z</time></trkpt><trkpt lat="44.0074717" lon="10.985335"><ele>903.0</ele><time>2026-04-04T11:47:37.334Z</time></trkpt><trkpt lat="44.007545" lon="10.985355"><ele>903.0</ele><time>2026-04-04T11:47:38.334Z</time></trkpt><trkpt lat="44.007615" lon="10.9853667"><ele>903.0</ele><time>2026-04-04T11:47:39.333Z</time></trkpt><trkpt lat="44.007685" lon="10.9853717"><ele>903.0</ele><time>2026-04-04T11:47:40.335Z</time></trkpt><trkpt lat="44.0077933" lon="10.9853233"><ele>903.0</ele><time>2026-04-04T11:47:42.333Z</time></trkpt><trkpt lat="44.0078583" lon="10.985285"><ele>904.4</ele><time>2026-04-04T11:47:43.335Z</time></trkpt><trkpt lat="44.007905" lon="10.9852083"><ele>905.8</ele><time>2026-04-04T11:47:44.334Z</time></trkpt><trkpt lat="44.007955" lon="10.985105"><ele>907.2</ele><time>2026-04-04T11:47:45.335Z</time></trkpt><trkpt lat="44.0080083" lon="10.98499"><ele>908.6</ele><time>2026-04-04T11:47:46.335Z</time></trkpt><trkpt lat="44.00807" lon="10.9848683"><ele>910.0</ele><time>2026-04-04T11:47:47.334Z</time></trkpt><trkpt lat="44.00813" lon="10.9847417"><ele>910.0</ele><time>2026-04-04T11:47:48.335Z</time></trkpt><trkpt lat="44.008185" lon="10.98462"><ele>910.0</ele><time>2026-04-04T11:47:49.334Z</time></trkpt><trkpt lat="44.0082383" lon="10.9845067"><ele>910.0</ele><time>2026-04-04T11:47:50.334Z</time></trkpt><trkpt lat="44.0082967" lon="10.9844083"><ele>910.0</ele><time>2026-04-04T11:47:51.333Z</time></trkpt><trkpt lat="44.0083633" lon="10.98433"><ele>910.0</ele><time>2026-04-04T11:47:52.336Z</time></trkpt><trkpt lat="44.0084433" lon="10.9842567"><ele>912.2</ele><time>2026-04-04T11:47:53.332Z</time></trkpt><trkpt lat="44.00853" lon="10.9841917"><ele>914.4</ele><time>2026-04-04T11:47:54.337Z</time></trkpt><trkpt lat="44.0086217" lon="10.9841033"><ele>916.5999999999999</ele><time>2026-04-04T11:47:55.335Z</time></trkpt><trkpt lat="44.0086817" lon="10.984"><ele>918.8</ele><time>2026-04-04T11:47:56.334Z</time></trkpt><trkpt lat="44.0087267" lon="10.98388"><ele>921.0</ele><time>2026-04-04T11:47:57.333Z</time></trkpt><trkpt lat="44.0087567" lon="10.9837533"><ele>921.0</ele><time>2026-04-04T11:47:58.334Z</time></trkpt><trkpt lat="44.008785" lon="10.98363"><ele>920.9999999999999</ele><time>2026-04-04T11:47:59.334Z</time></trkpt><trkpt lat="44.0087817" lon="10.98351"><ele>920.9999999999999</ele><time>2026-04-04T11:48:00.336Z</time></trkpt><trkpt lat="44.0087683" lon="10.98338"><ele>921.0</ele><time>2026-04-04T11:48:01.335Z</time></trkpt><trkpt lat="44.008755" lon="10.9832433"><ele>921.0</ele><time>2026-04-04T11:48:02.334Z</time></trkpt><trkpt lat="44.0087633" lon="10.9831067"><ele>920.1999999999999</ele><time>2026-04-04T11:48:03.334Z</time></trkpt><trkpt lat="44.00879" lon="10.9829733"><ele>919.3999999999999</ele><time>2026-04-04T11:48:04.335Z</time></trkpt><trkpt lat="44.0088333" lon="10.9828317"><ele>918.6</ele><time>2026-04-04T11:48:05.335Z</time></trkpt><trkpt lat="44.0088883" lon="10.9826933"><ele>917.8</ele><time>2026-04-04T11:48:06.335Z</time></trkpt><trkpt lat="44.0089367" lon="10.9825583"><ele>917.0</ele><time>2026-04-04T11:48:07.335Z</time></trkpt><trkpt lat="44.0089833" lon="10.9824233"><ele>917.0</ele><time>2026-04-04T11:48:08.334Z</time></trkpt><trkpt lat="44.00903" lon="10.9823"><ele>917.0</ele><time>2026-04-04T11:48:09.334Z</time></trkpt><trkpt lat="44.0090633" lon="10.9821817"><ele>917.0</ele><time>2026-04-04T11:48:10.335Z</time></trkpt><trkpt lat="44.0090917" lon="10.98207"><ele>917.0</ele><time>2026-04-04T11:48:11.334Z</time></trkpt><trkpt lat="44.0091083" lon="10.98196"><ele>917.0</ele><time>2026-04-04T11:48:12.334Z</time></trkpt><trkpt lat="44.0091417" lon="10.981835"><ele>921.3333333333334</ele><time>2026-04-04T11:48:13.335Z</time></trkpt><trkpt lat="44.0091717" lon="10.9817317"><ele>925.6666666666667</ele><time>2026-04-04T11:48:14.334Z</time></trkpt><trkpt lat="44.0092033" lon="10.98164"><ele>930.0</ele><time>2026-04-04T11:48:15.335Z</time></trkpt><trkpt lat="44.0092433" lon="10.981565"><ele>934.3333333333333</ele><time>2026-04-04T11:48:16.334Z</time></trkpt><trkpt lat="44.0093133" lon="10.9814533"><ele>938.6666666666666</ele><time>2026-04-04T11:48:18.336Z</time></trkpt><trkpt lat="44.0094033" lon="10.981505"><ele>943.0</ele><time>2026-04-04T11:48:20.334Z</time></trkpt><trkpt lat="44.0094283" lon="10.9816167"><ele>944.5</ele><time>2026-04-04T11:48:21.334Z</time></trkpt><trkpt lat="44.0094483" lon="10.9817567"><ele>946.0</ele><time>2026-04-04T11:48:22.335Z</time></trkpt><trkpt lat="44.0094667" lon="10.9819217"><ele>947.5</ele><time>2026-04-04T11:48:23.333Z</time></trkpt><trkpt lat="44.0094933" lon="10.9821017"><ele>949.0</ele><time>2026-04-04T11:48:24.336Z</time></trkpt><trkpt lat="44.0095167" lon="10.98227"><ele>948.9999999999999</ele><time>2026-04-04T11:48:25.334Z</time></trkpt><trkpt lat="44.0095433" lon="10.9823983"><ele>949.0</ele><time>2026-04-04T11:48:26.334Z</time></trkpt><trkpt lat="44.009575" lon="10.982515"><ele>949.0</ele><time>2026-04-04T11:48:27.337Z</time></trkpt><trkpt lat="44.0096083" lon="10.9826283"><ele>949.0</ele><time>2026-04-04T11:48:28.335Z</time></trkpt><trkpt lat="44.0096487" lon="10.9827272"><ele>948.9999999999999</ele><time>2026-04-04T11:48:29.334Z</time></trkpt><trkpt lat="44.0096982" lon="10.9828124"><ele>949.0</ele><time>2026-04-04T11:48:30.335Z</time></trkpt><trkpt lat="44.0097339" lon="10.982897"><ele>949.4000000000001</ele><time>2026-04-04T11:48:31.333Z</time></trkpt><trkpt lat="44.0097821" lon="10.983051"><ele>949.8000000000001</ele><time>2026-04-04T11:48:33.333Z</time></trkpt><trkpt lat="44.0097718" lon="10.9832395"><ele>950.1999999999999</ele><time>2026-04-04T11:48:35.334Z</time></trkpt><trkpt lat="44.0097369" lon="10.9833369"><ele>950.5999999999999</ele><time>2026-04-04T11:48:36.334Z</time></trkpt><trkpt lat="44.0096849" lon="10.9834304"><ele>951.0</ele><time>2026-04-04T11:48:37.335Z</time></trkpt><trkpt lat="44.0096158" lon="10.9835344"><ele>951.8</ele><time>2026-04-04T11:48:38.334Z</time></trkpt><trkpt lat="44.0095705" lon="10.9836539"><ele>952.5999999999999</ele><time>2026-04-04T11:48:39.334Z</time></trkpt><trkpt lat="44.0095417" lon="10.9837912"><ele>953.4</ele><time>2026-04-04T11:48:40.335Z</time></trkpt><trkpt lat="44.009524" lon="10.9839473"><ele>954.2</ele><time>2026-04-04T11:48:41.334Z</time></trkpt><trkpt lat="44.0095067" lon="10.9841117"><ele>955.0</ele><time>2026-04-04T11:48:42.334Z</time></trkpt><trkpt lat="44.0094982" lon="10.9842647"><ele>956.2</ele><time>2026-04-04T11:48:43.335Z</time></trkpt><trkpt lat="44.0094982" lon="10.9844108"><ele>957.4</ele><time>2026-04-04T11:48:44.333Z</time></trkpt><trkpt lat="44.0095078" lon="10.9845557"><ele>958.5999999999999</ele><time>2026-04-04T11:48:45.333Z</time></trkpt><trkpt lat="44.0095223" lon="10.9847048"><ele>959.8</ele><time>2026-04-04T11:48:46.335Z</time></trkpt><trkpt lat="44.0095421" lon="10.9848615"><ele>961.0</ele><time>2026-04-04T11:48:47.335Z</time></trkpt><trkpt lat="44.0095667" lon="10.9850176"><ele>963.8</ele><time>2026-04-04T11:48:48.335Z</time></trkpt><trkpt lat="44.0095868" lon="10.9851634"><ele>966.5999999999999</ele><time>2026-04-04T11:48:49.335Z</time></trkpt><trkpt lat="44.0095889" lon="10.9852993"><ele>969.4</ele><time>2026-04-04T11:48:50.333Z</time></trkpt><trkpt lat="44.0095791" lon="10.9854266"><ele>972.2</ele><time>2026-04-04T11:48:51.335Z</time></trkpt><trkpt lat="44.0095598" lon="10.9855549"><ele>975.0</ele><time>2026-04-04T11:48:52.335Z</time></trkpt><trkpt lat="44.0095305" lon="10.9856881"><ele>975.0</ele><time>2026-04-04T11:48:53.334Z</time></trkpt><trkpt lat="44.0094896" lon="10.9858252"><ele>975.0</ele><time>2026-04-04T11:48:54.336Z</time></trkpt><trkpt lat="44.0094355" lon="10.985958"><ele>975.0</ele><time>2026-04-04T11:48:55.335Z</time></trkpt><trkpt lat="44.0093735" lon="10.9860866"><ele>975.0</ele><time>2026-04-04T11:48:56.334Z</time></trkpt><trkpt lat="44.009315" lon="10.9861783"><ele>975.0</ele><time>2026-04-04T11:48:57.334Z</time></trkpt><trkpt lat="44.0092623" lon="10.9862567"><ele>975.0</ele><time>2026-04-04T11:48:58.334Z</time></trkpt><trkpt lat="44.0092088" lon="10.9863313"><ele>975.0</ele><time>2026-04-04T11:48:59.334Z</time></trkpt><trkpt lat="44.0091496" lon="10.9863915"><ele>975.0</ele><time>2026-04-04T11:49:00.334Z</time></trkpt><trkpt lat="44.0090866" lon="10.9864391"><ele>975.0</ele><time>2026-04-04T11:49:01.335Z</time></trkpt><trkpt lat="44.009016" lon="10.9864756"><ele>975.0</ele><time>2026-04-04T11:49:02.335Z</time></trkpt><trkpt lat="44.0089436" lon="10.9865113"><ele>975.0</ele><time>2026-04-04T11:49:03.334Z</time></trkpt><trkpt lat="44.0088735" lon="10.9865614"><ele>975.0</ele><time>2026-04-04T11:49:04.335Z</time></trkpt><trkpt lat="44.0087968" lon="10.9866297"><ele>975.0</ele><time>2026-04-04T11:49:05.335Z</time></trkpt><trkpt lat="44.008723" lon="10.9867349"><ele>975.0</ele><time>2026-04-04T11:49:06.334Z</time></trkpt><trkpt lat="44.0086485" lon="10.986865"><ele>975.0</ele><time>2026-04-04T11:49:07.335Z</time></trkpt><trkpt lat="44.0085714" lon="10.9869929"><ele>975.0</ele><time>2026-04-04T11:49:08.334Z</time></trkpt><trkpt lat="44.0084901" lon="10.9871052"><ele>975.4</ele><time>2026-04-04T11:49:09.335Z</time></trkpt><trkpt lat="44.0084116" lon="10.9872113"><ele>975.8</ele><time>2026-04-04T11:49:10.334Z</time></trkpt><trkpt lat="44.0083528" lon="10.9873165"><ele>976.2</ele><time>2026-04-04T11:49:11.335Z</time></trkpt><trkpt lat="44.0083125" lon="10.9874318"><ele>976.6</ele><time>2026-04-04T11:49:12.335Z</time></trkpt><trkpt lat="44.0082886" lon="10.9875464"><ele>977.0</ele><time>2026-04-04T11:49:13.335Z</time></trkpt><trkpt lat="44.0082792" lon="10.9876553"><ele>977.0000000000001</ele><time>2026-04-04T11:49:14.334Z</time></trkpt><trkpt lat="44.0082903" lon="10.9877743"><ele>977.0</ele><time>2026-04-04T11:49:15.334Z</time></trkpt><trkpt lat="44.0083363" lon="10.9878879"><ele>977.0</ele><time>2026-04-04T11:49:16.334Z</time></trkpt><trkpt lat="44.0083925" lon="10.9879883"><ele>977.0</ele><time>2026-04-04T11:49:17.334Z</time></trkpt><trkpt lat="44.0084403" lon="10.9880723"><ele>977.0000000000001</ele><time>2026-04-04T11:49:18.335Z</time></trkpt><trkpt lat="44.0084791" lon="10.9881436"><ele>977.0</ele><time>2026-04-04T11:49:19.335Z</time></trkpt><trkpt lat="44.0085318" lon="10.9882729"><ele>982.2</ele><time>2026-04-04T11:49:21.335Z</time></trkpt><trkpt lat="44.0085273" lon="10.9884116"><ele>987.4000000000001</ele><time>2026-04-04T11:49:23.333Z</time></trkpt><trkpt lat="44.0084305" lon="10.9885476"><ele>992.5999999999999</ele><time>2026-04-04T11:49:25.334Z</time></trkpt><trkpt lat="44.0083563" lon="10.9886156"><ele>997.8</ele><time>2026-04-04T11:49:26.333Z</time></trkpt><trkpt lat="44.0082724" lon="10.9886978"><ele>1003.0</ele><time>2026-04-04T11:49:27.335Z</time></trkpt><trkpt lat="44.0081463" lon="10.9887864"><ele>1003.0</ele><time>2026-04-04T11:49:28.335Z</time></trkpt><trkpt lat="44.0080345" lon="10.9888767"><ele>1003.0</ele><time>2026-04-04T11:49:29.334Z</time></trkpt><trkpt lat="44.0079403" lon="10.9889564"><ele>1003.0</ele><time>2026-04-04T11:49:30.335Z</time></trkpt><trkpt lat="44.0078471" lon="10.9890527"><ele>1003.0</ele><time>2026-04-04T11:49:31.335Z</time></trkpt><trkpt lat="44.0077711" lon="10.9891566"><ele>1005.9999999999999</ele><time>2026-04-04T11:49:32.335Z</time></trkpt><trkpt lat="44.0077098" lon="10.9892779"><ele>1009.0</ele><time>2026-04-04T11:49:33.334Z</time></trkpt><trkpt lat="44.0076598" lon="10.9893908"><ele>1012.0</ele><time>2026-04-04T11:49:34.335Z</time></trkpt><trkpt lat="44.0076131" lon="10.9894805"><ele>1015.0</ele><time>2026-04-04T11:49:35.335Z</time></trkpt><trkpt lat="44.0075648" lon="10.9895588"><ele>1017.9999999999999</ele><time>2026-04-04T11:49:36.334Z</time></trkpt><trkpt lat="44.0075274" lon="10.9896333"><ele>1021.0</ele><time>2026-04-04T11:49:37.335Z</time></trkpt><trkpt lat="44.0075091" lon="10.9897822"><ele>1021.0</ele><time>2026-04-04T11:49:39.334Z</time></trkpt><trkpt lat="44.0075679" lon="10.9898498"><ele>1020.9999999999999</ele><time>2026-04-04T11:49:41.334Z</time></trkpt><trkpt lat="44.0076389" lon="10.9898268"><ele>1020.9999999999999</ele><time>2026-04-04T11:49:42.335Z</time></trkpt><trkpt lat="44.0077311" lon="10.9897612"><ele>1021.0</ele><time>2026-04-04T11:49:43.334Z</time></trkpt><trkpt lat="44.0078278" lon="10.9896499"><ele>1021.0</ele><time>2026-04-04T11:49:44.336Z</time></trkpt><trkpt lat="44.0079208" lon="10.9895279"><ele>1021.0</ele><time>2026-04-04T11:49:45.334Z</time></trkpt><trkpt lat="44.0079763" lon="10.9894116"><ele>1020.9999999999999</ele><time>2026-04-04T11:49:46.335Z</time></trkpt><trkpt lat="44.0080264" lon="10.9893003"><ele>1020.9999999999999</ele><time>2026-04-04T11:49:47.335Z</time></trkpt><trkpt lat="44.0080796" lon="10.989205"><ele>1021.0</ele><time>2026-04-04T11:49:48.336Z</time></trkpt><trkpt lat="44.0081394" lon="10.9891208"><ele>1021.0</ele><time>2026-04-04T11:49:49.335Z</time></trkpt><trkpt lat="44.0082053" lon="10.9890472"><ele>1022.1999999999999</ele><time>2026-04-04T11:49:50.333Z</time></trkpt><trkpt lat="44.0082816" lon="10.988985"><ele>1023.3999999999999</ele><time>2026-04-04T11:49:51.334Z</time></trkpt><trkpt lat="44.0083668" lon="10.9889339"><ele>1024.6</ele><time>2026-04-04T11:49:52.334Z</time></trkpt><trkpt lat="44.0084632" lon="10.988889"><ele>1025.8</ele><time>2026-04-04T11:49:53.334Z</time></trkpt><trkpt lat="44.0085552" lon="10.9888538"><ele>1027.0</ele><time>2026-04-04T11:49:54.333Z</time></trkpt><trkpt lat="44.0086464" lon="10.9888139"><ele>1027.0</ele><time>2026-04-04T11:49:55.335Z</time></trkpt><trkpt lat="44.008728" lon="10.9887576"><ele>1027.0</ele><time>2026-04-04T11:49:56.333Z</time></trkpt><trkpt lat="44.0088053" lon="10.9886957"><ele>1027.0</ele><time>2026-04-04T11:49:57.335Z</time></trkpt><trkpt lat="44.0088715" lon="10.9886261"><ele>1027.0</ele><time>2026-04-04T11:49:58.334Z</time></trkpt><trkpt lat="44.0089225" lon="10.9885304"><ele>1027.0</ele><time>2026-04-04T11:49:59.333Z</time></trkpt><trkpt lat="44.00896" lon="10.988411"><ele>1027.0</ele><time>2026-04-04T11:50:00.335Z</time></trkpt><trkpt lat="44.0089853" lon="10.988272"><ele>1028.3333333333333</ele><time>2026-04-04T11:50:01.335Z</time></trkpt><trkpt lat="44.0090176" lon="10.9881447"><ele>1029.6666666666665</ele><time>2026-04-04T11:50:02.335Z</time></trkpt><trkpt lat="44.009052" lon="10.9880313"><ele>1031.0</ele><time>2026-04-04T11:50:03.334Z</time></trkpt><trkpt lat="44.0090773" lon="10.987922"><ele>1032.3333333333333</ele><time>2026-04-04T11:50:04.335Z</time></trkpt><trkpt lat="44.0091105" lon="10.9878344"><ele>1033.6666666666667</ele><time>2026-04-04T11:50:05.337Z</time></trkpt><trkpt lat="44.0091483" lon="10.9877567"><ele>1035.0</ele><time>2026-04-04T11:50:06.335Z</time></trkpt><trkpt lat="44.0092073" lon="10.9876896"><ele>1035.0</ele><time>2026-04-04T11:50:07.336Z</time></trkpt><trkpt lat="44.0092933" lon="10.9876492"><ele>1035.0</ele><time>2026-04-04T11:50:08.335Z</time></trkpt><trkpt lat="44.0094272" lon="10.9876162"><ele>1035.0</ele><time>2026-04-04T11:50:09.334Z</time></trkpt><trkpt lat="44.0095786" lon="10.9875539"><ele>1035.0</ele><time>2026-04-04T11:50:10.334Z</time></trkpt><trkpt lat="44.0097181" lon="10.9874835"><ele>1035.5</ele><time>2026-04-04T11:50:11.334Z</time></trkpt><trkpt lat="44.0098428" lon="10.9874129"><ele>1036.0</ele><time>2026-04-04T11:50:12.335Z</time></trkpt><trkpt lat="44.0099574" lon="10.987354"><ele>1036.5</ele><time>2026-04-04T11:50:13.335Z</time></trkpt><trkpt lat="44.0100675" lon="10.9873055"><ele>1037.0</ele><time>2026-04-04T11:50:14.334Z</time></trkpt><trkpt lat="44.010201" lon="10.9872786"><ele>1037.0</ele><time>2026-04-04T11:50:15.335Z</time></trkpt><trkpt lat="44.0103393" lon="10.9872556"><ele>1037.0</ele><time>2026-04-04T11:50:16.334Z</time></trkpt><trkpt lat="44.0104658" lon="10.9872334"><ele>1037.0</ele><time>2026-04-04T11:50:17.335Z</time></trkpt><trkpt lat="44.0105785" lon="10.9872083"><ele>1037.0</ele><time>2026-04-04T11:50:18.336Z</time></trkpt><trkpt lat="44.0106748" lon="10.9871689"><ele>1037.0</ele><time>2026-04-04T11:50:19.336Z</time></trkpt><trkpt lat="44.0107567" lon="10.9871141"><ele>1037.0</ele><time>2026-04-04T11:50:20.333Z</time></trkpt><trkpt lat="44.0108314" lon="10.9870449"><ele>1037.0</ele><time>2026-04-04T11:50:21.333Z</time></trkpt><trkpt lat="44.0108879" lon="10.986972"><ele>1037.0</ele><time>2026-04-04T11:50:22.334Z</time></trkpt><trkpt lat="44.0109386" lon="10.9869083"><ele>1037.0</ele><time>2026-04-04T11:50:23.333Z</time></trkpt><trkpt lat="44.0110025" lon="10.9868098"><ele>1037.0</ele><time>2026-04-04T11:50:25.333Z</time></trkpt><trkpt lat="44.0110425" lon="10.9867398"><ele>1037.6</ele><time>2026-04-04T11:50:27.332Z</time></trkpt><trkpt lat="44.0110751" lon="10.9866595"><ele>1038.2</ele><time>2026-04-04T11:50:31.334Z</time></trkpt><trkpt lat="44.0111301" lon="10.9865441"><ele>1038.8</ele><time>2026-04-04T11:50:37.334Z</time></trkpt><trkpt lat="44.0112036" lon="10.9863889"><ele>1039.4</ele><time>2026-04-04T11:50:39.333Z</time></trkpt><trkpt lat="44.0112459" lon="10.9862803"><ele>1040.0</ele><time>2026-04-04T11:50:40.334Z</time></trkpt><trkpt lat="44.0112872" lon="10.9861519"><ele>1040.0</ele><time>2026-04-04T11:50:41.334Z</time></trkpt><trkpt lat="44.0113305" lon="10.9860143"><ele>1040.0</ele><time>2026-04-04T11:50:42.334Z</time></trkpt><trkpt lat="44.0113739" lon="10.9858704"><ele>1040.0</ele><time>2026-04-04T11:50:43.335Z</time></trkpt><trkpt lat="44.0114245" lon="10.9857216"><ele>1040.0</ele><time>2026-04-04T11:50:44.334Z</time></trkpt><trkpt lat="44.0114813" lon="10.9855696"><ele>1039.25</ele><time>2026-04-04T11:50:45.333Z</time></trkpt><trkpt lat="44.0115469" lon="10.9854278"><ele>1038.5</ele><time>2026-04-04T11:50:46.334Z</time></trkpt><trkpt lat="44.011606" lon="10.9852885"><ele>1037.75</ele><time>2026-04-04T11:50:47.334Z</time></trkpt><trkpt lat="44.011652" lon="10.9851381"><ele>1037.0</ele><time>2026-04-04T11:50:48.334Z</time></trkpt><trkpt lat="44.0116852" lon="10.9849661"><ele>1042.25</ele><time>2026-04-04T11:50:49.334Z</time></trkpt><trkpt lat="44.0117107" lon="10.9847778"><ele>1047.5</ele><time>2026-04-04T11:50:50.333Z</time></trkpt><trkpt lat="44.0117238" lon="10.9845932"><ele>1052.75</ele><time>2026-04-04T11:50:51.334Z</time></trkpt><trkpt lat="44.0117432" lon="10.9844161"><ele>1058.0</ele><time>2026-04-04T11:50:52.334Z</time></trkpt><trkpt lat="44.011774" lon="10.9842437"><ele>1058.0</ele><time>2026-04-04T11:50:53.335Z</time></trkpt><trkpt lat="44.0118067" lon="10.9840664"><ele>1058.0</ele><time>2026-04-04T11:50:54.334Z</time></trkpt><trkpt lat="44.0118418" lon="10.9838899"><ele>1058.0</ele><time>2026-04-04T11:50:55.334Z</time></trkpt><trkpt lat="44.0118865" lon="10.983715"><ele>1058.0</ele><time>2026-04-04T11:50:56.335Z</time></trkpt><trkpt lat="44.0119265" lon="10.9835347"><ele>1058.0</ele><time>2026-04-04T11:50:57.334Z</time></trkpt><trkpt lat="44.0119752" lon="10.9833679"><ele>1058.0</ele><time>2026-04-04T11:50:58.334Z</time></trkpt><trkpt lat="44.012023" lon="10.9832379"><ele>1058.0</ele><time>2026-04-04T11:50:59.334Z</time></trkpt><trkpt lat="44.012075" lon="10.9831341"><ele>1058.0</ele><time>2026-04-04T11:51:00.334Z</time></trkpt><trkpt lat="44.0121245" lon="10.983062"><ele>1058.0</ele><time>2026-04-04T11:51:01.335Z</time></trkpt><trkpt lat="44.0122131" lon="10.9829815"><ele>1057.6</ele><time>2026-04-04T11:51:03.333Z</time></trkpt><trkpt lat="44.0122882" lon="10.9829811"><ele>1057.1999999999998</ele><time>2026-04-04T11:51:05.333Z</time></trkpt><trkpt lat="44.0123377" lon="10.9830358"><ele>1056.8</ele><time>2026-04-04T11:53:21.335Z</time></trkpt><trkpt lat="44.0124631" lon="10.9831107"><ele>1056.3999999999999</ele><time>2026-04-04T11:53:23.333Z</time></trkpt><trkpt lat="44.0125451" lon="10.9831565"><ele>1056.0</ele><time>2026-04-04T11:53:24.335Z</time></trkpt><trkpt lat="44.0126389" lon="10.9831984"><ele>1058.8</ele><time>2026-04-04T11:53:25.335Z</time></trkpt><trkpt lat="44.0127399" lon="10.9832228"><ele>1061.6</ele><time>2026-04-04T11:53:26.336Z</time></trkpt><trkpt lat="44.012841" lon="10.9832212"><ele>1064.4</ele><time>2026-04-04T11:53:27.334Z</time></trkpt><trkpt lat="44.0129358" lon="10.9831981"><ele>1067.2</ele><time>2026-04-04T11:53:28.334Z</time></trkpt><trkpt lat="44.0130333" lon="10.9831481"><ele>1070.0</ele><time>2026-04-04T11:53:29.335Z</time></trkpt><trkpt lat="44.013129" lon="10.9830659"><ele>1070.0</ele><time>2026-04-04T11:53:30.335Z</time></trkpt><trkpt lat="44.0132193" lon="10.9829772"><ele>1070.0</ele><time>2026-04-04T11:53:31.334Z</time></trkpt><trkpt lat="44.0132989" lon="10.9829126"><ele>1070.0</ele><time>2026-04-04T11:53:32.335Z</time></trkpt><trkpt lat="44.0133741" lon="10.9828658"><ele>1070.0</ele><time>2026-04-04T11:53:33.335Z</time></trkpt><trkpt lat="44.0134529" lon="10.9828315"><ele>1070.0</ele><time>2026-04-04T11:53:34.335Z</time></trkpt><trkpt lat="44.0135494" lon="10.9828942"><ele>1069.75</ele><time>2026-04-04T11:53:36.336Z</time></trkpt><trkpt lat="44.0136387" lon="10.9829597"><ele>1069.5</ele><time>2026-04-04T11:53:37.334Z</time></trkpt><trkpt lat="44.0137418" lon="10.9831043"><ele>1069.25</ele><time>2026-04-04T11:53:38.335Z</time></trkpt><trkpt lat="44.0138183" lon="10.9832493"><ele>1069.0</ele><time>2026-04-04T11:53:39.337Z</time></trkpt><trkpt lat="44.0139162" lon="10.9833929"><ele>1066.4</ele><time>2026-04-04T11:53:40.335Z</time></trkpt><trkpt lat="44.0139929" lon="10.9835172"><ele>1063.8000000000002</ele><time>2026-04-04T11:53:41.335Z</time></trkpt><trkpt lat="44.0140789" lon="10.9836216"><ele>1061.1999999999998</ele><time>2026-04-04T11:53:42.333Z</time></trkpt><trkpt lat="44.0141587" lon="10.9837084"><ele>1058.6</ele><time>2026-04-04T11:53:43.335Z</time></trkpt><trkpt lat="44.0142388" lon="10.9837874"><ele>1056.0</ele><time>2026-04-04T11:53:44.336Z</time></trkpt><trkpt lat="44.0143225" lon="10.9838064"><ele>1056.0</ele><time>2026-04-04T11:53:45.334Z</time></trkpt><trkpt lat="44.0144019" lon="10.9838115"><ele>1056.0</ele><time>2026-04-04T11:53:46.336Z</time></trkpt><trkpt lat="44.0144822" lon="10.9838078"><ele>1056.0</ele><time>2026-04-04T11:53:47.335Z</time></trkpt><trkpt lat="44.0145593" lon="10.9837718"><ele>1056.0</ele><time>2026-04-04T11:53:48.334Z</time></trkpt><trkpt lat="44.0146317" lon="10.9836965"><ele>1056.0</ele><time>2026-04-04T11:53:49.335Z</time></trkpt><trkpt lat="44.0147003" lon="10.9836065"><ele>1056.0</ele><time>2026-04-04T11:53:50.335Z</time></trkpt><trkpt lat="44.0147525" lon="10.9835179"><ele>1056.0</ele><time>2026-04-04T11:53:51.335Z</time></trkpt><trkpt lat="44.0148118" lon="10.983434"><ele>1056.0</ele><time>2026-04-04T11:53:52.335Z</time></trkpt><trkpt lat="44.0148733" lon="10.983374"><ele>1056.0</ele><time>2026-04-04T11:53:53.335Z</time></trkpt><trkpt lat="44.0149395" lon="10.9833213"><ele>1056.0</ele><time>2026-04-04T11:53:54.334Z</time></trkpt><trkpt lat="44.015011" lon="10.9832838"><ele>1056.0</ele><time>2026-04-04T11:53:55.335Z</time></trkpt><trkpt lat="44.015083" lon="10.9833142"><ele>1056.0</ele><time>2026-04-04T11:53:56.335Z</time></trkpt><trkpt lat="44.0151593" lon="10.9833676"><ele>1054.5</ele><time>2026-04-04T11:53:57.333Z</time></trkpt><trkpt lat="44.0152288" lon="10.9834449"><ele>1053.0</ele><time>2026-04-04T11:53:58.335Z</time></trkpt><trkpt lat="44.0152997" lon="10.9835117"><ele>1051.5</ele><time>2026-04-04T11:53:59.334Z</time></trkpt><trkpt lat="44.0153746" lon="10.9835622"><ele>1050.0</ele><time>2026-04-04T11:54:00.334Z</time></trkpt><trkpt lat="44.0154618" lon="10.9836032"><ele>1048.5</ele><time>2026-04-04T11:54:01.336Z</time></trkpt><trkpt lat="44.0155512" lon="10.9836581"><ele>1047.0</ele><time>2026-04-04T11:54:02.334Z</time></trkpt><trkpt lat="44.0156295" lon="10.9837291"><ele>1047.0</ele><time>2026-04-04T11:54:03.333Z</time></trkpt><trkpt lat="44.0157024" lon="10.9838143"><ele>1047.0</ele><time>2026-04-04T11:54:04.335Z</time></trkpt><trkpt lat="44.0157693" lon="10.9838979"><ele>1047.0</ele><time>2026-04-04T11:54:05.334Z</time></trkpt><trkpt lat="44.0158351" lon="10.9840092"><ele>1047.0</ele><time>2026-04-04T11:54:06.333Z</time></trkpt><trkpt lat="44.0159077" lon="10.9840907"><ele>1047.0</ele><time>2026-04-04T11:54:07.335Z</time></trkpt><trkpt lat="44.0159876" lon="10.9841679"><ele>1044.8</ele><time>2026-04-04T11:54:08.334Z</time></trkpt><trkpt lat="44.0160777" lon="10.9842368"><ele>1042.6</ele><time>2026-04-04T11:54:09.334Z</time></trkpt><trkpt lat="44.0161721" lon="10.9843013"><ele>1040.3999999999999</ele><time>2026-04-04T11:54:10.335Z</time></trkpt><trkpt lat="44.0162602" lon="10.9843623"><ele>1038.2</ele><time>2026-04-04T11:54:11.334Z</time></trkpt><trkpt lat="44.0163378" lon="10.9844258"><ele>1036.0</ele><time>2026-04-04T11:54:12.335Z</time></trkpt><trkpt lat="44.016403" lon="10.9844915"><ele>1036.0</ele><time>2026-04-04T11:54:13.336Z</time></trkpt><trkpt lat="44.0164519" lon="10.9845572"><ele>1036.0</ele><time>2026-04-04T11:54:14.335Z</time></trkpt><trkpt lat="44.0164903" lon="10.9846386"><ele>1036.0</ele><time>2026-04-04T11:54:15.335Z</time></trkpt><trkpt lat="44.0165074" lon="10.9847403"><ele>1036.0</ele><time>2026-04-04T11:54:16.335Z</time></trkpt><trkpt lat="44.0165165" lon="10.9848455"><ele>1036.0</ele><time>2026-04-04T11:54:17.334Z</time></trkpt><trkpt lat="44.0165036" lon="10.9849662"><ele>1036.0</ele><time>2026-04-04T11:54:18.334Z</time></trkpt><trkpt lat="44.0164808" lon="10.985079"><ele>1036.0</ele><time>2026-04-04T11:54:19.334Z</time></trkpt><trkpt lat="44.0164866" lon="10.9851694"><ele>1036.0</ele><time>2026-04-04T11:54:20.335Z</time></trkpt><trkpt lat="44.0165542" lon="10.9852956"><ele>1036.0</ele><time>2026-04-04T11:54:22.334Z</time></trkpt><trkpt lat="44.0166094" lon="10.9853382"><ele>1036.0</ele><time>2026-04-04T11:54:23.333Z</time></trkpt><trkpt lat="44.0166851" lon="10.9853733"><ele>1036.0</ele><time>2026-04-04T11:54:24.334Z</time></trkpt><trkpt lat="44.0167753" lon="10.9854001"><ele>1036.0</ele><time>2026-04-04T11:54:25.335Z</time></trkpt><trkpt lat="44.0168711" lon="10.985438"><ele>1036.0</ele><time>2026-04-04T11:54:26.334Z</time></trkpt><trkpt lat="44.0169693" lon="10.985478"><ele>1036.0</ele><time>2026-04-04T11:54:27.335Z</time></trkpt><trkpt lat="44.017058" lon="10.9854951"><ele>1036.0</ele><time>2026-04-04T11:54:28.335Z</time></trkpt><trkpt lat="44.0171501" lon="10.9854955"><ele>1036.0</ele><time>2026-04-04T11:54:29.334Z</time></trkpt><trkpt lat="44.0172384" lon="10.9854691"><ele>1036.0</ele><time>2026-04-04T11:54:30.335Z</time></trkpt><trkpt lat="44.0173135" lon="10.9854583"><ele>1036.0</ele><time>2026-04-04T11:54:31.336Z</time></trkpt><trkpt lat="44.0173774" lon="10.9854413"><ele>1036.0</ele><time>2026-04-04T11:54:32.335Z</time></trkpt><trkpt lat="44.0174903" lon="10.9853915"><ele>1036.0</ele><time>2026-04-04T11:54:34.334Z</time></trkpt><trkpt lat="44.0175499" lon="10.9853613"><ele>1036.0</ele><time>2026-04-04T11:54:35.334Z</time></trkpt><trkpt lat="44.0176272" lon="10.9853045"><ele>1036.0</ele><time>2026-04-04T11:54:37.335Z</time></trkpt><trkpt lat="44.0176636" lon="10.9852133"><ele>1036.0</ele><time>2026-04-04T11:55:06.334Z</time></trkpt><trkpt lat="44.0176502" lon="10.9851144"><ele>1036.1666666666665</ele><time>2026-04-04T11:55:08.333Z</time></trkpt><trkpt lat="44.0176832" lon="10.9850041"><ele>1036.3333333333333</ele><time>2026-04-04T11:55:11.337Z</time></trkpt><trkpt lat="44.0177533" lon="10.9850331"><ele>1036.5</ele><time>2026-04-04T11:55:14.334Z</time></trkpt><trkpt lat="44.0178285" lon="10.9850574"><ele>1036.6666666666667</ele><time>2026-04-04T11:55:16.334Z</time></trkpt><trkpt lat="44.017869" lon="10.9849867"><ele>1036.8333333333335</ele><time>2026-04-04T11:55:18.334Z</time></trkpt><trkpt lat="44.0178261" lon="10.9848765"><ele>1037.0</ele><time>2026-04-04T11:55:20.334Z</time></trkpt><trkpt lat="44.0177447" lon="10.9847732"><ele>1039.0</ele><time>2026-04-04T11:55:22.334Z</time></trkpt><trkpt lat="44.0177255" lon="10.9846497"><ele>1041.0</ele><time>2026-04-04T11:55:24.334Z</time></trkpt><trkpt lat="44.0177813" lon="10.9845622"><ele>1043.0</ele><time>2026-04-04T11:55:27.334Z</time></trkpt><trkpt lat="44.017858" lon="10.9845754"><ele>1045.0</ele><time>2026-04-04T11:55:29.334Z</time></trkpt><trkpt lat="44.0179492" lon="10.9845373"><ele>1047.0</ele><time>2026-04-04T11:55:31.334Z</time></trkpt><trkpt lat="44.0180314" lon="10.9844324"><ele>1047.0000000000002</ele><time>2026-04-04T11:55:33.333Z</time></trkpt><trkpt lat="44.0180584" lon="10.9843523"><ele>1047.0</ele><time>2026-04-04T11:55:34.333Z</time></trkpt><trkpt lat="44.0180697" lon="10.9842549"><ele>1047.0</ele><time>2026-04-04T11:55:35.334Z</time></trkpt><trkpt lat="44.0180758" lon="10.9841519"><ele>1047.0</ele><time>2026-04-04T11:55:36.335Z</time></trkpt><trkpt lat="44.0180806" lon="10.9840423"><ele>1047.0</ele><time>2026-04-04T11:55:37.336Z</time></trkpt><trkpt lat="44.0180661" lon="10.9839425"><ele>1047.0000000000002</ele><time>2026-04-04T11:55:38.334Z</time></trkpt><trkpt lat="44.018054" lon="10.9838469"><ele>1047.0</ele><time>2026-04-04T11:55:39.333Z</time></trkpt><trkpt lat="44.0180487" lon="10.9836847"><ele>1046.8333333333333</ele><time>2026-04-04T11:55:41.338Z</time></trkpt><trkpt lat="44.0181116" lon="10.9835322"><ele>1046.6666666666667</ele><time>2026-04-04T11:55:43.334Z</time></trkpt><trkpt lat="44.0181587" lon="10.9834552"><ele>1046.5</ele><time>2026-04-04T11:55:44.333Z</time></trkpt><trkpt lat="44.0182078" lon="10.9833777"><ele>1046.3333333333335</ele><time>2026-04-04T11:55:45.333Z</time></trkpt><trkpt lat="44.0182456" lon="10.9832884"><ele>1046.1666666666667</ele><time>2026-04-04T11:55:46.333Z</time></trkpt><trkpt lat="44.0182702" lon="10.9831942"><ele>1046.0</ele><time>2026-04-04T11:55:47.334Z</time></trkpt><trkpt lat="44.0182832" lon="10.9831042"><ele>1045.1666666666667</ele><time>2026-04-04T11:55:48.335Z</time></trkpt><trkpt lat="44.0182881" lon="10.9829889"><ele>1044.3333333333335</ele><time>2026-04-04T11:55:49.335Z</time></trkpt><trkpt lat="44.0182947" lon="10.9828724"><ele>1043.5</ele><time>2026-04-04T11:55:50.334Z</time></trkpt><trkpt lat="44.0183134" lon="10.9827671"><ele>1042.6666666666667</ele><time>2026-04-04T11:55:51.334Z</time></trkpt><trkpt lat="44.0183357" lon="10.9826598"><ele>1041.8333333333333</ele><time>2026-04-04T11:55:52.334Z</time></trkpt><trkpt lat="44.0183482" lon="10.9825556"><ele>1041.0</ele><time>2026-04-04T11:55:53.334Z</time></trkpt><trkpt lat="44.0183633" lon="10.9824587"><ele>1037.3333333333333</ele><time>2026-04-04T11:55:54.334Z</time></trkpt><trkpt lat="44.0183775" lon="10.982355"><ele>1033.6666666666667</ele><time>2026-04-04T11:55:55.334Z</time></trkpt><trkpt lat="44.0183982" lon="10.9822498"><ele>1030.0</ele><time>2026-04-04T11:55:56.333Z</time></trkpt><trkpt lat="44.0184085" lon="10.9821447"><ele>1026.3333333333335</ele><time>2026-04-04T11:55:57.334Z</time></trkpt><trkpt lat="44.0184162" lon="10.9820515"><ele>1022.6666666666667</ele><time>2026-04-04T11:55:58.333Z</time></trkpt><trkpt lat="44.0184179" lon="10.9819634"><ele>1019.0</ele><time>2026-04-04T11:55:59.334Z</time></trkpt><trkpt lat="44.0183691" lon="10.9817998"><ele>1019.0000000000001</ele><time>2026-04-04T11:56:01.334Z</time></trkpt><trkpt lat="44.0183247" lon="10.9817175"><ele>1019.0</ele><time>2026-04-04T11:56:02.333Z</time></trkpt><trkpt lat="44.0182725" lon="10.9816304"><ele>1019.0</ele><time>2026-04-04T11:56:03.333Z</time></trkpt><trkpt lat="44.0182176" lon="10.9815458"><ele>1019.0</ele><time>2026-04-04T11:56:04.334Z</time></trkpt><trkpt lat="44.0181595" lon="10.9814614"><ele>1019.0000000000001</ele><time>2026-04-04T11:56:05.335Z</time></trkpt><trkpt lat="44.0181081" lon="10.9813715"><ele>1019.0</ele><time>2026-04-04T11:56:06.334Z</time></trkpt><trkpt lat="44.0180653" lon="10.9812787"><ele>1019.6666666666667</ele><time>2026-04-04T11:56:07.335Z</time></trkpt><trkpt lat="44.018019" lon="10.9811969"><ele>1020.3333333333334</ele><time>2026-04-04T11:56:08.333Z</time></trkpt><trkpt lat="44.017979" lon="10.9811102"><ele>1021.0</ele><time>2026-04-04T11:56:09.333Z</time></trkpt><trkpt lat="44.0179398" lon="10.9810213"><ele>1021.6666666666667</ele><time>2026-04-04T11:56:10.333Z</time></trkpt><trkpt lat="44.0178984" lon="10.9809371"><ele>1022.3333333333334</ele><time>2026-04-04T11:56:11.338Z</time></trkpt><trkpt lat="44.0178631" lon="10.9808522"><ele>1023.0</ele><time>2026-04-04T11:56:12.335Z</time></trkpt><trkpt lat="44.0177943" lon="10.9806983"><ele>1023.0</ele><time>2026-04-04T11:56:14.335Z</time></trkpt><trkpt lat="44.017754" lon="10.9806284"><ele>1023.0</ele><time>2026-04-04T11:56:15.333Z</time></trkpt><trkpt lat="44.0177152" lon="10.980553"><ele>1023.0</ele><time>2026-04-04T11:56:16.333Z</time></trkpt><trkpt lat="44.0176751" lon="10.9804753"><ele>1023.0</ele><time>2026-04-04T11:56:17.334Z</time></trkpt><trkpt lat="44.0176233" lon="10.9804116"><ele>1023.0</ele><time>2026-04-04T11:56:18.333Z</time></trkpt><trkpt lat="44.0175731" lon="10.9803487"><ele>1023.0</ele><time>2026-04-04T11:56:19.342Z</time></trkpt><trkpt lat="44.017523" lon="10.9802843"><ele>1023.0</ele><time>2026-04-04T11:56:20.333Z</time></trkpt><trkpt lat="44.0174775" lon="10.9801307"><ele>1027.0</ele><time>2026-04-04T11:56:22.334Z</time></trkpt><trkpt lat="44.0174372" lon="10.979969"><ele>1031.0</ele><time>2026-04-04T11:56:24.334Z</time></trkpt><trkpt lat="44.017387" lon="10.9798234"><ele>1035.0</ele><time>2026-04-04T11:56:26.333Z</time></trkpt><trkpt lat="44.0173594" lon="10.9796792"><ele>1039.0</ele><time>2026-04-04T11:56:28.335Z</time></trkpt><trkpt lat="44.0173448" lon="10.9795334"><ele>1038.9999999999998</ele><time>2026-04-04T11:56:30.335Z</time></trkpt><trkpt lat="44.0173206" lon="10.9794448"><ele>1039.0</ele><time>2026-04-04T11:56:31.334Z</time></trkpt><trkpt lat="44.0172992" lon="10.9793453"><ele>1039.0</ele><time>2026-04-04T11:56:32.334Z</time></trkpt><trkpt lat="44.0172709" lon="10.9792455"><ele>1039.0</ele><time>2026-04-04T11:56:33.335Z</time></trkpt><trkpt lat="44.017246" lon="10.979147"><ele>1039.0</ele><time>2026-04-04T11:56:34.335Z</time></trkpt><trkpt lat="44.0172214" lon="10.9790548"><ele>1038.9999999999998</ele><time>2026-04-04T11:56:35.334Z</time></trkpt><trkpt lat="44.0171953" lon="10.978968"><ele>1039.0</ele><time>2026-04-04T11:56:36.333Z</time></trkpt><trkpt lat="44.0171242" lon="10.9788137"><ele>1035.8333333333333</ele><time>2026-04-04T11:56:38.334Z</time></trkpt><trkpt lat="44.0171027" lon="10.9787131"><ele>1032.6666666666665</ele><time>2026-04-04T11:56:39.333Z</time></trkpt><trkpt lat="44.0170696" lon="10.9786235"><ele>1029.5</ele><time>2026-04-04T11:56:40.335Z</time></trkpt><trkpt lat="44.0170382" lon="10.9785429"><ele>1026.3333333333333</ele><time>2026-04-04T11:56:41.334Z</time></trkpt><trkpt lat="44.0170153" lon="10.9784589"><ele>1023.1666666666666</ele><time>2026-04-04T11:56:42.334Z</time></trkpt><trkpt lat="44.016927" lon="10.9783562"><ele>1020.0</ele><time>2026-04-04T11:56:44.335Z</time></trkpt><trkpt lat="44.016808" lon="10.9783003"><ele>1019.4285714285714</ele><time>2026-04-04T11:56:46.334Z</time></trkpt><trkpt lat="44.016754" lon="10.97825"><ele>1018.8571428571429</ele><time>2026-04-04T11:56:47.334Z</time></trkpt><trkpt lat="44.0166996" lon="10.9781883"><ele>1018.2857142857143</ele><time>2026-04-04T11:56:48.334Z</time></trkpt><trkpt lat="44.0166486" lon="10.9781189"><ele>1017.7142857142858</ele><time>2026-04-04T11:56:49.335Z</time></trkpt><trkpt lat="44.0166203" lon="10.9780255"><ele>1017.1428571428571</ele><time>2026-04-04T11:56:50.334Z</time></trkpt><trkpt lat="44.0165827" lon="10.9779266"><ele>1016.5714285714287</ele><time>2026-04-04T11:56:51.334Z</time></trkpt><trkpt lat="44.0165405" lon="10.9778346"><ele>1016.0</ele><time>2026-04-04T11:56:52.335Z</time></trkpt><trkpt lat="44.0164905" lon="10.9777485"><ele>1016.0000000000001</ele><time>2026-04-04T11:56:53.334Z</time></trkpt><trkpt lat="44.0164442" lon="10.9776757"><ele>1016.0</ele><time>2026-04-04T11:56:54.335Z</time></trkpt><trkpt lat="44.0164067" lon="10.9776022"><ele>1016.0</ele><time>2026-04-04T11:56:55.335Z</time></trkpt><trkpt lat="44.0163891" lon="10.9775101"><ele>1016.0</ele><time>2026-04-04T11:56:56.334Z</time></trkpt><trkpt lat="44.016383" lon="10.9773467"><ele>1016.0000000000001</ele><time>2026-04-04T11:56:58.334Z</time></trkpt><trkpt lat="44.0164071" lon="10.9772618"><ele>1016.0</ele><time>2026-04-04T11:56:59.335Z</time></trkpt><trkpt lat="44.0164502" lon="10.9771765"><ele>1013.6666666666667</ele><time>2026-04-04T11:57:00.335Z</time></trkpt><trkpt lat="44.0164878" lon="10.9771026"><ele>1011.3333333333334</ele><time>2026-04-04T11:57:01.334Z</time></trkpt><trkpt lat="44.0165513" lon="10.9770178"><ele>1009.0</ele><time>2026-04-04T11:57:02.342Z</time></trkpt><trkpt lat="44.0166098" lon="10.9769448"><ele>1006.6666666666667</ele><time>2026-04-04T11:57:03.335Z</time></trkpt><trkpt lat="44.0166755" lon="10.976875"><ele>1004.3333333333334</ele><time>2026-04-04T11:57:04.333Z</time></trkpt><trkpt lat="44.0167291" lon="10.9768117"><ele>1002.0</ele><time>2026-04-04T11:57:05.335Z</time></trkpt><trkpt lat="44.0167698" lon="10.9767361"><ele>999.8571428571429</ele><time>2026-04-04T11:57:06.334Z</time></trkpt><trkpt lat="44.0167993" lon="10.9766471"><ele>997.7142857142857</ele><time>2026-04-04T11:57:07.334Z</time></trkpt><trkpt lat="44.016813" lon="10.9765483"><ele>995.5714285714286</ele><time>2026-04-04T11:57:08.333Z</time></trkpt><trkpt lat="44.0168029" lon="10.9764446"><ele>993.4285714285714</ele><time>2026-04-04T11:57:09.333Z</time></trkpt><trkpt lat="44.0167868" lon="10.9763522"><ele>991.2857142857142</ele><time>2026-04-04T11:57:10.334Z</time></trkpt><trkpt lat="44.0167805" lon="10.9762649"><ele>989.1428571428571</ele><time>2026-04-04T11:57:11.333Z</time></trkpt><trkpt lat="44.0167867" lon="10.9761371"><ele>987.0</ele><time>2026-04-04T11:57:13.334Z</time></trkpt><trkpt lat="44.0168585" lon="10.9760373"><ele>987.0</ele><time>2026-04-04T11:57:15.334Z</time></trkpt><trkpt lat="44.0169423" lon="10.975929"><ele>987.0</ele><time>2026-04-04T11:57:17.334Z</time></trkpt><trkpt lat="44.0170091" lon="10.9757868"><ele>987.0</ele><time>2026-04-04T11:57:19.334Z</time></trkpt><trkpt lat="44.0170181" lon="10.9756919"><ele>987.0</ele><time>2026-04-04T11:57:20.334Z</time></trkpt><trkpt lat="44.0170217" lon="10.975603"><ele>987.0</ele><time>2026-04-04T11:57:21.333Z</time></trkpt><trkpt lat="44.0170411" lon="10.9754555"><ele>987.0</ele><time>2026-04-04T11:57:23.334Z</time></trkpt><trkpt lat="44.017089" lon="10.9753122"><ele>987.0</ele><time>2026-04-04T11:57:25.334Z</time></trkpt><trkpt lat="44.0171683" lon="10.9751756"><ele>987.0</ele><time>2026-04-04T11:57:27.334Z</time></trkpt><trkpt lat="44.0172241" lon="10.9751168"><ele>987.0</ele><time>2026-04-04T11:57:28.334Z</time></trkpt><trkpt lat="44.0172851" lon="10.9750593"><ele>987.0</ele><time>2026-04-04T11:57:29.333Z</time></trkpt><trkpt lat="44.0173507" lon="10.9750066"><ele>988.1666666666666</ele><time>2026-04-04T11:57:30.334Z</time></trkpt><trkpt lat="44.0174407" lon="10.9749609"><ele>989.3333333333333</ele><time>2026-04-04T11:57:31.335Z</time></trkpt><trkpt lat="44.0175222" lon="10.9749155"><ele>990.5</ele><time>2026-04-04T11:57:32.334Z</time></trkpt><trkpt lat="44.0176026" lon="10.9748686"><ele>991.6666666666666</ele><time>2026-04-04T11:57:33.335Z</time></trkpt><trkpt lat="44.0176846" lon="10.9748193"><ele>992.8333333333333</ele><time>2026-04-04T11:57:34.334Z</time></trkpt><trkpt lat="44.017763" lon="10.9747612"><ele>994.0</ele><time>2026-04-04T11:57:35.334Z</time></trkpt><trkpt lat="44.0178331" lon="10.9746905"><ele>992.1666666666666</ele><time>2026-04-04T11:57:36.333Z</time></trkpt><trkpt lat="44.017897" lon="10.9746144"><ele>990.3333333333333</ele><time>2026-04-04T11:57:37.335Z</time></trkpt><trkpt lat="44.0179446" lon="10.9745232"><ele>988.5</ele><time>2026-04-04T11:57:38.333Z</time></trkpt><trkpt lat="44.0180046" lon="10.9744255"><ele>986.6666666666667</ele><time>2026-04-04T11:57:39.334Z</time></trkpt><trkpt lat="44.0180595" lon="10.9743315"><ele>984.8333333333334</ele><time>2026-04-04T11:57:40.334Z</time></trkpt><trkpt lat="44.0181153" lon="10.9742519"><ele>983.0</ele><time>2026-04-04T11:57:41.333Z</time></trkpt><trkpt lat="44.0181757" lon="10.9741795"><ele>983.0000000000001</ele><time>2026-04-04T11:57:42.334Z</time></trkpt><trkpt lat="44.0182323" lon="10.9740954"><ele>983.0</ele><time>2026-04-04T11:57:43.334Z</time></trkpt><trkpt lat="44.018282" lon="10.9740017"><ele>983.0</ele><time>2026-04-04T11:57:44.334Z</time></trkpt><trkpt lat="44.0183296" lon="10.9739156"><ele>983.0</ele><time>2026-04-04T11:57:45.334Z</time></trkpt><trkpt lat="44.0183671" lon="10.9738324"><ele>983.0000000000001</ele><time>2026-04-04T11:57:46.335Z</time></trkpt><trkpt lat="44.0183989" lon="10.9737501"><ele>983.0</ele><time>2026-04-04T11:57:47.333Z</time></trkpt><trkpt lat="44.0184666" lon="10.973614"><ele>980.5999999999999</ele><time>2026-04-04T11:57:49.335Z</time></trkpt><trkpt lat="44.0185145" lon="10.9734908"><ele>978.1999999999999</ele><time>2026-04-04T11:57:51.333Z</time></trkpt><trkpt lat="44.0185162" lon="10.9733247"><ele>975.8</ele><time>2026-04-04T11:57:53.334Z</time></trkpt><trkpt lat="44.0185087" lon="10.9731885"><ele>973.4</ele><time>2026-04-04T11:57:55.332Z</time></trkpt><trkpt lat="44.0185074" lon="10.9730457"><ele>971.0</ele><time>2026-04-04T11:59:35.333Z</time></trkpt><trkpt lat="44.0185323" lon="10.9728798"><ele>969.8333333333334</ele><time>2026-04-04T11:59:37.334Z</time></trkpt><trkpt lat="44.0185504" lon="10.9727816"><ele>968.6666666666667</ele><time>2026-04-04T11:59:38.334Z</time></trkpt><trkpt lat="44.0185609" lon="10.9726737"><ele>967.5</ele><time>2026-04-04T11:59:39.334Z</time></trkpt><trkpt lat="44.0185767" lon="10.9725462"><ele>966.3333333333333</ele><time>2026-04-04T11:59:40.333Z</time></trkpt><trkpt lat="44.0185864" lon="10.9724198"><ele>965.1666666666666</ele><time>2026-04-04T11:59:41.335Z</time></trkpt><trkpt lat="44.0185717" lon="10.9723024"><ele>964.0</ele><time>2026-04-04T11:59:42.333Z</time></trkpt><trkpt lat="44.0185507" lon="10.9722013"><ele>963.7142857142858</ele><time>2026-04-04T11:59:43.334Z</time></trkpt><trkpt lat="44.0185063" lon="10.9721286"><ele>963.4285714285716</ele><time>2026-04-04T11:59:44.334Z</time></trkpt><trkpt lat="44.0184511" lon="10.9720578"><ele>963.1428571428571</ele><time>2026-04-04T11:59:45.334Z</time></trkpt><trkpt lat="44.0183889" lon="10.9719971"><ele>962.8571428571429</ele><time>2026-04-04T11:59:46.333Z</time></trkpt><trkpt lat="44.0183378" lon="10.9719294"><ele>962.5714285714286</ele><time>2026-04-04T11:59:47.333Z</time></trkpt><trkpt lat="44.0182983" lon="10.9718539"><ele>962.2857142857142</ele><time>2026-04-04T11:59:48.334Z</time></trkpt><trkpt lat="44.0182664" lon="10.9717601"><ele>961.9999999999999</ele><time>2026-04-04T11:59:49.334Z</time></trkpt><trkpt lat="44.018248" lon="10.9716544"><ele>970.0</ele><time>2026-04-04T11:59:50.334Z</time></trkpt><trkpt lat="44.01824" lon="10.9715303"><ele>978.0</ele><time>2026-04-04T11:59:51.334Z</time></trkpt><trkpt lat="44.0182436" lon="10.9713797"><ele>986.0</ele><time>2026-04-04T11:59:52.334Z</time></trkpt><trkpt lat="44.0182478" lon="10.9712204"><ele>994.0</ele><time>2026-04-04T11:59:53.333Z</time></trkpt><trkpt lat="44.0182623" lon="10.9710589"><ele>1002.0</ele><time>2026-04-04T11:59:54.334Z</time></trkpt><trkpt lat="44.0182608" lon="10.9709115"><ele>998.8</ele><time>2026-04-04T11:59:55.333Z</time></trkpt><trkpt lat="44.0182495" lon="10.9707637"><ele>995.6</ele><time>2026-04-04T11:59:56.333Z</time></trkpt><trkpt lat="44.0182295" lon="10.9706264"><ele>992.3999999999999</ele><time>2026-04-04T11:59:57.334Z</time></trkpt><trkpt lat="44.0182068" lon="10.9705018"><ele>989.1999999999999</ele><time>2026-04-04T11:59:58.334Z</time></trkpt><trkpt lat="44.0182037" lon="10.9703681"><ele>986.0</ele><time>2026-04-04T11:59:59.333Z</time></trkpt><trkpt lat="44.0182182" lon="10.9702341"><ele>986.0</ele><time>2026-04-04T12:00:00.334Z</time></trkpt><trkpt lat="44.0182413" lon="10.9700929"><ele>985.9999999999999</ele><time>2026-04-04T12:00:01.335Z</time></trkpt><trkpt lat="44.0182713" lon="10.9699399"><ele>985.9999999999999</ele><time>2026-04-04T12:00:02.334Z</time></trkpt><trkpt lat="44.0182843" lon="10.9697945"><ele>986.0</ele><time>2026-04-04T12:00:03.334Z</time></trkpt><trkpt lat="44.0182923" lon="10.9696715"><ele>986.0</ele><time>2026-04-04T12:00:04.333Z</time></trkpt><trkpt lat="44.0183144" lon="10.9695546"><ele>985.5000000000001</ele><time>2026-04-04T12:00:05.333Z</time></trkpt><trkpt lat="44.0183172" lon="10.969463"><ele>985.0</ele><time>2026-04-04T12:00:06.335Z</time></trkpt><trkpt lat="44.0183058" lon="10.96937"><ele>984.5</ele><time>2026-04-04T12:00:07.335Z</time></trkpt><trkpt lat="44.0182154" lon="10.9692481"><ele>984.0</ele><time>2026-04-04T12:00:09.333Z</time></trkpt><trkpt lat="44.0181707" lon="10.9691837"><ele>983.5000000000001</ele><time>2026-04-04T12:00:10.334Z</time></trkpt><trkpt lat="44.0181198" lon="10.9691156"><ele>983.0</ele><time>2026-04-04T12:00:11.334Z</time></trkpt><trkpt lat="44.0180822" lon="10.9690387"><ele>982.0000000000001</ele><time>2026-04-04T12:00:12.334Z</time></trkpt><trkpt lat="44.0180504" lon="10.968952"><ele>981.0</ele><time>2026-04-04T12:00:13.335Z</time></trkpt><trkpt lat="44.0180305" lon="10.9688508"><ele>980.0</ele><time>2026-04-04T12:00:14.334Z</time></trkpt><trkpt lat="44.0180223" lon="10.9687453"><ele>979.0</ele><time>2026-04-04T12:00:15.334Z</time></trkpt><trkpt lat="44.0180189" lon="10.9686321"><ele>978.0000000000001</ele><time>2026-04-04T12:00:16.335Z</time></trkpt><trkpt lat="44.0180175" lon="10.9685128"><ele>977.0</ele><time>2026-04-04T12:00:17.334Z</time></trkpt><trkpt lat="44.0180255" lon="10.9683809"><ele>975.0000000000001</ele><time>2026-04-04T12:00:18.334Z</time></trkpt><trkpt lat="44.0180352" lon="10.9682576"><ele>973.0</ele><time>2026-04-04T12:00:19.334Z</time></trkpt><trkpt lat="44.0180517" lon="10.9681415"><ele>971.0</ele><time>2026-04-04T12:00:20.333Z</time></trkpt><trkpt lat="44.0180724" lon="10.9680276"><ele>969.0</ele><time>2026-04-04T12:00:21.334Z</time></trkpt><trkpt lat="44.0180949" lon="10.9679105"><ele>967.0000000000001</ele><time>2026-04-04T12:00:22.333Z</time></trkpt><trkpt lat="44.0181166" lon="10.9677782"><ele>965.0</ele><time>2026-04-04T12:00:23.334Z</time></trkpt><trkpt lat="44.0181355" lon="10.9676408"><ele>964.4</ele><time>2026-04-04T12:00:24.334Z</time></trkpt><trkpt lat="44.0181334" lon="10.9675012"><ele>963.8</ele><time>2026-04-04T12:00:25.333Z</time></trkpt><trkpt lat="44.0181302" lon="10.9673556"><ele>963.2</ele><time>2026-04-04T12:00:26.333Z</time></trkpt><trkpt lat="44.0181291" lon="10.9672082"><ele>962.6</ele><time>2026-04-04T12:00:27.333Z</time></trkpt><trkpt lat="44.0181251" lon="10.9670644"><ele>962.0</ele><time>2026-04-04T12:00:28.334Z</time></trkpt><trkpt lat="44.0181175" lon="10.9669259"><ele>962.0</ele><time>2026-04-04T12:00:29.334Z</time></trkpt><trkpt lat="44.0181087" lon="10.9667945"><ele>962.0</ele><time>2026-04-04T12:00:30.334Z</time></trkpt><trkpt lat="44.0180949" lon="10.9666704"><ele>962.0</ele><time>2026-04-04T12:00:31.333Z</time></trkpt><trkpt lat="44.0180686" lon="10.9665531"><ele>962.0</ele><time>2026-04-04T12:00:32.334Z</time></trkpt><trkpt lat="44.018048" lon="10.9664406"><ele>962.0</ele><time>2026-04-04T12:00:33.334Z</time></trkpt><trkpt lat="44.0180168" lon="10.966318"><ele>960.8</ele><time>2026-04-04T12:00:34.334Z</time></trkpt><trkpt lat="44.0179851" lon="10.9661871"><ele>959.6</ele><time>2026-04-04T12:00:35.334Z</time></trkpt><trkpt lat="44.0179612" lon="10.9660625"><ele>958.3999999999999</ele><time>2026-04-04T12:00:36.334Z</time></trkpt><trkpt lat="44.0179336" lon="10.9659464"><ele>957.1999999999999</ele><time>2026-04-04T12:00:37.334Z</time></trkpt><trkpt lat="44.0179" lon="10.9658315"><ele>956.0</ele><time>2026-04-04T12:00:38.332Z</time></trkpt><trkpt lat="44.0178674" lon="10.9657189"><ele>954.0</ele><time>2026-04-04T12:00:39.334Z</time></trkpt><trkpt lat="44.017837" lon="10.9656102"><ele>951.9999999999999</ele><time>2026-04-04T12:00:40.333Z</time></trkpt><trkpt lat="44.0178011" lon="10.9655012"><ele>949.9999999999999</ele><time>2026-04-04T12:00:41.333Z</time></trkpt><trkpt lat="44.0177708" lon="10.965379"><ele>948.0</ele><time>2026-04-04T12:00:42.334Z</time></trkpt><trkpt lat="44.0177428" lon="10.9652521"><ele>946.0</ele><time>2026-04-04T12:00:43.335Z</time></trkpt><trkpt lat="44.0177214" lon="10.9651233"><ele>943.0</ele><time>2026-04-04T12:00:44.333Z</time></trkpt><trkpt lat="44.0177066" lon="10.9649958"><ele>939.9999999999999</ele><time>2026-04-04T12:00:45.334Z</time></trkpt><trkpt lat="44.0177262" lon="10.9648645"><ele>936.9999999999999</ele><time>2026-04-04T12:00:46.333Z</time></trkpt><trkpt lat="44.0177683" lon="10.9647435"><ele>934.0</ele><time>2026-04-04T12:00:47.334Z</time></trkpt><trkpt lat="44.0178171" lon="10.9646369"><ele>931.0</ele><time>2026-04-04T12:00:48.334Z</time></trkpt><trkpt lat="44.0178528" lon="10.9645352"><ele>931.0</ele><time>2026-04-04T12:00:49.334Z</time></trkpt><trkpt lat="44.0179001" lon="10.9644284"><ele>930.9999999999999</ele><time>2026-04-04T12:00:50.334Z</time></trkpt><trkpt lat="44.0179542" lon="10.9643199"><ele>930.9999999999999</ele><time>2026-04-04T12:00:51.333Z</time></trkpt><trkpt lat="44.0180161" lon="10.9642104"><ele>931.0</ele><time>2026-04-04T12:00:52.334Z</time></trkpt><trkpt lat="44.0180751" lon="10.9641168"><ele>931.0</ele><time>2026-04-04T12:00:53.334Z</time></trkpt><trkpt lat="44.0181287" lon="10.9640346"><ele>931.8571428571429</ele><time>2026-04-04T12:00:54.334Z</time></trkpt><trkpt lat="44.0181796" lon="10.9639753"><ele>932.7142857142858</ele><time>2026-04-04T12:00:55.334Z</time></trkpt><trkpt lat="44.0182272" lon="10.9639093"><ele>933.5714285714286</ele><time>2026-04-04T12:00:56.334Z</time></trkpt><trkpt lat="44.0182805" lon="10.9638298"><ele>934.4285714285714</ele><time>2026-04-04T12:00:57.334Z</time></trkpt><trkpt lat="44.0183283" lon="10.9637441"><ele>935.2857142857143</ele><time>2026-04-04T12:00:58.335Z</time></trkpt><trkpt lat="44.0183762" lon="10.963662"><ele>936.1428571428571</ele><time>2026-04-04T12:00:59.333Z</time></trkpt><trkpt lat="44.0184314" lon="10.9635984"><ele>937.0</ele><time>2026-04-04T12:01:00.333Z</time></trkpt><trkpt lat="44.0184805" lon="10.963541"><ele>936.9999999999999</ele><time>2026-04-04T12:01:01.334Z</time></trkpt><trkpt lat="44.0185795" lon="10.9634351"><ele>937.0</ele><time>2026-04-04T12:01:03.334Z</time></trkpt><trkpt lat="44.0186294" lon="10.9633636"><ele>937.0</ele><time>2026-04-04T12:01:04.333Z</time></trkpt><trkpt lat="44.0186845" lon="10.9632867"><ele>937.0</ele><time>2026-04-04T12:01:05.333Z</time></trkpt><trkpt lat="44.0187371" lon="10.9632145"><ele>936.9999999999999</ele><time>2026-04-04T12:01:06.334Z</time></trkpt><trkpt lat="44.018786" lon="10.9631409"><ele>937.0</ele><time>2026-04-04T12:01:07.334Z</time></trkpt><trkpt lat="44.0188325" lon="10.9630762"><ele>937.7142857142857</ele><time>2026-04-04T12:01:08.333Z</time></trkpt><trkpt lat="44.0188774" lon="10.9630086"><ele>938.4285714285716</ele><time>2026-04-04T12:01:09.334Z</time></trkpt><trkpt lat="44.0189222" lon="10.9629297"><ele>939.1428571428572</ele><time>2026-04-04T12:01:10.333Z</time></trkpt><trkpt lat="44.0189622" lon="10.9628361"><ele>939.8571428571429</ele><time>2026-04-04T12:01:11.335Z</time></trkpt><trkpt lat="44.0189996" lon="10.9627389"><ele>940.5714285714287</ele><time>2026-04-04T12:01:12.335Z</time></trkpt><trkpt lat="44.0190397" lon="10.9626527"><ele>941.2857142857144</ele><time>2026-04-04T12:01:13.334Z</time></trkpt><trkpt lat="44.019083" lon="10.9625659"><ele>942.0000000000001</ele><time>2026-04-04T12:01:14.333Z</time></trkpt><trkpt lat="44.0191287" lon="10.9624723"><ele>939.5</ele><time>2026-04-04T12:01:15.333Z</time></trkpt><trkpt lat="44.0191743" lon="10.9623797"><ele>937.0</ele><time>2026-04-04T12:01:16.333Z</time></trkpt><trkpt lat="44.0192278" lon="10.9622914"><ele>934.5</ele><time>2026-04-04T12:01:17.335Z</time></trkpt><trkpt lat="44.0192709" lon="10.9622085"><ele>932.0</ele><time>2026-04-04T12:01:18.335Z</time></trkpt><trkpt lat="44.0192934" lon="10.9621262"><ele>929.5</ele><time>2026-04-04T12:01:19.334Z</time></trkpt><trkpt lat="44.0193323" lon="10.9620301"><ele>927.0</ele><time>2026-04-04T12:01:20.333Z</time></trkpt><trkpt lat="44.0193793" lon="10.9619337"><ele>926.9999999999999</ele><time>2026-04-04T12:01:21.333Z</time></trkpt><trkpt lat="44.0194227" lon="10.9618423"><ele>927.0</ele><time>2026-04-04T12:01:22.334Z</time></trkpt><trkpt lat="44.0194605" lon="10.9617554"><ele>926.9999999999999</ele><time>2026-04-04T12:01:23.334Z</time></trkpt><trkpt lat="44.0194851" lon="10.9616695"><ele>926.9999999999999</ele><time>2026-04-04T12:01:24.334Z</time></trkpt><trkpt lat="44.0195013" lon="10.9615794"><ele>927.0</ele><time>2026-04-04T12:01:25.333Z</time></trkpt><trkpt lat="44.0195142" lon="10.9614893"><ele>926.9999999999999</ele><time>2026-04-04T12:01:26.333Z</time></trkpt><trkpt lat="44.0195185" lon="10.9613888"><ele>926.9999999999999</ele><time>2026-04-04T12:01:27.334Z</time></trkpt><trkpt lat="44.0195413" lon="10.9612664"><ele>926.2</ele><time>2026-04-04T12:01:28.334Z</time></trkpt><trkpt lat="44.0195621" lon="10.9611371"><ele>925.4000000000001</ele><time>2026-04-04T12:01:29.334Z</time></trkpt><trkpt lat="44.0195663" lon="10.9610123"><ele>924.5999999999999</ele><time>2026-04-04T12:01:30.333Z</time></trkpt><trkpt lat="44.0195565" lon="10.9608889"><ele>923.8</ele><time>2026-04-04T12:01:31.334Z</time></trkpt><trkpt lat="44.0195455" lon="10.9607639"><ele>923.0</ele><time>2026-04-04T12:01:32.334Z</time></trkpt><trkpt lat="44.0195357" lon="10.9606344"><ele>922.8333333333334</ele><time>2026-04-04T12:01:33.335Z</time></trkpt><trkpt lat="44.0195259" lon="10.9605094"><ele>922.6666666666667</ele><time>2026-04-04T12:01:34.334Z</time></trkpt><trkpt lat="44.019526" lon="10.960383"><ele>922.5</ele><time>2026-04-04T12:01:35.335Z</time></trkpt><trkpt lat="44.0195264" lon="10.9602729"><ele>922.3333333333333</ele><time>2026-04-04T12:01:36.334Z</time></trkpt><trkpt lat="44.0195204" lon="10.960184"><ele>922.1666666666666</ele><time>2026-04-04T12:01:37.334Z</time></trkpt><trkpt lat="44.0194739" lon="10.9600362"><ele>922.0</ele><time>2026-04-04T12:01:39.335Z</time></trkpt><trkpt lat="44.0194319" lon="10.9599646"><ele>920.9999999999999</ele><time>2026-04-04T12:01:40.334Z</time></trkpt><trkpt lat="44.0193885" lon="10.9598846"><ele>920.0</ele><time>2026-04-04T12:01:41.334Z</time></trkpt><trkpt lat="44.0193489" lon="10.9598001"><ele>919.0</ele><time>2026-04-04T12:01:42.333Z</time></trkpt><trkpt lat="44.0193226" lon="10.9597193"><ele>918.0</ele><time>2026-04-04T12:01:43.334Z</time></trkpt><trkpt lat="44.0193008" lon="10.9595593"><ele>916.9999999999999</ele><time>2026-04-04T12:01:45.333Z</time></trkpt><trkpt lat="44.019297" lon="10.9594637"><ele>916.0</ele><time>2026-04-04T12:01:46.334Z</time></trkpt><trkpt lat="44.0192895" lon="10.9593737"><ele>915.9999999999999</ele><time>2026-04-04T12:01:47.335Z</time></trkpt><trkpt lat="44.019283" lon="10.9592694"><ele>916.0</ele><time>2026-04-04T12:01:48.334Z</time></trkpt><trkpt lat="44.0192691" lon="10.95917"><ele>916.0</ele><time>2026-04-04T12:01:49.335Z</time></trkpt><trkpt lat="44.0192609" lon="10.9590786"><ele>916.0</ele><time>2026-04-04T12:01:50.334Z</time></trkpt><trkpt lat="44.0192672" lon="10.9589766"><ele>915.9999999999999</ele><time>2026-04-04T12:01:51.334Z</time></trkpt><trkpt lat="44.0192892" lon="10.9588655"><ele>916.0</ele><time>2026-04-04T12:01:52.334Z</time></trkpt><trkpt lat="44.0193138" lon="10.9587559"><ele>915.9999999999999</ele><time>2026-04-04T12:01:53.335Z</time></trkpt><trkpt lat="44.0193287" lon="10.9586454"><ele>916.0</ele><time>2026-04-04T12:01:54.335Z</time></trkpt><trkpt lat="44.0193338" lon="10.9585504"><ele>916.0</ele><time>2026-04-04T12:01:55.335Z</time></trkpt><trkpt lat="44.0193427" lon="10.9584559"><ele>916.0</ele><time>2026-04-04T12:01:56.335Z</time></trkpt><trkpt lat="44.0193621" lon="10.9583471"><ele>915.9999999999999</ele><time>2026-04-04T12:01:57.333Z</time></trkpt><trkpt lat="44.0193883" lon="10.9582419"><ele>916.0</ele><time>2026-04-04T12:01:58.335Z</time></trkpt><trkpt lat="44.0194225" lon="10.9581368"><ele>916.1666666666666</ele><time>2026-04-04T12:01:59.335Z</time></trkpt><trkpt lat="44.0194666" lon="10.9580355"><ele>916.3333333333333</ele><time>2026-04-04T12:02:00.333Z</time></trkpt><trkpt lat="44.0195196" lon="10.9579378"><ele>916.5</ele><time>2026-04-04T12:02:01.335Z</time></trkpt><trkpt lat="44.0195744" lon="10.9578415"><ele>916.6666666666667</ele><time>2026-04-04T12:02:02.334Z</time></trkpt><trkpt lat="44.0196331" lon="10.9577504"><ele>916.8333333333334</ele><time>2026-04-04T12:02:03.336Z</time></trkpt><trkpt lat="44.0196978" lon="10.9576635"><ele>917.0</ele><time>2026-04-04T12:02:04.335Z</time></trkpt><trkpt lat="44.0197638" lon="10.9575784"><ele>916.8</ele><time>2026-04-04T12:02:05.335Z</time></trkpt><trkpt lat="44.0198344" lon="10.9574833"><ele>916.6</ele><time>2026-04-04T12:02:06.333Z</time></trkpt><trkpt lat="44.0198931" lon="10.9573752"><ele>916.3999999999999</ele><time>2026-04-04T12:02:07.334Z</time></trkpt><trkpt lat="44.0199421" lon="10.957267"><ele>916.1999999999999</ele><time>2026-04-04T12:02:08.334Z</time></trkpt><trkpt lat="44.0199771" lon="10.9571539"><ele>916.0</ele><time>2026-04-04T12:02:09.339Z</time></trkpt><trkpt lat="44.0200071" lon="10.9570349"><ele>916.0</ele><time>2026-04-04T12:02:10.334Z</time></trkpt><trkpt lat="44.0200342" lon="10.9569082"><ele>915.9999999999999</ele><time>2026-04-04T12:02:11.335Z</time></trkpt><trkpt lat="44.0200609" lon="10.9567704"><ele>915.9999999999999</ele><time>2026-04-04T12:02:12.334Z</time></trkpt><trkpt lat="44.0200749" lon="10.9566325"><ele>916.0</ele><time>2026-04-04T12:02:13.335Z</time></trkpt><trkpt lat="44.0200724" lon="10.9565047"><ele>916.0</ele><time>2026-04-04T12:02:14.336Z</time></trkpt><trkpt lat="44.0200596" lon="10.9563971"><ele>913.9999999999999</ele><time>2026-04-04T12:02:15.335Z</time></trkpt><trkpt lat="44.0200513" lon="10.9562949"><ele>912.0</ele><time>2026-04-04T12:02:16.335Z</time></trkpt><trkpt lat="44.0200502" lon="10.9561971"><ele>910.0</ele><time>2026-04-04T12:02:17.336Z</time></trkpt><trkpt lat="44.020068" lon="10.9561054"><ele>908.0</ele><time>2026-04-04T12:02:18.335Z</time></trkpt><trkpt lat="44.0200967" lon="10.9560238"><ele>905.9999999999999</ele><time>2026-04-04T12:02:19.335Z</time></trkpt><trkpt lat="44.0201343" lon="10.9559519"><ele>904.0</ele><time>2026-04-04T12:02:20.335Z</time></trkpt><trkpt lat="44.0202331" lon="10.9558451"><ele>903.6666666666666</ele><time>2026-04-04T12:02:22.335Z</time></trkpt><trkpt lat="44.020293" lon="10.955796"><ele>903.3333333333333</ele><time>2026-04-04T12:02:23.335Z</time></trkpt><trkpt lat="44.0203556" lon="10.9557341"><ele>903.0</ele><time>2026-04-04T12:02:24.334Z</time></trkpt><trkpt lat="44.0204241" lon="10.9556657"><ele>902.6666666666667</ele><time>2026-04-04T12:02:25.335Z</time></trkpt><trkpt lat="44.0205" lon="10.9555945"><ele>902.3333333333334</ele><time>2026-04-04T12:02:26.333Z</time></trkpt><trkpt lat="44.0205694" lon="10.9555308"><ele>902.0</ele><time>2026-04-04T12:02:27.335Z</time></trkpt><trkpt lat="44.0206336" lon="10.9554517"><ele>902.0</ele><time>2026-04-04T12:02:28.334Z</time></trkpt><trkpt lat="44.0207056" lon="10.955363"><ele>902.0</ele><time>2026-04-04T12:02:29.335Z</time></trkpt><trkpt lat="44.0207693" lon="10.9552587"><ele>902.0</ele><time>2026-04-04T12:02:30.335Z</time></trkpt><trkpt lat="44.0208279" lon="10.9551452"><ele>902.0</ele><time>2026-04-04T12:02:31.335Z</time></trkpt><trkpt lat="44.0208905" lon="10.9550134"><ele>902.0</ele><time>2026-04-04T12:02:32.334Z</time></trkpt><trkpt lat="44.0209523" lon="10.9548847"><ele>902.75</ele><time>2026-04-04T12:02:33.334Z</time></trkpt><trkpt lat="44.0210237" lon="10.9547565"><ele>903.5</ele><time>2026-04-04T12:02:34.334Z</time></trkpt><trkpt lat="44.0210977" lon="10.9546302"><ele>904.25</ele><time>2026-04-04T12:02:35.335Z</time></trkpt><trkpt lat="44.0211728" lon="10.9545147"><ele>905.0</ele><time>2026-04-04T12:02:36.334Z</time></trkpt><trkpt lat="44.0212414" lon="10.9543984"><ele>905.0</ele><time>2026-04-04T12:02:37.335Z</time></trkpt><trkpt lat="44.0213109" lon="10.9542811"><ele>905.0</ele><time>2026-04-04T12:02:38.334Z</time></trkpt><trkpt lat="44.0213787" lon="10.9541694"><ele>905.0</ele><time>2026-04-04T12:02:39.335Z</time></trkpt><trkpt lat="44.0214539" lon="10.9540518"><ele>905.0</ele><time>2026-04-04T12:02:40.334Z</time></trkpt><trkpt lat="44.0215312" lon="10.9539335"><ele>905.0</ele><time>2026-04-04T12:02:41.335Z</time></trkpt><trkpt lat="44.0216126" lon="10.9538139"><ele>905.6</ele><time>2026-04-04T12:02:42.335Z</time></trkpt><trkpt lat="44.0216958" lon="10.9537058"><ele>906.2</ele><time>2026-04-04T12:02:43.335Z</time></trkpt><trkpt lat="44.0217752" lon="10.9536032"><ele>906.8</ele><time>2026-04-04T12:02:44.335Z</time></trkpt><trkpt lat="44.0218379" lon="10.9535069"><ele>907.4</ele><time>2026-04-04T12:02:45.334Z</time></trkpt><trkpt lat="44.0218866" lon="10.9534057"><ele>908.0</ele><time>2026-04-04T12:02:46.335Z</time></trkpt><trkpt lat="44.0219267" lon="10.9532976"><ele>905.8</ele><time>2026-04-04T12:02:47.335Z</time></trkpt><trkpt lat="44.0219533" lon="10.9531759"><ele>903.5999999999999</ele><time>2026-04-04T12:02:48.334Z</time></trkpt><trkpt lat="44.0219755" lon="10.9530375"><ele>901.4000000000001</ele><time>2026-04-04T12:02:49.335Z</time></trkpt><trkpt lat="44.0219997" lon="10.9528987"><ele>899.2</ele><time>2026-04-04T12:02:50.335Z</time></trkpt><trkpt lat="44.0220273" lon="10.9527706"><ele>897.0</ele><time>2026-04-04T12:02:51.335Z</time></trkpt><trkpt lat="44.0220518" lon="10.9526436"><ele>898.0</ele><time>2026-04-04T12:02:52.336Z</time></trkpt><trkpt lat="44.0220818" lon="10.9525128"><ele>899.0</ele><time>2026-04-04T12:02:53.335Z</time></trkpt><trkpt lat="44.0221174" lon="10.9523915"><ele>900.0</ele><time>2026-04-04T12:02:54.335Z</time></trkpt><trkpt lat="44.0221623" lon="10.9522728"><ele>901.0</ele><time>2026-04-04T12:02:55.335Z</time></trkpt><trkpt lat="44.0222222" lon="10.952155"><ele>902.0</ele><time>2026-04-04T12:02:56.335Z</time></trkpt><trkpt lat="44.0222878" lon="10.9520277"><ele>902.0</ele><time>2026-04-04T12:02:57.334Z</time></trkpt><trkpt lat="44.0223619" lon="10.9518919"><ele>902.0</ele><time>2026-04-04T12:02:58.335Z</time></trkpt><trkpt lat="44.0224264" lon="10.9517566"><ele>902.0</ele><time>2026-04-04T12:02:59.335Z</time></trkpt><trkpt lat="44.0224852" lon="10.9516149"><ele>902.0</ele><time>2026-04-04T12:03:00.335Z</time></trkpt><trkpt lat="44.0225451" lon="10.9514758"><ele>901.4000000000001</ele><time>2026-04-04T12:03:01.336Z</time></trkpt><trkpt lat="44.0226064" lon="10.9513493"><ele>900.8000000000001</ele><time>2026-04-04T12:03:02.333Z</time></trkpt><trkpt lat="44.0226601" lon="10.9512393"><ele>900.2</ele><time>2026-04-04T12:03:03.334Z</time></trkpt><trkpt lat="44.0227133" lon="10.9511432"><ele>899.6</ele><time>2026-04-04T12:03:04.334Z</time></trkpt><trkpt lat="44.0227594" lon="10.9510369"><ele>899.0</ele><time>2026-04-04T12:03:05.334Z</time></trkpt><trkpt lat="44.022801" lon="10.9509405"><ele>898.6666666666667</ele><time>2026-04-04T12:03:06.334Z</time></trkpt><trkpt lat="44.0228394" lon="10.9508515"><ele>898.3333333333334</ele><time>2026-04-04T12:03:07.335Z</time></trkpt><trkpt lat="44.0228853" lon="10.9507628"><ele>898.0</ele><time>2026-04-04T12:03:08.335Z</time></trkpt><trkpt lat="44.022932" lon="10.9506779"><ele>897.6666666666667</ele><time>2026-04-04T12:03:09.335Z</time></trkpt><trkpt lat="44.0229827" lon="10.9506011"><ele>897.3333333333334</ele><time>2026-04-04T12:03:10.334Z</time></trkpt><trkpt lat="44.0230469" lon="10.9505227"><ele>897.0</ele><time>2026-04-04T12:03:11.335Z</time></trkpt><trkpt lat="44.0231073" lon="10.9504528"><ele>897.0</ele><time>2026-04-04T12:03:12.334Z</time></trkpt><trkpt lat="44.0231743" lon="10.9503911"><ele>897.0</ele><time>2026-04-04T12:03:13.335Z</time></trkpt><trkpt lat="44.0232404" lon="10.9503371"><ele>897.0</ele><time>2026-04-04T12:03:14.333Z</time></trkpt><trkpt lat="44.0233154" lon="10.9502988"><ele>897.0</ele><time>2026-04-04T12:03:15.334Z</time></trkpt><trkpt lat="44.0233927" lon="10.9502553"><ele>897.0</ele><time>2026-04-04T12:03:16.336Z</time></trkpt><trkpt lat="44.0234879" lon="10.9502128"><ele>897.0</ele><time>2026-04-04T12:03:17.335Z</time></trkpt><trkpt lat="44.0235704" lon="10.9501463"><ele>897.8</ele><time>2026-04-04T12:03:18.334Z</time></trkpt><trkpt lat="44.0236552" lon="10.9500796"><ele>898.6</ele><time>2026-04-04T12:03:19.335Z</time></trkpt><trkpt lat="44.0237454" lon="10.9499818"><ele>899.3999999999999</ele><time>2026-04-04T12:03:20.333Z</time></trkpt><trkpt lat="44.0238256" lon="10.949896"><ele>900.1999999999999</ele><time>2026-04-04T12:03:21.334Z</time></trkpt><trkpt lat="44.0239111" lon="10.9497996"><ele>901.0</ele><time>2026-04-04T12:03:22.334Z</time></trkpt><trkpt lat="44.0239872" lon="10.9497259"><ele>899.4999999999999</ele><time>2026-04-04T12:03:23.334Z</time></trkpt><trkpt lat="44.024047" lon="10.9496522"><ele>898.0</ele><time>2026-04-04T12:03:24.335Z</time></trkpt><trkpt lat="44.0240998" lon="10.9495697"><ele>896.5</ele><time>2026-04-04T12:03:25.333Z</time></trkpt><trkpt lat="44.0241469" lon="10.9494681"><ele>895.0</ele><time>2026-04-04T12:03:26.333Z</time></trkpt><trkpt lat="44.0241959" lon="10.9493518"><ele>893.4999999999999</ele><time>2026-04-04T12:03:27.333Z</time></trkpt><trkpt lat="44.0242337" lon="10.9492326"><ele>892.0</ele><time>2026-04-04T12:03:28.334Z</time></trkpt><trkpt lat="44.024263" lon="10.949103"><ele>888.6</ele><time>2026-04-04T12:03:29.335Z</time></trkpt><trkpt lat="44.0242943" lon="10.9489661"><ele>885.2</ele><time>2026-04-04T12:03:30.334Z</time></trkpt><trkpt lat="44.024323" lon="10.9488339"><ele>881.8</ele><time>2026-04-04T12:03:31.334Z</time></trkpt><trkpt lat="44.0243493" lon="10.9487046"><ele>878.4</ele><time>2026-04-04T12:03:32.332Z</time></trkpt><trkpt lat="44.0243738" lon="10.9485807"><ele>875.0</ele><time>2026-04-04T12:03:33.334Z</time></trkpt><trkpt lat="44.0243943" lon="10.9484602"><ele>874.6666666666667</ele><time>2026-04-04T12:03:34.334Z</time></trkpt><trkpt lat="44.0244178" lon="10.9483548"><ele>874.3333333333334</ele><time>2026-04-04T12:03:35.333Z</time></trkpt><trkpt lat="44.0244451" lon="10.9482575"><ele>874.0</ele><time>2026-04-04T12:03:36.334Z</time></trkpt><trkpt lat="44.0244828" lon="10.9481737"><ele>873.6666666666667</ele><time>2026-04-04T12:03:37.334Z</time></trkpt><trkpt lat="44.0245298" lon="10.9480811"><ele>873.3333333333334</ele><time>2026-04-04T12:03:38.332Z</time></trkpt><trkpt lat="44.0245856" lon="10.9479775"><ele>873.0</ele><time>2026-04-04T12:03:39.333Z</time></trkpt><trkpt lat="44.024646" lon="10.9478617"><ele>873.0</ele><time>2026-04-04T12:03:40.334Z</time></trkpt><trkpt lat="44.0246977" lon="10.9477401"><ele>873.0</ele><time>2026-04-04T12:03:41.334Z</time></trkpt><trkpt lat="44.0247483" lon="10.9476174"><ele>873.0</ele><time>2026-04-04T12:03:42.335Z</time></trkpt><trkpt lat="44.0247976" lon="10.947497"><ele>873.0</ele><time>2026-04-04T12:03:43.334Z</time></trkpt><trkpt lat="44.024858" lon="10.9473932"><ele>873.0</ele><time>2026-04-04T12:03:44.335Z</time></trkpt><trkpt lat="44.024925" lon="10.947301"><ele>873.3333333333334</ele><time>2026-04-04T12:03:45.332Z</time></trkpt><trkpt lat="44.0249859" lon="10.9472065"><ele>873.6666666666667</ele><time>2026-04-04T12:03:46.336Z</time></trkpt><trkpt lat="44.0250462" lon="10.9471146"><ele>874.0</ele><time>2026-04-04T12:03:47.333Z</time></trkpt><trkpt lat="44.0251043" lon="10.9470222"><ele>874.3333333333334</ele><time>2026-04-04T12:03:48.333Z</time></trkpt><trkpt lat="44.0251653" lon="10.9469415"><ele>874.6666666666667</ele><time>2026-04-04T12:03:49.335Z</time></trkpt><trkpt lat="44.0252358" lon="10.9468584"><ele>875.0</ele><time>2026-04-04T12:03:50.332Z</time></trkpt><trkpt lat="44.0253066" lon="10.9467625"><ele>872.2</ele><time>2026-04-04T12:03:51.334Z</time></trkpt><trkpt lat="44.0253721" lon="10.9466547"><ele>869.4</ele><time>2026-04-04T12:03:52.334Z</time></trkpt><trkpt lat="44.0254423" lon="10.9465348"><ele>866.5999999999999</ele><time>2026-04-04T12:03:53.333Z</time></trkpt><trkpt lat="44.0254962" lon="10.9464197"><ele>863.8</ele><time>2026-04-04T12:03:54.334Z</time></trkpt><trkpt lat="44.0255491" lon="10.9463074"><ele>861.0</ele><time>2026-04-04T12:03:55.334Z</time></trkpt><trkpt lat="44.0256066" lon="10.9461864"><ele>861.0</ele><time>2026-04-04T12:03:56.333Z</time></trkpt><trkpt lat="44.0256681" lon="10.9460687"><ele>860.9999999999999</ele><time>2026-04-04T12:03:57.333Z</time></trkpt><trkpt lat="44.025723" lon="10.945957"><ele>860.9999999999999</ele><time>2026-04-04T12:03:58.334Z</time></trkpt><trkpt lat="44.0257779" lon="10.9458573"><ele>861.0</ele><time>2026-04-04T12:03:59.333Z</time></trkpt><trkpt lat="44.025829" lon="10.9457584"><ele>861.0</ele><time>2026-04-04T12:04:00.334Z</time></trkpt><trkpt lat="44.0259323" lon="10.9456257"><ele>860.5</ele><time>2026-04-04T12:04:01.335Z</time></trkpt><trkpt lat="44.0260229" lon="10.94552"><ele>860.0</ele><time>2026-04-04T12:04:02.334Z</time></trkpt><trkpt lat="44.0261074" lon="10.9454202"><ele>859.5</ele><time>2026-04-04T12:04:03.334Z</time></trkpt><trkpt lat="44.0262117" lon="10.9452808"><ele>859.0</ele><time>2026-04-04T12:04:04.335Z</time></trkpt><trkpt lat="44.0263016" lon="10.9451592"><ele>859.6</ele><time>2026-04-04T12:04:05.334Z</time></trkpt><trkpt lat="44.0263858" lon="10.9450447"><ele>860.2</ele><time>2026-04-04T12:04:06.334Z</time></trkpt><trkpt lat="44.026471" lon="10.944944"><ele>860.8000000000001</ele><time>2026-04-04T12:04:07.334Z</time></trkpt><trkpt lat="44.0265549" lon="10.9448467"><ele>861.4000000000001</ele><time>2026-04-04T12:04:08.333Z</time></trkpt><trkpt lat="44.02663" lon="10.9447484"><ele>862.0</ele><time>2026-04-04T12:04:09.334Z</time></trkpt><trkpt lat="44.0266941" lon="10.9446473"><ele>860.8</ele><time>2026-04-04T12:04:10.335Z</time></trkpt><trkpt lat="44.0267541" lon="10.9445366"><ele>859.6</ele><time>2026-04-04T12:04:11.334Z</time></trkpt><trkpt lat="44.0268117" lon="10.9444206"><ele>858.3999999999999</ele><time>2026-04-04T12:04:12.334Z</time></trkpt><trkpt lat="44.026863" lon="10.9443152"><ele>857.1999999999999</ele><time>2026-04-04T12:04:13.334Z</time></trkpt><trkpt lat="44.026915" lon="10.944218"><ele>856.0</ele><time>2026-04-04T12:04:14.334Z</time></trkpt><trkpt lat="44.0269633" lon="10.94412"><ele>853.9999999999999</ele><time>2026-04-04T12:04:15.334Z</time></trkpt><trkpt lat="44.0269826" lon="10.9440226"><ele>852.0</ele><time>2026-04-04T12:04:16.334Z</time></trkpt><trkpt lat="44.0270075" lon="10.9439254"><ele>850.0</ele><time>2026-04-04T12:04:17.333Z</time></trkpt><trkpt lat="44.0270265" lon="10.9438083"><ele>848.0</ele><time>2026-04-04T12:04:18.333Z</time></trkpt><trkpt lat="44.0270317" lon="10.9436794"><ele>845.9999999999999</ele><time>2026-04-04T12:04:19.335Z</time></trkpt><trkpt lat="44.027013" lon="10.9435437"><ele>844.0</ele><time>2026-04-04T12:04:20.333Z</time></trkpt><trkpt lat="44.0269717" lon="10.9434122"><ele>843.75</ele><time>2026-04-04T12:04:21.333Z</time></trkpt><trkpt lat="44.026917" lon="10.9432839"><ele>843.5</ele><time>2026-04-04T12:04:22.334Z</time></trkpt><trkpt lat="44.0268502" lon="10.9431565"><ele>843.25</ele><time>2026-04-04T12:04:23.334Z</time></trkpt><trkpt lat="44.0267719" lon="10.9430313"><ele>843.0</ele><time>2026-04-04T12:04:24.333Z</time></trkpt><trkpt lat="44.026692" lon="10.9429071"><ele>845.5999999999999</ele><time>2026-04-04T12:04:25.334Z</time></trkpt><trkpt lat="44.0266207" lon="10.9427848"><ele>848.1999999999999</ele><time>2026-04-04T12:04:26.333Z</time></trkpt><trkpt lat="44.0265352" lon="10.9426697"><ele>850.8</ele><time>2026-04-04T12:04:27.334Z</time></trkpt><trkpt lat="44.0264748" lon="10.9425735"><ele>853.4</ele><time>2026-04-04T12:04:28.333Z</time></trkpt><trkpt lat="44.0264319" lon="10.9424784"><ele>856.0</ele><time>2026-04-04T12:04:29.334Z</time></trkpt><trkpt lat="44.026398" lon="10.9423891"><ele>856.0</ele><time>2026-04-04T12:04:30.334Z</time></trkpt><trkpt lat="44.02636" lon="10.9422829"><ele>855.9999999999999</ele><time>2026-04-04T12:04:31.334Z</time></trkpt><trkpt lat="44.0263365" lon="10.9421487"><ele>855.9999999999999</ele><time>2026-04-04T12:04:32.333Z</time></trkpt><trkpt lat="44.0263337" lon="10.9420022"><ele>856.0</ele><time>2026-04-04T12:04:33.335Z</time></trkpt><trkpt lat="44.0263361" lon="10.9418617"><ele>856.0</ele><time>2026-04-04T12:04:34.333Z</time></trkpt><trkpt lat="44.0263419" lon="10.9417278"><ele>854.1666666666666</ele><time>2026-04-04T12:04:35.334Z</time></trkpt><trkpt lat="44.0263468" lon="10.9415936"><ele>852.3333333333333</ele><time>2026-04-04T12:04:36.334Z</time></trkpt><trkpt lat="44.0263534" lon="10.9414628"><ele>850.5</ele><time>2026-04-04T12:04:37.333Z</time></trkpt><trkpt lat="44.0263579" lon="10.9413393"><ele>848.6666666666667</ele><time>2026-04-04T12:04:38.334Z</time></trkpt><trkpt lat="44.0263617" lon="10.9412208"><ele>846.8333333333334</ele><time>2026-04-04T12:04:39.334Z</time></trkpt><trkpt lat="44.0263652" lon="10.9411063"><ele>845.0</ele><time>2026-04-04T12:04:40.335Z</time></trkpt><trkpt lat="44.0263741" lon="10.9410024"><ele>845.0000000000001</ele><time>2026-04-04T12:04:41.334Z</time></trkpt><trkpt lat="44.0263911" lon="10.9409099"><ele>845.0</ele><time>2026-04-04T12:04:42.333Z</time></trkpt><trkpt lat="44.0264167" lon="10.9408298"><ele>845.0</ele><time>2026-04-04T12:04:43.335Z</time></trkpt><trkpt lat="44.0264822" lon="10.9407141"><ele>845.0</ele><time>2026-04-04T12:04:45.334Z</time></trkpt><trkpt lat="44.026596" lon="10.9406422"><ele>845.0000000000001</ele><time>2026-04-04T12:04:47.333Z</time></trkpt><trkpt lat="44.0266659" lon="10.9406313"><ele>845.0</ele><time>2026-04-04T12:04:48.335Z</time></trkpt><trkpt lat="44.026744" lon="10.9406252"><ele>841.6</ele><time>2026-04-04T12:04:49.335Z</time></trkpt><trkpt lat="44.0268364" lon="10.9406445"><ele>838.2</ele><time>2026-04-04T12:04:50.333Z</time></trkpt><trkpt lat="44.0269379" lon="10.940674"><ele>834.8</ele><time>2026-04-04T12:04:51.333Z</time></trkpt><trkpt lat="44.0270481" lon="10.9407156"><ele>831.4</ele><time>2026-04-04T12:04:52.334Z</time></trkpt><trkpt lat="44.027154" lon="10.9407848"><ele>828.0</ele><time>2026-04-04T12:04:53.333Z</time></trkpt><trkpt lat="44.027298" lon="10.9407996"><ele>828.0</ele><time>2026-04-04T12:04:54.334Z</time></trkpt><trkpt lat="44.027406" lon="10.9408258"><ele>828.0</ele><time>2026-04-04T12:04:55.333Z</time></trkpt><trkpt lat="44.0275293" lon="10.9408257"><ele>828.0</ele><time>2026-04-04T12:04:56.333Z</time></trkpt><trkpt lat="44.027651" lon="10.9408028"><ele>828.0</ele><time>2026-04-04T12:04:57.332Z</time></trkpt><trkpt lat="44.0277757" lon="10.9407572"><ele>827.5999999999999</ele><time>2026-04-04T12:04:58.333Z</time></trkpt><trkpt lat="44.0278884" lon="10.9407263"><ele>827.1999999999999</ele><time>2026-04-04T12:04:59.333Z</time></trkpt><trkpt lat="44.0279904" lon="10.9407006"><ele>826.8</ele><time>2026-04-04T12:05:00.334Z</time></trkpt><trkpt lat="44.0280956" lon="10.9406854"><ele>826.4</ele><time>2026-04-04T12:05:01.333Z</time></trkpt><trkpt lat="44.028203" lon="10.9406492"><ele>826.0</ele><time>2026-04-04T12:05:02.333Z</time></trkpt><trkpt lat="44.0283109" lon="10.9406299"><ele>825.8</ele><time>2026-04-04T12:05:03.333Z</time></trkpt><trkpt lat="44.0284227" lon="10.9406498"><ele>825.5999999999999</ele><time>2026-04-04T12:05:04.334Z</time></trkpt><trkpt lat="44.028531" lon="10.940673"><ele>825.4</ele><time>2026-04-04T12:05:05.333Z</time></trkpt><trkpt lat="44.0286373" lon="10.9406891"><ele>825.2</ele><time>2026-04-04T12:05:06.333Z</time></trkpt><trkpt lat="44.0287404" lon="10.9407183"><ele>825.0</ele><time>2026-04-04T12:05:07.334Z</time></trkpt><trkpt lat="44.0288361" lon="10.940751"><ele>825.0</ele><time>2026-04-04T12:05:08.333Z</time></trkpt><trkpt lat="44.0289388" lon="10.940781"><ele>825.0</ele><time>2026-04-04T12:05:09.334Z</time></trkpt><trkpt lat="44.0290433" lon="10.9408038"><ele>825.0</ele><time>2026-04-04T12:05:10.334Z</time></trkpt><trkpt lat="44.0291481" lon="10.9408302"><ele>825.0</ele><time>2026-04-04T12:05:11.334Z</time></trkpt><trkpt lat="44.029254" lon="10.9408646"><ele>825.0</ele><time>2026-04-04T12:05:12.334Z</time></trkpt><trkpt lat="44.0293517" lon="10.9409018"><ele>823.3333333333334</ele><time>2026-04-04T12:05:13.335Z</time></trkpt><trkpt lat="44.029442" lon="10.9409233"><ele>821.6666666666667</ele><time>2026-04-04T12:05:14.333Z</time></trkpt><trkpt lat="44.0295224" lon="10.9409184"><ele>820.0</ele><time>2026-04-04T12:05:15.334Z</time></trkpt><trkpt lat="44.0295915" lon="10.9409072"><ele>818.3333333333334</ele><time>2026-04-04T12:05:16.333Z</time></trkpt><trkpt lat="44.0297" lon="10.9408271"><ele>816.6666666666667</ele><time>2026-04-04T12:05:18.335Z</time></trkpt><trkpt lat="44.0297461" lon="10.9407539"><ele>815.0</ele><time>2026-04-04T12:05:19.333Z</time></trkpt><trkpt lat="44.0298041" lon="10.9406636"><ele>815.0000000000001</ele><time>2026-04-04T12:05:20.333Z</time></trkpt><trkpt lat="44.0298593" lon="10.940581"><ele>815.0</ele><time>2026-04-04T12:05:21.334Z</time></trkpt><trkpt lat="44.0299089" lon="10.9404971"><ele>815.0</ele><time>2026-04-04T12:05:22.334Z</time></trkpt><trkpt lat="44.0299606" lon="10.9404114"><ele>815.0</ele><time>2026-04-04T12:05:23.334Z</time></trkpt><trkpt lat="44.0300133" lon="10.9403381"><ele>815.0000000000001</ele><time>2026-04-04T12:05:24.333Z</time></trkpt><trkpt lat="44.030069" lon="10.940296"><ele>815.0</ele><time>2026-04-04T12:05:25.333Z</time></trkpt><trkpt lat="44.0301884" lon="10.9402568"><ele>817.3333333333334</ele><time>2026-04-04T12:05:27.334Z</time></trkpt><trkpt lat="44.0302547" lon="10.9402635"><ele>819.6666666666667</ele><time>2026-04-04T12:05:28.334Z</time></trkpt><trkpt lat="44.0303246" lon="10.9402761"><ele>822.0</ele><time>2026-04-04T12:05:29.332Z</time></trkpt><trkpt lat="44.0304002" lon="10.940299"><ele>824.3333333333333</ele><time>2026-04-04T12:05:30.335Z</time></trkpt><trkpt lat="44.0304786" lon="10.9403181"><ele>826.6666666666666</ele><time>2026-04-04T12:05:31.334Z</time></trkpt><trkpt lat="44.0305589" lon="10.9403356"><ele>829.0</ele><time>2026-04-04T12:05:32.334Z</time></trkpt><trkpt lat="44.0306396" lon="10.9403474"><ele>828.9999999999999</ele><time>2026-04-04T12:05:33.334Z</time></trkpt><trkpt lat="44.0307189" lon="10.9403512"><ele>829.0</ele><time>2026-04-04T12:05:34.334Z</time></trkpt><trkpt lat="44.0307876" lon="10.9403377"><ele>829.0</ele><time>2026-04-04T12:05:35.334Z</time></trkpt><trkpt lat="44.0308571" lon="10.9403211"><ele>829.0</ele><time>2026-04-04T12:05:36.334Z</time></trkpt><trkpt lat="44.0309317" lon="10.9403024"><ele>828.9999999999999</ele><time>2026-04-04T12:05:37.335Z</time></trkpt><trkpt lat="44.031004" lon="10.9402894"><ele>829.0</ele><time>2026-04-04T12:05:38.334Z</time></trkpt><trkpt lat="44.0311388" lon="10.9403016"><ele>828.8000000000001</ele><time>2026-04-04T12:05:40.333Z</time></trkpt><trkpt lat="44.0312217" lon="10.9402994"><ele>828.6</ele><time>2026-04-04T12:05:41.334Z</time></trkpt><trkpt lat="44.0313234" lon="10.9402601"><ele>828.4</ele><time>2026-04-04T12:05:42.334Z</time></trkpt><trkpt lat="44.0314214" lon="10.9402328"><ele>828.2</ele><time>2026-04-04T12:05:43.335Z</time></trkpt><trkpt lat="44.0314923" lon="10.9402173"><ele>828.0</ele><time>2026-04-04T12:05:44.333Z</time></trkpt><trkpt lat="44.03161" lon="10.9402173"><ele>824.2</ele><time>2026-04-04T12:05:46.335Z</time></trkpt><trkpt lat="44.0317013" lon="10.9402531"><ele>820.4</ele><time>2026-04-04T12:05:48.334Z</time></trkpt><trkpt lat="44.031824" lon="10.9403303"><ele>816.6</ele><time>2026-04-04T12:05:50.334Z</time></trkpt><trkpt lat="44.031892" lon="10.9403868"><ele>812.8000000000001</ele><time>2026-04-04T12:05:51.334Z</time></trkpt><trkpt lat="44.0319605" lon="10.9404463"><ele>809.0</ele><time>2026-04-04T12:05:52.333Z</time></trkpt><trkpt lat="44.0320287" lon="10.9405068"><ele>809.0000000000001</ele><time>2026-04-04T12:05:53.333Z</time></trkpt><trkpt lat="44.032093" lon="10.9405577"><ele>809.0</ele><time>2026-04-04T12:05:54.333Z</time></trkpt><trkpt lat="44.0321616" lon="10.9405964"><ele>809.0</ele><time>2026-04-04T12:05:55.334Z</time></trkpt><trkpt lat="44.0322287" lon="10.9406097"><ele>809.0</ele><time>2026-04-04T12:05:56.333Z</time></trkpt><trkpt lat="44.0322952" lon="10.9406168"><ele>809.0000000000001</ele><time>2026-04-04T12:05:57.334Z</time></trkpt><trkpt lat="44.0324096" lon="10.9406267"><ele>809.0</ele><time>2026-04-04T12:05:59.337Z</time></trkpt><trkpt lat="44.0324758" lon="10.9406955"><ele>809.0000000000001</ele><time>2026-04-04T12:06:02.333Z</time></trkpt><trkpt lat="44.032464" lon="10.9408106"><ele>809.0</ele><time>2026-04-04T12:06:04.334Z</time></trkpt><trkpt lat="44.0324833" lon="10.940915"><ele>809.0</ele><time>2026-04-04T12:06:06.335Z</time></trkpt><trkpt lat="44.0325267" lon="10.9409833"><ele>809.0</ele><time>2026-04-04T12:06:08.334Z</time></trkpt><trkpt lat="44.032595" lon="10.94103"><ele>809.0000000000001</ele><time>2026-04-04T12:06:11.334Z</time></trkpt><trkpt lat="44.03265" lon="10.9409867"><ele>809.0</ele><time>2026-04-04T12:06:13.335Z</time></trkpt><trkpt lat="44.0327333" lon="10.9409217"><ele>810.2</ele><time>2026-04-04T12:06:16.335Z</time></trkpt><trkpt lat="44.0327833" lon="10.9408667"><ele>811.4000000000001</ele><time>2026-04-04T12:06:20.332Z</time></trkpt><trkpt lat="44.0328467" lon="10.9408783"><ele>812.6</ele><time>2026-04-04T12:08:00.334Z</time></trkpt><trkpt lat="44.032935" lon="10.9409133"><ele>813.8</ele><time>2026-04-04T12:08:01.334Z</time></trkpt><trkpt lat="44.03304" lon="10.9409717"><ele>815.0</ele><time>2026-04-04T12:08:02.332Z</time></trkpt><trkpt lat="44.0331467" lon="10.9410767"><ele>815.0</ele><time>2026-04-04T12:08:03.334Z</time></trkpt><trkpt lat="44.0332833" lon="10.9411867"><ele>815.0</ele><time>2026-04-04T12:08:04.335Z</time></trkpt><trkpt lat="44.03341" lon="10.9413417"><ele>815.0</ele><time>2026-04-04T12:08:05.333Z</time></trkpt><trkpt lat="44.0335417" lon="10.9415333"><ele>817.0</ele><time>2026-04-04T12:08:06.334Z</time></trkpt><trkpt lat="44.0336667" lon="10.9417467"><ele>819.0</ele><time>2026-04-04T12:08:07.335Z</time></trkpt><trkpt lat="44.033785" lon="10.9419717"><ele>821.0</ele><time>2026-04-04T12:08:08.334Z</time></trkpt><trkpt lat="44.0339033" lon="10.942195"><ele>821.0</ele><time>2026-04-04T12:08:09.334Z</time></trkpt><trkpt lat="44.0340217" lon="10.9423983"><ele>821.0</ele><time>2026-04-04T12:08:10.335Z</time></trkpt><trkpt lat="44.0341483" lon="10.9425867"><ele>821.0</ele><time>2026-04-04T12:08:11.332Z</time></trkpt><trkpt lat="44.0342733" lon="10.94275"><ele>812.0</ele><time>2026-04-04T12:08:12.332Z</time></trkpt><trkpt lat="44.0343933" lon="10.9428933"><ele>803.0</ele><time>2026-04-04T12:08:13.333Z</time></trkpt><trkpt lat="44.0345067" lon="10.9430383"><ele>794.0</ele><time>2026-04-04T12:08:14.334Z</time></trkpt><trkpt lat="44.0346133" lon="10.9431883"><ele>794.0</ele><time>2026-04-04T12:08:15.334Z</time></trkpt><trkpt lat="44.0347067" lon="10.9433583"><ele>794.0</ele><time>2026-04-04T12:08:16.334Z</time></trkpt><trkpt lat="44.0347933" lon="10.943535"><ele>794.0</ele><time>2026-04-04T12:08:17.335Z</time></trkpt><trkpt lat="44.0348867" lon="10.943725"><ele>793.6666666666667</ele><time>2026-04-04T12:08:18.334Z</time></trkpt><trkpt lat="44.0349783" lon="10.9439133"><ele>793.3333333333333</ele><time>2026-04-04T12:08:19.334Z</time></trkpt><trkpt lat="44.0350733" lon="10.9441067"><ele>793.0</ele><time>2026-04-04T12:08:20.333Z</time></trkpt><trkpt lat="44.0351667" lon="10.944305"><ele>793.0</ele><time>2026-04-04T12:08:21.333Z</time></trkpt><trkpt lat="44.0352633" lon="10.9445083"><ele>793.0</ele><time>2026-04-04T12:08:22.334Z</time></trkpt><trkpt lat="44.0353567" lon="10.944715"><ele>793.0</ele><time>2026-04-04T12:08:23.334Z</time></trkpt><trkpt lat="44.0354533" lon="10.9449167"><ele>799.6666666666666</ele><time>2026-04-04T12:08:24.334Z</time></trkpt><trkpt lat="44.035545" lon="10.9451133"><ele>806.3333333333333</ele><time>2026-04-04T12:08:25.335Z</time></trkpt><trkpt lat="44.0356333" lon="10.9453167"><ele>813.0</ele><time>2026-04-04T12:08:26.334Z</time></trkpt><trkpt lat="44.0357133" lon="10.9455283"><ele>813.0</ele><time>2026-04-04T12:08:27.333Z</time></trkpt><trkpt lat="44.0357867" lon="10.94574"><ele>813.0</ele><time>2026-04-04T12:08:28.335Z</time></trkpt><trkpt lat="44.0358567" lon="10.94595"><ele>813.0</ele><time>2026-04-04T12:08:29.333Z</time></trkpt><trkpt lat="44.0359217" lon="10.9461567"><ele>808.0</ele><time>2026-04-04T12:08:30.334Z</time></trkpt><trkpt lat="44.0359867" lon="10.94636"><ele>803.0</ele><time>2026-04-04T12:08:31.335Z</time></trkpt><trkpt lat="44.0360533" lon="10.9465533"><ele>798.0</ele><time>2026-04-04T12:08:32.334Z</time></trkpt><trkpt lat="44.03613" lon="10.94674"><ele>798.0</ele><time>2026-04-04T12:08:33.334Z</time></trkpt><trkpt lat="44.0362167" lon="10.946915"><ele>798.0</ele><time>2026-04-04T12:08:34.334Z</time></trkpt><trkpt lat="44.0363117" lon="10.94708"><ele>798.0</ele><time>2026-04-04T12:08:35.333Z</time></trkpt><trkpt lat="44.0364167" lon="10.9472417"><ele>798.0</ele><time>2026-04-04T12:08:36.333Z</time></trkpt><trkpt lat="44.0365217" lon="10.9474017"><ele>798.0</ele><time>2026-04-04T12:08:37.334Z</time></trkpt><trkpt lat="44.0366283" lon="10.9475617"><ele>798.0</ele><time>2026-04-04T12:08:38.334Z</time></trkpt><trkpt lat="44.0367283" lon="10.94773"><ele>798.6666666666667</ele><time>2026-04-04T12:08:39.337Z</time></trkpt><trkpt lat="44.036835" lon="10.9478917"><ele>799.3333333333334</ele><time>2026-04-04T12:08:40.334Z</time></trkpt><trkpt lat="44.0369467" lon="10.9480633"><ele>800.0</ele><time>2026-04-04T12:08:41.332Z</time></trkpt><trkpt lat="44.0370633" lon="10.9482183"><ele>800.0</ele><time>2026-04-04T12:08:42.334Z</time></trkpt><trkpt lat="44.037195" lon="10.948345"><ele>800.0</ele><time>2026-04-04T12:08:43.333Z</time></trkpt><trkpt lat="44.0373333" lon="10.9484467"><ele>800.0</ele><time>2026-04-04T12:08:44.334Z</time></trkpt><trkpt lat="44.037475" lon="10.948545"><ele>797.0</ele><time>2026-04-04T12:08:45.333Z</time></trkpt><trkpt lat="44.0376233" lon="10.9486367"><ele>794.0</ele><time>2026-04-04T12:08:46.333Z</time></trkpt><trkpt lat="44.0377717" lon="10.9487333"><ele>791.0</ele><time>2026-04-04T12:08:47.333Z</time></trkpt><trkpt lat="44.0379283" lon="10.9488383"><ele>791.0</ele><time>2026-04-04T12:08:48.334Z</time></trkpt><trkpt lat="44.0380667" lon="10.94896"><ele>791.0</ele><time>2026-04-04T12:08:49.334Z</time></trkpt><trkpt lat="44.0382" lon="10.94909"><ele>791.0</ele><time>2026-04-04T12:08:50.333Z</time></trkpt><trkpt lat="44.038335" lon="10.9492183"><ele>791.0</ele><time>2026-04-04T12:08:51.333Z</time></trkpt><trkpt lat="44.0384683" lon="10.949355"><ele>791.0</ele><time>2026-04-04T12:08:52.336Z</time></trkpt><trkpt lat="44.0386117" lon="10.9494917"><ele>791.0</ele><time>2026-04-04T12:08:53.334Z</time></trkpt><trkpt lat="44.0387583" lon="10.9496267"><ele>791.0</ele><time>2026-04-04T12:08:54.334Z</time></trkpt><trkpt lat="44.0388983" lon="10.94976"><ele>791.0</ele><time>2026-04-04T12:08:55.334Z</time></trkpt><trkpt lat="44.0390333" lon="10.9498867"><ele>791.0</ele><time>2026-04-04T12:08:56.335Z</time></trkpt><trkpt lat="44.0391633" lon="10.9500033"><ele>788.0</ele><time>2026-04-04T12:08:57.334Z</time></trkpt><trkpt lat="44.0392883" lon="10.9501167"><ele>785.0</ele><time>2026-04-04T12:08:58.334Z</time></trkpt><trkpt lat="44.0394117" lon="10.950235"><ele>782.0</ele><time>2026-04-04T12:08:59.335Z</time></trkpt><trkpt lat="44.0395433" lon="10.950355"><ele>782.0</ele><time>2026-04-04T12:09:00.334Z</time></trkpt><trkpt lat="44.039675" lon="10.95047"><ele>782.0</ele><time>2026-04-04T12:09:01.335Z</time></trkpt><trkpt lat="44.0398083" lon="10.9505783"><ele>782.0</ele><time>2026-04-04T12:09:02.334Z</time></trkpt><trkpt lat="44.03994" lon="10.95068"><ele>777.0</ele><time>2026-04-04T12:09:03.334Z</time></trkpt><trkpt lat="44.04007" lon="10.9507833"><ele>772.0</ele><time>2026-04-04T12:09:04.335Z</time></trkpt><trkpt lat="44.040205" lon="10.9508867"><ele>767.0</ele><time>2026-04-04T12:09:05.334Z</time></trkpt><trkpt lat="44.040345" lon="10.9509833"><ele>768.25</ele><time>2026-04-04T12:09:06.334Z</time></trkpt><trkpt lat="44.040485" lon="10.9510717"><ele>769.5</ele><time>2026-04-04T12:09:07.333Z</time></trkpt><trkpt lat="44.0406183" lon="10.9511517"><ele>770.75</ele><time>2026-04-04T12:09:08.333Z</time></trkpt><trkpt lat="44.0407367" lon="10.95123"><ele>772.0</ele><time>2026-04-04T12:09:09.334Z</time></trkpt><trkpt lat="44.0408433" lon="10.951305"><ele>772.0</ele><time>2026-04-04T12:09:10.334Z</time></trkpt><trkpt lat="44.0409383" lon="10.9513683"><ele>772.0</ele><time>2026-04-04T12:09:11.334Z</time></trkpt><trkpt lat="44.0410183" lon="10.9514217"><ele>772.0</ele><time>2026-04-04T12:09:12.334Z</time></trkpt><trkpt lat="44.041095" lon="10.951445"><ele>772.0</ele><time>2026-04-04T12:09:13.334Z</time></trkpt><trkpt lat="44.0412117" lon="10.9514133"><ele>772.0</ele><time>2026-04-04T12:09:15.336Z</time></trkpt><trkpt lat="44.0412433" lon="10.951305"><ele>772.0</ele><time>2026-04-04T12:09:17.334Z</time></trkpt><trkpt lat="44.0411983" lon="10.9511633"><ele>772.0</ele><time>2026-04-04T12:09:19.334Z</time></trkpt><trkpt lat="44.0411083" lon="10.9510333"><ele>772.0</ele><time>2026-04-04T12:09:20.335Z</time></trkpt><trkpt lat="44.0410217" lon="10.950885"><ele>772.0</ele><time>2026-04-04T12:09:21.334Z</time></trkpt><trkpt lat="44.040925" lon="10.95072"><ele>770.3333333333333</ele><time>2026-04-04T12:09:22.334Z</time></trkpt><trkpt lat="44.0408317" lon="10.9505617"><ele>768.6666666666666</ele><time>2026-04-04T12:09:23.335Z</time></trkpt><trkpt lat="44.0407317" lon="10.9503917"><ele>767.0</ele><time>2026-04-04T12:09:24.335Z</time></trkpt><trkpt lat="44.0406267" lon="10.950205"><ele>766.0</ele><time>2026-04-04T12:09:25.334Z</time></trkpt><trkpt lat="44.04052" lon="10.9500167"><ele>765.0</ele><time>2026-04-04T12:09:26.335Z</time></trkpt><trkpt lat="44.0404183" lon="10.9498333"><ele>764.0</ele><time>2026-04-04T12:09:27.335Z</time></trkpt><trkpt lat="44.0403183" lon="10.9496617"><ele>764.0</ele><time>2026-04-04T12:09:28.335Z</time></trkpt><trkpt lat="44.0402283" lon="10.9495033"><ele>764.0</ele><time>2026-04-04T12:09:29.335Z</time></trkpt><trkpt lat="44.040145" lon="10.9493567"><ele>764.0</ele><time>2026-04-04T12:09:30.334Z</time></trkpt><trkpt lat="44.0400717" lon="10.9492067"><ele>764.0</ele><time>2026-04-04T12:09:31.334Z</time></trkpt><trkpt lat="44.040005" lon="10.9490467"><ele>763.5</ele><time>2026-04-04T12:09:32.333Z</time></trkpt><trkpt lat="44.0399533" lon="10.94886"><ele>763.0</ele><time>2026-04-04T12:09:33.335Z</time></trkpt><trkpt lat="44.0398917" lon="10.9486733"><ele>762.5</ele><time>2026-04-04T12:09:34.335Z</time></trkpt><trkpt lat="44.0398233" lon="10.948485"><ele>762.0</ele><time>2026-04-04T12:09:35.335Z</time></trkpt><trkpt lat="44.0397667" lon="10.94829"><ele>762.0</ele><time>2026-04-04T12:09:36.335Z</time></trkpt><trkpt lat="44.0396933" lon="10.9480983"><ele>762.0</ele><time>2026-04-04T12:09:37.334Z</time></trkpt><trkpt lat="44.0395967" lon="10.9479183"><ele>762.0</ele><time>2026-04-04T12:09:38.335Z</time></trkpt><trkpt lat="44.0394817" lon="10.947745"><ele>762.0</ele><time>2026-04-04T12:09:39.335Z</time></trkpt><trkpt lat="44.039345" lon="10.94758"><ele>762.0</ele><time>2026-04-04T12:09:40.335Z</time></trkpt><trkpt lat="44.039195" lon="10.947415"><ele>762.0</ele><time>2026-04-04T12:09:41.335Z</time></trkpt><trkpt lat="44.0390383" lon="10.947245"><ele>763.3333333333334</ele><time>2026-04-04T12:09:42.335Z</time></trkpt><trkpt lat="44.0388867" lon="10.9470783"><ele>764.6666666666667</ele><time>2026-04-04T12:09:43.336Z</time></trkpt><trkpt lat="44.0387467" lon="10.946905"><ele>766.0</ele><time>2026-04-04T12:09:44.334Z</time></trkpt><trkpt lat="44.0386" lon="10.9467367"><ele>766.0</ele><time>2026-04-04T12:09:45.335Z</time></trkpt><trkpt lat="44.0384533" lon="10.9465733"><ele>766.0</ele><time>2026-04-04T12:09:46.335Z</time></trkpt><trkpt lat="44.0383117" lon="10.9464233"><ele>766.0</ele><time>2026-04-04T12:09:47.339Z</time></trkpt><trkpt lat="44.0381833" lon="10.9462817"><ele>766.0</ele><time>2026-04-04T12:09:48.335Z</time></trkpt><trkpt lat="44.0380667" lon="10.94616"><ele>766.0</ele><time>2026-04-04T12:09:49.335Z</time></trkpt><trkpt lat="44.0379683" lon="10.9460383"><ele>766.0</ele><time>2026-04-04T12:09:50.334Z</time></trkpt><trkpt lat="44.0378967" lon="10.9459"><ele>766.0</ele><time>2026-04-04T12:09:51.333Z</time></trkpt><trkpt lat="44.0378517" lon="10.9457333"><ele>768.25</ele><time>2026-04-04T12:09:52.335Z</time></trkpt><trkpt lat="44.0378267" lon="10.945545"><ele>770.5</ele><time>2026-04-04T12:09:53.334Z</time></trkpt><trkpt lat="44.03782" lon="10.9453333"><ele>772.75</ele><time>2026-04-04T12:09:54.333Z</time></trkpt><trkpt lat="44.0378217" lon="10.9451167"><ele>775.0</ele><time>2026-04-04T12:09:55.335Z</time></trkpt><trkpt lat="44.0378383" lon="10.9448983"><ele>777.6666666666666</ele><time>2026-04-04T12:09:56.333Z</time></trkpt><trkpt lat="44.037875" lon="10.9446867"><ele>780.3333333333333</ele><time>2026-04-04T12:09:57.335Z</time></trkpt><trkpt lat="44.037935" lon="10.9444883"><ele>783.0</ele><time>2026-04-04T12:09:58.334Z</time></trkpt><trkpt lat="44.0380367" lon="10.9443067"><ele>787.6666666666667</ele><time>2026-04-04T12:09:59.334Z</time></trkpt><trkpt lat="44.0381583" lon="10.9441317"><ele>792.3333333333334</ele><time>2026-04-04T12:10:00.334Z</time></trkpt><trkpt lat="44.0382883" lon="10.9439417"><ele>797.0</ele><time>2026-04-04T12:10:01.334Z</time></trkpt><trkpt lat="44.0384117" lon="10.9437483"><ele>799.6666666666667</ele><time>2026-04-04T12:10:02.333Z</time></trkpt><trkpt lat="44.0385217" lon="10.943545"><ele>802.3333333333333</ele><time>2026-04-04T12:10:03.333Z</time></trkpt><trkpt lat="44.0386" lon="10.94333"><ele>805.0</ele><time>2026-04-04T12:10:04.333Z</time></trkpt><trkpt lat="44.03867" lon="10.9431367"><ele>805.0</ele><time>2026-04-04T12:10:05.334Z</time></trkpt><trkpt lat="44.0387567" lon="10.9429733"><ele>805.0</ele><time>2026-04-04T12:10:06.333Z</time></trkpt><trkpt lat="44.03888" lon="10.9428533"><ele>805.0</ele><time>2026-04-04T12:10:07.334Z</time></trkpt><trkpt lat="44.03902" lon="10.9427483"><ele>806.25</ele><time>2026-04-04T12:10:08.334Z</time></trkpt><trkpt lat="44.0391567" lon="10.9426517"><ele>807.5</ele><time>2026-04-04T12:10:09.334Z</time></trkpt><trkpt lat="44.03929" lon="10.9425583"><ele>808.75</ele><time>2026-04-04T12:10:10.335Z</time></trkpt><trkpt lat="44.0394017" lon="10.94245"><ele>810.0</ele><time>2026-04-04T12:10:11.335Z</time></trkpt><trkpt lat="44.0394817" lon="10.9423217"><ele>810.0</ele><time>2026-04-04T12:10:12.334Z</time></trkpt><trkpt lat="44.03952" lon="10.9421833"><ele>810.0</ele><time>2026-04-04T12:10:13.335Z</time></trkpt><trkpt lat="44.03952" lon="10.94205"><ele>810.0</ele><time>2026-04-04T12:10:14.334Z</time></trkpt><trkpt lat="44.0394783" lon="10.9419217"><ele>810.0</ele><time>2026-04-04T12:10:15.334Z</time></trkpt><trkpt lat="44.03941" lon="10.9418083"><ele>810.0</ele><time>2026-04-04T12:10:16.333Z</time></trkpt><trkpt lat="44.039315" lon="10.9417317"><ele>810.4</ele><time>2026-04-04T12:10:17.333Z</time></trkpt><trkpt lat="44.0392117" lon="10.9416867"><ele>810.8</ele><time>2026-04-04T12:10:18.331Z</time></trkpt><trkpt lat="44.0391167" lon="10.9416317"><ele>811.2</ele><time>2026-04-04T12:10:19.335Z</time></trkpt><trkpt lat="44.039025" lon="10.9415367"><ele>811.6</ele><time>2026-04-04T12:10:20.332Z</time></trkpt><trkpt lat="44.0389433" lon="10.9414183"><ele>812.0</ele><time>2026-04-04T12:10:21.333Z</time></trkpt><trkpt lat="44.038885" lon="10.941295"><ele>815.6666666666667</ele><time>2026-04-04T12:10:22.334Z</time></trkpt><trkpt lat="44.0388217" lon="10.9412067"><ele>819.3333333333334</ele><time>2026-04-04T12:10:23.334Z</time></trkpt><trkpt lat="44.0387517" lon="10.9411483"><ele>823.0</ele><time>2026-04-04T12:10:24.334Z</time></trkpt><trkpt lat="44.0386717" lon="10.94115"><ele>826.6666666666667</ele><time>2026-04-04T12:10:25.337Z</time></trkpt><trkpt lat="44.0386" lon="10.941165"><ele>830.3333333333334</ele><time>2026-04-04T12:10:26.333Z</time></trkpt><trkpt lat="44.0385333" lon="10.9412067"><ele>834.0</ele><time>2026-04-04T12:10:27.334Z</time></trkpt><trkpt lat="44.0384933" lon="10.94131"><ele>834.0</ele><time>2026-04-04T12:10:28.332Z</time></trkpt><trkpt lat="44.0385167" lon="10.941515"><ele>834.0</ele><time>2026-04-04T12:10:29.334Z</time></trkpt><trkpt lat="44.0384983" lon="10.9416867"><ele>834.0</ele><time>2026-04-04T12:10:30.335Z</time></trkpt><trkpt lat="44.0384583" lon="10.9418383"><ele>834.0</ele><time>2026-04-04T12:10:31.335Z</time></trkpt><trkpt lat="44.0383867" lon="10.9419867"><ele>841.6666666666667</ele><time>2026-04-04T12:10:32.333Z</time></trkpt><trkpt lat="44.0382967" lon="10.94213"><ele>849.3333333333334</ele><time>2026-04-04T12:10:33.334Z</time></trkpt><trkpt lat="44.0381767" lon="10.942265"><ele>857.0</ele><time>2026-04-04T12:10:34.334Z</time></trkpt><trkpt lat="44.03806" lon="10.94242"><ele>845.3333333333334</ele><time>2026-04-04T12:10:35.333Z</time></trkpt><trkpt lat="44.0379467" lon="10.9425883"><ele>833.6666666666667</ele><time>2026-04-04T12:10:36.333Z</time></trkpt><trkpt lat="44.0378317" lon="10.9427467"><ele>822.0</ele><time>2026-04-04T12:10:37.335Z</time></trkpt><trkpt lat="44.0377017" lon="10.9428967"><ele>822.0</ele><time>2026-04-04T12:10:38.334Z</time></trkpt><trkpt lat="44.037565" lon="10.9430283"><ele>822.0</ele><time>2026-04-04T12:10:39.333Z</time></trkpt><trkpt lat="44.0374383" lon="10.9431533"><ele>822.0</ele><time>2026-04-04T12:10:40.334Z</time></trkpt><trkpt lat="44.03732" lon="10.94327"><ele>814.25</ele><time>2026-04-04T12:10:41.333Z</time></trkpt><trkpt lat="44.03721" lon="10.9433817"><ele>806.5</ele><time>2026-04-04T12:10:42.334Z</time></trkpt><trkpt lat="44.037105" lon="10.9434683"><ele>798.75</ele><time>2026-04-04T12:10:43.335Z</time></trkpt><trkpt lat="44.0370017" lon="10.9435133"><ele>791.0</ele><time>2026-04-04T12:10:44.333Z</time></trkpt><trkpt lat="44.0368967" lon="10.94352"><ele>791.0</ele><time>2026-04-04T12:10:45.334Z</time></trkpt><trkpt lat="44.0367867" lon="10.9434817"><ele>791.0</ele><time>2026-04-04T12:10:46.334Z</time></trkpt><trkpt lat="44.0366667" lon="10.9434117"><ele>791.0</ele><time>2026-04-04T12:10:47.334Z</time></trkpt><trkpt lat="44.03655" lon="10.943305"><ele>791.0</ele><time>2026-04-04T12:10:48.333Z</time></trkpt><trkpt lat="44.0364483" lon="10.9431733"><ele>791.25</ele><time>2026-04-04T12:10:49.334Z</time></trkpt><trkpt lat="44.0363683" lon="10.9430233"><ele>791.5</ele><time>2026-04-04T12:10:50.333Z</time></trkpt><trkpt lat="44.0363183" lon="10.94287"><ele>791.75</ele><time>2026-04-04T12:10:51.334Z</time></trkpt><trkpt lat="44.0363" lon="10.9427033"><ele>792.0</ele><time>2026-04-04T12:10:52.333Z</time></trkpt><trkpt lat="44.0363017" lon="10.9425333"><ele>797.25</ele><time>2026-04-04T12:10:53.334Z</time></trkpt><trkpt lat="44.0363183" lon="10.9423533"><ele>802.5</ele><time>2026-04-04T12:10:54.334Z</time></trkpt><trkpt lat="44.0363183" lon="10.9421667"><ele>807.75</ele><time>2026-04-04T12:10:55.335Z</time></trkpt><trkpt lat="44.0362767" lon="10.941985"><ele>813.0</ele><time>2026-04-04T12:10:56.335Z</time></trkpt><trkpt lat="44.0362217" lon="10.9418217"><ele>811.25</ele><time>2026-04-04T12:10:57.335Z</time></trkpt><trkpt lat="44.0361283" lon="10.9417133"><ele>809.5</ele><time>2026-04-04T12:10:58.333Z</time></trkpt><trkpt lat="44.0360083" lon="10.9416633"><ele>807.75</ele><time>2026-04-04T12:10:59.334Z</time></trkpt><trkpt lat="44.0358783" lon="10.9416317"><ele>806.0</ele><time>2026-04-04T12:11:00.333Z</time></trkpt><trkpt lat="44.0357433" lon="10.9415983"><ele>806.0</ele><time>2026-04-04T12:11:01.333Z</time></trkpt><trkpt lat="44.0356217" lon="10.9415333"><ele>806.0</ele><time>2026-04-04T12:11:02.334Z</time></trkpt><trkpt lat="44.03554" lon="10.94141"><ele>806.0</ele><time>2026-04-04T12:11:03.333Z</time></trkpt><trkpt lat="44.0354933" lon="10.94124"><ele>806.0</ele><time>2026-04-04T12:11:04.333Z</time></trkpt><trkpt lat="44.0354717" lon="10.94104"><ele>811.5</ele><time>2026-04-04T12:11:05.333Z</time></trkpt><trkpt lat="44.0354617" lon="10.940845"><ele>817.0</ele><time>2026-04-04T12:11:06.334Z</time></trkpt><trkpt lat="44.0354433" lon="10.9406517"><ele>822.5</ele><time>2026-04-04T12:11:07.335Z</time></trkpt><trkpt lat="44.035395" lon="10.94047"><ele>828.0</ele><time>2026-04-04T12:11:08.332Z</time></trkpt><trkpt lat="44.035345" lon="10.9402883"><ele>828.0</ele><time>2026-04-04T12:11:09.333Z</time></trkpt><trkpt lat="44.0353133" lon="10.9401133"><ele>828.0</ele><time>2026-04-04T12:11:10.333Z</time></trkpt><trkpt lat="44.0353133" lon="10.9399483"><ele>828.0</ele><time>2026-04-04T12:11:11.333Z</time></trkpt><trkpt lat="44.0353133" lon="10.9397983"><ele>828.0</ele><time>2026-04-04T12:11:12.333Z</time></trkpt><trkpt lat="44.03529" lon="10.939665"><ele>828.5999999999999</ele><time>2026-04-04T12:11:13.334Z</time></trkpt><trkpt lat="44.03523" lon="10.9395667"><ele>829.1999999999999</ele><time>2026-04-04T12:11:14.335Z</time></trkpt><trkpt lat="44.0351417" lon="10.9395017"><ele>829.8</ele><time>2026-04-04T12:11:15.334Z</time></trkpt><trkpt lat="44.0350317" lon="10.9394867"><ele>830.4</ele><time>2026-04-04T12:11:16.334Z</time></trkpt><trkpt lat="44.0349033" lon="10.93952"><ele>831.0</ele><time>2026-04-04T12:11:17.334Z</time></trkpt><trkpt lat="44.0347767" lon="10.9395717"><ele>831.0</ele><time>2026-04-04T12:11:18.334Z</time></trkpt><trkpt lat="44.03466" lon="10.9396217"><ele>831.0</ele><time>2026-04-04T12:11:19.334Z</time></trkpt><trkpt lat="44.03455" lon="10.9396317"><ele>831.0</ele><time>2026-04-04T12:11:20.333Z</time></trkpt><trkpt lat="44.03444" lon="10.9396033"><ele>831.0</ele><time>2026-04-04T12:11:21.332Z</time></trkpt><trkpt lat="44.034325" lon="10.9395267"><ele>831.0</ele><time>2026-04-04T12:11:22.333Z</time></trkpt><trkpt lat="44.0341983" lon="10.9394267"><ele>831.0</ele><time>2026-04-04T12:11:23.334Z</time></trkpt><trkpt lat="44.03409" lon="10.93933"><ele>831.0</ele><time>2026-04-04T12:11:24.333Z</time></trkpt><trkpt lat="44.034" lon="10.9392283"><ele>831.0</ele><time>2026-04-04T12:11:25.332Z</time></trkpt><trkpt lat="44.033945" lon="10.9391083"><ele>833.0</ele><time>2026-04-04T12:11:26.333Z</time></trkpt><trkpt lat="44.0339383" lon="10.9389517"><ele>835.0</ele><time>2026-04-04T12:11:27.332Z</time></trkpt><trkpt lat="44.0339333" lon="10.938785"><ele>837.0</ele><time>2026-04-04T12:11:28.333Z</time></trkpt><trkpt lat="44.0339" lon="10.9386217"><ele>839.0</ele><time>2026-04-04T12:11:29.333Z</time></trkpt><trkpt lat="44.0338167" lon="10.9384867"><ele>839.0</ele><time>2026-04-04T12:11:30.332Z</time></trkpt><trkpt lat="44.0336833" lon="10.9383883"><ele>839.0</ele><time>2026-04-04T12:11:31.334Z</time></trkpt><trkpt lat="44.0335417" lon="10.93832"><ele>839.0</ele><time>2026-04-04T12:11:32.332Z</time></trkpt><trkpt lat="44.0334083" lon="10.93824"><ele>839.0</ele><time>2026-04-04T12:11:33.333Z</time></trkpt><trkpt lat="44.0332833" lon="10.9381267"><ele>844.0</ele><time>2026-04-04T12:11:34.333Z</time></trkpt><trkpt lat="44.0331517" lon="10.9380067"><ele>849.0</ele><time>2026-04-04T12:11:35.333Z</time></trkpt><trkpt lat="44.0330067" lon="10.9379267"><ele>854.0</ele><time>2026-04-04T12:11:36.333Z</time></trkpt><trkpt lat="44.0328467" lon="10.9378717"><ele>854.0</ele><time>2026-04-04T12:11:37.333Z</time></trkpt><trkpt lat="44.0326833" lon="10.9378183"><ele>854.0</ele><time>2026-04-04T12:11:38.334Z</time></trkpt><trkpt lat="44.0325317" lon="10.9377517"><ele>854.0</ele><time>2026-04-04T12:11:39.332Z</time></trkpt><trkpt lat="44.0323967" lon="10.9376817"><ele>852.75</ele><time>2026-04-04T12:11:40.334Z</time></trkpt><trkpt lat="44.0322867" lon="10.93759"><ele>851.5</ele><time>2026-04-04T12:11:41.334Z</time></trkpt><trkpt lat="44.032205" lon="10.93746"><ele>850.25</ele><time>2026-04-04T12:11:42.333Z</time></trkpt><trkpt lat="44.032145" lon="10.937295"><ele>849.0</ele><time>2026-04-04T12:11:43.334Z</time></trkpt><trkpt lat="44.0321183" lon="10.9370933"><ele>849.0</ele><time>2026-04-04T12:11:44.334Z</time></trkpt><trkpt lat="44.0321083" lon="10.9368667"><ele>849.0</ele><time>2026-04-04T12:11:45.333Z</time></trkpt><trkpt lat="44.0320883" lon="10.936645"><ele>849.0</ele><time>2026-04-04T12:11:46.336Z</time></trkpt><trkpt lat="44.0320667" lon="10.93644"><ele>852.5</ele><time>2026-04-04T12:11:47.334Z</time></trkpt><trkpt lat="44.03206" lon="10.9362583"><ele>856.0</ele><time>2026-04-04T12:11:48.334Z</time></trkpt><trkpt lat="44.0320867" lon="10.9361133"><ele>859.5</ele><time>2026-04-04T12:11:49.333Z</time></trkpt><trkpt lat="44.0321383" lon="10.9359917"><ele>863.0</ele><time>2026-04-04T12:11:50.333Z</time></trkpt><trkpt lat="44.0322317" lon="10.9359017"><ele>864.5999999999999</ele><time>2026-04-04T12:11:51.333Z</time></trkpt><trkpt lat="44.0323117" lon="10.93581"><ele>866.1999999999999</ele><time>2026-04-04T12:11:52.335Z</time></trkpt><trkpt lat="44.0323733" lon="10.9357"><ele>867.8</ele><time>2026-04-04T12:11:53.333Z</time></trkpt><trkpt lat="44.0323967" lon="10.9355817"><ele>869.4</ele><time>2026-04-04T12:11:54.334Z</time></trkpt><trkpt lat="44.032405" lon="10.9354583"><ele>871.0</ele><time>2026-04-04T12:11:55.335Z</time></trkpt><trkpt lat="44.032405" lon="10.93534"><ele>871.0</ele><time>2026-04-04T12:11:56.334Z</time></trkpt><trkpt lat="44.03239" lon="10.93523"><ele>871.0</ele><time>2026-04-04T12:11:57.333Z</time></trkpt><trkpt lat="44.0323283" lon="10.93508"><ele>871.0</ele><time>2026-04-04T12:11:58.335Z</time></trkpt><trkpt lat="44.0322517" lon="10.9348883"><ele>871.0</ele><time>2026-04-04T12:11:59.334Z</time></trkpt><trkpt lat="44.03218" lon="10.9346767"><ele>874.6666666666666</ele><time>2026-04-04T12:12:00.334Z</time></trkpt><trkpt lat="44.0321367" lon="10.934455"><ele>878.3333333333333</ele><time>2026-04-04T12:12:01.334Z</time></trkpt><trkpt lat="44.0321033" lon="10.93424"><ele>882.0</ele><time>2026-04-04T12:12:02.335Z</time></trkpt><trkpt lat="44.032125" lon="10.9340033"><ele>889.0</ele><time>2026-04-04T12:12:03.335Z</time></trkpt><trkpt lat="44.03215" lon="10.9337667"><ele>896.0</ele><time>2026-04-04T12:12:04.334Z</time></trkpt><trkpt lat="44.03217" lon="10.9335367"><ele>903.0</ele><time>2026-04-04T12:12:05.337Z</time></trkpt><trkpt lat="44.03218" lon="10.9333333"><ele>907.2</ele><time>2026-04-04T12:12:06.334Z</time></trkpt><trkpt lat="44.0322" lon="10.9331517"><ele>911.4</ele><time>2026-04-04T12:12:07.334Z</time></trkpt><trkpt lat="44.03223" lon="10.9329933"><ele>915.6000000000001</ele><time>2026-04-04T12:12:08.333Z</time></trkpt><trkpt lat="44.032265" lon="10.93286"><ele>919.8000000000001</ele><time>2026-04-04T12:12:09.333Z</time></trkpt><trkpt lat="44.0322867" lon="10.9327417"><ele>924.0</ele><time>2026-04-04T12:12:10.333Z</time></trkpt><trkpt lat="44.0322967" lon="10.9326383"><ele>924.0</ele><time>2026-04-04T12:12:11.334Z</time></trkpt><trkpt lat="44.0322917" lon="10.9325317"><ele>924.0000000000001</ele><time>2026-04-04T12:12:12.334Z</time></trkpt><trkpt lat="44.0322617" lon="10.93244"><ele>924.0000000000001</ele><time>2026-04-04T12:12:13.334Z</time></trkpt><trkpt lat="44.032225" lon="10.9323683"><ele>924.0</ele><time>2026-04-04T12:12:14.334Z</time></trkpt><trkpt lat="44.032145" lon="10.9323833"><ele>924.0</ele><time>2026-04-04T12:12:15.334Z</time></trkpt><trkpt lat="44.0319283" lon="10.932585"><ele>924.0</ele><time>2026-04-04T12:12:16.334Z</time></trkpt><trkpt lat="44.0317867" lon="10.9328717"><ele>924.0</ele><time>2026-04-04T12:12:17.334Z</time></trkpt><trkpt lat="44.0316817" lon="10.933055"><ele>924.0</ele><time>2026-04-04T12:12:18.334Z</time></trkpt><trkpt lat="44.03158" lon="10.9332233"><ele>925.0</ele><time>2026-04-04T12:12:19.335Z</time></trkpt><trkpt lat="44.03148" lon="10.9333567"><ele>926.0</ele><time>2026-04-04T12:12:20.334Z</time></trkpt><trkpt lat="44.031375" lon="10.933455"><ele>927.0</ele><time>2026-04-04T12:12:21.333Z</time></trkpt><trkpt lat="44.0312667" lon="10.933515"><ele>928.0</ele><time>2026-04-04T12:12:22.333Z</time></trkpt><trkpt lat="44.0311533" lon="10.9335317"><ele>927.75</ele><time>2026-04-04T12:12:23.333Z</time></trkpt><trkpt lat="44.0310317" lon="10.933505"><ele>927.5</ele><time>2026-04-04T12:12:24.335Z</time></trkpt><trkpt lat="44.0309067" lon="10.9334317"><ele>927.25</ele><time>2026-04-04T12:12:25.336Z</time></trkpt><trkpt lat="44.03077" lon="10.9333633"><ele>927.0</ele><time>2026-04-04T12:12:26.334Z</time></trkpt><trkpt lat="44.03063" lon="10.9332917"><ele>927.0</ele><time>2026-04-04T12:12:27.334Z</time></trkpt><trkpt lat="44.0304933" lon="10.933225"><ele>927.0</ele><time>2026-04-04T12:12:28.334Z</time></trkpt><trkpt lat="44.03036" lon="10.9331333"><ele>927.0</ele><time>2026-04-04T12:12:29.333Z</time></trkpt><trkpt lat="44.0302333" lon="10.9330267"><ele>927.0</ele><time>2026-04-04T12:12:30.334Z</time></trkpt><trkpt lat="44.0301167" lon="10.9329067"><ele>927.0</ele><time>2026-04-04T12:12:31.334Z</time></trkpt><trkpt lat="44.0300117" lon="10.9327717"><ele>927.0</ele><time>2026-04-04T12:12:32.334Z</time></trkpt><trkpt lat="44.0299083" lon="10.9326317"><ele>927.0</ele><time>2026-04-04T12:12:33.335Z</time></trkpt><trkpt lat="44.0298117" lon="10.9324817"><ele>927.0</ele><time>2026-04-04T12:12:34.335Z</time></trkpt><trkpt lat="44.0297317" lon="10.9323233"><ele>932.4000000000001</ele><time>2026-04-04T12:12:35.333Z</time></trkpt><trkpt lat="44.0296667" lon="10.932175"><ele>937.8000000000001</ele><time>2026-04-04T12:12:36.335Z</time></trkpt><trkpt lat="44.0296083" lon="10.93204"><ele>943.2</ele><time>2026-04-04T12:12:37.335Z</time></trkpt><trkpt lat="44.0295483" lon="10.9319317"><ele>948.6</ele><time>2026-04-04T12:12:38.334Z</time></trkpt><trkpt lat="44.0294933" lon="10.9318317"><ele>954.0</ele><time>2026-04-04T12:12:39.334Z</time></trkpt><trkpt lat="44.029445" lon="10.93175"><ele>950.6</ele><time>2026-04-04T12:12:40.334Z</time></trkpt><trkpt lat="44.029415" lon="10.93167"><ele>947.2</ele><time>2026-04-04T12:12:41.334Z</time></trkpt><trkpt lat="44.0293917" lon="10.931535"><ele>943.8000000000001</ele><time>2026-04-04T12:12:43.335Z</time></trkpt><trkpt lat="44.0294117" lon="10.9313933"><ele>940.4000000000001</ele><time>2026-04-04T12:12:45.334Z</time></trkpt><trkpt lat="44.0294583" lon="10.9311917"><ele>937.0</ele><time>2026-04-04T12:12:47.334Z</time></trkpt><trkpt lat="44.0294983" lon="10.9310533"><ele>937.0</ele><time>2026-04-04T12:12:48.334Z</time></trkpt><trkpt lat="44.0295267" lon="10.93092"><ele>937.0</ele><time>2026-04-04T12:12:49.335Z</time></trkpt><trkpt lat="44.0295583" lon="10.93078"><ele>937.0</ele><time>2026-04-04T12:12:50.334Z</time></trkpt><trkpt lat="44.0295933" lon="10.93065"><ele>937.0</ele><time>2026-04-04T12:12:51.333Z</time></trkpt><trkpt lat="44.029625" lon="10.9305417"><ele>937.0</ele><time>2026-04-04T12:12:52.335Z</time></trkpt><trkpt lat="44.0296717" lon="10.9304367"><ele>936.8</ele><time>2026-04-04T12:12:53.334Z</time></trkpt><trkpt lat="44.029725" lon="10.9303367"><ele>936.6</ele><time>2026-04-04T12:12:54.334Z</time></trkpt><trkpt lat="44.029805" lon="10.9302383"><ele>936.3999999999999</ele><time>2026-04-04T12:12:55.335Z</time></trkpt><trkpt lat="44.0298867" lon="10.930135"><ele>936.1999999999999</ele><time>2026-04-04T12:12:56.335Z</time></trkpt><trkpt lat="44.0299633" lon="10.9300267"><ele>936.0</ele><time>2026-04-04T12:12:57.334Z</time></trkpt><trkpt lat="44.0300283" lon="10.9299"><ele>936.0</ele><time>2026-04-04T12:12:58.334Z</time></trkpt><trkpt lat="44.030085" lon="10.92976"><ele>935.9999999999999</ele><time>2026-04-04T12:12:59.335Z</time></trkpt><trkpt lat="44.0301283" lon="10.9296317"><ele>935.9999999999999</ele><time>2026-04-04T12:13:00.334Z</time></trkpt><trkpt lat="44.0301717" lon="10.9295233"><ele>936.0</ele><time>2026-04-04T12:13:01.334Z</time></trkpt><trkpt lat="44.0302183" lon="10.9294217"><ele>936.0</ele><time>2026-04-04T12:13:02.337Z</time></trkpt><trkpt lat="44.0302767" lon="10.9293133"><ele>932.5999999999999</ele><time>2026-04-04T12:13:03.334Z</time></trkpt><trkpt lat="44.0303383" lon="10.9291983"><ele>929.1999999999999</ele><time>2026-04-04T12:13:04.334Z</time></trkpt><trkpt lat="44.0303867" lon="10.9290733"><ele>925.8000000000001</ele><time>2026-04-04T12:13:05.335Z</time></trkpt><trkpt lat="44.0304383" lon="10.9289517"><ele>922.4000000000001</ele><time>2026-04-04T12:13:06.335Z</time></trkpt><trkpt lat="44.0305017" lon="10.928845"><ele>919.0</ele><time>2026-04-04T12:13:07.334Z</time></trkpt><trkpt lat="44.0305633" lon="10.9287517"><ele>919.0</ele><time>2026-04-04T12:13:08.334Z</time></trkpt><trkpt lat="44.0306367" lon="10.9286617"><ele>919.0000000000001</ele><time>2026-04-04T12:13:09.334Z</time></trkpt><trkpt lat="44.03072" lon="10.9285833"><ele>919.0000000000001</ele><time>2026-04-04T12:13:10.335Z</time></trkpt><trkpt lat="44.0308017" lon="10.92851"><ele>919.0</ele><time>2026-04-04T12:13:11.334Z</time></trkpt><trkpt lat="44.0308833" lon="10.92845"><ele>919.0</ele><time>2026-04-04T12:13:12.334Z</time></trkpt><trkpt lat="44.03099" lon="10.9284233"><ele>926.6</ele><time>2026-04-04T12:13:13.337Z</time></trkpt><trkpt lat="44.031095" lon="10.9284117"><ele>934.2</ele><time>2026-04-04T12:13:14.334Z</time></trkpt><trkpt lat="44.0312133" lon="10.9284217"><ele>941.8000000000001</ele><time>2026-04-04T12:13:15.334Z</time></trkpt><trkpt lat="44.031325" lon="10.92843"><ele>949.4000000000001</ele><time>2026-04-04T12:13:16.336Z</time></trkpt><trkpt lat="44.0314283" lon="10.9284367"><ele>957.0</ele><time>2026-04-04T12:13:17.335Z</time></trkpt><trkpt lat="44.0315317" lon="10.9284417"><ele>959.0</ele><time>2026-04-04T12:13:18.333Z</time></trkpt><trkpt lat="44.0316433" lon="10.92846"><ele>961.0</ele><time>2026-04-04T12:13:19.335Z</time></trkpt><trkpt lat="44.03175" lon="10.928485"><ele>963.0</ele><time>2026-04-04T12:13:20.335Z</time></trkpt><trkpt lat="44.031855" lon="10.9285183"><ele>965.0</ele><time>2026-04-04T12:13:21.332Z</time></trkpt><trkpt lat="44.0319567" lon="10.9285583"><ele>967.0</ele><time>2026-04-04T12:13:22.333Z</time></trkpt><trkpt lat="44.0320617" lon="10.9286033"><ele>967.0</ele><time>2026-04-04T12:13:23.336Z</time></trkpt><trkpt lat="44.032165" lon="10.9286667"><ele>967.0</ele><time>2026-04-04T12:13:24.335Z</time></trkpt><trkpt lat="44.03227" lon="10.92874"><ele>967.0</ele><time>2026-04-04T12:13:25.335Z</time></trkpt><trkpt lat="44.03236" lon="10.9288183"><ele>967.0</ele><time>2026-04-04T12:13:26.335Z</time></trkpt><trkpt lat="44.0324583" lon="10.9289083"><ele>968.75</ele><time>2026-04-04T12:13:27.334Z</time></trkpt><trkpt lat="44.0325633" lon="10.9289933"><ele>970.5</ele><time>2026-04-04T12:13:28.335Z</time></trkpt><trkpt lat="44.03266" lon="10.9290817"><ele>972.25</ele><time>2026-04-04T12:13:29.333Z</time></trkpt><trkpt lat="44.032755" lon="10.9291767"><ele>974.0</ele><time>2026-04-04T12:13:30.334Z</time></trkpt><trkpt lat="44.03284" lon="10.9292783"><ele>974.0000000000001</ele><time>2026-04-04T12:13:31.335Z</time></trkpt><trkpt lat="44.0329033" lon="10.929365"><ele>974.0</ele><time>2026-04-04T12:13:32.333Z</time></trkpt><trkpt lat="44.0329533" lon="10.929435"><ele>974.0</ele><time>2026-04-04T12:13:33.333Z</time></trkpt><trkpt lat="44.0330033" lon="10.9294983"><ele>974.0</ele><time>2026-04-04T12:13:34.333Z</time></trkpt><trkpt lat="44.0330717" lon="10.92956"><ele>974.0000000000001</ele><time>2026-04-04T12:13:35.334Z</time></trkpt><trkpt lat="44.033125" lon="10.9296183"><ele>974.0</ele><time>2026-04-04T12:13:36.333Z</time></trkpt><trkpt lat="44.0332333" lon="10.929695"><ele>973.25</ele><time>2026-04-04T12:13:38.333Z</time></trkpt><trkpt lat="44.0333217" lon="10.9296983"><ele>972.5</ele><time>2026-04-04T12:13:39.333Z</time></trkpt><trkpt lat="44.033425" lon="10.92965"><ele>971.75</ele><time>2026-04-04T12:13:40.335Z</time></trkpt><trkpt lat="44.03364" lon="10.9294967"><ele>971.0</ele><time>2026-04-04T12:13:41.333Z</time></trkpt><trkpt lat="44.0337717" lon="10.9294333"><ele>971.0</ele><time>2026-04-04T12:13:42.334Z</time></trkpt><trkpt lat="44.0338867" lon="10.92935"><ele>971.0</ele><time>2026-04-04T12:13:43.333Z</time></trkpt><trkpt lat="44.0340017" lon="10.9292633"><ele>971.0</ele><time>2026-04-04T12:13:44.336Z</time></trkpt><trkpt lat="44.0341233" lon="10.9291717"><ele>971.0</ele><time>2026-04-04T12:13:45.333Z</time></trkpt><trkpt lat="44.0342283" lon="10.929065"><ele>973.75</ele><time>2026-04-04T12:13:46.335Z</time></trkpt><trkpt lat="44.034305" lon="10.92894"><ele>976.5</ele><time>2026-04-04T12:13:47.335Z</time></trkpt><trkpt lat="44.0343767" lon="10.928805"><ele>979.25</ele><time>2026-04-04T12:13:48.334Z</time></trkpt><trkpt lat="44.0344433" lon="10.92868"><ele>982.0</ele><time>2026-04-04T12:13:49.336Z</time></trkpt><trkpt lat="44.0345033" lon="10.928565"><ele>981.9999999999999</ele><time>2026-04-04T12:13:50.333Z</time></trkpt><trkpt lat="44.03457" lon="10.92846"><ele>982.0</ele><time>2026-04-04T12:13:51.333Z</time></trkpt><trkpt lat="44.0346267" lon="10.928365"><ele>982.0</ele><time>2026-04-04T12:13:52.334Z</time></trkpt><trkpt lat="44.0346817" lon="10.9282817"><ele>982.0</ele><time>2026-04-04T12:13:53.335Z</time></trkpt><trkpt lat="44.034745" lon="10.92821"><ele>981.9999999999999</ele><time>2026-04-04T12:13:54.334Z</time></trkpt><trkpt lat="44.0348083" lon="10.92815"><ele>982.0</ele><time>2026-04-04T12:13:55.334Z</time></trkpt><trkpt lat="44.0348767" lon="10.9281083"><ele>981.1666666666666</ele><time>2026-04-04T12:13:56.335Z</time></trkpt><trkpt lat="44.0349533" lon="10.9280817"><ele>980.3333333333333</ele><time>2026-04-04T12:13:57.334Z</time></trkpt><trkpt lat="44.0350517" lon="10.9280783"><ele>979.5</ele><time>2026-04-04T12:13:58.334Z</time></trkpt><trkpt lat="44.035135" lon="10.928075"><ele>978.6666666666667</ele><time>2026-04-04T12:13:59.333Z</time></trkpt><trkpt lat="44.0352183" lon="10.9280817"><ele>977.8333333333334</ele><time>2026-04-04T12:14:00.333Z</time></trkpt><trkpt lat="44.0352933" lon="10.928125"><ele>977.0</ele><time>2026-04-04T12:14:01.336Z</time></trkpt><trkpt lat="44.03536" lon="10.9281917"><ele>977.0</ele><time>2026-04-04T12:14:02.333Z</time></trkpt><trkpt lat="44.03541" lon="10.9282867"><ele>977.0</ele><time>2026-04-04T12:14:03.333Z</time></trkpt><trkpt lat="44.03544" lon="10.92839"><ele>977.0</ele><time>2026-04-04T12:14:04.334Z</time></trkpt><trkpt lat="44.0354583" lon="10.9285267"><ele>977.0</ele><time>2026-04-04T12:14:05.335Z</time></trkpt><trkpt lat="44.0354633" lon="10.9286767"><ele>977.0</ele><time>2026-04-04T12:14:06.334Z</time></trkpt><trkpt lat="44.03548" lon="10.9288483"><ele>982.0</ele><time>2026-04-04T12:14:07.334Z</time></trkpt><trkpt lat="44.035495" lon="10.92902"><ele>987.0</ele><time>2026-04-04T12:14:08.333Z</time></trkpt><trkpt lat="44.035505" lon="10.929175"><ele>992.0</ele><time>2026-04-04T12:14:09.335Z</time></trkpt><trkpt lat="44.0355133" lon="10.9293283"><ele>997.0</ele><time>2026-04-04T12:14:10.334Z</time></trkpt><trkpt lat="44.0355417" lon="10.929485"><ele>1001.0</ele><time>2026-04-04T12:14:11.334Z</time></trkpt><trkpt lat="44.0355983" lon="10.9296167"><ele>1005.0</ele><time>2026-04-04T12:14:12.334Z</time></trkpt><trkpt lat="44.0356583" lon="10.929755"><ele>1009.0</ele><time>2026-04-04T12:14:13.335Z</time></trkpt><trkpt lat="44.0357133" lon="10.92991"><ele>1013.0</ele><time>2026-04-04T12:14:14.334Z</time></trkpt><trkpt lat="44.0357633" lon="10.9300617"><ele>1012.4</ele><time>2026-04-04T12:14:15.335Z</time></trkpt><trkpt lat="44.0358083" lon="10.93021"><ele>1011.8</ele><time>2026-04-04T12:14:16.334Z</time></trkpt><trkpt lat="44.0358533" lon="10.93035"><ele>1011.2</ele><time>2026-04-04T12:14:17.335Z</time></trkpt><trkpt lat="44.0358967" lon="10.9304867"><ele>1010.6</ele><time>2026-04-04T12:14:18.335Z</time></trkpt><trkpt lat="44.0359467" lon="10.9306167"><ele>1010.0</ele><time>2026-04-04T12:14:19.333Z</time></trkpt><trkpt lat="44.036005" lon="10.9307317"><ele>1010.0</ele><time>2026-04-04T12:14:20.334Z</time></trkpt><trkpt lat="44.036075" lon="10.9308283"><ele>1010.0</ele><time>2026-04-04T12:14:21.333Z</time></trkpt><trkpt lat="44.03615" lon="10.9309217"><ele>1010.0</ele><time>2026-04-04T12:14:22.334Z</time></trkpt><trkpt lat="44.0362333" lon="10.9309867"><ele>1010.0</ele><time>2026-04-04T12:14:23.335Z</time></trkpt><trkpt lat="44.0363417" lon="10.9310283"><ele>1010.0</ele><time>2026-04-04T12:14:24.334Z</time></trkpt><trkpt lat="44.0364483" lon="10.931065"><ele>1014.5</ele><time>2026-04-04T12:14:25.334Z</time></trkpt><trkpt lat="44.0365633" lon="10.9310883"><ele>1019.0</ele><time>2026-04-04T12:14:26.335Z</time></trkpt><trkpt lat="44.0366883" lon="10.9311217"><ele>1023.5</ele><time>2026-04-04T12:14:27.334Z</time></trkpt><trkpt lat="44.0368233" lon="10.931165"><ele>1028.0</ele><time>2026-04-04T12:14:28.335Z</time></trkpt><trkpt lat="44.0369567" lon="10.9312117"><ele>1028.0</ele><time>2026-04-04T12:14:29.337Z</time></trkpt><trkpt lat="44.03708" lon="10.9312567"><ele>1028.0</ele><time>2026-04-04T12:14:30.333Z</time></trkpt><trkpt lat="44.03721" lon="10.9312983"><ele>1028.0</ele><time>2026-04-04T12:14:31.336Z</time></trkpt><trkpt lat="44.0373367" lon="10.9313483"><ele>1028.0</ele><time>2026-04-04T12:14:32.333Z</time></trkpt><trkpt lat="44.037465" lon="10.9314067"><ele>1025.0</ele><time>2026-04-04T12:14:33.335Z</time></trkpt><trkpt lat="44.0375917" lon="10.931475"><ele>1022.0</ele><time>2026-04-04T12:14:34.339Z</time></trkpt><trkpt lat="44.0377167" lon="10.9315467"><ele>1019.0</ele><time>2026-04-04T12:14:35.335Z</time></trkpt><trkpt lat="44.0378317" lon="10.9316167"><ele>1016.0</ele><time>2026-04-04T12:14:36.334Z</time></trkpt><trkpt lat="44.03794" lon="10.93169"><ele>1015.1999999999999</ele><time>2026-04-04T12:14:37.333Z</time></trkpt><trkpt lat="44.0380433" lon="10.93175"><ele>1014.3999999999999</ele><time>2026-04-04T12:14:38.335Z</time></trkpt><trkpt lat="44.0381133" lon="10.9318033"><ele>1013.6</ele><time>2026-04-04T12:14:39.334Z</time></trkpt><trkpt lat="44.038205" lon="10.9318333"><ele>1012.8</ele><time>2026-04-04T12:14:40.334Z</time></trkpt><trkpt lat="44.0383017" lon="10.9318367"><ele>1012.0</ele><time>2026-04-04T12:14:41.335Z</time></trkpt><trkpt lat="44.038395" lon="10.9318117"><ele>1012.0</ele><time>2026-04-04T12:14:42.333Z</time></trkpt><trkpt lat="44.0384817" lon="10.931765"><ele>1012.0</ele><time>2026-04-04T12:14:43.335Z</time></trkpt><trkpt lat="44.0385717" lon="10.9316967"><ele>1012.0</ele><time>2026-04-04T12:14:44.334Z</time></trkpt><trkpt lat="44.0386667" lon="10.93162"><ele>1012.0</ele><time>2026-04-04T12:14:45.333Z</time></trkpt><trkpt lat="44.0387583" lon="10.931545"><ele>1012.0</ele><time>2026-04-04T12:14:46.334Z</time></trkpt><trkpt lat="44.0388483" lon="10.931475"><ele>1012.1666666666666</ele><time>2026-04-04T12:14:47.334Z</time></trkpt><trkpt lat="44.03893" lon="10.9314133"><ele>1012.3333333333333</ele><time>2026-04-04T12:14:48.333Z</time></trkpt><trkpt lat="44.0390033" lon="10.931355"><ele>1012.5</ele><time>2026-04-04T12:14:49.334Z</time></trkpt><trkpt lat="44.0390633" lon="10.931305"><ele>1012.6666666666667</ele><time>2026-04-04T12:14:50.334Z</time></trkpt><trkpt lat="44.0391583" lon="10.93123"><ele>1012.8333333333334</ele><time>2026-04-04T12:14:52.335Z</time></trkpt><trkpt lat="44.0392267" lon="10.9311817"><ele>1013.0</ele><time>2026-04-04T12:14:55.335Z</time></trkpt><trkpt lat="44.039335" lon="10.931185"><ele>1012.25</ele><time>2026-04-04T12:19:57.333Z</time></trkpt><trkpt lat="44.0394933" lon="10.931055"><ele>1011.5</ele><time>2026-04-04T12:19:59.334Z</time></trkpt><trkpt lat="44.0396067" lon="10.9309733"><ele>1010.75</ele><time>2026-04-04T12:20:00.333Z</time></trkpt><trkpt lat="44.0397233" lon="10.9309033"><ele>1010.0</ele><time>2026-04-04T12:20:01.335Z</time></trkpt><trkpt lat="44.0398417" lon="10.9308567"><ele>1013.5</ele><time>2026-04-04T12:20:02.333Z</time></trkpt><trkpt lat="44.0399683" lon="10.9308167"><ele>1017.0</ele><time>2026-04-04T12:20:03.333Z</time></trkpt><trkpt lat="44.0401067" lon="10.9307633"><ele>1020.5</ele><time>2026-04-04T12:20:04.333Z</time></trkpt><trkpt lat="44.0402367" lon="10.9306967"><ele>1024.0</ele><time>2026-04-04T12:20:05.333Z</time></trkpt><trkpt lat="44.04035" lon="10.9306333"><ele>1023.9999999999999</ele><time>2026-04-04T12:20:06.334Z</time></trkpt><trkpt lat="44.0404433" lon="10.930595"><ele>1024.0</ele><time>2026-04-04T12:20:07.334Z</time></trkpt><trkpt lat="44.0405267" lon="10.93058"><ele>1024.0</ele><time>2026-04-04T12:20:08.333Z</time></trkpt><trkpt lat="44.0405967" lon="10.9305533"><ele>1024.0</ele><time>2026-04-04T12:20:09.334Z</time></trkpt><trkpt lat="44.040665" lon="10.9305183"><ele>1023.9999999999999</ele><time>2026-04-04T12:20:10.333Z</time></trkpt><trkpt lat="44.0407333" lon="10.930475"><ele>1024.0</ele><time>2026-04-04T12:20:11.332Z</time></trkpt><trkpt lat="44.0407883" lon="10.9304117"><ele>1023.6666666666666</ele><time>2026-04-04T12:20:12.334Z</time></trkpt><trkpt lat="44.04084" lon="10.9303183"><ele>1023.3333333333333</ele><time>2026-04-04T12:20:13.335Z</time></trkpt><trkpt lat="44.0408717" lon="10.9302233"><ele>1023.0</ele><time>2026-04-04T12:20:14.333Z</time></trkpt><trkpt lat="44.0409467" lon="10.930085"><ele>1022.6666666666667</ele><time>2026-04-04T12:20:16.332Z</time></trkpt><trkpt lat="44.041" lon="10.9300217"><ele>1022.3333333333334</ele><time>2026-04-04T12:20:17.333Z</time></trkpt><trkpt lat="44.04108" lon="10.9299583"><ele>1022.0</ele><time>2026-04-04T12:20:18.333Z</time></trkpt><trkpt lat="44.041165" lon="10.9298933"><ele>1022.0</ele><time>2026-04-04T12:20:19.336Z</time></trkpt><trkpt lat="44.0412783" lon="10.9298217"><ele>1022.0</ele><time>2026-04-04T12:20:20.333Z</time></trkpt><trkpt lat="44.0414033" lon="10.9297517"><ele>1022.0</ele><time>2026-04-04T12:20:21.332Z</time></trkpt><trkpt lat="44.04155" lon="10.92968"><ele>1022.0</ele><time>2026-04-04T12:20:22.333Z</time></trkpt><trkpt lat="44.04169" lon="10.9296017"><ele>1030.0</ele><time>2026-04-04T12:20:23.333Z</time></trkpt><trkpt lat="44.0418217" lon="10.9295283"><ele>1038.0</ele><time>2026-04-04T12:20:24.335Z</time></trkpt><trkpt lat="44.041945" lon="10.9294567"><ele>1046.0</ele><time>2026-04-04T12:20:25.335Z</time></trkpt><trkpt lat="44.042055" lon="10.9293833"><ele>1054.0</ele><time>2026-04-04T12:20:26.333Z</time></trkpt><trkpt lat="44.0421483" lon="10.9293183"><ele>1054.0</ele><time>2026-04-04T12:20:27.334Z</time></trkpt><trkpt lat="44.04223" lon="10.929255"><ele>1054.0</ele><time>2026-04-04T12:20:28.334Z</time></trkpt><trkpt lat="44.0423083" lon="10.9291967"><ele>1054.0</ele><time>2026-04-04T12:20:29.334Z</time></trkpt><trkpt lat="44.04239" lon="10.9291333"><ele>1054.0</ele><time>2026-04-04T12:20:30.334Z</time></trkpt><trkpt lat="44.0424567" lon="10.9290733"><ele>1054.0</ele><time>2026-04-04T12:20:31.334Z</time></trkpt><trkpt lat="44.0425033" lon="10.929"><ele>1054.0</ele><time>2026-04-04T12:20:32.333Z</time></trkpt><trkpt lat="44.0425467" lon="10.9289217"><ele>1053.8</ele><time>2026-04-04T12:20:33.334Z</time></trkpt><trkpt lat="44.042545" lon="10.9287533"><ele>1053.6000000000001</ele><time>2026-04-04T12:20:35.334Z</time></trkpt><trkpt lat="44.0425267" lon="10.9286433"><ele>1053.4</ele><time>2026-04-04T12:20:36.334Z</time></trkpt><trkpt lat="44.0425067" lon="10.9285417"><ele>1053.2</ele><time>2026-04-04T12:20:37.335Z</time></trkpt><trkpt lat="44.0424983" lon="10.9284533"><ele>1053.0</ele><time>2026-04-04T12:20:38.332Z</time></trkpt><trkpt lat="44.04255" lon="10.92832"><ele>1048.0</ele><time>2026-04-04T12:20:40.335Z</time></trkpt><trkpt lat="44.0425967" lon="10.9282567"><ele>1043.0</ele><time>2026-04-04T12:20:41.334Z</time></trkpt><trkpt lat="44.0426567" lon="10.928185"><ele>1038.0</ele><time>2026-04-04T12:20:42.334Z</time></trkpt><trkpt lat="44.04274" lon="10.9281217"><ele>1033.0</ele><time>2026-04-04T12:20:43.333Z</time></trkpt><trkpt lat="44.04284" lon="10.928055"><ele>1028.0</ele><time>2026-04-04T12:20:44.333Z</time></trkpt><trkpt lat="44.0429433" lon="10.9279733"><ele>1028.0</ele><time>2026-04-04T12:20:45.335Z</time></trkpt><trkpt lat="44.0430433" lon="10.9278867"><ele>1028.0</ele><time>2026-04-04T12:20:46.337Z</time></trkpt><trkpt lat="44.0431517" lon="10.927775"><ele>1028.0</ele><time>2026-04-04T12:20:47.334Z</time></trkpt><trkpt lat="44.0432583" lon="10.927655"><ele>1028.0</ele><time>2026-04-04T12:20:48.333Z</time></trkpt><trkpt lat="44.0433567" lon="10.927525"><ele>1029.8</ele><time>2026-04-04T12:20:49.335Z</time></trkpt><trkpt lat="44.043455" lon="10.927405"><ele>1031.6</ele><time>2026-04-04T12:20:50.334Z</time></trkpt><trkpt lat="44.0435383" lon="10.9273167"><ele>1033.4</ele><time>2026-04-04T12:20:51.334Z</time></trkpt><trkpt lat="44.0436067" lon="10.927225"><ele>1035.2</ele><time>2026-04-04T12:20:52.334Z</time></trkpt><trkpt lat="44.0436683" lon="10.9271417"><ele>1037.0</ele><time>2026-04-04T12:20:53.333Z</time></trkpt><trkpt lat="44.0437333" lon="10.92706"><ele>1037.0</ele><time>2026-04-04T12:20:54.334Z</time></trkpt><trkpt lat="44.0438017" lon="10.9269833"><ele>1037.0</ele><time>2026-04-04T12:20:55.333Z</time></trkpt><trkpt lat="44.0438683" lon="10.9269133"><ele>1037.0</ele><time>2026-04-04T12:20:56.332Z</time></trkpt><trkpt lat="44.0439283" lon="10.92685"><ele>1037.0</ele><time>2026-04-04T12:20:57.334Z</time></trkpt><trkpt lat="44.0439817" lon="10.9267783"><ele>1037.0</ele><time>2026-04-04T12:20:58.334Z</time></trkpt><trkpt lat="44.0440283" lon="10.9267167"><ele>1037.0</ele><time>2026-04-04T12:20:59.334Z</time></trkpt><trkpt lat="44.0440817" lon="10.9266567"><ele>1036.8333333333335</ele><time>2026-04-04T12:21:00.335Z</time></trkpt><trkpt lat="44.0441417" lon="10.9265967"><ele>1036.6666666666667</ele><time>2026-04-04T12:21:01.334Z</time></trkpt><trkpt lat="44.0442033" lon="10.926545"><ele>1036.5</ele><time>2026-04-04T12:21:02.334Z</time></trkpt><trkpt lat="44.04426" lon="10.9264917"><ele>1036.3333333333333</ele><time>2026-04-04T12:21:03.335Z</time></trkpt><trkpt lat="44.0443633" lon="10.926415"><ele>1036.1666666666665</ele><time>2026-04-04T12:21:05.334Z</time></trkpt><trkpt lat="44.044425" lon="10.9263783"><ele>1036.0</ele><time>2026-04-04T12:21:06.334Z</time></trkpt><trkpt lat="44.0444867" lon="10.92633"><ele>1036.0</ele><time>2026-04-04T12:21:07.335Z</time></trkpt><trkpt lat="44.044545" lon="10.9262733"><ele>1036.0</ele><time>2026-04-04T12:21:08.334Z</time></trkpt><trkpt lat="44.0446" lon="10.9262067"><ele>1036.0</ele><time>2026-04-04T12:21:09.333Z</time></trkpt><trkpt lat="44.0446433" lon="10.9261233"><ele>1036.0</ele><time>2026-04-04T12:21:10.334Z</time></trkpt><trkpt lat="44.044675" lon="10.92603"><ele>1036.0</ele><time>2026-04-04T12:21:11.333Z</time></trkpt><trkpt lat="44.0446817" lon="10.9259133"><ele>1036.0</ele><time>2026-04-04T12:21:12.335Z</time></trkpt><trkpt lat="44.0446833" lon="10.9257783"><ele>1032.6</ele><time>2026-04-04T12:21:13.335Z</time></trkpt><trkpt lat="44.0446833" lon="10.92564"><ele>1029.1999999999998</ele><time>2026-04-04T12:21:14.334Z</time></trkpt><trkpt lat="44.04469" lon="10.925495"><ele>1025.8000000000002</ele><time>2026-04-04T12:21:15.334Z</time></trkpt><trkpt lat="44.044695" lon="10.9253667"><ele>1022.4000000000001</ele><time>2026-04-04T12:21:16.333Z</time></trkpt><trkpt lat="44.0446983" lon="10.9252583"><ele>1019.0</ele><time>2026-04-04T12:21:17.335Z</time></trkpt><trkpt lat="44.04471" lon="10.9251117"><ele>1019.1666666666667</ele><time>2026-04-04T12:21:19.334Z</time></trkpt><trkpt lat="44.044725" lon="10.9250233"><ele>1019.3333333333334</ele><time>2026-04-04T12:21:23.332Z</time></trkpt><trkpt lat="44.04467" lon="10.9249033"><ele>1019.5</ele><time>2026-04-04T12:22:16.333Z</time></trkpt><trkpt lat="44.0446617" lon="10.9248067"><ele>1019.6666666666667</ele><time>2026-04-04T12:22:17.334Z</time></trkpt><trkpt lat="44.04465" lon="10.92469"><ele>1019.8333333333334</ele><time>2026-04-04T12:22:18.336Z</time></trkpt><trkpt lat="44.04464" lon="10.92455"><ele>1020.0</ele><time>2026-04-04T12:22:19.335Z</time></trkpt><trkpt lat="44.0446217" lon="10.9244067"><ele>1020.0</ele><time>2026-04-04T12:22:20.335Z</time></trkpt><trkpt lat="44.0446067" lon="10.9242667"><ele>1020.0</ele><time>2026-04-04T12:22:21.335Z</time></trkpt><trkpt lat="44.0445983" lon="10.924125"><ele>1020.0</ele><time>2026-04-04T12:22:22.335Z</time></trkpt><trkpt lat="44.04459" lon="10.9239817"><ele>1020.0</ele><time>2026-04-04T12:22:23.335Z</time></trkpt><trkpt lat="44.044575" lon="10.9238433"><ele>1020.0</ele><time>2026-04-04T12:22:24.334Z</time></trkpt><trkpt lat="44.0445567" lon="10.9237117"><ele>1021.1666666666666</ele><time>2026-04-04T12:22:25.335Z</time></trkpt><trkpt lat="44.0445467" lon="10.9235883"><ele>1022.3333333333333</ele><time>2026-04-04T12:22:26.335Z</time></trkpt><trkpt lat="44.0445367" lon="10.92348"><ele>1023.5</ele><time>2026-04-04T12:22:27.335Z</time></trkpt><trkpt lat="44.0445383" lon="10.92337"><ele>1024.6666666666665</ele><time>2026-04-04T12:22:28.335Z</time></trkpt><trkpt lat="44.0445483" lon="10.9232767"><ele>1025.8333333333333</ele><time>2026-04-04T12:22:29.335Z</time></trkpt><trkpt lat="44.0445667" lon="10.9231917"><ele>1027.0</ele><time>2026-04-04T12:22:30.335Z</time></trkpt><trkpt lat="44.0446317" lon="10.9230583"><ele>1027.0</ele><time>2026-04-04T12:22:32.334Z</time></trkpt><trkpt lat="44.0446783" lon="10.9229017"><ele>1027.0</ele><time>2026-04-04T12:22:34.335Z</time></trkpt><trkpt lat="44.0446517" lon="10.9227333"><ele>1027.0</ele><time>2026-04-04T12:22:36.333Z</time></trkpt><trkpt lat="44.0446217" lon="10.922655"><ele>1027.0</ele><time>2026-04-04T12:22:37.335Z</time></trkpt><trkpt lat="44.0446033" lon="10.922565"><ele>1027.0</ele><time>2026-04-04T12:22:38.333Z</time></trkpt><trkpt lat="44.044595" lon="10.9224583"><ele>1025.8333333333333</ele><time>2026-04-04T12:22:39.335Z</time></trkpt><trkpt lat="44.044585" lon="10.92234"><ele>1024.6666666666665</ele><time>2026-04-04T12:22:40.335Z</time></trkpt><trkpt lat="44.04456" lon="10.9222117"><ele>1023.5</ele><time>2026-04-04T12:22:41.335Z</time></trkpt><trkpt lat="44.0445133" lon="10.9221117"><ele>1022.3333333333333</ele><time>2026-04-04T12:22:42.333Z</time></trkpt><trkpt lat="44.044465" lon="10.9220283"><ele>1021.1666666666666</ele><time>2026-04-04T12:22:43.336Z</time></trkpt><trkpt lat="44.044435" lon="10.92195"><ele>1020.0</ele><time>2026-04-04T12:22:44.334Z</time></trkpt><trkpt lat="44.04441" lon="10.92186"><ele>1020.0</ele><time>2026-04-04T12:22:45.335Z</time></trkpt><trkpt lat="44.0444083" lon="10.92176"><ele>1020.0</ele><time>2026-04-04T12:22:46.334Z</time></trkpt><trkpt lat="44.0444317" lon="10.9216483"><ele>1020.0</ele><time>2026-04-04T12:22:47.335Z</time></trkpt><trkpt lat="44.0444833" lon="10.9215133"><ele>1020.0</ele><time>2026-04-04T12:22:48.338Z</time></trkpt><trkpt lat="44.044525" lon="10.9213933"><ele>1020.0</ele><time>2026-04-04T12:22:49.334Z</time></trkpt><trkpt lat="44.0445483" lon="10.921285"><ele>1020.0</ele><time>2026-04-04T12:22:50.334Z</time></trkpt><trkpt lat="44.0445617" lon="10.9211533"><ele>1019.8</ele><time>2026-04-04T12:22:51.335Z</time></trkpt><trkpt lat="44.0445633" lon="10.921015"><ele>1019.6</ele><time>2026-04-04T12:22:52.335Z</time></trkpt><trkpt lat="44.04456" lon="10.9208717"><ele>1019.4000000000001</ele><time>2026-04-04T12:22:53.334Z</time></trkpt><trkpt lat="44.0445567" lon="10.9207317"><ele>1019.2</ele><time>2026-04-04T12:22:54.335Z</time></trkpt><trkpt lat="44.044565" lon="10.9205983"><ele>1019.0</ele><time>2026-04-04T12:22:55.335Z</time></trkpt><trkpt lat="44.0445867" lon="10.9204733"><ele>1018.0000000000001</ele><time>2026-04-04T12:22:56.335Z</time></trkpt><trkpt lat="44.0446133" lon="10.9203517"><ele>1017.0</ele><time>2026-04-04T12:22:57.333Z</time></trkpt><trkpt lat="44.04464" lon="10.9202583"><ele>1016.0</ele><time>2026-04-04T12:22:58.334Z</time></trkpt><trkpt lat="44.04469" lon="10.920155"><ele>1015.0</ele><time>2026-04-04T12:22:59.334Z</time></trkpt><trkpt lat="44.044735" lon="10.9200617"><ele>1014.0000000000001</ele><time>2026-04-04T12:23:00.334Z</time></trkpt><trkpt lat="44.044785" lon="10.91999"><ele>1013.0</ele><time>2026-04-04T12:23:01.334Z</time></trkpt><trkpt lat="44.044845" lon="10.9199233"><ele>1011.5999999999999</ele><time>2026-04-04T12:23:02.334Z</time></trkpt><trkpt lat="44.0449133" lon="10.9198767"><ele>1010.1999999999999</ele><time>2026-04-04T12:23:03.333Z</time></trkpt><trkpt lat="44.0449933" lon="10.9198267"><ele>1008.8</ele><time>2026-04-04T12:23:04.335Z</time></trkpt><trkpt lat="44.0450883" lon="10.9198067"><ele>1007.4</ele><time>2026-04-04T12:23:05.334Z</time></trkpt><trkpt lat="44.04518" lon="10.9197867"><ele>1006.0</ele><time>2026-04-04T12:23:06.334Z</time></trkpt><trkpt lat="44.04528" lon="10.9197933"><ele>1009.3333333333333</ele><time>2026-04-04T12:23:07.334Z</time></trkpt><trkpt lat="44.0453667" lon="10.9198017"><ele>1012.6666666666666</ele><time>2026-04-04T12:23:08.334Z</time></trkpt><trkpt lat="44.0454383" lon="10.9198133"><ele>1016.0</ele><time>2026-04-04T12:23:09.335Z</time></trkpt><trkpt lat="44.0455083" lon="10.9198217"><ele>1019.3333333333333</ele><time>2026-04-04T12:23:10.334Z</time></trkpt><trkpt lat="44.045615" lon="10.9197933"><ele>1022.6666666666666</ele><time>2026-04-04T12:23:12.335Z</time></trkpt><trkpt lat="44.0456533" lon="10.9197067"><ele>1026.0</ele><time>2026-04-04T12:23:14.333Z</time></trkpt><trkpt lat="44.04555" lon="10.9195717"><ele>1026.0</ele><time>2026-04-04T12:23:15.335Z</time></trkpt><trkpt lat="44.0454683" lon="10.9194717"><ele>1026.0</ele><time>2026-04-04T12:23:16.335Z</time></trkpt><trkpt lat="44.0453883" lon="10.91938"><ele>1026.0</ele><time>2026-04-04T12:23:17.335Z</time></trkpt><trkpt lat="44.04532" lon="10.9192867"><ele>1026.0</ele><time>2026-04-04T12:23:18.334Z</time></trkpt><trkpt lat="44.0452533" lon="10.9191833"><ele>1026.0</ele><time>2026-04-04T12:23:19.335Z</time></trkpt><trkpt lat="44.0451983" lon="10.919055"><ele>1023.0</ele><time>2026-04-04T12:23:20.335Z</time></trkpt><trkpt lat="44.04516" lon="10.91892"><ele>1019.9999999999999</ele><time>2026-04-04T12:23:21.333Z</time></trkpt><trkpt lat="44.0451233" lon="10.9187867"><ele>1016.9999999999999</ele><time>2026-04-04T12:23:22.334Z</time></trkpt><trkpt lat="44.0450817" lon="10.9186583"><ele>1014.0</ele><time>2026-04-04T12:23:23.336Z</time></trkpt><trkpt lat="44.0450483" lon="10.9185283"><ele>1011.0</ele><time>2026-04-04T12:23:24.335Z</time></trkpt><trkpt lat="44.0450267" lon="10.918395"><ele>1010.8</ele><time>2026-04-04T12:23:25.334Z</time></trkpt><trkpt lat="44.0450233" lon="10.9182617"><ele>1010.5999999999999</ele><time>2026-04-04T12:23:26.335Z</time></trkpt><trkpt lat="44.0450417" lon="10.9181233"><ele>1010.4</ele><time>2026-04-04T12:23:27.335Z</time></trkpt><trkpt lat="44.0450683" lon="10.917975"><ele>1010.2</ele><time>2026-04-04T12:23:28.334Z</time></trkpt><trkpt lat="44.0451017" lon="10.9178383"><ele>1010.0</ele><time>2026-04-04T12:23:29.334Z</time></trkpt><trkpt lat="44.04513" lon="10.9177067"><ele>1008.8</ele><time>2026-04-04T12:23:30.333Z</time></trkpt><trkpt lat="44.0451967" lon="10.9175567"><ele>1007.6</ele><time>2026-04-04T12:23:31.335Z</time></trkpt><trkpt lat="44.045245" lon="10.9174367"><ele>1006.4000000000001</ele><time>2026-04-04T12:23:32.334Z</time></trkpt><trkpt lat="44.0452967" lon="10.91732"><ele>1005.2</ele><time>2026-04-04T12:23:33.334Z</time></trkpt><trkpt lat="44.0453467" lon="10.9172183"><ele>1004.0</ele><time>2026-04-04T12:23:34.334Z</time></trkpt><trkpt lat="44.0454083" lon="10.9171183"><ele>1004.0</ele><time>2026-04-04T12:23:35.334Z</time></trkpt><trkpt lat="44.04549" lon="10.9170383"><ele>1004.0000000000001</ele><time>2026-04-04T12:23:36.334Z</time></trkpt><trkpt lat="44.0455883" lon="10.916965"><ele>1004.0000000000001</ele><time>2026-04-04T12:23:37.335Z</time></trkpt><trkpt lat="44.04569" lon="10.9169167"><ele>1004.0</ele><time>2026-04-04T12:23:38.333Z</time></trkpt><trkpt lat="44.0457817" lon="10.9168917"><ele>1004.0</ele><time>2026-04-04T12:23:39.335Z</time></trkpt><trkpt lat="44.04587" lon="10.9168833"><ele>1002.8333333333334</ele><time>2026-04-04T12:23:40.335Z</time></trkpt><trkpt lat="44.0459483" lon="10.9168767"><ele>1001.6666666666667</ele><time>2026-04-04T12:23:41.335Z</time></trkpt><trkpt lat="44.0460267" lon="10.9168733"><ele>1000.5</ele><time>2026-04-04T12:23:42.336Z</time></trkpt><trkpt lat="44.04609" lon="10.9168567"><ele>999.3333333333333</ele><time>2026-04-04T12:23:43.335Z</time></trkpt><trkpt lat="44.0461633" lon="10.9168267"><ele>998.1666666666666</ele><time>2026-04-04T12:23:44.335Z</time></trkpt><trkpt lat="44.04624" lon="10.9167867"><ele>997.0</ele><time>2026-04-04T12:23:45.334Z</time></trkpt><trkpt lat="44.046345" lon="10.916655"><ele>997.0</ele><time>2026-04-04T12:23:47.335Z</time></trkpt><trkpt lat="44.04636" lon="10.9165567"><ele>997.0</ele><time>2026-04-04T12:23:48.334Z</time></trkpt><trkpt lat="44.0463433" lon="10.916405"><ele>997.0</ele><time>2026-04-04T12:23:49.335Z</time></trkpt><trkpt lat="44.0463183" lon="10.9162583"><ele>997.0</ele><time>2026-04-04T12:23:50.335Z</time></trkpt><trkpt lat="44.0462917" lon="10.9161383"><ele>997.0</ele><time>2026-04-04T12:23:51.335Z</time></trkpt><trkpt lat="44.0462617" lon="10.91602"><ele>996.9999999999999</ele><time>2026-04-04T12:23:52.335Z</time></trkpt><trkpt lat="44.0462467" lon="10.91591"><ele>997.0</ele><time>2026-04-04T12:23:53.334Z</time></trkpt><trkpt lat="44.0462483" lon="10.915815"><ele>997.0</ele><time>2026-04-04T12:23:54.335Z</time></trkpt><trkpt lat="44.0462633" lon="10.9157183"><ele>997.0</ele><time>2026-04-04T12:23:55.336Z</time></trkpt><trkpt lat="44.046295" lon="10.915625"><ele>996.9999999999999</ele><time>2026-04-04T12:23:56.335Z</time></trkpt><trkpt lat="44.04634" lon="10.915525"><ele>997.0</ele><time>2026-04-04T12:23:57.335Z</time></trkpt><trkpt lat="44.0463983" lon="10.9154217"><ele>994.2</ele><time>2026-04-04T12:23:58.334Z</time></trkpt><trkpt lat="44.0464617" lon="10.9153017"><ele>991.4000000000001</ele><time>2026-04-04T12:23:59.335Z</time></trkpt><trkpt lat="44.046535" lon="10.9151783"><ele>988.5999999999999</ele><time>2026-04-04T12:24:00.334Z</time></trkpt><trkpt lat="44.0465867" lon="10.915055"><ele>985.8</ele><time>2026-04-04T12:24:01.335Z</time></trkpt><trkpt lat="44.0466333" lon="10.9149367"><ele>983.0</ele><time>2026-04-04T12:24:02.335Z</time></trkpt><trkpt lat="44.0466817" lon="10.91482"><ele>983.0</ele><time>2026-04-04T12:24:03.334Z</time></trkpt><trkpt lat="44.0467467" lon="10.9147233"><ele>983.0</ele><time>2026-04-04T12:24:04.335Z</time></trkpt><trkpt lat="44.0468233" lon="10.91463"><ele>983.0</ele><time>2026-04-04T12:24:05.334Z</time></trkpt><trkpt lat="44.0469117" lon="10.914545"><ele>983.0</ele><time>2026-04-04T12:24:06.334Z</time></trkpt><trkpt lat="44.0469867" lon="10.914475"><ele>983.0</ele><time>2026-04-04T12:24:07.335Z</time></trkpt><trkpt lat="44.0470533" lon="10.9144133"><ele>982.9999999999999</ele><time>2026-04-04T12:24:08.335Z</time></trkpt><trkpt lat="44.047105" lon="10.9143483"><ele>983.0</ele><time>2026-04-04T12:24:09.335Z</time></trkpt><trkpt lat="44.0471517" lon="10.9142767"><ele>982.9999999999999</ele><time>2026-04-04T12:24:10.335Z</time></trkpt><trkpt lat="44.0471917" lon="10.9141967"><ele>982.9999999999999</ele><time>2026-04-04T12:24:11.335Z</time></trkpt><trkpt lat="44.047195" lon="10.9140983"><ele>983.0</ele><time>2026-04-04T12:24:12.336Z</time></trkpt><trkpt lat="44.04717" lon="10.913995"><ele>982.9999999999999</ele><time>2026-04-04T12:24:13.335Z</time></trkpt><trkpt lat="44.04715" lon="10.9138867"><ele>982.9999999999999</ele><time>2026-04-04T12:24:14.335Z</time></trkpt><trkpt lat="44.0471133" lon="10.91378"><ele>980.0</ele><time>2026-04-04T12:24:15.335Z</time></trkpt><trkpt lat="44.0470883" lon="10.9136867"><ele>977.0</ele><time>2026-04-04T12:24:16.335Z</time></trkpt><trkpt lat="44.0470867" lon="10.91352"><ele>974.0</ele><time>2026-04-04T12:24:18.334Z</time></trkpt><trkpt lat="44.0471017" lon="10.9134167"><ele>971.0</ele><time>2026-04-04T12:24:19.336Z</time></trkpt><trkpt lat="44.0471567" lon="10.9132533"><ele>968.0</ele><time>2026-04-04T12:24:20.335Z</time></trkpt><trkpt lat="44.0471967" lon="10.9130917"><ele>966.5</ele><time>2026-04-04T12:24:21.335Z</time></trkpt><trkpt lat="44.047215" lon="10.9129317"><ele>965.0</ele><time>2026-04-04T12:24:22.335Z</time></trkpt><trkpt lat="44.047245" lon="10.9127717"><ele>963.5</ele><time>2026-04-04T12:24:23.335Z</time></trkpt><trkpt lat="44.0472617" lon="10.912615"><ele>962.0</ele><time>2026-04-04T12:24:24.335Z</time></trkpt><trkpt lat="44.04727" lon="10.9124583"><ele>960.0</ele><time>2026-04-04T12:24:25.335Z</time></trkpt><trkpt lat="44.047275" lon="10.9122983"><ele>958.0</ele><time>2026-04-04T12:24:26.335Z</time></trkpt><trkpt lat="44.0472667" lon="10.91215"><ele>956.0</ele><time>2026-04-04T12:24:27.335Z</time></trkpt><trkpt lat="44.0472533" lon="10.91201"><ele>954.0</ele><time>2026-04-04T12:24:28.335Z</time></trkpt><trkpt lat="44.04723" lon="10.9118867"><ele>952.0</ele><time>2026-04-04T12:24:29.335Z</time></trkpt><trkpt lat="44.0472217" lon="10.911765"><ele>953.4000000000001</ele><time>2026-04-04T12:24:30.335Z</time></trkpt><trkpt lat="44.047215" lon="10.91165"><ele>954.8000000000001</ele><time>2026-04-04T12:24:31.335Z</time></trkpt><trkpt lat="44.0472367" lon="10.9115483"><ele>956.2</ele><time>2026-04-04T12:24:32.333Z</time></trkpt><trkpt lat="44.0473067" lon="10.9114133"><ele>957.6</ele><time>2026-04-04T12:24:34.334Z</time></trkpt><trkpt lat="44.0473767" lon="10.9113783"><ele>959.0</ele><time>2026-04-04T12:24:35.336Z</time></trkpt><trkpt lat="44.0475017" lon="10.9113833"><ele>959.0</ele><time>2026-04-04T12:24:36.335Z</time></trkpt><trkpt lat="44.0475817" lon="10.9113767"><ele>959.0</ele><time>2026-04-04T12:24:37.335Z</time></trkpt><trkpt lat="44.0476817" lon="10.9114133"><ele>959.0</ele><time>2026-04-04T12:24:38.335Z</time></trkpt><trkpt lat="44.0478433" lon="10.9115317"><ele>959.0</ele><time>2026-04-04T12:24:39.334Z</time></trkpt><trkpt lat="44.0479033" lon="10.9116167"><ele>959.0</ele><time>2026-04-04T12:24:40.335Z</time></trkpt><trkpt lat="44.04796" lon="10.911725"><ele>959.0000000000001</ele><time>2026-04-04T12:24:41.336Z</time></trkpt><trkpt lat="44.0480083" lon="10.9118283"><ele>959.0000000000001</ele><time>2026-04-04T12:24:42.34Z</time></trkpt><trkpt lat="44.0480383" lon="10.91194"><ele>959.0</ele><time>2026-04-04T12:24:43.335Z</time></trkpt><trkpt lat="44.0480467" lon="10.912075"><ele>959.0</ele><time>2026-04-04T12:24:44.334Z</time></trkpt><trkpt lat="44.0480583" lon="10.9121917"><ele>960.3333333333334</ele><time>2026-04-04T12:24:45.335Z</time></trkpt><trkpt lat="44.0480583" lon="10.912325"><ele>961.6666666666667</ele><time>2026-04-04T12:24:46.334Z</time></trkpt><trkpt lat="44.04805" lon="10.91244"><ele>963.0</ele><time>2026-04-04T12:24:47.334Z</time></trkpt><trkpt lat="44.0480367" lon="10.9125583"><ele>964.3333333333333</ele><time>2026-04-04T12:24:48.334Z</time></trkpt><trkpt lat="44.048035" lon="10.9126933"><ele>965.6666666666666</ele><time>2026-04-04T12:24:49.334Z</time></trkpt><trkpt lat="44.0480367" lon="10.9128033"><ele>967.0</ele><time>2026-04-04T12:24:50.334Z</time></trkpt><trkpt lat="44.0480467" lon="10.9129033"><ele>967.8333333333333</ele><time>2026-04-04T12:24:51.334Z</time></trkpt><trkpt lat="44.04807" lon="10.9130033"><ele>968.6666666666666</ele><time>2026-04-04T12:24:52.333Z</time></trkpt><trkpt lat="44.048105" lon="10.9131133"><ele>969.5</ele><time>2026-04-04T12:24:53.334Z</time></trkpt><trkpt lat="44.0481533" lon="10.9131867"><ele>970.3333333333333</ele><time>2026-04-04T12:24:54.334Z</time></trkpt><trkpt lat="44.0482433" lon="10.9132717"><ele>971.1666666666666</ele><time>2026-04-04T12:24:56.332Z</time></trkpt><trkpt lat="44.0483033" lon="10.913315"><ele>972.0</ele><time>2026-04-04T12:24:57.334Z</time></trkpt><trkpt lat="44.0483517" lon="10.9134"><ele>969.0</ele><time>2026-04-04T12:24:58.333Z</time></trkpt><trkpt lat="44.0484567" lon="10.913475"><ele>966.0</ele><time>2026-04-04T12:25:00.334Z</time></trkpt><trkpt lat="44.048535" lon="10.9134617"><ele>963.0</ele><time>2026-04-04T12:25:02.334Z</time></trkpt><trkpt lat="44.0485817" lon="10.9133267"><ele>960.0</ele><time>2026-04-04T12:25:04.334Z</time></trkpt><trkpt lat="44.048585" lon="10.9132217"><ele>957.0</ele><time>2026-04-04T12:25:05.334Z</time></trkpt><trkpt lat="44.04858" lon="10.9131083"><ele>954.4000000000001</ele><time>2026-04-04T12:25:06.334Z</time></trkpt><trkpt lat="44.048575" lon="10.9129767"><ele>951.8000000000001</ele><time>2026-04-04T12:25:07.334Z</time></trkpt><trkpt lat="44.0485783" lon="10.9128467"><ele>949.2</ele><time>2026-04-04T12:25:08.332Z</time></trkpt><trkpt lat="44.0485867" lon="10.9127067"><ele>946.6</ele><time>2026-04-04T12:25:09.334Z</time></trkpt><trkpt lat="44.0486017" lon="10.912555"><ele>944.0</ele><time>2026-04-04T12:25:10.333Z</time></trkpt><trkpt lat="44.0486117" lon="10.9124167"><ele>942.8333333333334</ele><time>2026-04-04T12:25:11.334Z</time></trkpt><trkpt lat="44.0486267" lon="10.9122917"><ele>941.6666666666667</ele><time>2026-04-04T12:25:12.334Z</time></trkpt><trkpt lat="44.04864" lon="10.9121817"><ele>940.5</ele><time>2026-04-04T12:25:13.335Z</time></trkpt><trkpt lat="44.0486467" lon="10.9120817"><ele>939.3333333333333</ele><time>2026-04-04T12:25:14.333Z</time></trkpt><trkpt lat="44.048645" lon="10.9119867"><ele>938.1666666666666</ele><time>2026-04-04T12:25:15.333Z</time></trkpt><trkpt lat="44.0486383" lon="10.9118867"><ele>937.0</ele><time>2026-04-04T12:25:16.333Z</time></trkpt><trkpt lat="44.0486233" lon="10.9117833"><ele>935.9999999999999</ele><time>2026-04-04T12:25:17.334Z</time></trkpt><trkpt lat="44.0485867" lon="10.9116817"><ele>935.0</ele><time>2026-04-04T12:25:18.334Z</time></trkpt><trkpt lat="44.0485533" lon="10.9115733"><ele>934.0</ele><time>2026-04-04T12:25:19.334Z</time></trkpt><trkpt lat="44.0485183" lon="10.911465"><ele>933.0</ele><time>2026-04-04T12:25:20.334Z</time></trkpt><trkpt lat="44.0484867" lon="10.9113617"><ele>931.9999999999999</ele><time>2026-04-04T12:25:21.332Z</time></trkpt><trkpt lat="44.0484583" lon="10.9112567"><ele>931.0</ele><time>2026-04-04T12:25:22.334Z</time></trkpt><trkpt lat="44.0484417" lon="10.9111567"><ele>930.9999999999999</ele><time>2026-04-04T12:25:23.334Z</time></trkpt><trkpt lat="44.048435" lon="10.911045"><ele>931.0</ele><time>2026-04-04T12:25:24.335Z</time></trkpt><trkpt lat="44.048425" lon="10.9109433"><ele>931.0</ele><time>2026-04-04T12:25:25.334Z</time></trkpt><trkpt lat="44.0484083" lon="10.91084"><ele>931.0</ele><time>2026-04-04T12:25:26.334Z</time></trkpt><trkpt lat="44.0483817" lon="10.9107483"><ele>930.9999999999999</ele><time>2026-04-04T12:25:27.332Z</time></trkpt><trkpt lat="44.0483417" lon="10.91066"><ele>931.0</ele><time>2026-04-04T12:25:28.333Z</time></trkpt><trkpt lat="44.0482867" lon="10.9105733"><ele>932.1999999999999</ele><time>2026-04-04T12:25:29.334Z</time></trkpt><trkpt lat="44.04822" lon="10.9104833"><ele>933.3999999999999</ele><time>2026-04-04T12:25:30.332Z</time></trkpt><trkpt lat="44.048135" lon="10.9104033"><ele>934.6</ele><time>2026-04-04T12:25:31.334Z</time></trkpt><trkpt lat="44.04804" lon="10.91034"><ele>935.8</ele><time>2026-04-04T12:25:32.333Z</time></trkpt><trkpt lat="44.04793" lon="10.9102917"><ele>937.0</ele><time>2026-04-04T12:25:33.333Z</time></trkpt><trkpt lat="44.047825" lon="10.910235"><ele>937.0</ele><time>2026-04-04T12:25:34.332Z</time></trkpt><trkpt lat="44.0477267" lon="10.9101783"><ele>937.0</ele><time>2026-04-04T12:25:35.334Z</time></trkpt><trkpt lat="44.0476217" lon="10.91011"><ele>937.0</ele><time>2026-04-04T12:25:36.334Z</time></trkpt><trkpt lat="44.0475233" lon="10.9100367"><ele>937.0</ele><time>2026-04-04T12:25:37.334Z</time></trkpt><trkpt lat="44.0474283" lon="10.909965"><ele>937.0</ele><time>2026-04-04T12:25:38.334Z</time></trkpt><trkpt lat="44.0473267" lon="10.9099"><ele>933.0</ele><time>2026-04-04T12:25:39.333Z</time></trkpt><trkpt lat="44.04723" lon="10.9098517"><ele>929.0</ele><time>2026-04-04T12:25:40.332Z</time></trkpt><trkpt lat="44.0471427" lon="10.9098039"><ele>925.0</ele><time>2026-04-04T12:25:41.334Z</time></trkpt><trkpt lat="44.0470566" lon="10.9097624"><ele>921.0</ele><time>2026-04-04T12:25:42.334Z</time></trkpt><trkpt lat="44.0469661" lon="10.9097185"><ele>917.0</ele><time>2026-04-04T12:25:43.334Z</time></trkpt><trkpt lat="44.0468753" lon="10.9096612"><ele>917.0</ele><time>2026-04-04T12:25:44.333Z</time></trkpt><trkpt lat="44.046785" lon="10.9095939"><ele>917.0</ele><time>2026-04-04T12:25:45.332Z</time></trkpt><trkpt lat="44.0467005" lon="10.9095178"><ele>917.0</ele><time>2026-04-04T12:25:46.333Z</time></trkpt><trkpt lat="44.0466226" lon="10.9094455"><ele>917.0</ele><time>2026-04-04T12:25:47.333Z</time></trkpt><trkpt lat="44.0465505" lon="10.9093772"><ele>917.0</ele><time>2026-04-04T12:25:48.334Z</time></trkpt><trkpt lat="44.0464812" lon="10.9093189"><ele>914.0</ele><time>2026-04-04T12:25:49.335Z</time></trkpt><trkpt lat="44.0464109" lon="10.9092713"><ele>911.0</ele><time>2026-04-04T12:25:50.334Z</time></trkpt><trkpt lat="44.0463398" lon="10.9092393"><ele>908.0</ele><time>2026-04-04T12:25:51.333Z</time></trkpt><trkpt lat="44.0462737" lon="10.9092275"><ele>905.0</ele><time>2026-04-04T12:25:52.333Z</time></trkpt><trkpt lat="44.0462042" lon="10.909236"><ele>902.0</ele><time>2026-04-04T12:25:53.332Z</time></trkpt><trkpt lat="44.0461344" lon="10.9092511"><ele>899.0</ele><time>2026-04-04T12:25:54.332Z</time></trkpt><trkpt lat="44.0460696" lon="10.9092755"><ele>896.0</ele><time>2026-04-04T12:25:55.334Z</time></trkpt><trkpt lat="44.0460102" lon="10.9093175"><ele>896.0000000000001</ele><time>2026-04-04T12:25:56.333Z</time></trkpt><trkpt lat="44.0459569" lon="10.9093796"><ele>896.0</ele><time>2026-04-04T12:25:57.333Z</time></trkpt><trkpt lat="44.0459106" lon="10.9094649"><ele>896.0</ele><time>2026-04-04T12:25:58.333Z</time></trkpt><trkpt lat="44.0458765" lon="10.909574"><ele>896.0</ele><time>2026-04-04T12:25:59.333Z</time></trkpt><trkpt lat="44.0458521" lon="10.9097051"><ele>896.0000000000001</ele><time>2026-04-04T12:26:00.333Z</time></trkpt><trkpt lat="44.0458365" lon="10.9098695"><ele>896.0</ele><time>2026-04-04T12:26:01.334Z</time></trkpt><trkpt lat="44.0458081" lon="10.9100215"><ele>892.4</ele><time>2026-04-04T12:26:02.333Z</time></trkpt><trkpt lat="44.0457709" lon="10.9101813"><ele>888.8</ele><time>2026-04-04T12:26:03.333Z</time></trkpt><trkpt lat="44.0457317" lon="10.9103305"><ele>885.1999999999999</ele><time>2026-04-04T12:26:04.334Z</time></trkpt><trkpt lat="44.045691" lon="10.9104701"><ele>881.5999999999999</ele><time>2026-04-04T12:26:05.333Z</time></trkpt><trkpt lat="44.0456586" lon="10.9106015"><ele>878.0</ele><time>2026-04-04T12:26:06.333Z</time></trkpt><trkpt lat="44.0456286" lon="10.9107204"><ele>878.0000000000001</ele><time>2026-04-04T12:26:07.334Z</time></trkpt><trkpt lat="44.0455982" lon="10.9108257"><ele>878.0</ele><time>2026-04-04T12:26:08.333Z</time></trkpt><trkpt lat="44.0455798" lon="10.9109253"><ele>878.0</ele><time>2026-04-04T12:26:09.334Z</time></trkpt><trkpt lat="44.0455583" lon="10.9110179"><ele>878.0</ele><time>2026-04-04T12:26:10.334Z</time></trkpt><trkpt lat="44.0455249" lon="10.911102"><ele>878.0000000000001</ele><time>2026-04-04T12:26:11.333Z</time></trkpt><trkpt lat="44.0454589" lon="10.9112177"><ele>878.0</ele><time>2026-04-04T12:26:13.335Z</time></trkpt><trkpt lat="44.0453939" lon="10.9111071"><ele>878.0</ele><time>2026-04-04T12:26:16.335Z</time></trkpt><trkpt lat="44.0453928" lon="10.9109355"><ele>878.0</ele><time>2026-04-04T12:26:17.333Z</time></trkpt><trkpt lat="44.0453902" lon="10.9107258"><ele>878.0</ele><time>2026-04-04T12:26:18.333Z</time></trkpt><trkpt lat="44.0453812" lon="10.9105365"><ele>878.0</ele><time>2026-04-04T12:26:19.333Z</time></trkpt><trkpt lat="44.0453847" lon="10.9103536"><ele>878.0</ele><time>2026-04-04T12:26:20.333Z</time></trkpt><trkpt lat="44.0453851" lon="10.9101543"><ele>878.0</ele><time>2026-04-04T12:26:21.331Z</time></trkpt><trkpt lat="44.0454296" lon="10.9099161"><ele>878.0</ele><time>2026-04-04T12:26:22.334Z</time></trkpt><trkpt lat="44.0454713" lon="10.909713"><ele>874.75</ele><time>2026-04-04T12:26:23.333Z</time></trkpt><trkpt lat="44.0454887" lon="10.9095335"><ele>871.5</ele><time>2026-04-04T12:26:24.333Z</time></trkpt><trkpt lat="44.0454861" lon="10.909372"><ele>868.25</ele><time>2026-04-04T12:26:25.334Z</time></trkpt><trkpt lat="44.0454759" lon="10.9092253"><ele>865.0</ele><time>2026-04-04T12:26:26.332Z</time></trkpt><trkpt lat="44.0454925" lon="10.9090785"><ele>861.4</ele><time>2026-04-04T12:26:27.332Z</time></trkpt><trkpt lat="44.045524" lon="10.9089444"><ele>857.8</ele><time>2026-04-04T12:26:28.332Z</time></trkpt><trkpt lat="44.045573" lon="10.9088201"><ele>854.2</ele><time>2026-04-04T12:26:29.334Z</time></trkpt><trkpt lat="44.0456213" lon="10.9086934"><ele>850.6</ele><time>2026-04-04T12:26:30.333Z</time></trkpt><trkpt lat="44.0456604" lon="10.9085627"><ele>847.0</ele><time>2026-04-04T12:26:31.335Z</time></trkpt><trkpt lat="44.0456734" lon="10.908426"><ele>843.25</ele><time>2026-04-04T12:26:32.333Z</time></trkpt><trkpt lat="44.0456714" lon="10.9082753"><ele>839.5</ele><time>2026-04-04T12:26:33.333Z</time></trkpt><trkpt lat="44.0456548" lon="10.908109"><ele>835.75</ele><time>2026-04-04T12:26:34.334Z</time></trkpt><trkpt lat="44.0456225" lon="10.9079403"><ele>832.0</ele><time>2026-04-04T12:26:35.332Z</time></trkpt><trkpt lat="44.045589" lon="10.9077703"><ele>832.0</ele><time>2026-04-04T12:26:36.335Z</time></trkpt><trkpt lat="44.0455494" lon="10.9076039"><ele>832.0</ele><time>2026-04-04T12:26:37.335Z</time></trkpt><trkpt lat="44.0455118" lon="10.9074437"><ele>832.0</ele><time>2026-04-04T12:26:38.332Z</time></trkpt><trkpt lat="44.0454838" lon="10.9072913"><ele>832.0</ele><time>2026-04-04T12:26:39.333Z</time></trkpt><trkpt lat="44.0454668" lon="10.907147"><ele>831.6</ele><time>2026-04-04T12:26:40.332Z</time></trkpt><trkpt lat="44.0454542" lon="10.9070101"><ele>831.2</ele><time>2026-04-04T12:26:41.335Z</time></trkpt><trkpt lat="44.04545" lon="10.9068605"><ele>830.8</ele><time>2026-04-04T12:26:42.333Z</time></trkpt><trkpt lat="44.0454526" lon="10.9067001"><ele>830.4</ele><time>2026-04-04T12:26:43.334Z</time></trkpt><trkpt lat="44.0454612" lon="10.9065475"><ele>830.0</ele><time>2026-04-04T12:26:44.333Z</time></trkpt><trkpt lat="44.0454621" lon="10.9064053"><ele>830.0</ele><time>2026-04-04T12:26:45.334Z</time></trkpt><trkpt lat="44.0454604" lon="10.906272"><ele>830.0</ele><time>2026-04-04T12:26:46.334Z</time></trkpt><trkpt lat="44.0454538" lon="10.9061509"><ele>830.0</ele><time>2026-04-04T12:26:47.335Z</time></trkpt><trkpt lat="44.0454362" lon="10.9060372"><ele>830.0</ele><time>2026-04-04T12:26:48.334Z</time></trkpt><trkpt lat="44.0453519" lon="10.9059595"><ele>830.0</ele><time>2026-04-04T12:26:49.335Z</time></trkpt><trkpt lat="44.0452775" lon="10.9058984"><ele>832.3333333333334</ele><time>2026-04-04T12:26:50.333Z</time></trkpt><trkpt lat="44.0452032" lon="10.9058455"><ele>834.6666666666667</ele><time>2026-04-04T12:26:51.334Z</time></trkpt><trkpt lat="44.04514" lon="10.9057879"><ele>837.0</ele><time>2026-04-04T12:26:52.334Z</time></trkpt><trkpt lat="44.045083" lon="10.9057259"><ele>839.3333333333333</ele><time>2026-04-04T12:26:53.334Z</time></trkpt><trkpt lat="44.0450383" lon="10.9056485"><ele>841.6666666666666</ele><time>2026-04-04T12:26:54.334Z</time></trkpt><trkpt lat="44.0450017" lon="10.9055511"><ele>844.0</ele><time>2026-04-04T12:26:55.335Z</time></trkpt><trkpt lat="44.0449753" lon="10.9054369"><ele>844.0</ele><time>2026-04-04T12:26:56.334Z</time></trkpt><trkpt lat="44.0449672" lon="10.9053089"><ele>844.0</ele><time>2026-04-04T12:26:57.333Z</time></trkpt><trkpt lat="44.0449727" lon="10.9051773"><ele>844.0</ele><time>2026-04-04T12:26:58.335Z</time></trkpt><trkpt lat="44.0449974" lon="10.9050395"><ele>844.0</ele><time>2026-04-04T12:26:59.334Z</time></trkpt><trkpt lat="44.0450397" lon="10.9049219"><ele>844.0</ele><time>2026-04-04T12:27:00.334Z</time></trkpt><trkpt lat="44.0450855" lon="10.9048258"><ele>843.8333333333333</ele><time>2026-04-04T12:27:01.335Z</time></trkpt><trkpt lat="44.0451339" lon="10.9047459"><ele>843.6666666666666</ele><time>2026-04-04T12:27:02.333Z</time></trkpt><trkpt lat="44.0451773" lon="10.9046727"><ele>843.5</ele><time>2026-04-04T12:27:03.333Z</time></trkpt><trkpt lat="44.0452118" lon="10.9045538"><ele>843.3333333333333</ele><time>2026-04-04T12:27:05.334Z</time></trkpt><trkpt lat="44.04519" lon="10.9044456"><ele>843.1666666666666</ele><time>2026-04-04T12:27:08.334Z</time></trkpt><trkpt lat="44.04512" lon="10.9044711"><ele>843.0</ele><time>2026-04-04T12:27:10.332Z</time></trkpt><trkpt lat="44.0450469" lon="10.9046102"><ele>843.0</ele><time>2026-04-04T12:27:12.333Z</time></trkpt><trkpt lat="44.0449865" lon="10.9047274"><ele>843.0</ele><time>2026-04-04T12:27:13.335Z</time></trkpt><trkpt lat="44.0449221" lon="10.90487"><ele>843.0</ele><time>2026-04-04T12:27:14.333Z</time></trkpt><trkpt lat="44.0448664" lon="10.9050073"><ele>843.0</ele><time>2026-04-04T12:27:15.334Z</time></trkpt><trkpt lat="44.0448263" lon="10.9051281"><ele>843.0</ele><time>2026-04-04T12:27:16.334Z</time></trkpt><trkpt lat="44.0448" lon="10.9052426"><ele>836.5714285714286</ele><time>2026-04-04T12:27:17.334Z</time></trkpt><trkpt lat="44.0447735" lon="10.9053472"><ele>830.1428571428571</ele><time>2026-04-04T12:27:18.334Z</time></trkpt><trkpt lat="44.0447604" lon="10.9054489"><ele>823.7142857142858</ele><time>2026-04-04T12:27:19.334Z</time></trkpt><trkpt lat="44.0447596" lon="10.9055546"><ele>817.2857142857142</ele><time>2026-04-04T12:27:20.334Z</time></trkpt><trkpt lat="44.044778" lon="10.9056459"><ele>810.8571428571429</ele><time>2026-04-04T12:27:21.334Z</time></trkpt><trkpt lat="44.0448144" lon="10.9057286"><ele>804.4285714285714</ele><time>2026-04-04T12:27:22.333Z</time></trkpt><trkpt lat="44.0448644" lon="10.9058158"><ele>798.0</ele><time>2026-04-04T12:27:23.336Z</time></trkpt><trkpt lat="44.0449222" lon="10.9059004"><ele>803.3333333333334</ele><time>2026-04-04T12:27:24.333Z</time></trkpt><trkpt lat="44.0449691" lon="10.9059902"><ele>808.6666666666667</ele><time>2026-04-04T12:27:25.335Z</time></trkpt><trkpt lat="44.0450051" lon="10.906081"><ele>814.0</ele><time>2026-04-04T12:27:26.334Z</time></trkpt><trkpt lat="44.0450295" lon="10.9061789"><ele>819.3333333333334</ele><time>2026-04-04T12:27:27.334Z</time></trkpt><trkpt lat="44.0450343" lon="10.9062938"><ele>824.6666666666667</ele><time>2026-04-04T12:27:28.335Z</time></trkpt><trkpt lat="44.0450195" lon="10.9064276"><ele>830.0</ele><time>2026-04-04T12:27:29.335Z</time></trkpt><trkpt lat="44.0450025" lon="10.9065705"><ele>830.0</ele><time>2026-04-04T12:27:30.333Z</time></trkpt><trkpt lat="44.0449898" lon="10.9067114"><ele>830.0</ele><time>2026-04-04T12:27:31.335Z</time></trkpt><trkpt lat="44.0449895" lon="10.9068516"><ele>830.0</ele><time>2026-04-04T12:27:32.333Z</time></trkpt><trkpt lat="44.0449924" lon="10.9069964"><ele>830.0</ele><time>2026-04-04T12:27:33.334Z</time></trkpt><trkpt lat="44.0449916" lon="10.9071533"><ele>830.0</ele><time>2026-04-04T12:27:34.334Z</time></trkpt><trkpt lat="44.0449856" lon="10.9073086"><ele>829.6</ele><time>2026-04-04T12:27:35.333Z</time></trkpt><trkpt lat="44.0449768" lon="10.9074592"><ele>829.2</ele><time>2026-04-04T12:27:36.333Z</time></trkpt><trkpt lat="44.0449575" lon="10.9076006"><ele>828.8</ele><time>2026-04-04T12:27:37.334Z</time></trkpt><trkpt lat="44.0449383" lon="10.9077339"><ele>828.4</ele><time>2026-04-04T12:27:38.334Z</time></trkpt><trkpt lat="44.044906" lon="10.9078653"><ele>828.0</ele><time>2026-04-04T12:27:39.333Z</time></trkpt><trkpt lat="44.0448775" lon="10.9079813"><ele>828.0</ele><time>2026-04-04T12:27:40.333Z</time></trkpt><trkpt lat="44.044852" lon="10.9080802"><ele>828.0</ele><time>2026-04-04T12:27:41.333Z</time></trkpt><trkpt lat="44.0448273" lon="10.9081669"><ele>828.0</ele><time>2026-04-04T12:27:42.334Z</time></trkpt><trkpt lat="44.0447576" lon="10.9082752"><ele>828.0</ele><time>2026-04-04T12:27:44.332Z</time></trkpt><trkpt lat="44.0446933" lon="10.9081081"><ele>828.0</ele><time>2026-04-04T12:27:46.335Z</time></trkpt><trkpt lat="44.0446769" lon="10.9079448"><ele>828.0</ele><time>2026-04-04T12:27:47.334Z</time></trkpt><trkpt lat="44.0446715" lon="10.9077636"><ele>828.0</ele><time>2026-04-04T12:27:48.333Z</time></trkpt><trkpt lat="44.044666" lon="10.907591"><ele>828.0</ele><time>2026-04-04T12:27:49.334Z</time></trkpt><trkpt lat="44.044656" lon="10.9074255"><ele>828.0</ele><time>2026-04-04T12:27:50.333Z</time></trkpt><trkpt lat="44.0446377" lon="10.9072692"><ele>822.2</ele><time>2026-04-04T12:27:51.334Z</time></trkpt><trkpt lat="44.0446031" lon="10.9071194"><ele>816.4</ele><time>2026-04-04T12:27:52.334Z</time></trkpt><trkpt lat="44.0445677" lon="10.9069716"><ele>810.6</ele><time>2026-04-04T12:27:53.334Z</time></trkpt><trkpt lat="44.0445474" lon="10.9068368"><ele>804.8000000000001</ele><time>2026-04-04T12:27:54.333Z</time></trkpt><trkpt lat="44.0445335" lon="10.9067091"><ele>799.0</ele><time>2026-04-04T12:27:55.334Z</time></trkpt><trkpt lat="44.0445142" lon="10.9065956"><ele>798.9999999999999</ele><time>2026-04-04T12:27:56.333Z</time></trkpt><trkpt lat="44.0445037" lon="10.9064965"><ele>799.0</ele><time>2026-04-04T12:27:57.334Z</time></trkpt><trkpt lat="44.0444384" lon="10.9064993"><ele>799.0</ele><time>2026-04-04T12:28:00.335Z</time></trkpt><trkpt lat="44.044446" lon="10.9066811"><ele>799.0</ele><time>2026-04-04T12:28:02.334Z</time></trkpt><trkpt lat="44.0444591" lon="10.9067963"><ele>798.9999999999999</ele><time>2026-04-04T12:28:03.333Z</time></trkpt><trkpt lat="44.0444721" lon="10.9069268"><ele>799.0</ele><time>2026-04-04T12:28:04.332Z</time></trkpt><trkpt lat="44.0444849" lon="10.9070613"><ele>798.9999999999999</ele><time>2026-04-04T12:28:05.334Z</time></trkpt><trkpt lat="44.0444948" lon="10.9071865"><ele>799.0</ele><time>2026-04-04T12:28:06.333Z</time></trkpt><trkpt lat="44.0445045" lon="10.9073003"><ele>799.0</ele><time>2026-04-04T12:28:07.333Z</time></trkpt><trkpt lat="44.0445025" lon="10.9074054"><ele>799.0</ele><time>2026-04-04T12:28:08.333Z</time></trkpt><trkpt lat="44.0444949" lon="10.9075009"><ele>798.9999999999999</ele><time>2026-04-04T12:28:09.333Z</time></trkpt><trkpt lat="44.0444338" lon="10.9075558"><ele>799.0</ele><time>2026-04-04T12:28:11.333Z</time></trkpt><trkpt lat="44.044396" lon="10.9074697"><ele>799.0</ele><time>2026-04-04T12:28:13.334Z</time></trkpt><trkpt lat="44.0443855" lon="10.9073681"><ele>799.0</ele><time>2026-04-04T12:28:14.334Z</time></trkpt><trkpt lat="44.0443803" lon="10.9072439"><ele>799.0</ele><time>2026-04-04T12:28:15.335Z</time></trkpt><trkpt lat="44.0443673" lon="10.9071096"><ele>799.0</ele><time>2026-04-04T12:28:16.333Z</time></trkpt><trkpt lat="44.0443457" lon="10.9069677"><ele>799.0</ele><time>2026-04-04T12:28:17.335Z</time></trkpt><trkpt lat="44.0443186" lon="10.9068277"><ele>796.6</ele><time>2026-04-04T12:28:18.333Z</time></trkpt><trkpt lat="44.0442751" lon="10.906712"><ele>794.2</ele><time>2026-04-04T12:28:19.334Z</time></trkpt><trkpt lat="44.0442161" lon="10.9066028"><ele>791.8000000000001</ele><time>2026-04-04T12:28:20.334Z</time></trkpt><trkpt lat="44.044135" lon="10.9065085"><ele>789.4000000000001</ele><time>2026-04-04T12:28:21.334Z</time></trkpt><trkpt lat="44.0440483" lon="10.9064203"><ele>787.0</ele><time>2026-04-04T12:28:22.335Z</time></trkpt><trkpt lat="44.0439653" lon="10.9063449"><ele>786.0</ele><time>2026-04-04T12:28:23.334Z</time></trkpt><trkpt lat="44.0438971" lon="10.9062578"><ele>785.0</ele><time>2026-04-04T12:28:24.334Z</time></trkpt><trkpt lat="44.043841" lon="10.9061571"><ele>784.0</ele><time>2026-04-04T12:28:25.334Z</time></trkpt><trkpt lat="44.0437928" lon="10.9060549"><ele>783.0</ele><time>2026-04-04T12:28:26.334Z</time></trkpt><trkpt lat="44.0437541" lon="10.9059398"><ele>782.0</ele><time>2026-04-04T12:28:27.333Z</time></trkpt><trkpt lat="44.043755" lon="10.9057962"><ele>779.0</ele><time>2026-04-04T12:28:28.335Z</time></trkpt><trkpt lat="44.0437505" lon="10.90565"><ele>776.0</ele><time>2026-04-04T12:28:29.335Z</time></trkpt><trkpt lat="44.043733" lon="10.9055044"><ele>773.0</ele><time>2026-04-04T12:28:30.334Z</time></trkpt><trkpt lat="44.043706" lon="10.9053646"><ele>770.0</ele><time>2026-04-04T12:28:31.335Z</time></trkpt><trkpt lat="44.0436778" lon="10.9052306"><ele>767.0</ele><time>2026-04-04T12:28:32.333Z</time></trkpt><trkpt lat="44.0436482" lon="10.9051046"><ele>766.4000000000001</ele><time>2026-04-04T12:28:33.335Z</time></trkpt><trkpt lat="44.0436212" lon="10.9049832"><ele>765.8000000000001</ele><time>2026-04-04T12:28:34.334Z</time></trkpt><trkpt lat="44.0436145" lon="10.9048592"><ele>765.2</ele><time>2026-04-04T12:28:35.334Z</time></trkpt><trkpt lat="44.0436236" lon="10.9047294"><ele>764.6</ele><time>2026-04-04T12:28:36.335Z</time></trkpt><trkpt lat="44.0436415" lon="10.9045909"><ele>764.0</ele><time>2026-04-04T12:28:37.335Z</time></trkpt><trkpt lat="44.0436711" lon="10.9044492"><ele>764.0</ele><time>2026-04-04T12:28:38.335Z</time></trkpt><trkpt lat="44.0437167" lon="10.9043163"><ele>764.0</ele><time>2026-04-04T12:28:39.335Z</time></trkpt><trkpt lat="44.043772" lon="10.904193"><ele>764.0</ele><time>2026-04-04T12:28:40.334Z</time></trkpt><trkpt lat="44.0438286" lon="10.9040744"><ele>764.0</ele><time>2026-04-04T12:28:41.335Z</time></trkpt><trkpt lat="44.0438958" lon="10.9039536"><ele>764.0</ele><time>2026-04-04T12:28:42.334Z</time></trkpt><trkpt lat="44.0439637" lon="10.903827"><ele>764.8000000000001</ele><time>2026-04-04T12:28:43.336Z</time></trkpt><trkpt lat="44.0440222" lon="10.9037052"><ele>765.6</ele><time>2026-04-04T12:28:44.333Z</time></trkpt><trkpt lat="44.0440663" lon="10.9035743"><ele>766.4</ele><time>2026-04-04T12:28:45.334Z</time></trkpt><trkpt lat="44.0440998" lon="10.9034426"><ele>767.2</ele><time>2026-04-04T12:28:46.335Z</time></trkpt><trkpt lat="44.0441251" lon="10.9033133"><ele>768.0</ele><time>2026-04-04T12:28:47.334Z</time></trkpt><trkpt lat="44.0441542" lon="10.9031905"><ele>768.0</ele><time>2026-04-04T12:28:48.335Z</time></trkpt><trkpt lat="44.0441919" lon="10.9030531"><ele>768.0</ele><time>2026-04-04T12:28:49.335Z</time></trkpt><trkpt lat="44.0442398" lon="10.9029078"><ele>768.0</ele><time>2026-04-04T12:28:50.333Z</time></trkpt><trkpt lat="44.0442904" lon="10.9027502"><ele>768.0</ele><time>2026-04-04T12:28:51.335Z</time></trkpt><trkpt lat="44.0443399" lon="10.9025856"><ele>764.2</ele><time>2026-04-04T12:28:52.334Z</time></trkpt><trkpt lat="44.0443848" lon="10.902425"><ele>760.4</ele><time>2026-04-04T12:28:53.334Z</time></trkpt><trkpt lat="44.044431" lon="10.9022847"><ele>756.6</ele><time>2026-04-04T12:28:54.334Z</time></trkpt><trkpt lat="44.0444748" lon="10.9021612"><ele>752.8000000000001</ele><time>2026-04-04T12:28:55.335Z</time></trkpt><trkpt lat="44.0445221" lon="10.9020462"><ele>749.0</ele><time>2026-04-04T12:28:56.333Z</time></trkpt><trkpt lat="44.0445783" lon="10.9019425"><ele>749.0</ele><time>2026-04-04T12:28:57.338Z</time></trkpt><trkpt lat="44.044647" lon="10.9018383"><ele>749.0</ele><time>2026-04-04T12:28:58.335Z</time></trkpt><trkpt lat="44.0447282" lon="10.9017283"><ele>749.0</ele><time>2026-04-04T12:28:59.334Z</time></trkpt><trkpt lat="44.0448047" lon="10.9016142"><ele>749.0</ele><time>2026-04-04T12:29:00.334Z</time></trkpt><trkpt lat="44.0448731" lon="10.9014986"><ele>749.0</ele><time>2026-04-04T12:29:01.335Z</time></trkpt><trkpt lat="44.0449336" lon="10.9013917"><ele>749.8333333333333</ele><time>2026-04-04T12:29:02.334Z</time></trkpt><trkpt lat="44.0449816" lon="10.9012896"><ele>750.6666666666666</ele><time>2026-04-04T12:29:03.334Z</time></trkpt><trkpt lat="44.0450254" lon="10.9012047"><ele>751.5</ele><time>2026-04-04T12:29:04.334Z</time></trkpt><trkpt lat="44.0450721" lon="10.9011415"><ele>752.3333333333334</ele><time>2026-04-04T12:29:05.335Z</time></trkpt><trkpt lat="44.0451262" lon="10.9010946"><ele>753.1666666666667</ele><time>2026-04-04T12:29:06.335Z</time></trkpt><trkpt lat="44.045239" lon="10.9011423"><ele>754.0</ele><time>2026-04-04T12:29:08.335Z</time></trkpt><trkpt lat="44.0453019" lon="10.9011921"><ele>754.0</ele><time>2026-04-04T12:29:09.334Z</time></trkpt><trkpt lat="44.0453643" lon="10.9012576"><ele>754.0</ele><time>2026-04-04T12:29:10.335Z</time></trkpt><trkpt lat="44.0454171" lon="10.9013281"><ele>754.0</ele><time>2026-04-04T12:29:11.335Z</time></trkpt><trkpt lat="44.045462" lon="10.9013969"><ele>754.0</ele><time>2026-04-04T12:29:12.333Z</time></trkpt><trkpt lat="44.0455168" lon="10.901561"><ele>754.0</ele><time>2026-04-04T12:29:14.333Z</time></trkpt><trkpt lat="44.0455405" lon="10.9016559"><ele>754.0</ele><time>2026-04-04T12:29:15.334Z</time></trkpt><trkpt lat="44.0455758" lon="10.9017544"><ele>753.3333333333334</ele><time>2026-04-04T12:29:16.335Z</time></trkpt><trkpt lat="44.0456136" lon="10.9018616"><ele>752.6666666666667</ele><time>2026-04-04T12:29:17.334Z</time></trkpt><trkpt lat="44.0456506" lon="10.9019642"><ele>752.0</ele><time>2026-04-04T12:29:18.335Z</time></trkpt><trkpt lat="44.0456913" lon="10.9020574"><ele>751.3333333333334</ele><time>2026-04-04T12:29:19.335Z</time></trkpt><trkpt lat="44.0457481" lon="10.9021401"><ele>750.6666666666666</ele><time>2026-04-04T12:29:20.334Z</time></trkpt><trkpt lat="44.0458148" lon="10.9022127"><ele>750.0</ele><time>2026-04-04T12:29:21.335Z</time></trkpt><trkpt lat="44.04588" lon="10.9022927"><ele>750.0</ele><time>2026-04-04T12:29:22.334Z</time></trkpt><trkpt lat="44.0459446" lon="10.9023647"><ele>750.0</ele><time>2026-04-04T12:29:23.335Z</time></trkpt><trkpt lat="44.0460088" lon="10.9024292"><ele>750.0</ele><time>2026-04-04T12:29:24.334Z</time></trkpt><trkpt lat="44.0460648" lon="10.9024943"><ele>750.0</ele><time>2026-04-04T12:29:25.334Z</time></trkpt><trkpt lat="44.0461119" lon="10.9025533"><ele>750.0</ele><time>2026-04-04T12:29:26.334Z</time></trkpt><trkpt lat="44.0461983" lon="10.9026343"><ele>750.0</ele><time>2026-04-04T12:29:28.334Z</time></trkpt><trkpt lat="44.0462764" lon="10.9027059"><ele>748.6666666666666</ele><time>2026-04-04T12:29:30.334Z</time></trkpt><trkpt lat="44.046345" lon="10.9027512"><ele>747.3333333333334</ele><time>2026-04-04T12:29:32.334Z</time></trkpt><trkpt lat="44.0464148" lon="10.9027892"><ele>746.0</ele><time>2026-04-04T12:29:34.335Z</time></trkpt><trkpt lat="44.0465186" lon="10.902866"><ele>744.6666666666667</ele><time>2026-04-04T12:29:36.334Z</time></trkpt><trkpt lat="44.0465801" lon="10.9029208"><ele>743.3333333333334</ele><time>2026-04-04T12:29:37.335Z</time></trkpt><trkpt lat="44.0466442" lon="10.9029829"><ele>742.0</ele><time>2026-04-04T12:29:38.334Z</time></trkpt><trkpt lat="44.046714" lon="10.9030414"><ele>742.0</ele><time>2026-04-04T12:29:39.333Z</time></trkpt><trkpt lat="44.0467798" lon="10.9031003"><ele>742.0</ele><time>2026-04-04T12:29:40.334Z</time></trkpt><trkpt lat="44.0468385" lon="10.9031589"><ele>742.0</ele><time>2026-04-04T12:29:41.335Z</time></trkpt><trkpt lat="44.0468938" lon="10.9032149"><ele>742.0</ele><time>2026-04-04T12:29:42.335Z</time></trkpt><trkpt lat="44.0469456" lon="10.9032772"><ele>742.0</ele><time>2026-04-04T12:29:43.334Z</time></trkpt><trkpt lat="44.0470251" lon="10.9033586"><ele>742.0</ele><time>2026-04-04T12:29:45.335Z</time></trkpt><trkpt lat="44.0470721" lon="10.9034211"><ele>747.2</ele><time>2026-04-04T12:29:47.335Z</time></trkpt><trkpt lat="44.0470465" lon="10.9035423"><ele>752.4000000000001</ele><time>2026-04-04T12:30:45.334Z</time></trkpt><trkpt lat="44.0470616" lon="10.9036692"><ele>757.5999999999999</ele><time>2026-04-04T12:32:08.334Z</time></trkpt><trkpt lat="44.0471497" lon="10.9038036"><ele>762.8</ele><time>2026-04-04T12:32:10.334Z</time></trkpt><trkpt lat="44.0472036" lon="10.9038799"><ele>768.0</ele><time>2026-04-04T12:32:11.335Z</time></trkpt><trkpt lat="44.0472755" lon="10.9039628"><ele>768.0</ele><time>2026-04-04T12:32:12.335Z</time></trkpt><trkpt lat="44.0473505" lon="10.9040392"><ele>768.0</ele><time>2026-04-04T12:32:13.334Z</time></trkpt><trkpt lat="44.047422" lon="10.9041046"><ele>768.0</ele><time>2026-04-04T12:32:14.335Z</time></trkpt><trkpt lat="44.0474805" lon="10.9041737"><ele>768.0</ele><time>2026-04-04T12:32:15.335Z</time></trkpt><trkpt lat="44.0475269" lon="10.9042426"><ele>768.0</ele><time>2026-04-04T12:32:16.335Z</time></trkpt><trkpt lat="44.0476016" lon="10.9043668"><ele>768.0</ele><time>2026-04-04T12:32:18.335Z</time></trkpt><trkpt lat="44.0476632" lon="10.9044991"><ele>764.8333333333334</ele><time>2026-04-04T12:32:20.335Z</time></trkpt><trkpt lat="44.0477301" lon="10.9045754"><ele>761.6666666666666</ele><time>2026-04-04T12:32:22.335Z</time></trkpt><trkpt lat="44.0478149" lon="10.9045122"><ele>758.5</ele><time>2026-04-04T12:32:24.334Z</time></trkpt><trkpt lat="44.0478525" lon="10.9044105"><ele>755.3333333333333</ele><time>2026-04-04T12:32:25.335Z</time></trkpt><trkpt lat="44.0478939" lon="10.9043025"><ele>752.1666666666666</ele><time>2026-04-04T12:32:26.334Z</time></trkpt><trkpt lat="44.0479301" lon="10.9041989"><ele>749.0</ele><time>2026-04-04T12:32:27.334Z</time></trkpt><trkpt lat="44.0479637" lon="10.9041042"><ele>744.2</ele><time>2026-04-04T12:32:28.336Z</time></trkpt><trkpt lat="44.0479984" lon="10.9040226"><ele>739.4000000000001</ele><time>2026-04-04T12:32:29.333Z</time></trkpt><trkpt lat="44.0480437" lon="10.903951"><ele>734.6</ele><time>2026-04-04T12:32:30.334Z</time></trkpt><trkpt lat="44.0481328" lon="10.9038582"><ele>729.8</ele><time>2026-04-04T12:32:32.334Z</time></trkpt><trkpt lat="44.0482381" lon="10.9038378"><ele>725.0</ele><time>2026-04-04T12:32:34.335Z</time></trkpt><trkpt lat="44.0483336" lon="10.9038876"><ele>727.0</ele><time>2026-04-04T12:32:36.334Z</time></trkpt><trkpt lat="44.0484192" lon="10.903954"><ele>729.0</ele><time>2026-04-04T12:32:38.335Z</time></trkpt><trkpt lat="44.0484997" lon="10.9039844"><ele>731.0</ele><time>2026-04-04T12:32:40.335Z</time></trkpt><trkpt lat="44.0485592" lon="10.9040463"><ele>733.0</ele><time>2026-04-04T12:32:42.334Z</time></trkpt><trkpt lat="44.0486205" lon="10.9041514"><ele>735.0</ele><time>2026-04-04T12:32:44.333Z</time></trkpt><trkpt lat="44.0487069" lon="10.9042655"><ele>735.0</ele><time>2026-04-04T12:32:46.334Z</time></trkpt><trkpt lat="44.0488035" lon="10.9043332"><ele>735.0</ele><time>2026-04-04T12:32:48.333Z</time></trkpt><trkpt lat="44.0488621" lon="10.9043656"><ele>735.0</ele><time>2026-04-04T12:32:49.335Z</time></trkpt><trkpt lat="44.0489229" lon="10.9043983"><ele>735.0</ele><time>2026-04-04T12:32:50.334Z</time></trkpt><trkpt lat="44.0489849" lon="10.9044266"><ele>735.0</ele><time>2026-04-04T12:32:51.334Z</time></trkpt><trkpt lat="44.0491045" lon="10.904435"><ele>735.0</ele><time>2026-04-04T12:32:53.332Z</time></trkpt><trkpt lat="44.0491687" lon="10.9044181"><ele>733.4</ele><time>2026-04-04T12:32:54.333Z</time></trkpt><trkpt lat="44.0492299" lon="10.9043956"><ele>731.8</ele><time>2026-04-04T12:32:55.332Z</time></trkpt><trkpt lat="44.0493523" lon="10.9043366"><ele>730.2</ele><time>2026-04-04T12:32:57.333Z</time></trkpt><trkpt lat="44.049461" lon="10.9043061"><ele>728.6</ele><time>2026-04-04T12:32:59.335Z</time></trkpt><trkpt lat="44.0495571" lon="10.9043613"><ele>727.0</ele><time>2026-04-04T12:33:01.333Z</time></trkpt><trkpt lat="44.0496143" lon="10.9044045"><ele>727.0</ele><time>2026-04-04T12:33:02.334Z</time></trkpt><trkpt lat="44.0496662" lon="10.9044712"><ele>727.0</ele><time>2026-04-04T12:33:03.336Z</time></trkpt><trkpt lat="44.0497108" lon="10.9045548"><ele>727.0</ele><time>2026-04-04T12:33:04.335Z</time></trkpt><trkpt lat="44.0497556" lon="10.9046381"><ele>727.0</ele><time>2026-04-04T12:33:05.335Z</time></trkpt><trkpt lat="44.0498068" lon="10.9047156"><ele>727.0</ele><time>2026-04-04T12:33:06.334Z</time></trkpt><trkpt lat="44.0498664" lon="10.9047818"><ele>727.0</ele><time>2026-04-04T12:33:07.334Z</time></trkpt><trkpt lat="44.0499303" lon="10.9048302"><ele>727.0</ele><time>2026-04-04T12:33:08.334Z</time></trkpt><trkpt lat="44.0499861" lon="10.9048788"><ele>727.0</ele><time>2026-04-04T12:33:09.335Z</time></trkpt><trkpt lat="44.0500411" lon="10.9049365"><ele>727.0</ele><time>2026-04-04T12:33:10.335Z</time></trkpt><trkpt lat="44.0500938" lon="10.9049966"><ele>727.0</ele><time>2026-04-04T12:33:11.334Z</time></trkpt><trkpt lat="44.0501447" lon="10.9050565"><ele>727.0</ele><time>2026-04-04T12:33:12.333Z</time></trkpt><trkpt lat="44.050201" lon="10.9051012"><ele>727.0</ele><time>2026-04-04T12:33:13.333Z</time></trkpt><trkpt lat="44.0502696" lon="10.9051408"><ele>727.0</ele><time>2026-04-04T12:33:14.333Z</time></trkpt><trkpt lat="44.0503466" lon="10.905177"><ele>727.0</ele><time>2026-04-04T12:33:15.332Z</time></trkpt><trkpt lat="44.050426" lon="10.9052127"><ele>727.0</ele><time>2026-04-04T12:33:16.333Z</time></trkpt><trkpt lat="44.0504936" lon="10.9052524"><ele>727.0</ele><time>2026-04-04T12:33:17.334Z</time></trkpt><trkpt lat="44.0505535" lon="10.905288"><ele>727.0</ele><time>2026-04-04T12:33:18.334Z</time></trkpt><trkpt lat="44.050649" lon="10.9053488"><ele>727.0</ele><time>2026-04-04T12:33:20.333Z</time></trkpt><trkpt lat="44.0507344" lon="10.9053499"><ele>727.0</ele><time>2026-04-04T12:33:22.334Z</time></trkpt><trkpt lat="44.050829" lon="10.9053026"><ele>727.0</ele><time>2026-04-04T12:33:24.333Z</time></trkpt><trkpt lat="44.050933" lon="10.9052488"><ele>720.0</ele><time>2026-04-04T12:33:26.332Z</time></trkpt><trkpt lat="44.0510456" lon="10.9052466"><ele>713.0</ele><time>2026-04-04T12:33:28.335Z</time></trkpt><trkpt lat="44.0511105" lon="10.905267"><ele>706.0</ele><time>2026-04-04T12:33:29.333Z</time></trkpt><trkpt lat="44.0511717" lon="10.9053065"><ele>699.0</ele><time>2026-04-04T12:33:30.334Z</time></trkpt><trkpt lat="44.0512751" lon="10.9053548"><ele>692.0</ele><time>2026-04-04T12:33:32.333Z</time></trkpt><trkpt lat="44.0513837" lon="10.9053565"><ele>692.0</ele><time>2026-04-04T12:33:34.334Z</time></trkpt><trkpt lat="44.0514441" lon="10.9053194"><ele>692.0</ele><time>2026-04-04T12:33:35.333Z</time></trkpt><trkpt lat="44.0515035" lon="10.9052642"><ele>692.0</ele><time>2026-04-04T12:33:36.334Z</time></trkpt><trkpt lat="44.0515393" lon="10.9051814"><ele>692.0</ele><time>2026-04-04T12:33:37.334Z</time></trkpt><trkpt lat="44.0515905" lon="10.9051216"><ele>692.0</ele><time>2026-04-04T12:33:38.334Z</time></trkpt><trkpt lat="44.0516956" lon="10.9050505"><ele>692.0</ele><time>2026-04-04T12:33:40.334Z</time></trkpt><trkpt lat="44.0517635" lon="10.9050382"><ele>690.2857142857142</ele><time>2026-04-04T12:33:41.333Z</time></trkpt><trkpt lat="44.051837" lon="10.9050453"><ele>688.5714285714287</ele><time>2026-04-04T12:33:42.333Z</time></trkpt><trkpt lat="44.051904" lon="10.9050678"><ele>686.8571428571429</ele><time>2026-04-04T12:33:43.334Z</time></trkpt><trkpt lat="44.0519656" lon="10.9051127"><ele>685.1428571428571</ele><time>2026-04-04T12:33:44.334Z</time></trkpt><trkpt lat="44.052006" lon="10.9051862"><ele>683.4285714285713</ele><time>2026-04-04T12:33:45.334Z</time></trkpt><trkpt lat="44.0520359" lon="10.9052659"><ele>681.7142857142858</ele><time>2026-04-04T12:33:46.333Z</time></trkpt><trkpt lat="44.0520669" lon="10.9053544"><ele>680.0</ele><time>2026-04-04T12:33:47.333Z</time></trkpt><trkpt lat="44.0520996" lon="10.905446"><ele>680.0</ele><time>2026-04-04T12:33:48.334Z</time></trkpt><trkpt lat="44.0521337" lon="10.9055481"><ele>680.0</ele><time>2026-04-04T12:33:49.333Z</time></trkpt><trkpt lat="44.0521637" lon="10.9056525"><ele>680.0</ele><time>2026-04-04T12:33:50.332Z</time></trkpt><trkpt lat="44.0521948" lon="10.9057565"><ele>680.0</ele><time>2026-04-04T12:33:51.333Z</time></trkpt><trkpt lat="44.0522231" lon="10.9058594"><ele>680.0</ele><time>2026-04-04T12:33:52.334Z</time></trkpt><trkpt lat="44.05225" lon="10.905964"><ele>680.0</ele><time>2026-04-04T12:33:53.335Z</time></trkpt><trkpt lat="44.0522756" lon="10.9060592"><ele>680.0</ele><time>2026-04-04T12:33:54.334Z</time></trkpt><trkpt lat="44.0523056" lon="10.9062041"><ele>680.0</ele><time>2026-04-04T12:33:56.334Z</time></trkpt><trkpt lat="44.0523505" lon="10.9062763"><ele>680.0</ele><time>2026-04-04T12:33:58.334Z</time></trkpt><trkpt lat="44.0524309" lon="10.9061958"><ele>680.0</ele><time>2026-04-04T12:34:01.334Z</time></trkpt><trkpt lat="44.0524413" lon="10.9061042"><ele>680.0</ele><time>2026-04-04T12:34:02.334Z</time></trkpt><trkpt lat="44.0524404" lon="10.9059957"><ele>680.0</ele><time>2026-04-04T12:34:03.334Z</time></trkpt><trkpt lat="44.0524276" lon="10.9058973"><ele>680.0</ele><time>2026-04-04T12:34:04.335Z</time></trkpt><trkpt lat="44.0524121" lon="10.9057618"><ele>680.0</ele><time>2026-04-04T12:34:06.334Z</time></trkpt><trkpt lat="44.0525285" lon="10.9058317"><ele>680.0</ele><time>2026-04-04T12:34:10.333Z</time></trkpt><trkpt lat="44.0525938" lon="10.9059385"><ele>680.0</ele><time>2026-04-04T12:34:11.334Z</time></trkpt><trkpt lat="44.0526776" lon="10.9060432"><ele>680.0</ele><time>2026-04-04T12:34:12.333Z</time></trkpt><trkpt lat="44.0527688" lon="10.9061341"><ele>675.4</ele><time>2026-04-04T12:34:13.335Z</time></trkpt><trkpt lat="44.0528576" lon="10.9062253"><ele>670.8</ele><time>2026-04-04T12:34:14.333Z</time></trkpt><trkpt lat="44.0529414" lon="10.9063065"><ele>666.2</ele><time>2026-04-04T12:34:15.334Z</time></trkpt><trkpt lat="44.0530276" lon="10.9063867"><ele>661.6</ele><time>2026-04-04T12:34:16.334Z</time></trkpt><trkpt lat="44.0531118" lon="10.9064695"><ele>657.0</ele><time>2026-04-04T12:34:17.334Z</time></trkpt><trkpt lat="44.0531982" lon="10.9065661"><ele>657.0</ele><time>2026-04-04T12:34:18.334Z</time></trkpt><trkpt lat="44.053279" lon="10.9066625"><ele>657.0</ele><time>2026-04-04T12:34:19.334Z</time></trkpt><trkpt lat="44.0533542" lon="10.9067442"><ele>657.0</ele><time>2026-04-04T12:34:20.334Z</time></trkpt><trkpt lat="44.0534202" lon="10.9068246"><ele>657.0</ele><time>2026-04-04T12:34:21.334Z</time></trkpt><trkpt lat="44.0534761" lon="10.9069014"><ele>657.0</ele><time>2026-04-04T12:34:22.334Z</time></trkpt><trkpt lat="44.0535298" lon="10.9069776"><ele>657.0</ele><time>2026-04-04T12:34:23.334Z</time></trkpt><trkpt lat="44.0535839" lon="10.9070445"><ele>653.8333333333334</ele><time>2026-04-04T12:34:24.334Z</time></trkpt><trkpt lat="44.0536406" lon="10.9071022"><ele>650.6666666666666</ele><time>2026-04-04T12:34:25.335Z</time></trkpt><trkpt lat="44.0537103" lon="10.9071347"><ele>647.5</ele><time>2026-04-04T12:34:26.334Z</time></trkpt><trkpt lat="44.0537854" lon="10.9071554"><ele>644.3333333333333</ele><time>2026-04-04T12:34:27.335Z</time></trkpt><trkpt lat="44.053864" lon="10.9071692"><ele>641.1666666666666</ele><time>2026-04-04T12:34:28.335Z</time></trkpt><trkpt lat="44.0539405" lon="10.9071904"><ele>638.0</ele><time>2026-04-04T12:34:29.334Z</time></trkpt><trkpt lat="44.0540183" lon="10.9072256"><ele>638.0</ele><time>2026-04-04T12:34:30.335Z</time></trkpt><trkpt lat="44.0540877" lon="10.9072685"><ele>638.0</ele><time>2026-04-04T12:34:31.332Z</time></trkpt><trkpt lat="44.0541611" lon="10.9073027"><ele>638.0</ele><time>2026-04-04T12:34:32.332Z</time></trkpt><trkpt lat="44.0542316" lon="10.9073307"><ele>638.0</ele><time>2026-04-04T12:34:33.334Z</time></trkpt><trkpt lat="44.0543042" lon="10.9073537"><ele>638.0</ele><time>2026-04-04T12:34:34.335Z</time></trkpt><trkpt lat="44.054381" lon="10.9073703"><ele>638.0</ele><time>2026-04-04T12:34:35.334Z</time></trkpt><trkpt lat="44.0544643" lon="10.9073956"><ele>637.75</ele><time>2026-04-04T12:34:36.334Z</time></trkpt><trkpt lat="44.0545591" lon="10.9074316"><ele>637.5</ele><time>2026-04-04T12:34:37.334Z</time></trkpt><trkpt lat="44.054667" lon="10.907484"><ele>637.25</ele><time>2026-04-04T12:34:38.333Z</time></trkpt><trkpt lat="44.0547855" lon="10.9075528"><ele>637.0</ele><time>2026-04-04T12:34:39.335Z</time></trkpt><trkpt lat="44.0549059" lon="10.9076443"><ele>632.75</ele><time>2026-04-04T12:34:40.335Z</time></trkpt><trkpt lat="44.0550267" lon="10.9077424"><ele>628.5</ele><time>2026-04-04T12:34:41.333Z</time></trkpt><trkpt lat="44.0551381" lon="10.9078475"><ele>624.25</ele><time>2026-04-04T12:34:42.333Z</time></trkpt><trkpt lat="44.0552508" lon="10.9079453"><ele>620.0</ele><time>2026-04-04T12:34:43.334Z</time></trkpt><trkpt lat="44.0553689" lon="10.9080378"><ele>620.0</ele><time>2026-04-04T12:34:44.332Z</time></trkpt><trkpt lat="44.0554775" lon="10.9081269"><ele>620.0</ele><time>2026-04-04T12:34:45.333Z</time></trkpt><trkpt lat="44.0555776" lon="10.9082106"><ele>620.0</ele><time>2026-04-04T12:34:46.333Z</time></trkpt><trkpt lat="44.0556788" lon="10.9082929"><ele>620.0</ele><time>2026-04-04T12:34:47.333Z</time></trkpt><trkpt lat="44.0557759" lon="10.9083669"><ele>621.8333333333333</ele><time>2026-04-04T12:34:48.333Z</time></trkpt><trkpt lat="44.0558641" lon="10.908428"><ele>623.6666666666666</ele><time>2026-04-04T12:34:49.335Z</time></trkpt><trkpt lat="44.0559487" lon="10.9084825"><ele>625.5</ele><time>2026-04-04T12:34:50.333Z</time></trkpt><trkpt lat="44.0560289" lon="10.9085289"><ele>627.3333333333334</ele><time>2026-04-04T12:34:51.333Z</time></trkpt><trkpt lat="44.0561068" lon="10.9085782"><ele>629.1666666666667</ele><time>2026-04-04T12:34:52.339Z</time></trkpt><trkpt lat="44.0561791" lon="10.9086223"><ele>631.0</ele><time>2026-04-04T12:34:53.333Z</time></trkpt><trkpt lat="44.0562485" lon="10.9086567"><ele>631.0</ele><time>2026-04-04T12:34:54.333Z</time></trkpt><trkpt lat="44.0563168" lon="10.9086875"><ele>631.0</ele><time>2026-04-04T12:34:55.334Z</time></trkpt><trkpt lat="44.0563818" lon="10.9087139"><ele>631.0</ele><time>2026-04-04T12:34:56.332Z</time></trkpt><trkpt lat="44.056445" lon="10.9087326"><ele>631.0</ele><time>2026-04-04T12:34:57.334Z</time></trkpt><trkpt lat="44.0565567" lon="10.9087317"><ele>631.0</ele><time>2026-04-04T12:34:59.333Z</time></trkpt><trkpt lat="44.0566458" lon="10.9086657"><ele>631.0</ele><time>2026-04-04T12:35:01.333Z</time></trkpt><trkpt lat="44.0567148" lon="10.9085361"><ele>627.4</ele><time>2026-04-04T12:35:03.333Z</time></trkpt><trkpt lat="44.0567743" lon="10.9083931"><ele>623.8</ele><time>2026-04-04T12:35:05.335Z</time></trkpt><trkpt lat="44.0567982" lon="10.9082931"><ele>620.1999999999999</ele><time>2026-04-04T12:35:07.333Z</time></trkpt><trkpt lat="44.0567969" lon="10.9081615"><ele>616.6</ele><time>2026-04-04T12:35:10.334Z</time></trkpt><trkpt lat="44.0567355" lon="10.9080218"><ele>613.0</ele><time>2026-04-04T12:35:12.334Z</time></trkpt><trkpt lat="44.0566759" lon="10.9079278"><ele>613.0</ele><time>2026-04-04T12:35:13.335Z</time></trkpt><trkpt lat="44.0565875" lon="10.9078116"><ele>613.0</ele><time>2026-04-04T12:35:14.333Z</time></trkpt><trkpt lat="44.0564771" lon="10.9076833"><ele>613.0</ele><time>2026-04-04T12:35:15.334Z</time></trkpt><trkpt lat="44.056362" lon="10.9075634"><ele>613.0</ele><time>2026-04-04T12:35:16.333Z</time></trkpt><trkpt lat="44.0562393" lon="10.9074546"><ele>613.0</ele><time>2026-04-04T12:35:17.333Z</time></trkpt><trkpt lat="44.0561113" lon="10.9073479"><ele>613.0</ele><time>2026-04-04T12:35:18.333Z</time></trkpt><trkpt lat="44.055997" lon="10.9072619"><ele>613.0</ele><time>2026-04-04T12:35:19.334Z</time></trkpt><trkpt lat="44.0558955" lon="10.9071892"><ele>613.0</ele><time>2026-04-04T12:35:20.333Z</time></trkpt><trkpt lat="44.0558063" lon="10.9071269"><ele>613.5</ele><time>2026-04-04T12:35:21.334Z</time></trkpt><trkpt lat="44.055726" lon="10.9070714"><ele>614.0</ele><time>2026-04-04T12:35:22.334Z</time></trkpt><trkpt lat="44.0556481" lon="10.9070091"><ele>614.5</ele><time>2026-04-04T12:35:23.333Z</time></trkpt><trkpt lat="44.0555714" lon="10.9069498"><ele>615.0</ele><time>2026-04-04T12:35:24.332Z</time></trkpt><trkpt lat="44.0554948" lon="10.9068964"><ele>615.5</ele><time>2026-04-04T12:35:25.335Z</time></trkpt><trkpt lat="44.055426" lon="10.9068495"><ele>616.0</ele><time>2026-04-04T12:35:26.333Z</time></trkpt><trkpt lat="44.0553689" lon="10.9068064"><ele>615.8333333333334</ele><time>2026-04-04T12:35:27.333Z</time></trkpt><trkpt lat="44.0553045" lon="10.9067142"><ele>615.6666666666667</ele><time>2026-04-04T12:35:29.333Z</time></trkpt><trkpt lat="44.0553029" lon="10.9066057"><ele>615.5</ele><time>2026-04-04T12:35:31.335Z</time></trkpt><trkpt lat="44.0553479" lon="10.9065125"><ele>615.3333333333334</ele><time>2026-04-04T12:35:33.334Z</time></trkpt><trkpt lat="44.0553632" lon="10.9064132"><ele>615.1666666666666</ele><time>2026-04-04T12:35:35.333Z</time></trkpt><trkpt lat="44.0553022" lon="10.9063298"><ele>615.0</ele><time>2026-04-04T12:35:37.334Z</time></trkpt><trkpt lat="44.0552469" lon="10.9062857"><ele>615.0</ele><time>2026-04-04T12:35:38.333Z</time></trkpt><trkpt lat="44.0551756" lon="10.9062313"><ele>615.0</ele><time>2026-04-04T12:35:39.333Z</time></trkpt><trkpt lat="44.0550903" lon="10.9061633"><ele>615.0</ele><time>2026-04-04T12:35:40.334Z</time></trkpt><trkpt lat="44.0549943" lon="10.9060938"><ele>615.0</ele><time>2026-04-04T12:35:41.333Z</time></trkpt><trkpt lat="44.0548916" lon="10.9060219"><ele>615.0</ele><time>2026-04-04T12:35:42.334Z</time></trkpt><trkpt lat="44.0547894" lon="10.9059383"><ele>614.75</ele><time>2026-04-04T12:35:43.333Z</time></trkpt><trkpt lat="44.0546829" lon="10.9058403"><ele>614.5</ele><time>2026-04-04T12:35:44.334Z</time></trkpt><trkpt lat="44.0545716" lon="10.9057262"><ele>614.25</ele><time>2026-04-04T12:35:45.333Z</time></trkpt><trkpt lat="44.054466" lon="10.9055899"><ele>614.0</ele><time>2026-04-04T12:35:46.334Z</time></trkpt><trkpt lat="44.0543648" lon="10.9054406"><ele>614.0</ele><time>2026-04-04T12:35:47.333Z</time></trkpt><trkpt lat="44.0542608" lon="10.9052968"><ele>614.0</ele><time>2026-04-04T12:35:48.333Z</time></trkpt><trkpt lat="44.0541505" lon="10.905161"><ele>614.0</ele><time>2026-04-04T12:35:49.333Z</time></trkpt><trkpt lat="44.0540339" lon="10.9050199"><ele>614.0</ele><time>2026-04-04T12:35:50.334Z</time></trkpt><trkpt lat="44.0539074" lon="10.9048722"><ele>614.3333333333333</ele><time>2026-04-04T12:35:51.333Z</time></trkpt><trkpt lat="44.0537644" lon="10.9047275"><ele>614.6666666666666</ele><time>2026-04-04T12:35:52.334Z</time></trkpt><trkpt lat="44.0536232" lon="10.9046006"><ele>615.0</ele><time>2026-04-04T12:35:53.333Z</time></trkpt><trkpt lat="44.053486" lon="10.9044868"><ele>615.0</ele><time>2026-04-04T12:35:54.334Z</time></trkpt><trkpt lat="44.0533405" lon="10.9043907"><ele>615.0</ele><time>2026-04-04T12:35:55.334Z</time></trkpt><trkpt lat="44.0531873" lon="10.9043109"><ele>615.0</ele><time>2026-04-04T12:35:56.333Z</time></trkpt><trkpt lat="44.0530285" lon="10.9042365"><ele>617.0</ele><time>2026-04-04T12:35:57.333Z</time></trkpt><trkpt lat="44.0528623" lon="10.9041696"><ele>619.0</ele><time>2026-04-04T12:35:58.333Z</time></trkpt><trkpt lat="44.0526875" lon="10.9041143"><ele>621.0</ele><time>2026-04-04T12:35:59.335Z</time></trkpt><trkpt lat="44.0525058" lon="10.9040652"><ele>622.6666666666666</ele><time>2026-04-04T12:36:00.334Z</time></trkpt><trkpt lat="44.0523189" lon="10.90402"><ele>624.3333333333333</ele><time>2026-04-04T12:36:01.335Z</time></trkpt><trkpt lat="44.0521315" lon="10.9039755"><ele>626.0</ele><time>2026-04-04T12:36:02.334Z</time></trkpt><trkpt lat="44.0519519" lon="10.9039292"><ele>626.0</ele><time>2026-04-04T12:36:03.335Z</time></trkpt><trkpt lat="44.0517886" lon="10.903877"><ele>626.0</ele><time>2026-04-04T12:36:04.332Z</time></trkpt><trkpt lat="44.051633" lon="10.9038267"><ele>626.0</ele><time>2026-04-04T12:36:05.334Z</time></trkpt><trkpt lat="44.0514845" lon="10.9037721"><ele>629.3333333333333</ele><time>2026-04-04T12:36:06.333Z</time></trkpt><trkpt lat="44.0513369" lon="10.9037091"><ele>632.6666666666666</ele><time>2026-04-04T12:36:07.335Z</time></trkpt><trkpt lat="44.0511894" lon="10.9036338"><ele>636.0</ele><time>2026-04-04T12:36:08.334Z</time></trkpt><trkpt lat="44.0510405" lon="10.9035543"><ele>636.0</ele><time>2026-04-04T12:36:09.334Z</time></trkpt><trkpt lat="44.0509009" lon="10.9034768"><ele>636.0</ele><time>2026-04-04T12:36:10.335Z</time></trkpt><trkpt lat="44.0507696" lon="10.903415"><ele>636.0</ele><time>2026-04-04T12:36:11.335Z</time></trkpt><trkpt lat="44.0506489" lon="10.9033586"><ele>636.0</ele><time>2026-04-04T12:36:12.335Z</time></trkpt><trkpt lat="44.0505359" lon="10.9033018"><ele>635.5</ele><time>2026-04-04T12:36:13.334Z</time></trkpt><trkpt lat="44.0504331" lon="10.9032251"><ele>635.0</ele><time>2026-04-04T12:36:14.334Z</time></trkpt><trkpt lat="44.0503427" lon="10.9031171"><ele>634.5</ele><time>2026-04-04T12:36:15.335Z</time></trkpt><trkpt lat="44.0502586" lon="10.9029835"><ele>634.0</ele><time>2026-04-04T12:36:16.336Z</time></trkpt><trkpt lat="44.0501804" lon="10.9028305"><ele>634.0</ele><time>2026-04-04T12:36:17.335Z</time></trkpt><trkpt lat="44.0500984" lon="10.9026708"><ele>634.0</ele><time>2026-04-04T12:36:18.334Z</time></trkpt><trkpt lat="44.0500182" lon="10.9024964"><ele>634.0</ele><time>2026-04-04T12:36:19.335Z</time></trkpt><trkpt lat="44.0499243" lon="10.9023254"><ele>634.0</ele><time>2026-04-04T12:36:20.335Z</time></trkpt><trkpt lat="44.0498161" lon="10.902158"><ele>635.3333333333334</ele><time>2026-04-04T12:36:21.334Z</time></trkpt><trkpt lat="44.049699" lon="10.9019883"><ele>636.6666666666666</ele><time>2026-04-04T12:36:22.337Z</time></trkpt><trkpt lat="44.04958" lon="10.9018246"><ele>638.0</ele><time>2026-04-04T12:36:23.335Z</time></trkpt><trkpt lat="44.04947" lon="10.9016633"><ele>637.6666666666666</ele><time>2026-04-04T12:36:24.335Z</time></trkpt><trkpt lat="44.04936" lon="10.9015067"><ele>637.3333333333334</ele><time>2026-04-04T12:36:25.335Z</time></trkpt><trkpt lat="44.049245" lon="10.901355"><ele>637.0</ele><time>2026-04-04T12:36:26.335Z</time></trkpt><trkpt lat="44.0491233" lon="10.9012117"><ele>637.0</ele><time>2026-04-04T12:36:27.334Z</time></trkpt><trkpt lat="44.0489883" lon="10.9010783"><ele>637.0</ele><time>2026-04-04T12:36:28.333Z</time></trkpt><trkpt lat="44.0488467" lon="10.9009567"><ele>637.0</ele><time>2026-04-04T12:36:29.333Z</time></trkpt><trkpt lat="44.04871" lon="10.9008333"><ele>636.6666666666667</ele><time>2026-04-04T12:36:30.334Z</time></trkpt><trkpt lat="44.048565" lon="10.9007217"><ele>636.3333333333334</ele><time>2026-04-04T12:36:31.334Z</time></trkpt><trkpt lat="44.0484117" lon="10.900625"><ele>636.0</ele><time>2026-04-04T12:36:32.335Z</time></trkpt><trkpt lat="44.0482517" lon="10.9005467"><ele>636.0</ele><time>2026-04-04T12:36:33.335Z</time></trkpt><trkpt lat="44.0480817" lon="10.900485"><ele>636.0</ele><time>2026-04-04T12:36:34.334Z</time></trkpt><trkpt lat="44.0479067" lon="10.9004183"><ele>636.0</ele><time>2026-04-04T12:36:35.333Z</time></trkpt><trkpt lat="44.0477317" lon="10.900355"><ele>636.0</ele><time>2026-04-04T12:36:36.333Z</time></trkpt><trkpt lat="44.0475567" lon="10.9003"><ele>636.0</ele><time>2026-04-04T12:36:37.335Z</time></trkpt><trkpt lat="44.047385" lon="10.900245"><ele>636.0</ele><time>2026-04-04T12:36:38.335Z</time></trkpt><trkpt lat="44.04722" lon="10.9001817"><ele>638.0</ele><time>2026-04-04T12:36:39.333Z</time></trkpt><trkpt lat="44.0470633" lon="10.900115"><ele>640.0</ele><time>2026-04-04T12:36:40.335Z</time></trkpt><trkpt lat="44.0469167" lon="10.9000517"><ele>642.0</ele><time>2026-04-04T12:36:41.334Z</time></trkpt><trkpt lat="44.0467783" lon="10.899995"><ele>642.0</ele><time>2026-04-04T12:36:42.335Z</time></trkpt><trkpt lat="44.0466467" lon="10.8999217"><ele>642.0</ele><time>2026-04-04T12:36:43.334Z</time></trkpt><trkpt lat="44.04653" lon="10.8998217"><ele>642.0</ele><time>2026-04-04T12:36:44.334Z</time></trkpt><trkpt lat="44.0464333" lon="10.8996767"><ele>642.0</ele><time>2026-04-04T12:36:45.335Z</time></trkpt><trkpt lat="44.04636" lon="10.899505"><ele>644.0</ele><time>2026-04-04T12:36:46.334Z</time></trkpt><trkpt lat="44.046325" lon="10.899305"><ele>646.0</ele><time>2026-04-04T12:36:47.335Z</time></trkpt><trkpt lat="44.0463017" lon="10.8991033"><ele>648.0</ele><time>2026-04-04T12:36:48.335Z</time></trkpt><trkpt lat="44.0462967" lon="10.8988867"><ele>648.0</ele><time>2026-04-04T12:36:49.336Z</time></trkpt><trkpt lat="44.046305" lon="10.8986467"><ele>648.0</ele><time>2026-04-04T12:36:50.334Z</time></trkpt><trkpt lat="44.0463183" lon="10.8983967"><ele>648.0</ele><time>2026-04-04T12:36:51.336Z</time></trkpt><trkpt lat="44.0463317" lon="10.89815"><ele>646.0</ele><time>2026-04-04T12:36:52.335Z</time></trkpt><trkpt lat="44.0463367" lon="10.8979033"><ele>644.0</ele><time>2026-04-04T12:36:53.334Z</time></trkpt><trkpt lat="44.046315" lon="10.8976583"><ele>642.0</ele><time>2026-04-04T12:36:54.333Z</time></trkpt><trkpt lat="44.046265" lon="10.8974183"><ele>641.6666666666666</ele><time>2026-04-04T12:36:55.334Z</time></trkpt><trkpt lat="44.0462" lon="10.8971917"><ele>641.3333333333333</ele><time>2026-04-04T12:36:56.334Z</time></trkpt><trkpt lat="44.0461167" lon="10.8969783"><ele>641.0</ele><time>2026-04-04T12:36:57.334Z</time></trkpt><trkpt lat="44.046025" lon="10.8967867"><ele>643.6666666666666</ele><time>2026-04-04T12:36:58.334Z</time></trkpt><trkpt lat="44.045925" lon="10.896605"><ele>646.3333333333334</ele><time>2026-04-04T12:36:59.334Z</time></trkpt><trkpt lat="44.0458167" lon="10.8964367"><ele>649.0</ele><time>2026-04-04T12:37:00.335Z</time></trkpt><trkpt lat="44.0456867" lon="10.89628"><ele>649.6666666666667</ele><time>2026-04-04T12:37:01.333Z</time></trkpt><trkpt lat="44.0455467" lon="10.8961333"><ele>650.3333333333334</ele><time>2026-04-04T12:37:02.333Z</time></trkpt><trkpt lat="44.0454067" lon="10.8960033"><ele>651.0</ele><time>2026-04-04T12:37:03.334Z</time></trkpt><trkpt lat="44.045275" lon="10.895885"><ele>651.0</ele><time>2026-04-04T12:37:04.333Z</time></trkpt><trkpt lat="44.04516" lon="10.895765"><ele>651.0</ele><time>2026-04-04T12:37:05.334Z</time></trkpt><trkpt lat="44.045065" lon="10.8956283"><ele>651.0</ele><time>2026-04-04T12:37:06.334Z</time></trkpt><trkpt lat="44.0449767" lon="10.89547"><ele>651.0</ele><time>2026-04-04T12:37:07.333Z</time></trkpt><trkpt lat="44.0449067" lon="10.8952883"><ele>649.6666666666666</ele><time>2026-04-04T12:37:08.334Z</time></trkpt><trkpt lat="44.0448433" lon="10.89509"><ele>648.3333333333333</ele><time>2026-04-04T12:37:09.334Z</time></trkpt><trkpt lat="44.0447717" lon="10.89489"><ele>647.0</ele><time>2026-04-04T12:37:10.337Z</time></trkpt><trkpt lat="44.0446883" lon="10.8946867"><ele>647.0</ele><time>2026-04-04T12:37:11.333Z</time></trkpt><trkpt lat="44.0445717" lon="10.8944933"><ele>647.0</ele><time>2026-04-04T12:37:12.335Z</time></trkpt><trkpt lat="44.0444333" lon="10.89431"><ele>647.0</ele><time>2026-04-04T12:37:13.335Z</time></trkpt><trkpt lat="44.0442983" lon="10.8941283"><ele>646.6666666666666</ele><time>2026-04-04T12:37:14.334Z</time></trkpt><trkpt lat="44.0441667" lon="10.8939567"><ele>646.3333333333334</ele><time>2026-04-04T12:37:15.333Z</time></trkpt><trkpt lat="44.0440267" lon="10.8937983"><ele>646.0</ele><time>2026-04-04T12:37:16.333Z</time></trkpt><trkpt lat="44.0438817" lon="10.89365"><ele>647.0</ele><time>2026-04-04T12:37:17.334Z</time></trkpt><trkpt lat="44.0437317" lon="10.8935067"><ele>648.0</ele><time>2026-04-04T12:37:18.334Z</time></trkpt><trkpt lat="44.0435933" lon="10.8933567"><ele>649.0</ele><time>2026-04-04T12:37:19.335Z</time></trkpt><trkpt lat="44.0434667" lon="10.8931983"><ele>650.0</ele><time>2026-04-04T12:37:20.334Z</time></trkpt><trkpt lat="44.04335" lon="10.89303"><ele>651.0</ele><time>2026-04-04T12:37:21.334Z</time></trkpt><trkpt lat="44.0432433" lon="10.892855"><ele>652.0</ele><time>2026-04-04T12:37:22.334Z</time></trkpt><trkpt lat="44.0431383" lon="10.8926883"><ele>651.3333333333334</ele><time>2026-04-04T12:37:23.334Z</time></trkpt><trkpt lat="44.0430283" lon="10.89253"><ele>650.6666666666666</ele><time>2026-04-04T12:37:24.333Z</time></trkpt><trkpt lat="44.04291" lon="10.8923867"><ele>650.0</ele><time>2026-04-04T12:37:25.333Z</time></trkpt><trkpt lat="44.0427967" lon="10.892245"><ele>650.0</ele><time>2026-04-04T12:37:26.334Z</time></trkpt><trkpt lat="44.0426833" lon="10.8921083"><ele>650.0</ele><time>2026-04-04T12:37:27.333Z</time></trkpt><trkpt lat="44.04258" lon="10.8919617"><ele>650.0</ele><time>2026-04-04T12:37:28.334Z</time></trkpt><trkpt lat="44.0424883" lon="10.8918133"><ele>650.0</ele><time>2026-04-04T12:37:29.333Z</time></trkpt><trkpt lat="44.0424117" lon="10.89165"><ele>649.75</ele><time>2026-04-04T12:37:30.335Z</time></trkpt><trkpt lat="44.0423567" lon="10.8914767"><ele>649.5</ele><time>2026-04-04T12:37:31.334Z</time></trkpt><trkpt lat="44.0423383" lon="10.8912867"><ele>649.25</ele><time>2026-04-04T12:37:32.335Z</time></trkpt><trkpt lat="44.04236" lon="10.8911"><ele>649.0</ele><time>2026-04-04T12:37:33.333Z</time></trkpt><trkpt lat="44.0424283" lon="10.890915"><ele>652.0</ele><time>2026-04-04T12:37:34.334Z</time></trkpt><trkpt lat="44.0425133" lon="10.89074"><ele>655.0</ele><time>2026-04-04T12:37:35.334Z</time></trkpt><trkpt lat="44.0425917" lon="10.8905483"><ele>658.0</ele><time>2026-04-04T12:37:36.334Z</time></trkpt><trkpt lat="44.0426733" lon="10.890335"><ele>658.0</ele><time>2026-04-04T12:37:37.335Z</time></trkpt><trkpt lat="44.0427517" lon="10.8901183"><ele>658.0</ele><time>2026-04-04T12:37:38.334Z</time></trkpt><trkpt lat="44.0428133" lon="10.8898917"><ele>658.0</ele><time>2026-04-04T12:37:39.333Z</time></trkpt><trkpt lat="44.0428483" lon="10.889655"><ele>656.0</ele><time>2026-04-04T12:37:40.333Z</time></trkpt><trkpt lat="44.0428567" lon="10.8894167"><ele>654.0</ele><time>2026-04-04T12:37:41.333Z</time></trkpt><trkpt lat="44.0428367" lon="10.8891783"><ele>652.0</ele><time>2026-04-04T12:37:42.334Z</time></trkpt><trkpt lat="44.0427967" lon="10.8889467"><ele>651.6666666666667</ele><time>2026-04-04T12:37:43.335Z</time></trkpt><trkpt lat="44.042745" lon="10.8887133"><ele>651.3333333333334</ele><time>2026-04-04T12:37:44.332Z</time></trkpt><trkpt lat="44.0426767" lon="10.88849"><ele>651.0</ele><time>2026-04-04T12:37:45.333Z</time></trkpt><trkpt lat="44.0425917" lon="10.8882767"><ele>652.0</ele><time>2026-04-04T12:37:46.333Z</time></trkpt><trkpt lat="44.0424883" lon="10.8880783"><ele>653.0</ele><time>2026-04-04T12:37:47.332Z</time></trkpt><trkpt lat="44.042385" lon="10.8878733"><ele>654.0</ele><time>2026-04-04T12:37:48.334Z</time></trkpt><trkpt lat="44.0422817" lon="10.8876633"><ele>654.6666666666666</ele><time>2026-04-04T12:37:49.335Z</time></trkpt><trkpt lat="44.04217" lon="10.88745"><ele>655.3333333333333</ele><time>2026-04-04T12:37:50.334Z</time></trkpt><trkpt lat="44.0420533" lon="10.8872367"><ele>656.0</ele><time>2026-04-04T12:37:51.334Z</time></trkpt><trkpt lat="44.041935" lon="10.88703"><ele>656.0</ele><time>2026-04-04T12:37:52.333Z</time></trkpt><trkpt lat="44.041815" lon="10.8868417"><ele>656.0</ele><time>2026-04-04T12:37:53.335Z</time></trkpt><trkpt lat="44.0416983" lon="10.886675"><ele>656.0</ele><time>2026-04-04T12:37:54.335Z</time></trkpt><trkpt lat="44.04159" lon="10.88653"><ele>657.75</ele><time>2026-04-04T12:37:55.335Z</time></trkpt><trkpt lat="44.04148" lon="10.8863983"><ele>659.5</ele><time>2026-04-04T12:37:56.334Z</time></trkpt><trkpt lat="44.04136" lon="10.88628"><ele>661.25</ele><time>2026-04-04T12:37:57.332Z</time></trkpt><trkpt lat="44.041225" lon="10.8861817"><ele>663.0</ele><time>2026-04-04T12:37:58.335Z</time></trkpt><trkpt lat="44.04108" lon="10.8861033"><ele>663.0</ele><time>2026-04-04T12:37:59.333Z</time></trkpt><trkpt lat="44.0409317" lon="10.8860317"><ele>663.0</ele><time>2026-04-04T12:38:00.334Z</time></trkpt><trkpt lat="44.0407883" lon="10.8859683"><ele>663.0</ele><time>2026-04-04T12:38:01.335Z</time></trkpt><trkpt lat="44.040655" lon="10.8859117"><ele>663.0</ele><time>2026-04-04T12:38:02.333Z</time></trkpt><trkpt lat="44.0405317" lon="10.8858517"><ele>661.75</ele><time>2026-04-04T12:38:03.334Z</time></trkpt><trkpt lat="44.0404267" lon="10.8857567"><ele>660.5</ele><time>2026-04-04T12:38:04.333Z</time></trkpt><trkpt lat="44.0403417" lon="10.8856217"><ele>659.25</ele><time>2026-04-04T12:38:05.335Z</time></trkpt><trkpt lat="44.0402817" lon="10.8854567"><ele>658.0</ele><time>2026-04-04T12:38:06.334Z</time></trkpt><trkpt lat="44.0402567" lon="10.88527"><ele>658.0</ele><time>2026-04-04T12:38:07.335Z</time></trkpt><trkpt lat="44.04025" lon="10.885095"><ele>658.0</ele><time>2026-04-04T12:38:08.334Z</time></trkpt><trkpt lat="44.040245" lon="10.8849433"><ele>658.0</ele><time>2026-04-04T12:38:09.334Z</time></trkpt><trkpt lat="44.040225" lon="10.88481"><ele>658.0</ele><time>2026-04-04T12:38:10.333Z</time></trkpt><trkpt lat="44.0401883" lon="10.8847017"><ele>658.0</ele><time>2026-04-04T12:38:11.335Z</time></trkpt><trkpt lat="44.0401367" lon="10.8846267"><ele>658.0</ele><time>2026-04-04T12:38:12.335Z</time></trkpt><trkpt lat="44.0400633" lon="10.8845883"><ele>658.0</ele><time>2026-04-04T12:38:13.335Z</time></trkpt><trkpt lat="44.0399883" lon="10.8845683"><ele>658.0</ele><time>2026-04-04T12:38:14.334Z</time></trkpt><trkpt lat="44.0398833" lon="10.8845917"><ele>658.0</ele><time>2026-04-04T12:38:15.333Z</time></trkpt><trkpt lat="44.0397633" lon="10.88462"><ele>658.0</ele><time>2026-04-04T12:38:16.333Z</time></trkpt><trkpt lat="44.0396417" lon="10.8846417"><ele>658.25</ele><time>2026-04-04T12:38:17.334Z</time></trkpt><trkpt lat="44.0395217" lon="10.8846167"><ele>658.5</ele><time>2026-04-04T12:38:18.334Z</time></trkpt><trkpt lat="44.0394067" lon="10.884555"><ele>658.75</ele><time>2026-04-04T12:38:19.334Z</time></trkpt><trkpt lat="44.039305" lon="10.88447"><ele>659.0</ele><time>2026-04-04T12:38:20.335Z</time></trkpt><trkpt lat="44.0392183" lon="10.8843667"><ele>659.0</ele><time>2026-04-04T12:38:21.334Z</time></trkpt><trkpt lat="44.0391467" lon="10.8842567"><ele>659.0</ele><time>2026-04-04T12:38:22.333Z</time></trkpt><trkpt lat="44.0390767" lon="10.8841483"><ele>659.0</ele><time>2026-04-04T12:38:23.335Z</time></trkpt><trkpt lat="44.0390083" lon="10.884045"><ele>659.0</ele><time>2026-04-04T12:38:24.334Z</time></trkpt><trkpt lat="44.0389367" lon="10.8839383"><ele>659.0</ele><time>2026-04-04T12:38:25.335Z</time></trkpt><trkpt lat="44.0388717" lon="10.88384"><ele>659.1666666666666</ele><time>2026-04-04T12:38:26.334Z</time></trkpt><trkpt lat="44.038815" lon="10.8837517"><ele>659.3333333333333</ele><time>2026-04-04T12:38:27.335Z</time></trkpt><trkpt lat="44.0387633" lon="10.8836733"><ele>659.5</ele><time>2026-04-04T12:38:28.335Z</time></trkpt><trkpt lat="44.0387183" lon="10.8836017"><ele>659.6666666666666</ele><time>2026-04-04T12:38:29.335Z</time></trkpt><trkpt lat="44.0386533" lon="10.8834917"><ele>659.8333333333334</ele><time>2026-04-04T12:38:31.335Z</time></trkpt><trkpt lat="44.0386067" lon="10.883405"><ele>660.0</ele><time>2026-04-04T12:38:33.334Z</time></trkpt><trkpt lat="44.0385633" lon="10.8833217"><ele>660.0</ele><time>2026-04-04T12:38:35.333Z</time></trkpt><trkpt lat="44.0385033" lon="10.88324"><ele>660.0</ele><time>2026-04-04T12:38:37.334Z</time></trkpt><trkpt lat="44.038425" lon="10.883125"><ele>660.0</ele><time>2026-04-04T12:38:39.333Z</time></trkpt><trkpt lat="44.0383583" lon="10.883015"><ele>660.0</ele><time>2026-04-04T12:38:41.334Z</time></trkpt><trkpt lat="44.0382867" lon="10.8829"><ele>660.0</ele><time>2026-04-04T12:38:43.335Z</time></trkpt><trkpt lat="44.0382" lon="10.8827833"><ele>660.0</ele><time>2026-04-04T12:38:45.335Z</time></trkpt><trkpt lat="44.038145" lon="10.8827033"><ele>660.0</ele><time>2026-04-04T12:38:47.334Z</time></trkpt><trkpt lat="44.03808" lon="10.8826667"><ele>660.0</ele><time>2026-04-04T12:38:57.333Z</time></trkpt><trkpt lat="44.0379617" lon="10.8826933"><ele>660.0</ele><time>2026-04-04T12:38:59.334Z</time></trkpt><trkpt lat="44.0378867" lon="10.8826933"><ele>660.0</ele><time>2026-04-04T12:39:00.334Z</time></trkpt><trkpt lat="44.0378083" lon="10.88267"><ele>660.0</ele><time>2026-04-04T12:39:01.336Z</time></trkpt><trkpt lat="44.03773" lon="10.8826283"><ele>661.5</ele><time>2026-04-04T12:39:02.334Z</time></trkpt><trkpt lat="44.03764" lon="10.88254"><ele>663.0</ele><time>2026-04-04T12:39:03.334Z</time></trkpt><trkpt lat="44.0375467" lon="10.8824167"><ele>664.5</ele><time>2026-04-04T12:39:04.335Z</time></trkpt><trkpt lat="44.037455" lon="10.8822983"><ele>666.0</ele><time>2026-04-04T12:39:05.333Z</time></trkpt><trkpt lat="44.0373633" lon="10.88218"><ele>666.5</ele><time>2026-04-04T12:39:06.334Z</time></trkpt><trkpt lat="44.03727" lon="10.88206"><ele>667.0</ele><time>2026-04-04T12:39:07.334Z</time></trkpt><trkpt lat="44.0371833" lon="10.881925"><ele>667.5</ele><time>2026-04-04T12:39:08.335Z</time></trkpt><trkpt lat="44.0370983" lon="10.8817817"><ele>668.0</ele><time>2026-04-04T12:39:09.336Z</time></trkpt><trkpt lat="44.0370217" lon="10.88162"><ele>668.0</ele><time>2026-04-04T12:39:10.334Z</time></trkpt><trkpt lat="44.0369417" lon="10.8814433"><ele>668.0</ele><time>2026-04-04T12:39:11.335Z</time></trkpt><trkpt lat="44.0368683" lon="10.8812517"><ele>668.0</ele><time>2026-04-04T12:39:12.335Z</time></trkpt><trkpt lat="44.036805" lon="10.881055"><ele>668.6666666666666</ele><time>2026-04-04T12:39:13.336Z</time></trkpt><trkpt lat="44.0367567" lon="10.88085"><ele>669.3333333333334</ele><time>2026-04-04T12:39:14.333Z</time></trkpt><trkpt lat="44.0367267" lon="10.880625"><ele>670.0</ele><time>2026-04-04T12:39:15.334Z</time></trkpt><trkpt lat="44.03671" lon="10.8804033"><ele>670.0</ele><time>2026-04-04T12:39:16.335Z</time></trkpt><trkpt lat="44.0366767" lon="10.8801867"><ele>670.0</ele><time>2026-04-04T12:39:17.335Z</time></trkpt><trkpt lat="44.03663" lon="10.8799683"><ele>670.0</ele><time>2026-04-04T12:39:18.334Z</time></trkpt><trkpt lat="44.036545" lon="10.8797617"><ele>670.0</ele><time>2026-04-04T12:39:19.334Z</time></trkpt><trkpt lat="44.0364367" lon="10.8795667"><ele>670.0</ele><time>2026-04-04T12:39:20.336Z</time></trkpt><trkpt lat="44.0363283" lon="10.87938"><ele>670.0</ele><time>2026-04-04T12:39:21.335Z</time></trkpt><trkpt lat="44.0362167" lon="10.8792033"><ele>670.0</ele><time>2026-04-04T12:39:22.333Z</time></trkpt><trkpt lat="44.0361033" lon="10.8790317"><ele>670.0</ele><time>2026-04-04T12:39:23.335Z</time></trkpt><trkpt lat="44.0359917" lon="10.878865"><ele>670.0</ele><time>2026-04-04T12:39:24.334Z</time></trkpt><trkpt lat="44.03587" lon="10.8787033"><ele>669.3333333333334</ele><time>2026-04-04T12:39:25.336Z</time></trkpt><trkpt lat="44.0357383" lon="10.87855"><ele>668.6666666666666</ele><time>2026-04-04T12:39:26.335Z</time></trkpt><trkpt lat="44.0356083" lon="10.8784067"><ele>668.0</ele><time>2026-04-04T12:39:27.335Z</time></trkpt><trkpt lat="44.0354683" lon="10.8782767"><ele>668.0</ele><time>2026-04-04T12:39:28.336Z</time></trkpt><trkpt lat="44.0353183" lon="10.87816"><ele>668.0</ele><time>2026-04-04T12:39:29.335Z</time></trkpt><trkpt lat="44.0351667" lon="10.8780383"><ele>668.0</ele><time>2026-04-04T12:39:30.334Z</time></trkpt><trkpt lat="44.035015" lon="10.8779117"><ele>668.3333333333333</ele><time>2026-04-04T12:39:31.337Z</time></trkpt><trkpt lat="44.0348583" lon="10.87779"><ele>668.6666666666666</ele><time>2026-04-04T12:39:32.335Z</time></trkpt><trkpt lat="44.0346983" lon="10.8776717"><ele>669.0</ele><time>2026-04-04T12:39:33.335Z</time></trkpt><trkpt lat="44.0345433" lon="10.87755"><ele>669.0</ele><time>2026-04-04T12:39:34.336Z</time></trkpt><trkpt lat="44.03439" lon="10.8774233"><ele>669.0</ele><time>2026-04-04T12:39:35.334Z</time></trkpt><trkpt lat="44.0342367" lon="10.8772817"><ele>669.0</ele><time>2026-04-04T12:39:36.334Z</time></trkpt><trkpt lat="44.034095" lon="10.8771267"><ele>670.3333333333334</ele><time>2026-04-04T12:39:37.336Z</time></trkpt><trkpt lat="44.033965" lon="10.8769533"><ele>671.6666666666667</ele><time>2026-04-04T12:39:38.335Z</time></trkpt><trkpt lat="44.03384" lon="10.8767667"><ele>673.0</ele><time>2026-04-04T12:39:39.335Z</time></trkpt><trkpt lat="44.03372" lon="10.8765717"><ele>673.0</ele><time>2026-04-04T12:39:40.335Z</time></trkpt><trkpt lat="44.033595" lon="10.8763783"><ele>673.0</ele><time>2026-04-04T12:39:41.335Z</time></trkpt><trkpt lat="44.0334633" lon="10.8761883"><ele>673.0</ele><time>2026-04-04T12:39:42.335Z</time></trkpt><trkpt lat="44.0333317" lon="10.8760033"><ele>671.6666666666667</ele><time>2026-04-04T12:39:43.336Z</time></trkpt><trkpt lat="44.0332017" lon="10.8758167"><ele>670.3333333333334</ele><time>2026-04-04T12:39:44.334Z</time></trkpt><trkpt lat="44.0330733" lon="10.8756333"><ele>669.0</ele><time>2026-04-04T12:39:45.335Z</time></trkpt><trkpt lat="44.03294" lon="10.875455"><ele>669.0</ele><time>2026-04-04T12:39:46.334Z</time></trkpt><trkpt lat="44.0328067" lon="10.8752783"><ele>669.0</ele><time>2026-04-04T12:39:47.334Z</time></trkpt><trkpt lat="44.0326717" lon="10.8751067"><ele>669.0</ele><time>2026-04-04T12:39:48.335Z</time></trkpt><trkpt lat="44.0325367" lon="10.8749333"><ele>669.3333333333334</ele><time>2026-04-04T12:39:49.336Z</time></trkpt><trkpt lat="44.0324067" lon="10.8747583"><ele>669.6666666666667</ele><time>2026-04-04T12:39:50.335Z</time></trkpt><trkpt lat="44.03228" lon="10.874585"><ele>670.0</ele><time>2026-04-04T12:39:51.335Z</time></trkpt><trkpt lat="44.0321517" lon="10.87441"><ele>670.0</ele><time>2026-04-04T12:39:52.336Z</time></trkpt><trkpt lat="44.032025" lon="10.8742317"><ele>670.0</ele><time>2026-04-04T12:39:53.335Z</time></trkpt><trkpt lat="44.0318983" lon="10.8740517"><ele>670.0</ele><time>2026-04-04T12:39:54.336Z</time></trkpt><trkpt lat="44.03177" lon="10.8738717"><ele>670.0</ele><time>2026-04-04T12:39:55.335Z</time></trkpt><trkpt lat="44.03164" lon="10.8736917"><ele>670.0</ele><time>2026-04-04T12:39:56.334Z</time></trkpt><trkpt lat="44.0315133" lon="10.87351"><ele>670.0</ele><time>2026-04-04T12:39:57.334Z</time></trkpt><trkpt lat="44.031385" lon="10.87333"><ele>670.0</ele><time>2026-04-04T12:39:58.336Z</time></trkpt><trkpt lat="44.0312533" lon="10.873155"><ele>670.0</ele><time>2026-04-04T12:39:59.336Z</time></trkpt><trkpt lat="44.0311133" lon="10.873"><ele>670.0</ele><time>2026-04-04T12:40:00.335Z</time></trkpt><trkpt lat="44.0309533" lon="10.872885"><ele>670.3333333333334</ele><time>2026-04-04T12:40:01.335Z</time></trkpt><trkpt lat="44.03078" lon="10.8728033"><ele>670.6666666666666</ele><time>2026-04-04T12:40:02.335Z</time></trkpt><trkpt lat="44.0305967" lon="10.8727467"><ele>671.0</ele><time>2026-04-04T12:40:03.334Z</time></trkpt><trkpt lat="44.0304083" lon="10.8726933"><ele>671.0</ele><time>2026-04-04T12:40:04.334Z</time></trkpt><trkpt lat="44.0302183" lon="10.87264"><ele>671.0</ele><time>2026-04-04T12:40:05.335Z</time></trkpt><trkpt lat="44.0300267" lon="10.8725817"><ele>671.0</ele><time>2026-04-04T12:40:06.336Z</time></trkpt><trkpt lat="44.0298317" lon="10.87253"><ele>671.6666666666666</ele><time>2026-04-04T12:40:07.335Z</time></trkpt><trkpt lat="44.02964" lon="10.872475"><ele>672.3333333333334</ele><time>2026-04-04T12:40:08.335Z</time></trkpt><trkpt lat="44.0294567" lon="10.8724167"><ele>673.0</ele><time>2026-04-04T12:40:09.336Z</time></trkpt><trkpt lat="44.02928" lon="10.872355"><ele>672.6666666666667</ele><time>2026-04-04T12:40:10.335Z</time></trkpt><trkpt lat="44.0291" lon="10.8722983"><ele>672.3333333333334</ele><time>2026-04-04T12:40:11.335Z</time></trkpt><trkpt lat="44.0289233" lon="10.8722433"><ele>672.0</ele><time>2026-04-04T12:40:12.336Z</time></trkpt><trkpt lat="44.0287483" lon="10.8721883"><ele>672.0</ele><time>2026-04-04T12:40:13.336Z</time></trkpt><trkpt lat="44.0285733" lon="10.872135"><ele>672.0</ele><time>2026-04-04T12:40:14.333Z</time></trkpt><trkpt lat="44.0283983" lon="10.8720767"><ele>672.0</ele><time>2026-04-04T12:40:15.334Z</time></trkpt><trkpt lat="44.0282267" lon="10.8719933"><ele>671.3333333333334</ele><time>2026-04-04T12:40:16.335Z</time></trkpt><trkpt lat="44.0280583" lon="10.871875"><ele>670.6666666666667</ele><time>2026-04-04T12:40:17.335Z</time></trkpt><trkpt lat="44.0279117" lon="10.8717217"><ele>670.0</ele><time>2026-04-04T12:40:18.334Z</time></trkpt><trkpt lat="44.02777" lon="10.871545"><ele>670.3333333333334</ele><time>2026-04-04T12:40:19.335Z</time></trkpt><trkpt lat="44.027635" lon="10.871365"><ele>670.6666666666666</ele><time>2026-04-04T12:40:20.333Z</time></trkpt><trkpt lat="44.0275017" lon="10.87118"><ele>671.0</ele><time>2026-04-04T12:40:21.335Z</time></trkpt><trkpt lat="44.0273667" lon="10.8709867"><ele>672.0</ele><time>2026-04-04T12:40:22.336Z</time></trkpt><trkpt lat="44.027235" lon="10.8707933"><ele>673.0</ele><time>2026-04-04T12:40:23.334Z</time></trkpt><trkpt lat="44.0271" lon="10.8706017"><ele>674.0</ele><time>2026-04-04T12:40:24.335Z</time></trkpt><trkpt lat="44.0269633" lon="10.87041"><ele>674.0</ele><time>2026-04-04T12:40:25.335Z</time></trkpt><trkpt lat="44.0268267" lon="10.8702133"><ele>674.0</ele><time>2026-04-04T12:40:26.333Z</time></trkpt><trkpt lat="44.0266917" lon="10.8700167"><ele>674.0</ele><time>2026-04-04T12:40:27.334Z</time></trkpt><trkpt lat="44.026555" lon="10.869825"><ele>674.3333333333333</ele><time>2026-04-04T12:40:28.334Z</time></trkpt><trkpt lat="44.026415" lon="10.869635"><ele>674.6666666666666</ele><time>2026-04-04T12:40:29.335Z</time></trkpt><trkpt lat="44.0262783" lon="10.8694483"><ele>675.0</ele><time>2026-04-04T12:40:30.334Z</time></trkpt><trkpt lat="44.02614" lon="10.869255"><ele>676.0</ele><time>2026-04-04T12:40:31.336Z</time></trkpt><trkpt lat="44.0260067" lon="10.8690583"><ele>677.0</ele><time>2026-04-04T12:40:32.334Z</time></trkpt><trkpt lat="44.0258733" lon="10.8688633"><ele>678.0</ele><time>2026-04-04T12:40:33.335Z</time></trkpt><trkpt lat="44.0257367" lon="10.86867"><ele>678.0</ele><time>2026-04-04T12:40:34.335Z</time></trkpt><trkpt lat="44.0256017" lon="10.8684733"><ele>678.0</ele><time>2026-04-04T12:40:35.335Z</time></trkpt><trkpt lat="44.0254667" lon="10.8682783"><ele>678.0</ele><time>2026-04-04T12:40:36.335Z</time></trkpt><trkpt lat="44.0253317" lon="10.868085"><ele>677.6666666666666</ele><time>2026-04-04T12:40:37.336Z</time></trkpt><trkpt lat="44.0251867" lon="10.8679083"><ele>677.3333333333333</ele><time>2026-04-04T12:40:38.334Z</time></trkpt><trkpt lat="44.0250317" lon="10.8677617"><ele>677.0</ele><time>2026-04-04T12:40:39.334Z</time></trkpt><trkpt lat="44.02486" lon="10.8676517"><ele>678.0</ele><time>2026-04-04T12:40:40.334Z</time></trkpt><trkpt lat="44.0246833" lon="10.86755"><ele>679.0</ele><time>2026-04-04T12:40:41.335Z</time></trkpt><trkpt lat="44.0244967" lon="10.86746"><ele>680.0</ele><time>2026-04-04T12:40:42.337Z</time></trkpt><trkpt lat="44.02431" lon="10.8673667"><ele>681.3333333333333</ele><time>2026-04-04T12:40:43.336Z</time></trkpt><trkpt lat="44.0241283" lon="10.867275"><ele>682.6666666666666</ele><time>2026-04-04T12:40:44.335Z</time></trkpt><trkpt lat="44.023945" lon="10.8671867"><ele>684.0</ele><time>2026-04-04T12:40:45.335Z</time></trkpt><trkpt lat="44.0237617" lon="10.8670983"><ele>684.0</ele><time>2026-04-04T12:40:46.335Z</time></trkpt><trkpt lat="44.0235783" lon="10.8670067"><ele>684.0</ele><time>2026-04-04T12:40:47.335Z</time></trkpt><trkpt lat="44.023395" lon="10.8669133"><ele>684.0</ele><time>2026-04-04T12:40:48.335Z</time></trkpt><trkpt lat="44.023215" lon="10.8668183"><ele>684.6666666666666</ele><time>2026-04-04T12:40:49.335Z</time></trkpt><trkpt lat="44.0230333" lon="10.8667217"><ele>685.3333333333333</ele><time>2026-04-04T12:40:50.335Z</time></trkpt><trkpt lat="44.0228533" lon="10.8666233"><ele>686.0</ele><time>2026-04-04T12:40:51.335Z</time></trkpt><trkpt lat="44.0226717" lon="10.866525"><ele>686.0</ele><time>2026-04-04T12:40:52.335Z</time></trkpt><trkpt lat="44.0224917" lon="10.8664283"><ele>686.0</ele><time>2026-04-04T12:40:53.336Z</time></trkpt><trkpt lat="44.0223117" lon="10.8663333"><ele>686.0</ele><time>2026-04-04T12:40:54.335Z</time></trkpt><trkpt lat="44.02213" lon="10.8662367"><ele>687.0</ele><time>2026-04-04T12:40:55.336Z</time></trkpt><trkpt lat="44.02195" lon="10.8661567"><ele>688.0</ele><time>2026-04-04T12:40:56.34Z</time></trkpt><trkpt lat="44.0217617" lon="10.866115"><ele>689.0</ele><time>2026-04-04T12:40:57.334Z</time></trkpt><trkpt lat="44.02157" lon="10.8661167"><ele>689.6666666666666</ele><time>2026-04-04T12:40:58.335Z</time></trkpt><trkpt lat="44.0213783" lon="10.86614"><ele>690.3333333333334</ele><time>2026-04-04T12:40:59.335Z</time></trkpt><trkpt lat="44.021185" lon="10.8661633"><ele>691.0</ele><time>2026-04-04T12:41:00.336Z</time></trkpt><trkpt lat="44.0209933" lon="10.866175"><ele>694.3333333333334</ele><time>2026-04-04T12:41:01.335Z</time></trkpt><trkpt lat="44.0208033" lon="10.8661567"><ele>697.6666666666666</ele><time>2026-04-04T12:41:02.335Z</time></trkpt><trkpt lat="44.0206183" lon="10.8661133"><ele>701.0</ele><time>2026-04-04T12:41:03.334Z</time></trkpt><trkpt lat="44.0204333" lon="10.86605"><ele>701.0</ele><time>2026-04-04T12:41:04.334Z</time></trkpt><trkpt lat="44.0202517" lon="10.8659783"><ele>701.0</ele><time>2026-04-04T12:41:05.334Z</time></trkpt><trkpt lat="44.020075" lon="10.8659"><ele>701.0</ele><time>2026-04-04T12:41:06.335Z</time></trkpt><trkpt lat="44.0199133" lon="10.8658017"><ele>699.3333333333333</ele><time>2026-04-04T12:41:07.337Z</time></trkpt><trkpt lat="44.0197683" lon="10.865675"><ele>697.6666666666666</ele><time>2026-04-04T12:41:08.335Z</time></trkpt><trkpt lat="44.0196367" lon="10.8655083"><ele>696.0</ele><time>2026-04-04T12:41:09.336Z</time></trkpt><trkpt lat="44.0195117" lon="10.8653233"><ele>696.0</ele><time>2026-04-04T12:41:10.336Z</time></trkpt><trkpt lat="44.0193817" lon="10.8651317"><ele>696.0</ele><time>2026-04-04T12:41:11.336Z</time></trkpt><trkpt lat="44.0192517" lon="10.864945"><ele>696.0</ele><time>2026-04-04T12:41:12.335Z</time></trkpt><trkpt lat="44.0191217" lon="10.8647617"><ele>694.3333333333334</ele><time>2026-04-04T12:41:13.336Z</time></trkpt><trkpt lat="44.0189933" lon="10.8645733"><ele>692.6666666666667</ele><time>2026-04-04T12:41:14.335Z</time></trkpt><trkpt lat="44.018865" lon="10.864395"><ele>691.0</ele><time>2026-04-04T12:41:15.335Z</time></trkpt><trkpt lat="44.0187483" lon="10.8642233"><ele>690.6666666666667</ele><time>2026-04-04T12:41:16.335Z</time></trkpt><trkpt lat="44.018635" lon="10.86406"><ele>690.3333333333334</ele><time>2026-04-04T12:41:17.335Z</time></trkpt><trkpt lat="44.0185033" lon="10.8639267"><ele>690.0</ele><time>2026-04-04T12:41:18.336Z</time></trkpt><trkpt lat="44.0183517" lon="10.8638133"><ele>690.3333333333334</ele><time>2026-04-04T12:41:19.335Z</time></trkpt><trkpt lat="44.0181917" lon="10.86371"><ele>690.6666666666667</ele><time>2026-04-04T12:41:20.335Z</time></trkpt><trkpt lat="44.0180217" lon="10.8636233"><ele>691.0</ele><time>2026-04-04T12:41:21.336Z</time></trkpt><trkpt lat="44.0178517" lon="10.86354"><ele>691.0</ele><time>2026-04-04T12:41:22.336Z</time></trkpt><trkpt lat="44.0176817" lon="10.8634717"><ele>691.0</ele><time>2026-04-04T12:41:23.336Z</time></trkpt><trkpt lat="44.017515" lon="10.8633983"><ele>691.0</ele><time>2026-04-04T12:41:24.336Z</time></trkpt><trkpt lat="44.017355" lon="10.863305"><ele>693.0</ele><time>2026-04-04T12:41:25.335Z</time></trkpt><trkpt lat="44.0172017" lon="10.8631933"><ele>695.0</ele><time>2026-04-04T12:41:26.335Z</time></trkpt><trkpt lat="44.0170567" lon="10.86306"><ele>697.0</ele><time>2026-04-04T12:41:27.335Z</time></trkpt><trkpt lat="44.0169183" lon="10.86291"><ele>697.0</ele><time>2026-04-04T12:41:28.335Z</time></trkpt><trkpt lat="44.0167883" lon="10.8627433"><ele>697.0</ele><time>2026-04-04T12:41:29.336Z</time></trkpt><trkpt lat="44.016665" lon="10.8625633"><ele>697.0</ele><time>2026-04-04T12:41:30.335Z</time></trkpt><trkpt lat="44.01654" lon="10.86238"><ele>697.6666666666667</ele><time>2026-04-04T12:41:31.336Z</time></trkpt><trkpt lat="44.0164117" lon="10.8621967"><ele>698.3333333333334</ele><time>2026-04-04T12:41:32.335Z</time></trkpt><trkpt lat="44.01628" lon="10.8620117"><ele>699.0</ele><time>2026-04-04T12:41:33.335Z</time></trkpt><trkpt lat="44.0161433" lon="10.8618217"><ele>700.3333333333334</ele><time>2026-04-04T12:41:34.334Z</time></trkpt><trkpt lat="44.0160083" lon="10.8616333"><ele>701.6666666666667</ele><time>2026-04-04T12:41:35.335Z</time></trkpt><trkpt lat="44.0158717" lon="10.8614383"><ele>703.0</ele><time>2026-04-04T12:41:36.336Z</time></trkpt><trkpt lat="44.015735" lon="10.86124"><ele>703.0</ele><time>2026-04-04T12:41:37.337Z</time></trkpt><trkpt lat="44.01561" lon="10.86103"><ele>703.0</ele><time>2026-04-04T12:41:38.334Z</time></trkpt><trkpt lat="44.01549" lon="10.860805"><ele>703.0</ele><time>2026-04-04T12:41:39.335Z</time></trkpt><trkpt lat="44.0153783" lon="10.860575"><ele>701.3333333333334</ele><time>2026-04-04T12:41:40.336Z</time></trkpt><trkpt lat="44.0152683" lon="10.8603417"><ele>699.6666666666666</ele><time>2026-04-04T12:41:41.335Z</time></trkpt><trkpt lat="44.0151617" lon="10.86011"><ele>698.0</ele><time>2026-04-04T12:41:42.335Z</time></trkpt><trkpt lat="44.0150517" lon="10.859885"><ele>698.6666666666666</ele><time>2026-04-04T12:41:43.335Z</time></trkpt><trkpt lat="44.0149433" lon="10.859675"><ele>699.3333333333334</ele><time>2026-04-04T12:41:44.335Z</time></trkpt><trkpt lat="44.0148333" lon="10.8594817"><ele>700.0</ele><time>2026-04-04T12:41:45.334Z</time></trkpt><trkpt lat="44.0147267" lon="10.8593017"><ele>699.0</ele><time>2026-04-04T12:41:46.335Z</time></trkpt><trkpt lat="44.0146167" lon="10.859135"><ele>698.0</ele><time>2026-04-04T12:41:47.334Z</time></trkpt><trkpt lat="44.0144917" lon="10.8589933"><ele>697.0</ele><time>2026-04-04T12:41:48.334Z</time></trkpt><trkpt lat="44.0143567" lon="10.85887"><ele>697.0</ele><time>2026-04-04T12:41:49.336Z</time></trkpt><trkpt lat="44.014215" lon="10.858755"><ele>697.0</ele><time>2026-04-04T12:41:50.335Z</time></trkpt><trkpt lat="44.0140717" lon="10.85864"><ele>697.0</ele><time>2026-04-04T12:41:51.333Z</time></trkpt><trkpt lat="44.0139317" lon="10.8585233"><ele>698.0</ele><time>2026-04-04T12:41:52.335Z</time></trkpt><trkpt lat="44.0137917" lon="10.8584017"><ele>699.0</ele><time>2026-04-04T12:41:53.333Z</time></trkpt><trkpt lat="44.0136633" lon="10.8582617"><ele>700.0</ele><time>2026-04-04T12:41:54.334Z</time></trkpt><trkpt lat="44.0135467" lon="10.8581033"><ele>700.0</ele><time>2026-04-04T12:41:55.334Z</time></trkpt><trkpt lat="44.01343" lon="10.85794"><ele>700.0</ele><time>2026-04-04T12:41:56.334Z</time></trkpt><trkpt lat="44.013305" lon="10.857785"><ele>700.0</ele><time>2026-04-04T12:41:57.335Z</time></trkpt><trkpt lat="44.0131683" lon="10.8576417"><ele>699.6666666666667</ele><time>2026-04-04T12:41:58.335Z</time></trkpt><trkpt lat="44.013025" lon="10.85751"><ele>699.3333333333334</ele><time>2026-04-04T12:41:59.335Z</time></trkpt><trkpt lat="44.0128767" lon="10.8573883"><ele>699.0</ele><time>2026-04-04T12:42:00.335Z</time></trkpt><trkpt lat="44.01272" lon="10.857275"><ele>699.0</ele><time>2026-04-04T12:42:01.334Z</time></trkpt><trkpt lat="44.012565" lon="10.8571683"><ele>699.0</ele><time>2026-04-04T12:42:02.335Z</time></trkpt><trkpt lat="44.01241" lon="10.8570583"><ele>699.0</ele><time>2026-04-04T12:42:03.335Z</time></trkpt><trkpt lat="44.0122617" lon="10.8569383"><ele>698.6666666666666</ele><time>2026-04-04T12:42:04.335Z</time></trkpt><trkpt lat="44.01213" lon="10.8567933"><ele>698.3333333333333</ele><time>2026-04-04T12:42:05.336Z</time></trkpt><trkpt lat="44.0120267" lon="10.8566233"><ele>698.0</ele><time>2026-04-04T12:42:06.334Z</time></trkpt><trkpt lat="44.01195" lon="10.8564417"><ele>698.5</ele><time>2026-04-04T12:42:07.338Z</time></trkpt><trkpt lat="44.0118883" lon="10.85626"><ele>699.0</ele><time>2026-04-04T12:42:08.334Z</time></trkpt><trkpt lat="44.01183" lon="10.8560817"><ele>699.5</ele><time>2026-04-04T12:42:09.334Z</time></trkpt><trkpt lat="44.0117633" lon="10.8559083"><ele>700.0</ele><time>2026-04-04T12:42:10.335Z</time></trkpt><trkpt lat="44.0116917" lon="10.8557367"><ele>700.5</ele><time>2026-04-04T12:42:11.335Z</time></trkpt><trkpt lat="44.0116233" lon="10.8555617"><ele>701.0</ele><time>2026-04-04T12:42:12.335Z</time></trkpt><trkpt lat="44.0115533" lon="10.8553833"><ele>701.5</ele><time>2026-04-04T12:42:13.336Z</time></trkpt><trkpt lat="44.0114783" lon="10.8552033"><ele>702.0</ele><time>2026-04-04T12:42:14.335Z</time></trkpt><trkpt lat="44.011395" lon="10.8550183"><ele>703.3333333333334</ele><time>2026-04-04T12:42:15.335Z</time></trkpt><trkpt lat="44.01131" lon="10.854835"><ele>704.6666666666667</ele><time>2026-04-04T12:42:16.335Z</time></trkpt><trkpt lat="44.011225" lon="10.8546483"><ele>706.0</ele><time>2026-04-04T12:42:17.335Z</time></trkpt><trkpt lat="44.01114" lon="10.8544633"><ele>707.3333333333334</ele><time>2026-04-04T12:42:18.334Z</time></trkpt><trkpt lat="44.011055" lon="10.8542767"><ele>708.6666666666666</ele><time>2026-04-04T12:42:19.335Z</time></trkpt><trkpt lat="44.0109517" lon="10.854095"><ele>710.0</ele><time>2026-04-04T12:42:20.335Z</time></trkpt><trkpt lat="44.0108483" lon="10.85391"><ele>710.6666666666666</ele><time>2026-04-04T12:42:21.334Z</time></trkpt><trkpt lat="44.010735" lon="10.8537283"><ele>711.3333333333334</ele><time>2026-04-04T12:42:22.335Z</time></trkpt><trkpt lat="44.010615" lon="10.8535467"><ele>712.0</ele><time>2026-04-04T12:42:23.333Z</time></trkpt><trkpt lat="44.0104967" lon="10.853365"><ele>712.0</ele><time>2026-04-04T12:42:24.334Z</time></trkpt><trkpt lat="44.01039" lon="10.8531783"><ele>712.0</ele><time>2026-04-04T12:42:25.336Z</time></trkpt><trkpt lat="44.0103033" lon="10.8529717"><ele>712.0</ele><time>2026-04-04T12:42:26.335Z</time></trkpt><trkpt lat="44.0102283" lon="10.8527567"><ele>713.6666666666667</ele><time>2026-04-04T12:42:27.334Z</time></trkpt><trkpt lat="44.0101567" lon="10.85254"><ele>715.3333333333334</ele><time>2026-04-04T12:42:28.334Z</time></trkpt><trkpt lat="44.0100717" lon="10.8523283"><ele>717.0</ele><time>2026-04-04T12:42:29.335Z</time></trkpt><trkpt lat="44.009975" lon="10.8521233"><ele>717.3333333333334</ele><time>2026-04-04T12:42:30.334Z</time></trkpt><trkpt lat="44.0098717" lon="10.85192"><ele>717.6666666666667</ele><time>2026-04-04T12:42:31.336Z</time></trkpt><trkpt lat="44.0097667" lon="10.85172"><ele>718.0</ele><time>2026-04-04T12:42:32.334Z</time></trkpt><trkpt lat="44.00966" lon="10.85153"><ele>718.0</ele><time>2026-04-04T12:42:33.335Z</time></trkpt><trkpt lat="44.009545" lon="10.8513483"><ele>718.0</ele><time>2026-04-04T12:42:34.336Z</time></trkpt><trkpt lat="44.0094167" lon="10.851175"><ele>718.0</ele><time>2026-04-04T12:42:35.335Z</time></trkpt><trkpt lat="44.0092867" lon="10.851005"><ele>721.3333333333334</ele><time>2026-04-04T12:42:36.336Z</time></trkpt><trkpt lat="44.0091533" lon="10.8508383"><ele>724.6666666666666</ele><time>2026-04-04T12:42:37.335Z</time></trkpt><trkpt lat="44.0090183" lon="10.8506667"><ele>728.0</ele><time>2026-04-04T12:42:38.333Z</time></trkpt><trkpt lat="44.00888" lon="10.8505033"><ele>728.0</ele><time>2026-04-04T12:42:39.336Z</time></trkpt><trkpt lat="44.0087433" lon="10.85034"><ele>728.0</ele><time>2026-04-04T12:42:40.335Z</time></trkpt><trkpt lat="44.008605" lon="10.8501883"><ele>728.0</ele><time>2026-04-04T12:42:41.335Z</time></trkpt><trkpt lat="44.008455" lon="10.85005"><ele>727.0</ele><time>2026-04-04T12:42:42.336Z</time></trkpt><trkpt lat="44.0083" lon="10.8499183"><ele>726.0</ele><time>2026-04-04T12:42:43.334Z</time></trkpt><trkpt lat="44.0081467" lon="10.8497867"><ele>725.0</ele><time>2026-04-04T12:42:44.335Z</time></trkpt><trkpt lat="44.0079917" lon="10.8496533"><ele>725.0</ele><time>2026-04-04T12:42:45.335Z</time></trkpt><trkpt lat="44.0078367" lon="10.8495167"><ele>725.0</ele><time>2026-04-04T12:42:46.333Z</time></trkpt><trkpt lat="44.0076817" lon="10.8493783"><ele>725.0</ele><time>2026-04-04T12:42:47.335Z</time></trkpt><trkpt lat="44.007525" lon="10.8492417"><ele>724.3333333333333</ele><time>2026-04-04T12:42:48.334Z</time></trkpt><trkpt lat="44.00737" lon="10.8491033"><ele>723.6666666666666</ele><time>2026-04-04T12:42:49.336Z</time></trkpt><trkpt lat="44.0072167" lon="10.8489633"><ele>723.0</ele><time>2026-04-04T12:42:50.337Z</time></trkpt><trkpt lat="44.007065" lon="10.8488183"><ele>723.0</ele><time>2026-04-04T12:42:51.335Z</time></trkpt><trkpt lat="44.006925" lon="10.84867"><ele>723.0</ele><time>2026-04-04T12:42:52.335Z</time></trkpt><trkpt lat="44.0068133" lon="10.848495"><ele>723.0</ele><time>2026-04-04T12:42:53.335Z</time></trkpt><trkpt lat="44.0067233" lon="10.8482933"><ele>725.0</ele><time>2026-04-04T12:42:54.334Z</time></trkpt><trkpt lat="44.0066767" lon="10.8480517"><ele>727.0</ele><time>2026-04-04T12:42:55.336Z</time></trkpt><trkpt lat="44.0066233" lon="10.84782"><ele>729.0</ele><time>2026-04-04T12:42:56.335Z</time></trkpt><trkpt lat="44.0065683" lon="10.8476017"><ele>732.6666666666666</ele><time>2026-04-04T12:42:57.336Z</time></trkpt><trkpt lat="44.0065017" lon="10.8473967"><ele>736.3333333333333</ele><time>2026-04-04T12:42:58.334Z</time></trkpt><trkpt lat="44.0064117" lon="10.8472"><ele>740.0</ele><time>2026-04-04T12:42:59.335Z</time></trkpt><trkpt lat="44.00631" lon="10.8470183"><ele>740.0</ele><time>2026-04-04T12:43:00.335Z</time></trkpt><trkpt lat="44.00621" lon="10.8468517"><ele>740.0</ele><time>2026-04-04T12:43:01.335Z</time></trkpt><trkpt lat="44.006115" lon="10.8466967"><ele>740.0</ele><time>2026-04-04T12:43:02.334Z</time></trkpt><trkpt lat="44.0060283" lon="10.846545"><ele>740.0</ele><time>2026-04-04T12:43:03.332Z</time></trkpt><trkpt lat="44.0059533" lon="10.846385"><ele>738.0</ele><time>2026-04-04T12:43:04.334Z</time></trkpt><trkpt lat="44.005895" lon="10.8462083"><ele>736.0</ele><time>2026-04-04T12:43:05.334Z</time></trkpt><trkpt lat="44.00585" lon="10.84602"><ele>734.0</ele><time>2026-04-04T12:43:06.334Z</time></trkpt><trkpt lat="44.0057983" lon="10.8458267"><ele>732.0</ele><time>2026-04-04T12:43:07.334Z</time></trkpt><trkpt lat="44.0057517" lon="10.8456333"><ele>736.5</ele><time>2026-04-04T12:43:08.334Z</time></trkpt><trkpt lat="44.005725" lon="10.8454433"><ele>741.0</ele><time>2026-04-04T12:43:09.333Z</time></trkpt><trkpt lat="44.0057117" lon="10.8452467"><ele>745.5</ele><time>2026-04-04T12:43:10.335Z</time></trkpt><trkpt lat="44.0057183" lon="10.8450333"><ele>750.0</ele><time>2026-04-04T12:43:11.334Z</time></trkpt><trkpt lat="44.0057317" lon="10.844815"><ele>750.6666666666666</ele><time>2026-04-04T12:43:12.334Z</time></trkpt><trkpt lat="44.00574" lon="10.8445983"><ele>751.3333333333333</ele><time>2026-04-04T12:43:13.335Z</time></trkpt><trkpt lat="44.0057467" lon="10.8443733"><ele>752.0</ele><time>2026-04-04T12:43:14.334Z</time></trkpt><trkpt lat="44.0057617" lon="10.844145"><ele>747.3333333333333</ele><time>2026-04-04T12:43:15.334Z</time></trkpt><trkpt lat="44.0057817" lon="10.8439133"><ele>742.6666666666666</ele><time>2026-04-04T12:43:16.333Z</time></trkpt><trkpt lat="44.00581" lon="10.8436817"><ele>738.0</ele><time>2026-04-04T12:43:17.333Z</time></trkpt><trkpt lat="44.00585" lon="10.8434617"><ele>738.0</ele><time>2026-04-04T12:43:18.333Z</time></trkpt><trkpt lat="44.0059117" lon="10.8432583"><ele>738.0</ele><time>2026-04-04T12:43:19.333Z</time></trkpt><trkpt lat="44.0059767" lon="10.8430583"><ele>738.0</ele><time>2026-04-04T12:43:20.334Z</time></trkpt><trkpt lat="44.0060433" lon="10.8428617"><ele>738.0</ele><time>2026-04-04T12:43:21.333Z</time></trkpt><trkpt lat="44.0061067" lon="10.8426617"><ele>738.0</ele><time>2026-04-04T12:43:22.335Z</time></trkpt><trkpt lat="44.0061633" lon="10.84246"><ele>738.0</ele><time>2026-04-04T12:43:23.334Z</time></trkpt><trkpt lat="44.006215" lon="10.8422483"><ele>741.0</ele><time>2026-04-04T12:43:24.334Z</time></trkpt><trkpt lat="44.00627" lon="10.8420267"><ele>744.0</ele><time>2026-04-04T12:43:25.334Z</time></trkpt><trkpt lat="44.0063233" lon="10.8417983"><ele>747.0</ele><time>2026-04-04T12:43:26.334Z</time></trkpt><trkpt lat="44.006385" lon="10.84158"><ele>750.5</ele><time>2026-04-04T12:43:27.334Z</time></trkpt><trkpt lat="44.0064483" lon="10.8413833"><ele>754.0</ele><time>2026-04-04T12:43:28.334Z</time></trkpt><trkpt lat="44.0065033" lon="10.8411967"><ele>757.5</ele><time>2026-04-04T12:43:29.334Z</time></trkpt><trkpt lat="44.0065517" lon="10.8410117"><ele>761.0</ele><time>2026-04-04T12:43:30.334Z</time></trkpt><trkpt lat="44.0065717" lon="10.840825"><ele>761.25</ele><time>2026-04-04T12:43:31.334Z</time></trkpt><trkpt lat="44.0065667" lon="10.840655"><ele>761.5</ele><time>2026-04-04T12:43:32.333Z</time></trkpt><trkpt lat="44.0065267" lon="10.8405017"><ele>761.75</ele><time>2026-04-04T12:43:33.334Z</time></trkpt><trkpt lat="44.00646" lon="10.8403717"><ele>762.0</ele><time>2026-04-04T12:43:34.333Z</time></trkpt><trkpt lat="44.0063567" lon="10.8402717"><ele>762.0</ele><time>2026-04-04T12:43:35.334Z</time></trkpt><trkpt lat="44.006235" lon="10.8401967"><ele>762.0</ele><time>2026-04-04T12:43:36.333Z</time></trkpt><trkpt lat="44.0061167" lon="10.84014"><ele>762.0</ele><time>2026-04-04T12:43:37.333Z</time></trkpt><trkpt lat="44.00601" lon="10.84009"><ele>762.0</ele><time>2026-04-04T12:43:38.332Z</time></trkpt><trkpt lat="44.0059217" lon="10.84004"><ele>760.5</ele><time>2026-04-04T12:43:39.334Z</time></trkpt><trkpt lat="44.0058467" lon="10.8399833"><ele>759.0</ele><time>2026-04-04T12:43:40.334Z</time></trkpt><trkpt lat="44.0057783" lon="10.8399167"><ele>757.5</ele><time>2026-04-04T12:43:41.334Z</time></trkpt><trkpt lat="44.0057167" lon="10.8398333"><ele>756.0</ele><time>2026-04-04T12:43:42.334Z</time></trkpt><trkpt lat="44.005665" lon="10.83973"><ele>754.5</ele><time>2026-04-04T12:43:43.334Z</time></trkpt><trkpt lat="44.0056367" lon="10.8395983"><ele>753.0</ele><time>2026-04-04T12:43:44.332Z</time></trkpt><trkpt lat="44.0056317" lon="10.8394517"><ele>760.25</ele><time>2026-04-04T12:43:45.332Z</time></trkpt><trkpt lat="44.0056483" lon="10.839305"><ele>767.5</ele><time>2026-04-04T12:43:46.338Z</time></trkpt><trkpt lat="44.005685" lon="10.8391533"><ele>774.75</ele><time>2026-04-04T12:43:47.334Z</time></trkpt><trkpt lat="44.0057467" lon="10.838995"><ele>782.0</ele><time>2026-04-04T12:43:48.334Z</time></trkpt><trkpt lat="44.00582" lon="10.838835"><ele>775.6</ele><time>2026-04-04T12:43:49.334Z</time></trkpt><trkpt lat="44.005885" lon="10.838685"><ele>769.2</ele><time>2026-04-04T12:43:50.332Z</time></trkpt><trkpt lat="44.0059433" lon="10.8385533"><ele>762.8</ele><time>2026-04-04T12:43:51.334Z</time></trkpt><trkpt lat="44.0059917" lon="10.83844"><ele>756.4</ele><time>2026-04-04T12:43:52.333Z</time></trkpt><trkpt lat="44.0060283" lon="10.83833"><ele>750.0</ele><time>2026-04-04T12:43:53.334Z</time></trkpt><trkpt lat="44.00605" lon="10.83821"><ele>749.5</ele><time>2026-04-04T12:43:54.334Z</time></trkpt><trkpt lat="44.0060533" lon="10.83809"><ele>749.0</ele><time>2026-04-04T12:43:55.334Z</time></trkpt><trkpt lat="44.00604" lon="10.83797"><ele>748.5</ele><time>2026-04-04T12:43:56.333Z</time></trkpt><trkpt lat="44.0060017" lon="10.8378683"><ele>748.0</ele><time>2026-04-04T12:43:57.332Z</time></trkpt><trkpt lat="44.0059533" lon="10.8377733"><ele>747.5</ele><time>2026-04-04T12:43:58.332Z</time></trkpt><trkpt lat="44.0059033" lon="10.83768"><ele>747.0</ele><time>2026-04-04T12:43:59.333Z</time></trkpt><trkpt lat="44.0058433" lon="10.8375667"><ele>753.75</ele><time>2026-04-04T12:44:00.333Z</time></trkpt><trkpt lat="44.0057983" lon="10.8374217"><ele>760.5</ele><time>2026-04-04T12:44:01.333Z</time></trkpt><trkpt lat="44.005775" lon="10.8372467"><ele>767.25</ele><time>2026-04-04T12:44:02.333Z</time></trkpt><trkpt lat="44.0057667" lon="10.8370533"><ele>774.0</ele><time>2026-04-04T12:44:03.332Z</time></trkpt><trkpt lat="44.0057667" lon="10.83686"><ele>771.0</ele><time>2026-04-04T12:44:04.332Z</time></trkpt><trkpt lat="44.0057617" lon="10.8366833"><ele>768.0</ele><time>2026-04-04T12:44:05.334Z</time></trkpt><trkpt lat="44.005765" lon="10.836525"><ele>765.0</ele><time>2026-04-04T12:44:06.334Z</time></trkpt><trkpt lat="44.00577" lon="10.836385"><ele>762.0</ele><time>2026-04-04T12:44:07.334Z</time></trkpt><trkpt lat="44.00577" lon="10.8362583"><ele>759.0</ele><time>2026-04-04T12:44:08.333Z</time></trkpt><trkpt lat="44.0057717" lon="10.8361333"><ele>759.0</ele><time>2026-04-04T12:44:09.334Z</time></trkpt><trkpt lat="44.0057733" lon="10.836005"><ele>759.0</ele><time>2026-04-04T12:44:10.334Z</time></trkpt><trkpt lat="44.005785" lon="10.8358683"><ele>759.0</ele><time>2026-04-04T12:44:11.334Z</time></trkpt><trkpt lat="44.0058117" lon="10.835725"><ele>759.0</ele><time>2026-04-04T12:44:12.334Z</time></trkpt><trkpt lat="44.00585" lon="10.8355783"><ele>759.0</ele><time>2026-04-04T12:44:13.335Z</time></trkpt><trkpt lat="44.0059017" lon="10.83544"><ele>755.75</ele><time>2026-04-04T12:44:14.334Z</time></trkpt><trkpt lat="44.0059683" lon="10.83531"><ele>752.5</ele><time>2026-04-04T12:44:15.333Z</time></trkpt><trkpt lat="44.0060583" lon="10.8352033"><ele>749.25</ele><time>2026-04-04T12:44:16.334Z</time></trkpt><trkpt lat="44.0061683" lon="10.8351133"><ele>746.0</ele><time>2026-04-04T12:44:17.335Z</time></trkpt><trkpt lat="44.0062967" lon="10.8350333"><ele>745.6666666666666</ele><time>2026-04-04T12:44:18.334Z</time></trkpt><trkpt lat="44.0064367" lon="10.8349567"><ele>745.3333333333334</ele><time>2026-04-04T12:44:19.332Z</time></trkpt><trkpt lat="44.00658" lon="10.8348733"><ele>745.0</ele><time>2026-04-04T12:44:20.334Z</time></trkpt><trkpt lat="44.0067317" lon="10.8347867"><ele>745.0</ele><time>2026-04-04T12:44:21.332Z</time></trkpt><trkpt lat="44.0068883" lon="10.83469"><ele>745.0</ele><time>2026-04-04T12:44:22.334Z</time></trkpt><trkpt lat="44.0070367" lon="10.8345833"><ele>745.0</ele><time>2026-04-04T12:44:23.333Z</time></trkpt><trkpt lat="44.007175" lon="10.8344633"><ele>745.0</ele><time>2026-04-04T12:44:24.332Z</time></trkpt><trkpt lat="44.0073217" lon="10.8343417"><ele>745.0</ele><time>2026-04-04T12:44:25.333Z</time></trkpt><trkpt lat="44.0074683" lon="10.8342283"><ele>745.0</ele><time>2026-04-04T12:44:26.333Z</time></trkpt><trkpt lat="44.007615" lon="10.8341333"><ele>746.0</ele><time>2026-04-04T12:44:27.334Z</time></trkpt><trkpt lat="44.0077567" lon="10.83404"><ele>747.0</ele><time>2026-04-04T12:44:28.334Z</time></trkpt><trkpt lat="44.007895" lon="10.8339483"><ele>748.0</ele><time>2026-04-04T12:44:29.334Z</time></trkpt><trkpt lat="44.0080283" lon="10.8338583"><ele>748.0</ele><time>2026-04-04T12:44:30.334Z</time></trkpt><trkpt lat="44.0081583" lon="10.833755"><ele>748.0</ele><time>2026-04-04T12:44:31.335Z</time></trkpt><trkpt lat="44.008285" lon="10.8336333"><ele>748.0</ele><time>2026-04-04T12:44:32.334Z</time></trkpt><trkpt lat="44.0084017" lon="10.8334967"><ele>748.0</ele><time>2026-04-04T12:44:33.334Z</time></trkpt><trkpt lat="44.00851" lon="10.8333467"><ele>748.0</ele><time>2026-04-04T12:44:34.332Z</time></trkpt><trkpt lat="44.0086067" lon="10.8331767"><ele>748.0</ele><time>2026-04-04T12:44:35.333Z</time></trkpt><trkpt lat="44.00868" lon="10.832985"><ele>748.0</ele><time>2026-04-04T12:44:36.333Z</time></trkpt><trkpt lat="44.0087367" lon="10.8327733"><ele>748.0</ele><time>2026-04-04T12:44:37.332Z</time></trkpt><trkpt lat="44.008795" lon="10.832555"><ele>748.0</ele><time>2026-04-04T12:44:38.332Z</time></trkpt><trkpt lat="44.008865" lon="10.8323417"><ele>749.0</ele><time>2026-04-04T12:44:39.334Z</time></trkpt><trkpt lat="44.008955" lon="10.83214"><ele>750.0</ele><time>2026-04-04T12:44:40.334Z</time></trkpt><trkpt lat="44.00907" lon="10.8319617"><ele>751.0</ele><time>2026-04-04T12:44:41.333Z</time></trkpt><trkpt lat="44.0092" lon="10.83181"><ele>752.0</ele><time>2026-04-04T12:44:42.333Z</time></trkpt><trkpt lat="44.0093383" lon="10.8316633"><ele>753.0</ele><time>2026-04-04T12:44:43.335Z</time></trkpt><trkpt lat="44.0094617" lon="10.8314933"><ele>754.0</ele><time>2026-04-04T12:44:44.333Z</time></trkpt><trkpt lat="44.0095617" lon="10.8313"><ele>754.0</ele><time>2026-04-04T12:44:45.333Z</time></trkpt><trkpt lat="44.0096533" lon="10.8310983"><ele>754.0</ele><time>2026-04-04T12:44:46.333Z</time></trkpt><trkpt lat="44.009735" lon="10.830895"><ele>754.0</ele><time>2026-04-04T12:44:47.334Z</time></trkpt><trkpt lat="44.0098067" lon="10.8306867"><ele>755.6666666666667</ele><time>2026-04-04T12:44:48.333Z</time></trkpt><trkpt lat="44.009855" lon="10.830465"><ele>757.3333333333334</ele><time>2026-04-04T12:44:49.334Z</time></trkpt><trkpt lat="44.0098833" lon="10.83023"><ele>759.0</ele><time>2026-04-04T12:44:50.332Z</time></trkpt><trkpt lat="44.0099" lon="10.8299933"><ele>759.0</ele><time>2026-04-04T12:44:51.333Z</time></trkpt><trkpt lat="44.009915" lon="10.8297517"><ele>759.0</ele><time>2026-04-04T12:44:52.334Z</time></trkpt><trkpt lat="44.0099367" lon="10.829515"><ele>759.0</ele><time>2026-04-04T12:44:53.333Z</time></trkpt><trkpt lat="44.0099667" lon="10.829285"><ele>760.0</ele><time>2026-04-04T12:44:54.333Z</time></trkpt><trkpt lat="44.0099967" lon="10.8290533"><ele>761.0</ele><time>2026-04-04T12:44:55.335Z</time></trkpt><trkpt lat="44.01002" lon="10.8288233"><ele>762.0</ele><time>2026-04-04T12:44:56.334Z</time></trkpt><trkpt lat="44.0100267" lon="10.8285933"><ele>762.3333333333334</ele><time>2026-04-04T12:44:57.334Z</time></trkpt><trkpt lat="44.0100133" lon="10.82837"><ele>762.6666666666667</ele><time>2026-04-04T12:44:58.333Z</time></trkpt><trkpt lat="44.0099817" lon="10.82816"><ele>763.0</ele><time>2026-04-04T12:44:59.333Z</time></trkpt><trkpt lat="44.0099417" lon="10.8279567"><ele>762.0</ele><time>2026-04-04T12:45:00.333Z</time></trkpt><trkpt lat="44.0099017" lon="10.82775"><ele>761.0</ele><time>2026-04-04T12:45:01.333Z</time></trkpt><trkpt lat="44.0098567" lon="10.827545"><ele>760.0</ele><time>2026-04-04T12:45:02.333Z</time></trkpt><trkpt lat="44.0098233" lon="10.8273533"><ele>760.0</ele><time>2026-04-04T12:45:03.332Z</time></trkpt><trkpt lat="44.009815" lon="10.82718"><ele>760.0</ele><time>2026-04-04T12:45:04.333Z</time></trkpt><trkpt lat="44.0098367" lon="10.8270083"><ele>760.0</ele><time>2026-04-04T12:45:05.333Z</time></trkpt><trkpt lat="44.0098867" lon="10.8268333"><ele>760.0</ele><time>2026-04-04T12:45:06.334Z</time></trkpt><trkpt lat="44.009965" lon="10.82667"><ele>762.0</ele><time>2026-04-04T12:45:07.334Z</time></trkpt><trkpt lat="44.0100667" lon="10.82653"><ele>764.0</ele><time>2026-04-04T12:45:08.335Z</time></trkpt><trkpt lat="44.0101933" lon="10.82642"><ele>766.0</ele><time>2026-04-04T12:45:09.333Z</time></trkpt><trkpt lat="44.0103317" lon="10.8263283"><ele>768.0</ele><time>2026-04-04T12:45:10.335Z</time></trkpt><trkpt lat="44.0104667" lon="10.826225"><ele>768.0</ele><time>2026-04-04T12:45:11.334Z</time></trkpt><trkpt lat="44.0105917" lon="10.8260983"><ele>768.0</ele><time>2026-04-04T12:45:12.333Z</time></trkpt><trkpt lat="44.0106967" lon="10.82596"><ele>768.0</ele><time>2026-04-04T12:45:13.333Z</time></trkpt><trkpt lat="44.010785" lon="10.82583"><ele>768.0</ele><time>2026-04-04T12:45:14.333Z</time></trkpt><trkpt lat="44.01085" lon="10.8257033"><ele>768.75</ele><time>2026-04-04T12:45:15.333Z</time></trkpt><trkpt lat="44.010885" lon="10.825565"><ele>769.5</ele><time>2026-04-04T12:45:16.334Z</time></trkpt><trkpt lat="44.0108883" lon="10.825415"><ele>770.25</ele><time>2026-04-04T12:45:17.333Z</time></trkpt><trkpt lat="44.01087" lon="10.8252533"><ele>771.0</ele><time>2026-04-04T12:45:18.333Z</time></trkpt><trkpt lat="44.0108433" lon="10.8250817"><ele>771.75</ele><time>2026-04-04T12:45:19.333Z</time></trkpt><trkpt lat="44.010815" lon="10.8249"><ele>772.5</ele><time>2026-04-04T12:45:20.332Z</time></trkpt><trkpt lat="44.0107817" lon="10.8247083"><ele>773.25</ele><time>2026-04-04T12:45:21.333Z</time></trkpt><trkpt lat="44.0107483" lon="10.8245183"><ele>774.0</ele><time>2026-04-04T12:45:22.334Z</time></trkpt><trkpt lat="44.0107133" lon="10.8243467"><ele>775.4000000000001</ele><time>2026-04-04T12:45:23.336Z</time></trkpt><trkpt lat="44.0106567" lon="10.8242117"><ele>776.8</ele><time>2026-04-04T12:45:24.337Z</time></trkpt><trkpt lat="44.0105783" lon="10.824125"><ele>778.2</ele><time>2026-04-04T12:45:25.334Z</time></trkpt><trkpt lat="44.0104767" lon="10.8240967"><ele>779.5999999999999</ele><time>2026-04-04T12:45:26.334Z</time></trkpt><trkpt lat="44.0103633" lon="10.824135"><ele>781.0</ele><time>2026-04-04T12:45:27.334Z</time></trkpt><trkpt lat="44.0102567" lon="10.82419"><ele>781.0</ele><time>2026-04-04T12:45:28.334Z</time></trkpt><trkpt lat="44.01015" lon="10.8242133"><ele>781.0</ele><time>2026-04-04T12:45:29.334Z</time></trkpt><trkpt lat="44.0100417" lon="10.824195"><ele>781.0</ele><time>2026-04-04T12:45:30.335Z</time></trkpt><trkpt lat="44.009955" lon="10.82414"><ele>781.0</ele><time>2026-04-04T12:45:31.336Z</time></trkpt><trkpt lat="44.00991" lon="10.8240517"><ele>781.0</ele><time>2026-04-04T12:45:32.333Z</time></trkpt><trkpt lat="44.0098867" lon="10.823945"><ele>782.5</ele><time>2026-04-04T12:45:33.333Z</time></trkpt><trkpt lat="44.00989" lon="10.8238083"><ele>784.0</ele><time>2026-04-04T12:45:34.333Z</time></trkpt><trkpt lat="44.0099483" lon="10.8236"><ele>785.5</ele><time>2026-04-04T12:45:35.333Z</time></trkpt><trkpt lat="44.009985" lon="10.8233983"><ele>787.0</ele><time>2026-04-04T12:45:36.333Z</time></trkpt><trkpt lat="44.01001" lon="10.8231817"><ele>787.0</ele><time>2026-04-04T12:45:37.334Z</time></trkpt><trkpt lat="44.0100083" lon="10.8229633"><ele>787.0</ele><time>2026-04-04T12:45:38.334Z</time></trkpt><trkpt lat="44.0099933" lon="10.822765"><ele>787.0</ele><time>2026-04-04T12:45:39.334Z</time></trkpt><trkpt lat="44.0099983" lon="10.8225733"><ele>787.0</ele><time>2026-04-04T12:45:40.333Z</time></trkpt><trkpt lat="44.0100317" lon="10.8223817"><ele>788.3333333333333</ele><time>2026-04-04T12:45:41.333Z</time></trkpt><trkpt lat="44.0100733" lon="10.8221817"><ele>789.6666666666667</ele><time>2026-04-04T12:45:42.334Z</time></trkpt><trkpt lat="44.0101167" lon="10.8219733"><ele>791.0</ele><time>2026-04-04T12:45:43.335Z</time></trkpt><trkpt lat="44.0101433" lon="10.8217667"><ele>791.0</ele><time>2026-04-04T12:45:44.332Z</time></trkpt><trkpt lat="44.0101617" lon="10.8215667"><ele>791.0</ele><time>2026-04-04T12:45:45.332Z</time></trkpt><trkpt lat="44.010175" lon="10.8213717"><ele>791.0</ele><time>2026-04-04T12:45:46.335Z</time></trkpt><trkpt lat="44.010185" lon="10.8211883"><ele>791.0</ele><time>2026-04-04T12:45:47.333Z</time></trkpt><trkpt lat="44.0101783" lon="10.8210133"><ele>792.0</ele><time>2026-04-04T12:45:48.334Z</time></trkpt><trkpt lat="44.010145" lon="10.8208583"><ele>793.0</ele><time>2026-04-04T12:45:49.333Z</time></trkpt><trkpt lat="44.0101033" lon="10.8207233"><ele>794.0</ele><time>2026-04-04T12:45:50.332Z</time></trkpt><trkpt lat="44.0100833" lon="10.8205933"><ele>795.0</ele><time>2026-04-04T12:45:51.332Z</time></trkpt><trkpt lat="44.0100917" lon="10.820475"><ele>796.0</ele><time>2026-04-04T12:45:52.333Z</time></trkpt><trkpt lat="44.0101217" lon="10.8203817"><ele>796.0</ele><time>2026-04-04T12:45:53.334Z</time></trkpt><trkpt lat="44.0102067" lon="10.8203717"><ele>796.0</ele><time>2026-04-04T12:45:54.333Z</time></trkpt><trkpt lat="44.0102833" lon="10.8204233"><ele>796.0</ele><time>2026-04-04T12:45:55.334Z</time></trkpt><trkpt lat="44.0103617" lon="10.8205217"><ele>796.0</ele><time>2026-04-04T12:45:56.334Z</time></trkpt><trkpt lat="44.0104383" lon="10.82066"><ele>796.0</ele><time>2026-04-04T12:45:57.334Z</time></trkpt><trkpt lat="44.0105233" lon="10.8208083"><ele>794.3333333333333</ele><time>2026-04-04T12:45:58.333Z</time></trkpt><trkpt lat="44.0105967" lon="10.820985"><ele>792.6666666666667</ele><time>2026-04-04T12:45:59.334Z</time></trkpt><trkpt lat="44.0106467" lon="10.82119"><ele>791.0</ele><time>2026-04-04T12:46:00.335Z</time></trkpt><trkpt lat="44.0106783" lon="10.8213983"><ele>791.0</ele><time>2026-04-04T12:46:01.334Z</time></trkpt><trkpt lat="44.010695" lon="10.8215967"><ele>791.0</ele><time>2026-04-04T12:46:02.334Z</time></trkpt><trkpt lat="44.0107083" lon="10.82177"><ele>791.0</ele><time>2026-04-04T12:46:03.335Z</time></trkpt><trkpt lat="44.01073" lon="10.8219133"><ele>791.0</ele><time>2026-04-04T12:46:04.335Z</time></trkpt><trkpt lat="44.0107883" lon="10.822015"><ele>793.1999999999999</ele><time>2026-04-04T12:46:05.335Z</time></trkpt><trkpt lat="44.010855" lon="10.8220783"><ele>795.4</ele><time>2026-04-04T12:46:06.334Z</time></trkpt><trkpt lat="44.010955" lon="10.822055"><ele>797.6</ele><time>2026-04-04T12:46:07.334Z</time></trkpt><trkpt lat="44.011035" lon="10.8219667"><ele>799.8</ele><time>2026-04-04T12:46:08.334Z</time></trkpt><trkpt lat="44.0110683" lon="10.8218267"><ele>802.0</ele><time>2026-04-04T12:46:09.333Z</time></trkpt><trkpt lat="44.0110567" lon="10.821655"><ele>803.2</ele><time>2026-04-04T12:46:10.334Z</time></trkpt><trkpt lat="44.0110283" lon="10.8214867"><ele>804.4000000000001</ele><time>2026-04-04T12:46:11.334Z</time></trkpt><trkpt lat="44.011005" lon="10.8213417"><ele>805.5999999999999</ele><time>2026-04-04T12:46:12.331Z</time></trkpt><trkpt lat="44.011005" lon="10.8212183"><ele>806.8</ele><time>2026-04-04T12:46:13.335Z</time></trkpt><trkpt lat="44.0110733" lon="10.8211317"><ele>808.0</ele><time>2026-04-04T12:46:14.333Z</time></trkpt><trkpt lat="44.0111483" lon="10.821065"><ele>808.0</ele><time>2026-04-04T12:46:15.334Z</time></trkpt><trkpt lat="44.011245" lon="10.8210217"><ele>808.0</ele><time>2026-04-04T12:46:16.334Z</time></trkpt><trkpt lat="44.01134" lon="10.8209833"><ele>808.0</ele><time>2026-04-04T12:46:17.334Z</time></trkpt><trkpt lat="44.011425" lon="10.8209117"><ele>808.0</ele><time>2026-04-04T12:46:18.333Z</time></trkpt><trkpt lat="44.0114833" lon="10.820805"><ele>808.0</ele><time>2026-04-04T12:46:19.336Z</time></trkpt><trkpt lat="44.0115017" lon="10.8206833"><ele>809.0</ele><time>2026-04-04T12:46:20.332Z</time></trkpt><trkpt lat="44.0115" lon="10.820565"><ele>810.0</ele><time>2026-04-04T12:46:21.334Z</time></trkpt><trkpt lat="44.0114667" lon="10.8204267"><ele>811.0</ele><time>2026-04-04T12:46:22.333Z</time></trkpt><trkpt lat="44.0114017" lon="10.8202467"><ele>812.0</ele><time>2026-04-04T12:46:23.335Z</time></trkpt><trkpt lat="44.0113783" lon="10.8200833"><ele>812.6</ele><time>2026-04-04T12:46:24.333Z</time></trkpt><trkpt lat="44.0113717" lon="10.8199383"><ele>813.2</ele><time>2026-04-04T12:46:25.335Z</time></trkpt><trkpt lat="44.011415" lon="10.8198083"><ele>813.8</ele><time>2026-04-04T12:46:26.333Z</time></trkpt><trkpt lat="44.0114867" lon="10.8196917"><ele>814.4</ele><time>2026-04-04T12:46:27.333Z</time></trkpt><trkpt lat="44.0115517" lon="10.819575"><ele>815.0</ele><time>2026-04-04T12:46:28.333Z</time></trkpt><trkpt lat="44.0115933" lon="10.81946"><ele>815.0</ele><time>2026-04-04T12:46:29.334Z</time></trkpt><trkpt lat="44.0116017" lon="10.8193367"><ele>815.0</ele><time>2026-04-04T12:46:30.334Z</time></trkpt><trkpt lat="44.0115883" lon="10.81921"><ele>815.0</ele><time>2026-04-04T12:46:31.334Z</time></trkpt><trkpt lat="44.0115333" lon="10.8190633"><ele>815.0</ele><time>2026-04-04T12:46:32.333Z</time></trkpt><trkpt lat="44.01141" lon="10.818895"><ele>817.3333333333334</ele><time>2026-04-04T12:46:33.333Z</time></trkpt><trkpt lat="44.011265" lon="10.8187117"><ele>819.6666666666667</ele><time>2026-04-04T12:46:34.334Z</time></trkpt><trkpt lat="44.0111367" lon="10.8185533"><ele>822.0</ele><time>2026-04-04T12:46:35.334Z</time></trkpt><trkpt lat="44.0109917" lon="10.8183967"><ele>821.75</ele><time>2026-04-04T12:46:36.333Z</time></trkpt><trkpt lat="44.0108617" lon="10.8182583"><ele>821.5</ele><time>2026-04-04T12:46:37.334Z</time></trkpt><trkpt lat="44.01074" lon="10.8181383"><ele>821.25</ele><time>2026-04-04T12:46:38.333Z</time></trkpt><trkpt lat="44.0106567" lon="10.8180033"><ele>821.0</ele><time>2026-04-04T12:46:39.334Z</time></trkpt><trkpt lat="44.010605" lon="10.817855"><ele>821.0</ele><time>2026-04-04T12:46:40.334Z</time></trkpt><trkpt lat="44.01058" lon="10.8176917"><ele>821.0</ele><time>2026-04-04T12:46:41.334Z</time></trkpt><trkpt lat="44.0105717" lon="10.8175117"><ele>821.0</ele><time>2026-04-04T12:46:42.333Z</time></trkpt><trkpt lat="44.0105733" lon="10.817315"><ele>821.0</ele><time>2026-04-04T12:46:43.334Z</time></trkpt><trkpt lat="44.0105867" lon="10.81711"><ele>822.0</ele><time>2026-04-04T12:46:44.334Z</time></trkpt><trkpt lat="44.0106183" lon="10.8169033"><ele>823.0</ele><time>2026-04-04T12:46:45.332Z</time></trkpt><trkpt lat="44.01066" lon="10.8167167"><ele>824.0</ele><time>2026-04-04T12:46:46.334Z</time></trkpt><trkpt lat="44.0106933" lon="10.8165483"><ele>825.0</ele><time>2026-04-04T12:46:47.334Z</time></trkpt><trkpt lat="44.010695" lon="10.8163917"><ele>826.6</ele><time>2026-04-04T12:46:48.334Z</time></trkpt><trkpt lat="44.0106517" lon="10.8162617"><ele>828.2</ele><time>2026-04-04T12:46:49.335Z</time></trkpt><trkpt lat="44.0105783" lon="10.8161667"><ele>829.8</ele><time>2026-04-04T12:46:50.332Z</time></trkpt><trkpt lat="44.010505" lon="10.8160783"><ele>831.4</ele><time>2026-04-04T12:46:51.333Z</time></trkpt><trkpt lat="44.0104367" lon="10.8159817"><ele>833.0</ele><time>2026-04-04T12:46:52.334Z</time></trkpt><trkpt lat="44.0103867" lon="10.81586"><ele>836.5</ele><time>2026-04-04T12:46:53.333Z</time></trkpt><trkpt lat="44.0103767" lon="10.8157167"><ele>840.0</ele><time>2026-04-04T12:46:54.334Z</time></trkpt><trkpt lat="44.0103917" lon="10.81558"><ele>843.5</ele><time>2026-04-04T12:46:55.334Z</time></trkpt><trkpt lat="44.0104583" lon="10.8154433"><ele>847.0</ele><time>2026-04-04T12:46:56.334Z</time></trkpt><trkpt lat="44.0105633" lon="10.8152883"><ele>848.0</ele><time>2026-04-04T12:46:57.333Z</time></trkpt><trkpt lat="44.0106483" lon="10.815125"><ele>849.0</ele><time>2026-04-04T12:46:58.332Z</time></trkpt><trkpt lat="44.0107" lon="10.8149567"><ele>850.0</ele><time>2026-04-04T12:46:59.332Z</time></trkpt><trkpt lat="44.0106967" lon="10.814785"><ele>851.0</ele><time>2026-04-04T12:47:00.333Z</time></trkpt><trkpt lat="44.0106483" lon="10.8146167"><ele>851.0</ele><time>2026-04-04T12:47:01.335Z</time></trkpt><trkpt lat="44.0105567" lon="10.81445"><ele>851.0</ele><time>2026-04-04T12:47:02.332Z</time></trkpt><trkpt lat="44.0104517" lon="10.8142783"><ele>851.0</ele><time>2026-04-04T12:47:03.332Z</time></trkpt><trkpt lat="44.0103433" lon="10.8141083"><ele>852.75</ele><time>2026-04-04T12:47:04.334Z</time></trkpt><trkpt lat="44.0102417" lon="10.813945"><ele>854.5</ele><time>2026-04-04T12:47:05.334Z</time></trkpt><trkpt lat="44.010145" lon="10.8137967"><ele>856.25</ele><time>2026-04-04T12:47:06.333Z</time></trkpt><trkpt lat="44.0100483" lon="10.8136533"><ele>858.0</ele><time>2026-04-04T12:47:07.333Z</time></trkpt><trkpt lat="44.0099717" lon="10.8135"><ele>858.8</ele><time>2026-04-04T12:47:08.332Z</time></trkpt><trkpt lat="44.0099217" lon="10.8133433"><ele>859.5999999999999</ele><time>2026-04-04T12:47:09.333Z</time></trkpt><trkpt lat="44.0099" lon="10.813185"><ele>860.4000000000001</ele><time>2026-04-04T12:47:10.334Z</time></trkpt><trkpt lat="44.009905" lon="10.8130367"><ele>861.2</ele><time>2026-04-04T12:47:11.335Z</time></trkpt><trkpt lat="44.0099333" lon="10.8129033"><ele>862.0</ele><time>2026-04-04T12:47:12.333Z</time></trkpt><trkpt lat="44.0099967" lon="10.812765"><ele>865.25</ele><time>2026-04-04T12:47:13.335Z</time></trkpt><trkpt lat="44.01006" lon="10.8126033"><ele>868.5</ele><time>2026-04-04T12:47:14.333Z</time></trkpt><trkpt lat="44.0100933" lon="10.8124167"><ele>871.75</ele><time>2026-04-04T12:47:15.333Z</time></trkpt><trkpt lat="44.0101033" lon="10.8122383"><ele>875.0</ele><time>2026-04-04T12:47:16.333Z</time></trkpt><trkpt lat="44.010105" lon="10.812085"><ele>875.0000000000001</ele><time>2026-04-04T12:47:17.333Z</time></trkpt><trkpt lat="44.0101067" lon="10.8119517"><ele>875.0</ele><time>2026-04-04T12:47:18.34Z</time></trkpt><trkpt lat="44.0101233" lon="10.8118417"><ele>875.0</ele><time>2026-04-04T12:47:19.334Z</time></trkpt><trkpt lat="44.0101617" lon="10.811755"><ele>875.0</ele><time>2026-04-04T12:47:20.334Z</time></trkpt><trkpt lat="44.010235" lon="10.8117433"><ele>875.0000000000001</ele><time>2026-04-04T12:47:21.335Z</time></trkpt><trkpt lat="44.01031" lon="10.8118067"><ele>875.0</ele><time>2026-04-04T12:47:22.335Z</time></trkpt><trkpt lat="44.0103783" lon="10.8119283"><ele>875.0</ele><time>2026-04-04T12:47:23.334Z</time></trkpt><trkpt lat="44.01045" lon="10.812075"><ele>875.0</ele><time>2026-04-04T12:47:24.333Z</time></trkpt><trkpt lat="44.0105183" lon="10.8122283"><ele>875.0</ele><time>2026-04-04T12:47:25.335Z</time></trkpt><trkpt lat="44.0105817" lon="10.812375"><ele>875.0</ele><time>2026-04-04T12:47:26.334Z</time></trkpt><trkpt lat="44.0106367" lon="10.8125033"><ele>875.0</ele><time>2026-04-04T12:47:27.334Z</time></trkpt><trkpt lat="44.0106867" lon="10.81262"><ele>875.0</ele><time>2026-04-04T12:47:28.335Z</time></trkpt><trkpt lat="44.0107433" lon="10.8127233"><ele>875.0</ele><time>2026-04-04T12:47:29.334Z</time></trkpt><trkpt lat="44.010815" lon="10.8128017"><ele>875.0</ele><time>2026-04-04T12:47:30.334Z</time></trkpt><trkpt lat="44.0109" lon="10.812835"><ele>875.0</ele><time>2026-04-04T12:47:31.332Z</time></trkpt><trkpt lat="44.010995" lon="10.8128333"><ele>877.0</ele><time>2026-04-04T12:47:32.333Z</time></trkpt><trkpt lat="44.0110683" lon="10.812755"><ele>879.0</ele><time>2026-04-04T12:47:33.333Z</time></trkpt><trkpt lat="44.0111183" lon="10.81264"><ele>881.0</ele><time>2026-04-04T12:47:34.334Z</time></trkpt><trkpt lat="44.011135" lon="10.8125067"><ele>883.0</ele><time>2026-04-04T12:47:35.333Z</time></trkpt><trkpt lat="44.0111217" lon="10.81235"><ele>885.0</ele><time>2026-04-04T12:47:36.332Z</time></trkpt><trkpt lat="44.0110867" lon="10.8121767"><ele>885.6666666666667</ele><time>2026-04-04T12:47:37.334Z</time></trkpt><trkpt lat="44.0110467" lon="10.8119817"><ele>886.3333333333334</ele><time>2026-04-04T12:47:38.334Z</time></trkpt><trkpt lat="44.011" lon="10.8117683"><ele>887.0</ele><time>2026-04-04T12:47:39.333Z</time></trkpt><trkpt lat="44.0109517" lon="10.81156"><ele>889.5</ele><time>2026-04-04T12:47:40.335Z</time></trkpt><trkpt lat="44.0109083" lon="10.811365"><ele>892.0</ele><time>2026-04-04T12:47:41.333Z</time></trkpt><trkpt lat="44.0108717" lon="10.8111933"><ele>894.5</ele><time>2026-04-04T12:47:42.333Z</time></trkpt><trkpt lat="44.0108517" lon="10.811035"><ele>897.0</ele><time>2026-04-04T12:47:43.335Z</time></trkpt><trkpt lat="44.0108517" lon="10.8108783"><ele>897.4000000000001</ele><time>2026-04-04T12:47:44.332Z</time></trkpt><trkpt lat="44.0108783" lon="10.81074"><ele>897.8000000000001</ele><time>2026-04-04T12:47:45.333Z</time></trkpt><trkpt lat="44.0109383" lon="10.8106283"><ele>898.2</ele><time>2026-04-04T12:47:46.335Z</time></trkpt><trkpt lat="44.0110283" lon="10.81055"><ele>898.6</ele><time>2026-04-04T12:47:47.334Z</time></trkpt><trkpt lat="44.0111383" lon="10.810495"><ele>899.0</ele><time>2026-04-04T12:47:48.335Z</time></trkpt><trkpt lat="44.0112367" lon="10.8104367"><ele>899.0000000000001</ele><time>2026-04-04T12:47:49.333Z</time></trkpt><trkpt lat="44.0113167" lon="10.810365"><ele>899.0</ele><time>2026-04-04T12:47:50.334Z</time></trkpt><trkpt lat="44.011355" lon="10.8102667"><ele>899.0</ele><time>2026-04-04T12:47:51.334Z</time></trkpt><trkpt lat="44.011365" lon="10.8101583"><ele>899.0</ele><time>2026-04-04T12:47:52.335Z</time></trkpt><trkpt lat="44.0113533" lon="10.8100567"><ele>899.0000000000001</ele><time>2026-04-04T12:47:53.333Z</time></trkpt><trkpt lat="44.011305" lon="10.80997"><ele>899.0</ele><time>2026-04-04T12:47:54.334Z</time></trkpt><trkpt lat="44.0112167" lon="10.8098817"><ele>899.75</ele><time>2026-04-04T12:47:55.336Z</time></trkpt><trkpt lat="44.0111" lon="10.80978"><ele>900.5</ele><time>2026-04-04T12:47:56.335Z</time></trkpt><trkpt lat="44.01097" lon="10.8096717"><ele>901.25</ele><time>2026-04-04T12:47:57.334Z</time></trkpt><trkpt lat="44.010875" lon="10.8095433"><ele>902.0</ele><time>2026-04-04T12:47:58.335Z</time></trkpt><trkpt lat="44.0107933" lon="10.8093917"><ele>901.25</ele><time>2026-04-04T12:47:59.334Z</time></trkpt><trkpt lat="44.0107333" lon="10.8092317"><ele>900.5</ele><time>2026-04-04T12:48:00.334Z</time></trkpt><trkpt lat="44.0106967" lon="10.8090567"><ele>899.75</ele><time>2026-04-04T12:48:01.335Z</time></trkpt><trkpt lat="44.0106917" lon="10.80888"><ele>899.0</ele><time>2026-04-04T12:48:02.334Z</time></trkpt><trkpt lat="44.010735" lon="10.8087133"><ele>899.0</ele><time>2026-04-04T12:48:03.333Z</time></trkpt><trkpt lat="44.0108067" lon="10.8085733"><ele>899.0000000000001</ele><time>2026-04-04T12:48:04.335Z</time></trkpt><trkpt lat="44.0108683" lon="10.80845"><ele>899.0000000000001</ele><time>2026-04-04T12:48:05.332Z</time></trkpt><trkpt lat="44.0108817" lon="10.8083383"><ele>899.0</ele><time>2026-04-04T12:48:06.333Z</time></trkpt><trkpt lat="44.01087" lon="10.8082367"><ele>899.0</ele><time>2026-04-04T12:48:07.335Z</time></trkpt><trkpt lat="44.010825" lon="10.8081533"><ele>902.75</ele><time>2026-04-04T12:48:08.334Z</time></trkpt><trkpt lat="44.010745" lon="10.8080967"><ele>906.5</ele><time>2026-04-04T12:48:09.334Z</time></trkpt><trkpt lat="44.010635" lon="10.8080533"><ele>910.25</ele><time>2026-04-04T12:48:10.334Z</time></trkpt><trkpt lat="44.0104867" lon="10.8080317"><ele>914.0</ele><time>2026-04-04T12:48:11.334Z</time></trkpt><trkpt lat="44.0102817" lon="10.8080583"><ele>914.0</ele><time>2026-04-04T12:48:12.333Z</time></trkpt><trkpt lat="44.0101083" lon="10.80807"><ele>914.0</ele><time>2026-04-04T12:48:13.335Z</time></trkpt><trkpt lat="44.009955" lon="10.8080733"><ele>914.0</ele><time>2026-04-04T12:48:14.334Z</time></trkpt><trkpt lat="44.0098117" lon="10.8080733"><ele>911.5</ele><time>2026-04-04T12:48:15.338Z</time></trkpt><trkpt lat="44.0096767" lon="10.8080417"><ele>909.0</ele><time>2026-04-04T12:48:16.334Z</time></trkpt><trkpt lat="44.0095483" lon="10.8079733"><ele>906.5</ele><time>2026-04-04T12:48:17.334Z</time></trkpt><trkpt lat="44.009445" lon="10.80786"><ele>904.0</ele><time>2026-04-04T12:48:18.335Z</time></trkpt><trkpt lat="44.0093717" lon="10.8077083"><ele>904.75</ele><time>2026-04-04T12:48:19.334Z</time></trkpt><trkpt lat="44.0093067" lon="10.8075567"><ele>905.5</ele><time>2026-04-04T12:48:20.334Z</time></trkpt><trkpt lat="44.0092433" lon="10.8074033"><ele>906.25</ele><time>2026-04-04T12:48:21.333Z</time></trkpt><trkpt lat="44.00917" lon="10.8072517"><ele>907.0</ele><time>2026-04-04T12:48:22.333Z</time></trkpt><trkpt lat="44.00908" lon="10.80712"><ele>907.0</ele><time>2026-04-04T12:48:23.332Z</time></trkpt><trkpt lat="44.00898" lon="10.8070033"><ele>907.0</ele><time>2026-04-04T12:48:24.333Z</time></trkpt><trkpt lat="44.0088783" lon="10.806895"><ele>907.0</ele><time>2026-04-04T12:48:25.334Z</time></trkpt><trkpt lat="44.0087817" lon="10.80678"><ele>907.0</ele><time>2026-04-04T12:48:26.333Z</time></trkpt><trkpt lat="44.0086967" lon="10.8066483"><ele>910.75</ele><time>2026-04-04T12:48:27.334Z</time></trkpt><trkpt lat="44.0086133" lon="10.8065167"><ele>914.5</ele><time>2026-04-04T12:48:28.333Z</time></trkpt><trkpt lat="44.00854" lon="10.806375"><ele>918.25</ele><time>2026-04-04T12:48:29.335Z</time></trkpt><trkpt lat="44.008495" lon="10.8062233"><ele>922.0</ele><time>2026-04-04T12:48:30.333Z</time></trkpt><trkpt lat="44.0084733" lon="10.80606"><ele>924.75</ele><time>2026-04-04T12:48:31.334Z</time></trkpt><trkpt lat="44.0084533" lon="10.8058833"><ele>927.5</ele><time>2026-04-04T12:48:32.334Z</time></trkpt><trkpt lat="44.0084383" lon="10.805705"><ele>930.25</ele><time>2026-04-04T12:48:33.334Z</time></trkpt><trkpt lat="44.008415" lon="10.8055517"><ele>933.0</ele><time>2026-04-04T12:48:34.333Z</time></trkpt><trkpt lat="44.008365" lon="10.8054317"><ele>933.2</ele><time>2026-04-04T12:48:35.334Z</time></trkpt><trkpt lat="44.00828" lon="10.8053667"><ele>933.4</ele><time>2026-04-04T12:48:36.335Z</time></trkpt><trkpt lat="44.0081783" lon="10.8053383"><ele>933.6000000000001</ele><time>2026-04-04T12:48:37.335Z</time></trkpt><trkpt lat="44.0080667" lon="10.8053533"><ele>933.8000000000001</ele><time>2026-04-04T12:48:38.333Z</time></trkpt><trkpt lat="44.0079433" lon="10.8054117"><ele>934.0</ele><time>2026-04-04T12:48:39.333Z</time></trkpt><trkpt lat="44.007825" lon="10.8054817"><ele>934.0</ele><time>2026-04-04T12:48:40.334Z</time></trkpt><trkpt lat="44.0077083" lon="10.8055367"><ele>934.0</ele><time>2026-04-04T12:48:41.333Z</time></trkpt><trkpt lat="44.007595" lon="10.80557"><ele>934.0</ele><time>2026-04-04T12:48:42.334Z</time></trkpt><trkpt lat="44.0074733" lon="10.8055867"><ele>934.0</ele><time>2026-04-04T12:48:43.335Z</time></trkpt><trkpt lat="44.0073517" lon="10.8055967"><ele>938.75</ele><time>2026-04-04T12:48:44.333Z</time></trkpt><trkpt lat="44.0072317" lon="10.80562"><ele>943.5</ele><time>2026-04-04T12:48:45.335Z</time></trkpt><trkpt lat="44.0071117" lon="10.8056633"><ele>948.25</ele><time>2026-04-04T12:48:46.334Z</time></trkpt><trkpt lat="44.006995" lon="10.8057317"><ele>953.0</ele><time>2026-04-04T12:48:47.334Z</time></trkpt><trkpt lat="44.0069017" lon="10.8058133"><ele>953.0</ele><time>2026-04-04T12:48:48.335Z</time></trkpt><trkpt lat="44.00684" lon="10.80592"><ele>953.0</ele><time>2026-04-04T12:48:49.334Z</time></trkpt><trkpt lat="44.00681" lon="10.8060567"><ele>953.0</ele><time>2026-04-04T12:48:50.332Z</time></trkpt><trkpt lat="44.0068083" lon="10.8062083"><ele>953.0</ele><time>2026-04-04T12:48:51.333Z</time></trkpt><trkpt lat="44.0068283" lon="10.8063583"><ele>953.0</ele><time>2026-04-04T12:48:52.334Z</time></trkpt><trkpt lat="44.00684" lon="10.8065017"><ele>951.8</ele><time>2026-04-04T12:48:53.333Z</time></trkpt><trkpt lat="44.0068367" lon="10.8066383"><ele>950.5999999999999</ele><time>2026-04-04T12:48:54.334Z</time></trkpt><trkpt lat="44.00681" lon="10.806745"><ele>949.4000000000001</ele><time>2026-04-04T12:48:55.338Z</time></trkpt><trkpt lat="44.0067717" lon="10.8068367"><ele>948.2</ele><time>2026-04-04T12:48:56.334Z</time></trkpt><trkpt lat="44.0067083" lon="10.8066983"><ele>947.0</ele><time>2026-04-04T12:48:58.335Z</time></trkpt><trkpt lat="44.00669" lon="10.8065783"><ele>947.0</ele><time>2026-04-04T12:48:59.334Z</time></trkpt><trkpt lat="44.0066867" lon="10.8064433"><ele>947.0</ele><time>2026-04-04T12:49:00.335Z</time></trkpt><trkpt lat="44.0066933" lon="10.80628"><ele>947.0</ele><time>2026-04-04T12:49:01.334Z</time></trkpt><trkpt lat="44.00668" lon="10.806095"><ele>947.0</ele><time>2026-04-04T12:49:02.334Z</time></trkpt><trkpt lat="44.0066533" lon="10.8059033"><ele>954.25</ele><time>2026-04-04T12:49:03.334Z</time></trkpt><trkpt lat="44.0066333" lon="10.8057033"><ele>961.5</ele><time>2026-04-04T12:49:04.334Z</time></trkpt><trkpt lat="44.006625" lon="10.805525"><ele>968.75</ele><time>2026-04-04T12:49:05.334Z</time></trkpt><trkpt lat="44.00663" lon="10.80537"><ele>976.0</ele><time>2026-04-04T12:49:06.335Z</time></trkpt><trkpt lat="44.0066517" lon="10.8052417"><ele>972.1999999999999</ele><time>2026-04-04T12:49:07.334Z</time></trkpt><trkpt lat="44.006685" lon="10.8051133"><ele>968.3999999999999</ele><time>2026-04-04T12:49:08.334Z</time></trkpt><trkpt lat="44.006735" lon="10.8049967"><ele>964.6</ele><time>2026-04-04T12:49:09.334Z</time></trkpt><trkpt lat="44.0067933" lon="10.804885"><ele>960.8</ele><time>2026-04-04T12:49:10.334Z</time></trkpt><trkpt lat="44.006855" lon="10.8047833"><ele>957.0</ele><time>2026-04-04T12:49:11.334Z</time></trkpt><trkpt lat="44.00691" lon="10.8046883"><ele>957.0</ele><time>2026-04-04T12:49:12.334Z</time></trkpt><trkpt lat="44.0069567" lon="10.8045983"><ele>957.0</ele><time>2026-04-04T12:49:13.335Z</time></trkpt><trkpt lat="44.0069867" lon="10.8045117"><ele>957.0</ele><time>2026-04-04T12:49:14.333Z</time></trkpt><trkpt lat="44.0070217" lon="10.8043633"><ele>957.0</ele><time>2026-04-04T12:49:16.334Z</time></trkpt><trkpt lat="44.0070567" lon="10.80429"><ele>957.0</ele><time>2026-04-04T12:49:18.333Z</time></trkpt><trkpt lat="44.0070183" lon="10.804185"><ele>957.0</ele><time>2026-04-04T12:53:43.336Z</time></trkpt><trkpt lat="44.007105" lon="10.8041733"><ele>956.8</ele><time>2026-04-04T12:56:10.332Z</time></trkpt><trkpt lat="44.007235" lon="10.8041517"><ele>956.6</ele><time>2026-04-04T12:56:12.334Z</time></trkpt><trkpt lat="44.0073133" lon="10.8041183"><ele>956.3999999999999</ele><time>2026-04-04T12:56:13.335Z</time></trkpt><trkpt lat="44.00742" lon="10.8040417"><ele>956.1999999999999</ele><time>2026-04-04T12:56:14.334Z</time></trkpt><trkpt lat="44.007515" lon="10.8039833"><ele>956.0</ele><time>2026-04-04T12:56:15.332Z</time></trkpt><trkpt lat="44.0076033" lon="10.803925"><ele>956.0000000000001</ele><time>2026-04-04T12:56:16.333Z</time></trkpt><trkpt lat="44.0077317" lon="10.8038483"><ele>956.0</ele><time>2026-04-04T12:56:17.333Z</time></trkpt><trkpt lat="44.007805" lon="10.80378"><ele>956.0</ele><time>2026-04-04T12:56:18.334Z</time></trkpt><trkpt lat="44.0078767" lon="10.8037317"><ele>956.0</ele><time>2026-04-04T12:56:19.333Z</time></trkpt><trkpt lat="44.00794" lon="10.8036933"><ele>956.0000000000001</ele><time>2026-04-04T12:56:20.333Z</time></trkpt><trkpt lat="44.0080017" lon="10.8036633"><ele>956.0</ele><time>2026-04-04T12:56:21.333Z</time></trkpt><trkpt lat="44.00808" lon="10.8035883"><ele>955.0</ele><time>2026-04-04T12:56:24.334Z</time></trkpt><trkpt lat="44.008145" lon="10.803475"><ele>953.9999999999999</ele><time>2026-04-04T12:56:26.334Z</time></trkpt><trkpt lat="44.0081883" lon="10.803405"><ele>952.9999999999999</ele><time>2026-04-04T12:56:27.334Z</time></trkpt><trkpt lat="44.008265" lon="10.8032667"><ele>952.0</ele><time>2026-04-04T12:56:29.334Z</time></trkpt><trkpt lat="44.0083033" lon="10.8031133"><ele>951.0</ele><time>2026-04-04T12:56:31.337Z</time></trkpt><trkpt lat="44.008295" lon="10.8029417"><ele>951.0</ele><time>2026-04-04T12:56:39.333Z</time></trkpt><trkpt lat="44.0081983" lon="10.80283"><ele>950.9999999999999</ele><time>2026-04-04T12:56:41.335Z</time></trkpt><trkpt lat="44.0080967" lon="10.8027683"><ele>950.9999999999999</ele><time>2026-04-04T12:56:43.335Z</time></trkpt><trkpt lat="44.0080233" lon="10.8027317"><ele>951.0</ele><time>2026-04-04T12:56:45.335Z</time></trkpt><trkpt lat="44.0079483" lon="10.8026733"><ele>951.0</ele><time>2026-04-04T12:56:47.334Z</time></trkpt><trkpt lat="44.0078567" lon="10.8026117"><ele>951.6666666666666</ele><time>2026-04-04T12:56:49.335Z</time></trkpt><trkpt lat="44.0078067" lon="10.8025267"><ele>952.3333333333333</ele><time>2026-04-04T12:56:51.333Z</time></trkpt><trkpt lat="44.0077967" lon="10.8024133"><ele>953.0</ele><time>2026-04-04T12:56:53.338Z</time></trkpt><trkpt lat="44.0078" lon="10.8023233"><ele>953.6666666666666</ele><time>2026-04-04T12:56:56.334Z</time></trkpt><trkpt lat="44.00781" lon="10.8024517"><ele>954.3333333333333</ele><time>2026-04-04T12:59:23.333Z</time></trkpt><trkpt lat="44.0079" lon="10.8025767"><ele>955.0</ele><time>2026-04-04T12:59:25.335Z</time></trkpt><trkpt lat="44.0079617" lon="10.8026417"><ele>954.3333333333333</ele><time>2026-04-04T12:59:26.334Z</time></trkpt><trkpt lat="44.00803" lon="10.802705"><ele>953.6666666666666</ele><time>2026-04-04T12:59:27.334Z</time></trkpt><trkpt lat="44.0081117" lon="10.8027683"><ele>953.0</ele><time>2026-04-04T12:59:28.334Z</time></trkpt><trkpt lat="44.0081867" lon="10.8028383"><ele>952.3333333333333</ele><time>2026-04-04T12:59:29.335Z</time></trkpt><trkpt lat="44.0082417" lon="10.8029133"><ele>951.6666666666666</ele><time>2026-04-04T12:59:30.334Z</time></trkpt><trkpt lat="44.0082783" lon="10.8029933"><ele>951.0</ele><time>2026-04-04T12:59:31.334Z</time></trkpt><trkpt lat="44.0083083" lon="10.803165"><ele>951.0</ele><time>2026-04-04T12:59:33.333Z</time></trkpt><trkpt lat="44.0083017" lon="10.8032667"><ele>950.9999999999999</ele><time>2026-04-04T12:59:34.333Z</time></trkpt><trkpt lat="44.0082633" lon="10.80339"><ele>950.9999999999999</ele><time>2026-04-04T12:59:35.333Z</time></trkpt><trkpt lat="44.0082017" lon="10.8035083"><ele>951.0</ele><time>2026-04-04T12:59:36.335Z</time></trkpt><trkpt lat="44.0081183" lon="10.80362"><ele>951.0</ele><time>2026-04-04T12:59:37.334Z</time></trkpt><trkpt lat="44.0080233" lon="10.8037017"><ele>952.0</ele><time>2026-04-04T12:59:38.333Z</time></trkpt><trkpt lat="44.0079333" lon="10.8037833"><ele>952.9999999999999</ele><time>2026-04-04T12:59:39.333Z</time></trkpt><trkpt lat="44.0078417" lon="10.8038483"><ele>953.9999999999999</ele><time>2026-04-04T12:59:40.334Z</time></trkpt><trkpt lat="44.0077483" lon="10.8039017"><ele>955.0</ele><time>2026-04-04T12:59:41.334Z</time></trkpt><trkpt lat="44.00765" lon="10.8039583"><ele>956.0</ele><time>2026-04-04T12:59:42.334Z</time></trkpt><trkpt lat="44.0075567" lon="10.804015"><ele>956.0000000000001</ele><time>2026-04-04T12:59:43.334Z</time></trkpt><trkpt lat="44.007465" lon="10.80407"><ele>956.0</ele><time>2026-04-04T12:59:44.334Z</time></trkpt><trkpt lat="44.0073767" lon="10.804115"><ele>956.0</ele><time>2026-04-04T12:59:45.335Z</time></trkpt><trkpt lat="44.007295" lon="10.8041583"><ele>956.0</ele><time>2026-04-04T12:59:46.335Z</time></trkpt><trkpt lat="44.0072233" lon="10.804195"><ele>956.0000000000001</ele><time>2026-04-04T12:59:47.334Z</time></trkpt><trkpt lat="44.007155" lon="10.80421"><ele>956.0</ele><time>2026-04-04T12:59:48.335Z</time></trkpt><trkpt lat="44.0070683" lon="10.804175"><ele>956.0</ele><time>2026-04-04T12:59:50.334Z</time></trkpt><trkpt lat="44.007005" lon="10.804155"><ele>956.0</ele><time>2026-04-04T12:59:52.336Z</time></trkpt><trkpt lat="44.00695" lon="10.804305"><ele>956.0</ele><time>2026-04-04T13:06:01.333Z</time></trkpt><trkpt lat="44.00676" lon="10.8042183"><ele>956.0</ele><time>2026-04-04T13:06:25.335Z</time></trkpt><trkpt lat="44.00661" lon="10.8042"><ele>954.5</ele><time>2026-04-04T13:06:26.334Z</time></trkpt><trkpt lat="44.00647" lon="10.8041867"><ele>953.0</ele><time>2026-04-04T13:06:27.334Z</time></trkpt><trkpt lat="44.0063367" lon="10.8042017"><ele>951.5</ele><time>2026-04-04T13:06:28.334Z</time></trkpt><trkpt lat="44.00621" lon="10.80423"><ele>950.0</ele><time>2026-04-04T13:06:29.335Z</time></trkpt><trkpt lat="44.0060967" lon="10.8042517"><ele>950.0</ele><time>2026-04-04T13:06:30.335Z</time></trkpt><trkpt lat="44.0059983" lon="10.8042833"><ele>950.0</ele><time>2026-04-04T13:06:31.334Z</time></trkpt><trkpt lat="44.0059083" lon="10.8043167"><ele>950.0</ele><time>2026-04-04T13:06:32.334Z</time></trkpt><trkpt lat="44.005825" lon="10.8043517"><ele>950.0</ele><time>2026-04-04T13:06:33.335Z</time></trkpt><trkpt lat="44.00574" lon="10.8043883"><ele>950.0</ele><time>2026-04-04T13:06:34.335Z</time></trkpt><trkpt lat="44.00565" lon="10.8044317"><ele>950.75</ele><time>2026-04-04T13:06:35.334Z</time></trkpt><trkpt lat="44.0055617" lon="10.8044967"><ele>951.5</ele><time>2026-04-04T13:06:36.335Z</time></trkpt><trkpt lat="44.0054783" lon="10.8045883"><ele>952.25</ele><time>2026-04-04T13:06:37.335Z</time></trkpt><trkpt lat="44.0053867" lon="10.804705"><ele>953.0</ele><time>2026-04-04T13:06:38.334Z</time></trkpt><trkpt lat="44.005305" lon="10.8048417"><ele>953.0</ele><time>2026-04-04T13:06:39.334Z</time></trkpt><trkpt lat="44.00522" lon="10.8049917"><ele>953.0</ele><time>2026-04-04T13:06:40.335Z</time></trkpt><trkpt lat="44.00512" lon="10.8051033"><ele>953.0</ele><time>2026-04-04T13:06:41.334Z</time></trkpt><trkpt lat="44.005025" lon="10.8051883"><ele>953.0</ele><time>2026-04-04T13:06:42.335Z</time></trkpt><trkpt lat="44.00494" lon="10.8052633"><ele>954.2</ele><time>2026-04-04T13:06:43.335Z</time></trkpt><trkpt lat="44.0048667" lon="10.8053283"><ele>955.4</ele><time>2026-04-04T13:06:44.335Z</time></trkpt><trkpt lat="44.0047983" lon="10.8053883"><ele>956.6000000000001</ele><time>2026-04-04T13:06:45.334Z</time></trkpt><trkpt lat="44.00472" lon="10.8054433"><ele>957.8000000000001</ele><time>2026-04-04T13:06:46.334Z</time></trkpt><trkpt lat="44.0046283" lon="10.8054883"><ele>959.0</ele><time>2026-04-04T13:06:47.333Z</time></trkpt><trkpt lat="44.0045283" lon="10.805505"><ele>959.0</ele><time>2026-04-04T13:06:48.335Z</time></trkpt><trkpt lat="44.0044267" lon="10.8055017"><ele>959.0000000000001</ele><time>2026-04-04T13:06:49.335Z</time></trkpt><trkpt lat="44.00433" lon="10.8054833"><ele>959.0000000000001</ele><time>2026-04-04T13:06:50.335Z</time></trkpt><trkpt lat="44.0042417" lon="10.80544"><ele>959.0</ele><time>2026-04-04T13:06:51.335Z</time></trkpt><trkpt lat="44.0041567" lon="10.805375"><ele>959.0</ele><time>2026-04-04T13:06:52.335Z</time></trkpt><trkpt lat="44.0040717" lon="10.8052917"><ele>959.2</ele><time>2026-04-04T13:06:53.335Z</time></trkpt><trkpt lat="44.00399" lon="10.8051967"><ele>959.4000000000001</ele><time>2026-04-04T13:06:54.334Z</time></trkpt><trkpt lat="44.0039267" lon="10.8050833"><ele>959.6</ele><time>2026-04-04T13:06:55.335Z</time></trkpt><trkpt lat="44.0038867" lon="10.804945"><ele>959.8</ele><time>2026-04-04T13:06:56.335Z</time></trkpt><trkpt lat="44.003865" lon="10.8047933"><ele>960.0</ele><time>2026-04-04T13:06:57.335Z</time></trkpt><trkpt lat="44.0038617" lon="10.804635"><ele>960.0</ele><time>2026-04-04T13:06:58.335Z</time></trkpt><trkpt lat="44.0038567" lon="10.80448"><ele>960.0</ele><time>2026-04-04T13:06:59.334Z</time></trkpt><trkpt lat="44.003845" lon="10.8043433"><ele>960.0</ele><time>2026-04-04T13:07:00.334Z</time></trkpt><trkpt lat="44.003815" lon="10.804225"><ele>960.0</ele><time>2026-04-04T13:07:01.336Z</time></trkpt><trkpt lat="44.0037783" lon="10.8041233"><ele>960.0</ele><time>2026-04-04T13:07:02.335Z</time></trkpt><trkpt lat="44.003745" lon="10.80403"><ele>958.8</ele><time>2026-04-04T13:07:03.335Z</time></trkpt><trkpt lat="44.003685" lon="10.8039733"><ele>957.6</ele><time>2026-04-04T13:07:04.335Z</time></trkpt><trkpt lat="44.00357" lon="10.8040433"><ele>956.4000000000001</ele><time>2026-04-04T13:07:05.337Z</time></trkpt><trkpt lat="44.003465" lon="10.80414"><ele>955.2</ele><time>2026-04-04T13:07:06.335Z</time></trkpt><trkpt lat="44.00338" lon="10.8042617"><ele>954.0</ele><time>2026-04-04T13:07:07.336Z</time></trkpt><trkpt lat="44.0032983" lon="10.8044033"><ele>952.25</ele><time>2026-04-04T13:07:08.335Z</time></trkpt><trkpt lat="44.0032183" lon="10.8045567"><ele>950.5</ele><time>2026-04-04T13:07:09.334Z</time></trkpt><trkpt lat="44.0031367" lon="10.80472"><ele>948.75</ele><time>2026-04-04T13:07:10.335Z</time></trkpt><trkpt lat="44.00306" lon="10.8048767"><ele>947.0</ele><time>2026-04-04T13:07:11.335Z</time></trkpt><trkpt lat="44.00298" lon="10.8050333"><ele>949.75</ele><time>2026-04-04T13:07:12.334Z</time></trkpt><trkpt lat="44.0029067" lon="10.80519"><ele>952.5</ele><time>2026-04-04T13:07:13.334Z</time></trkpt><trkpt lat="44.0028267" lon="10.8053467"><ele>955.25</ele><time>2026-04-04T13:07:14.334Z</time></trkpt><trkpt lat="44.00275" lon="10.8054933"><ele>958.0</ele><time>2026-04-04T13:07:15.336Z</time></trkpt><trkpt lat="44.0026767" lon="10.805625"><ele>958.0</ele><time>2026-04-04T13:07:16.334Z</time></trkpt><trkpt lat="44.002605" lon="10.8057233"><ele>958.0</ele><time>2026-04-04T13:07:17.335Z</time></trkpt><trkpt lat="44.0025317" lon="10.8057783"><ele>958.0</ele><time>2026-04-04T13:07:18.333Z</time></trkpt><trkpt lat="44.0024633" lon="10.8058133"><ele>958.0</ele><time>2026-04-04T13:07:19.334Z</time></trkpt><trkpt lat="44.00235" lon="10.8058167"><ele>958.0</ele><time>2026-04-04T13:07:21.334Z</time></trkpt><trkpt lat="44.0022533" lon="10.8056067"><ele>958.75</ele><time>2026-04-04T13:07:23.334Z</time></trkpt><trkpt lat="44.0021817" lon="10.8054533"><ele>959.5</ele><time>2026-04-04T13:07:24.335Z</time></trkpt><trkpt lat="44.0020783" lon="10.80532"><ele>960.25</ele><time>2026-04-04T13:07:25.337Z</time></trkpt><trkpt lat="44.001985" lon="10.805185"><ele>961.0</ele><time>2026-04-04T13:07:26.334Z</time></trkpt><trkpt lat="44.0018833" lon="10.8050867"><ele>956.25</ele><time>2026-04-04T13:07:27.335Z</time></trkpt><trkpt lat="44.00177" lon="10.8050267"><ele>951.5</ele><time>2026-04-04T13:07:28.334Z</time></trkpt><trkpt lat="44.00165" lon="10.8049833"><ele>946.75</ele><time>2026-04-04T13:07:29.335Z</time></trkpt><trkpt lat="44.0015183" lon="10.804995"><ele>942.0</ele><time>2026-04-04T13:07:30.335Z</time></trkpt><trkpt lat="44.0013767" lon="10.8050417"><ele>942.75</ele><time>2026-04-04T13:07:31.335Z</time></trkpt><trkpt lat="44.0012483" lon="10.8051333"><ele>943.5</ele><time>2026-04-04T13:07:32.333Z</time></trkpt><trkpt lat="44.0011333" lon="10.8052417"><ele>944.25</ele><time>2026-04-04T13:07:33.336Z</time></trkpt><trkpt lat="44.0010217" lon="10.8053583"><ele>945.0</ele><time>2026-04-04T13:07:34.334Z</time></trkpt><trkpt lat="44.00091" lon="10.8054717"><ele>945.0</ele><time>2026-04-04T13:07:35.335Z</time></trkpt><trkpt lat="44.000805" lon="10.80559"><ele>945.0</ele><time>2026-04-04T13:07:36.335Z</time></trkpt><trkpt lat="44.0007083" lon="10.8057033"><ele>945.0</ele><time>2026-04-04T13:07:37.335Z</time></trkpt><trkpt lat="44.0006167" lon="10.8058033"><ele>945.0</ele><time>2026-04-04T13:07:38.335Z</time></trkpt><trkpt lat="44.000545" lon="10.805905"><ele>945.0</ele><time>2026-04-04T13:07:39.334Z</time></trkpt><trkpt lat="44.0004717" lon="10.8059783"><ele>945.0</ele><time>2026-04-04T13:07:40.335Z</time></trkpt><trkpt lat="44.0003933" lon="10.8060117"><ele>945.0</ele><time>2026-04-04T13:07:41.337Z</time></trkpt><trkpt lat="44.0003133" lon="10.8060217"><ele>945.0</ele><time>2026-04-04T13:07:42.336Z</time></trkpt><trkpt lat="44.0002433" lon="10.8060333"><ele>945.0</ele><time>2026-04-04T13:07:43.335Z</time></trkpt><trkpt lat="44.0001633" lon="10.8060183"><ele>945.0</ele><time>2026-04-04T13:07:44.335Z</time></trkpt><trkpt lat="44.000105" lon="10.805975"><ele>945.0</ele><time>2026-04-04T13:07:45.333Z</time></trkpt><trkpt lat="44.0000483" lon="10.8059217"><ele>945.0</ele><time>2026-04-04T13:07:46.335Z</time></trkpt><trkpt lat="44.00002" lon="10.805835"><ele>945.0</ele><time>2026-04-04T13:07:47.335Z</time></trkpt><trkpt lat="44.0000983" lon="10.8056167"><ele>945.0</ele><time>2026-04-04T13:07:48.334Z</time></trkpt><trkpt lat="44.0001417" lon="10.8054367"><ele>945.0</ele><time>2026-04-04T13:07:49.337Z</time></trkpt><trkpt lat="44.0001683" lon="10.8052733"><ele>947.5</ele><time>2026-04-04T13:07:50.335Z</time></trkpt><trkpt lat="44.0001933" lon="10.8051"><ele>950.0</ele><time>2026-04-04T13:07:51.335Z</time></trkpt><trkpt lat="44.0002133" lon="10.8049217"><ele>952.5</ele><time>2026-04-04T13:07:52.335Z</time></trkpt><trkpt lat="44.00023" lon="10.8047267"><ele>955.0</ele><time>2026-04-04T13:07:53.335Z</time></trkpt><trkpt lat="44.0002467" lon="10.804525"><ele>956.0</ele><time>2026-04-04T13:07:54.335Z</time></trkpt><trkpt lat="44.00024" lon="10.8043283"><ele>957.0</ele><time>2026-04-04T13:07:55.336Z</time></trkpt><trkpt lat="44.0002367" lon="10.804135"><ele>958.0</ele><time>2026-04-04T13:07:56.335Z</time></trkpt><trkpt lat="44.0002517" lon="10.8039417"><ele>959.0</ele><time>2026-04-04T13:07:57.335Z</time></trkpt><trkpt lat="44.0002733" lon="10.80378"><ele>959.0</ele><time>2026-04-04T13:07:58.335Z</time></trkpt><trkpt lat="44.000305" lon="10.803635"><ele>959.0</ele><time>2026-04-04T13:07:59.333Z</time></trkpt><trkpt lat="44.0003717" lon="10.8034667"><ele>959.0</ele><time>2026-04-04T13:08:00.335Z</time></trkpt><trkpt lat="44.0003833" lon="10.8032867"><ele>959.0</ele><time>2026-04-04T13:08:01.335Z</time></trkpt><trkpt lat="44.0003617" lon="10.8031117"><ele>959.0</ele><time>2026-04-04T13:08:02.335Z</time></trkpt><trkpt lat="44.0003433" lon="10.8029317"><ele>959.0</ele><time>2026-04-04T13:08:03.334Z</time></trkpt><trkpt lat="44.0003333" lon="10.8027433"><ele>959.0</ele><time>2026-04-04T13:08:04.334Z</time></trkpt><trkpt lat="44.00034" lon="10.80256"><ele>959.0</ele><time>2026-04-04T13:08:05.337Z</time></trkpt><trkpt lat="44.000355" lon="10.8023767"><ele>959.0</ele><time>2026-04-04T13:08:06.335Z</time></trkpt><trkpt lat="44.0003467" lon="10.8021983"><ele>959.0</ele><time>2026-04-04T13:08:07.336Z</time></trkpt><trkpt lat="44.0003183" lon="10.8020267"><ele>959.0</ele><time>2026-04-04T13:08:08.334Z</time></trkpt><trkpt lat="44.0003033" lon="10.80184"><ele>959.0</ele><time>2026-04-04T13:08:09.335Z</time></trkpt><trkpt lat="44.000265" lon="10.801655"><ele>958.25</ele><time>2026-04-04T13:08:10.335Z</time></trkpt><trkpt lat="44.0002267" lon="10.8014667"><ele>957.5</ele><time>2026-04-04T13:08:11.335Z</time></trkpt><trkpt lat="44.0001817" lon="10.8012717"><ele>956.75</ele><time>2026-04-04T13:08:12.335Z</time></trkpt><trkpt lat="44.0001317" lon="10.8010717"><ele>956.0</ele><time>2026-04-04T13:08:13.334Z</time></trkpt><trkpt lat="44.00008" lon="10.8008667"><ele>954.0</ele><time>2026-04-04T13:08:14.335Z</time></trkpt><trkpt lat="44.0000333" lon="10.800675"><ele>952.0</ele><time>2026-04-04T13:08:15.334Z</time></trkpt><trkpt lat="43.99999" lon="10.8004917"><ele>950.0</ele><time>2026-04-04T13:08:16.334Z</time></trkpt><trkpt lat="43.99994" lon="10.800335"><ele>948.0</ele><time>2026-04-04T13:08:17.336Z</time></trkpt><trkpt lat="43.9998833" lon="10.80021"><ele>948.0</ele><time>2026-04-04T13:08:18.335Z</time></trkpt><trkpt lat="43.999805" lon="10.8001317"><ele>948.0</ele><time>2026-04-04T13:08:19.335Z</time></trkpt><trkpt lat="43.9997267" lon="10.8001067"><ele>948.0</ele><time>2026-04-04T13:08:20.335Z</time></trkpt><trkpt lat="43.9996433" lon="10.8001533"><ele>948.0</ele><time>2026-04-04T13:08:21.333Z</time></trkpt><trkpt lat="43.9995633" lon="10.8002583"><ele>948.0</ele><time>2026-04-04T13:08:22.335Z</time></trkpt><trkpt lat="43.999485" lon="10.8003833"><ele>948.0</ele><time>2026-04-04T13:08:23.336Z</time></trkpt><trkpt lat="43.9994083" lon="10.8005267"><ele>948.0</ele><time>2026-04-04T13:08:24.334Z</time></trkpt><trkpt lat="43.9993483" lon="10.800685"><ele>948.0</ele><time>2026-04-04T13:08:25.336Z</time></trkpt><trkpt lat="43.9993017" lon="10.8008483"><ele>948.0</ele><time>2026-04-04T13:08:26.335Z</time></trkpt><trkpt lat="43.9992633" lon="10.801005"><ele>949.0</ele><time>2026-04-04T13:08:27.335Z</time></trkpt><trkpt lat="43.999235" lon="10.8011467"><ele>950.0</ele><time>2026-04-04T13:08:28.335Z</time></trkpt><trkpt lat="43.999195" lon="10.8012533"><ele>951.0</ele><time>2026-04-04T13:08:29.334Z</time></trkpt><trkpt lat="43.999155" lon="10.8013533"><ele>952.0</ele><time>2026-04-04T13:08:30.336Z</time></trkpt><trkpt lat="43.9991133" lon="10.80143"><ele>953.0</ele><time>2026-04-04T13:08:31.335Z</time></trkpt><trkpt lat="43.99902" lon="10.8015417"><ele>953.0</ele><time>2026-04-04T13:08:33.334Z</time></trkpt><trkpt lat="43.9989517" lon="10.8015317"><ele>953.0</ele><time>2026-04-04T13:08:34.334Z</time></trkpt><trkpt lat="43.9988883" lon="10.8014033"><ele>953.0</ele><time>2026-04-04T13:08:35.335Z</time></trkpt><trkpt lat="43.9988083" lon="10.801315"><ele>953.0</ele><time>2026-04-04T13:08:36.334Z</time></trkpt><trkpt lat="43.9987333" lon="10.80118"><ele>953.0</ele><time>2026-04-04T13:08:37.335Z</time></trkpt><trkpt lat="43.998685" lon="10.80096"><ele>950.5</ele><time>2026-04-04T13:08:38.338Z</time></trkpt><trkpt lat="43.99866" lon="10.8005117"><ele>948.0</ele><time>2026-04-04T13:08:39.334Z</time></trkpt><trkpt lat="43.9986117" lon="10.8002933"><ele>946.0</ele><time>2026-04-04T13:08:40.334Z</time></trkpt><trkpt lat="43.998555" lon="10.8001133"><ele>944.0</ele><time>2026-04-04T13:08:41.334Z</time></trkpt><trkpt lat="43.9984833" lon="10.7999467"><ele>942.0</ele><time>2026-04-04T13:08:42.335Z</time></trkpt><trkpt lat="43.9983883" lon="10.7997883"><ele>940.0</ele><time>2026-04-04T13:08:43.335Z</time></trkpt><trkpt lat="43.9982917" lon="10.7996467"><ele>942.25</ele><time>2026-04-04T13:08:44.335Z</time></trkpt><trkpt lat="43.9981917" lon="10.7994967"><ele>944.5</ele><time>2026-04-04T13:08:45.335Z</time></trkpt><trkpt lat="43.9980967" lon="10.79937"><ele>946.75</ele><time>2026-04-04T13:08:46.335Z</time></trkpt><trkpt lat="43.99801" lon="10.7992667"><ele>949.0</ele><time>2026-04-04T13:08:47.335Z</time></trkpt><trkpt lat="43.9979217" lon="10.7991983"><ele>949.0</ele><time>2026-04-04T13:08:48.335Z</time></trkpt><trkpt lat="43.997835" lon="10.7991517"><ele>949.0000000000001</ele><time>2026-04-04T13:08:49.336Z</time></trkpt><trkpt lat="43.997745" lon="10.7991383"><ele>949.0000000000001</ele><time>2026-04-04T13:08:50.334Z</time></trkpt><trkpt lat="43.9976617" lon="10.799175"><ele>949.0</ele><time>2026-04-04T13:08:51.334Z</time></trkpt><trkpt lat="43.997575" lon="10.7992417"><ele>949.0</ele><time>2026-04-04T13:08:52.335Z</time></trkpt><trkpt lat="43.99749" lon="10.7993517"><ele>952.0</ele><time>2026-04-04T13:08:53.335Z</time></trkpt><trkpt lat="43.9974033" lon="10.79945"><ele>955.0</ele><time>2026-04-04T13:08:54.334Z</time></trkpt><trkpt lat="43.9973033" lon="10.7995533"><ele>958.0</ele><time>2026-04-04T13:08:55.336Z</time></trkpt><trkpt lat="43.9972067" lon="10.7996583"><ele>961.0</ele><time>2026-04-04T13:08:56.334Z</time></trkpt><trkpt lat="43.9971167" lon="10.79976"><ele>961.0</ele><time>2026-04-04T13:08:57.335Z</time></trkpt><trkpt lat="43.99702" lon="10.7998467"><ele>961.0</ele><time>2026-04-04T13:08:58.334Z</time></trkpt><trkpt lat="43.9969117" lon="10.7999117"><ele>961.0</ele><time>2026-04-04T13:08:59.335Z</time></trkpt><trkpt lat="43.9968017" lon="10.7999467"><ele>961.0</ele><time>2026-04-04T13:09:00.334Z</time></trkpt><trkpt lat="43.9966933" lon="10.7999567"><ele>961.5999999999999</ele><time>2026-04-04T13:09:01.336Z</time></trkpt><trkpt lat="43.996605" lon="10.7999383"><ele>962.1999999999999</ele><time>2026-04-04T13:09:02.336Z</time></trkpt><trkpt lat="43.996515" lon="10.7998783"><ele>962.8000000000001</ele><time>2026-04-04T13:09:03.336Z</time></trkpt><trkpt lat="43.9964233" lon="10.79983"><ele>963.4000000000001</ele><time>2026-04-04T13:09:04.335Z</time></trkpt><trkpt lat="43.9963467" lon="10.7997017"><ele>964.0</ele><time>2026-04-04T13:09:05.336Z</time></trkpt><trkpt lat="43.9963017" lon="10.799545"><ele>964.0</ele><time>2026-04-04T13:09:06.335Z</time></trkpt><trkpt lat="43.9962667" lon="10.79936"><ele>964.0</ele><time>2026-04-04T13:09:07.335Z</time></trkpt><trkpt lat="43.9962367" lon="10.7991817"><ele>964.0</ele><time>2026-04-04T13:09:08.335Z</time></trkpt><trkpt lat="43.9962033" lon="10.798985"><ele>964.0</ele><time>2026-04-04T13:09:09.334Z</time></trkpt><trkpt lat="43.996165" lon="10.7987683"><ele>961.3333333333333</ele><time>2026-04-04T13:09:10.334Z</time></trkpt><trkpt lat="43.99613" lon="10.7985483"><ele>958.6666666666667</ele><time>2026-04-04T13:09:11.336Z</time></trkpt><trkpt lat="43.9961" lon="10.7983167"><ele>956.0</ele><time>2026-04-04T13:09:12.335Z</time></trkpt><trkpt lat="43.9960683" lon="10.7980817"><ele>953.0</ele><time>2026-04-04T13:09:13.335Z</time></trkpt><trkpt lat="43.9960367" lon="10.7978667"><ele>950.0</ele><time>2026-04-04T13:09:14.334Z</time></trkpt><trkpt lat="43.9960083" lon="10.7976783"><ele>947.0</ele><time>2026-04-04T13:09:15.334Z</time></trkpt><trkpt lat="43.9959467" lon="10.7975283"><ele>944.0</ele><time>2026-04-04T13:09:16.335Z</time></trkpt><trkpt lat="43.9958717" lon="10.7974067"><ele>948.25</ele><time>2026-04-04T13:09:17.335Z</time></trkpt><trkpt lat="43.99577" lon="10.7972967"><ele>952.5</ele><time>2026-04-04T13:09:18.335Z</time></trkpt><trkpt lat="43.99565" lon="10.7972117"><ele>956.75</ele><time>2026-04-04T13:09:19.335Z</time></trkpt><trkpt lat="43.9955267" lon="10.7971483"><ele>961.0</ele><time>2026-04-04T13:09:20.334Z</time></trkpt><trkpt lat="43.9954067" lon="10.7971033"><ele>961.0</ele><time>2026-04-04T13:09:21.334Z</time></trkpt><trkpt lat="43.9953" lon="10.7970617"><ele>960.9999999999999</ele><time>2026-04-04T13:09:22.335Z</time></trkpt><trkpt lat="43.9952083" lon="10.7970317"><ele>960.9999999999999</ele><time>2026-04-04T13:09:23.335Z</time></trkpt><trkpt lat="43.99513" lon="10.7970183"><ele>961.0</ele><time>2026-04-04T13:09:24.335Z</time></trkpt><trkpt lat="43.99506" lon="10.797005"><ele>961.0</ele><time>2026-04-04T13:09:25.335Z</time></trkpt><trkpt lat="43.9949717" lon="10.7969483"><ele>961.8</ele><time>2026-04-04T13:09:27.336Z</time></trkpt><trkpt lat="43.994915" lon="10.7968083"><ele>962.5999999999999</ele><time>2026-04-04T13:09:29.334Z</time></trkpt><trkpt lat="43.994895" lon="10.796725"><ele>963.4</ele><time>2026-04-04T13:09:30.334Z</time></trkpt><trkpt lat="43.9949433" lon="10.796555"><ele>964.2</ele><time>2026-04-04T13:09:32.335Z</time></trkpt><trkpt lat="43.995045" lon="10.7964967"><ele>965.0</ele><time>2026-04-04T13:09:33.334Z</time></trkpt><trkpt lat="43.9951517" lon="10.7964517"><ele>961.6</ele><time>2026-04-04T13:09:34.335Z</time></trkpt><trkpt lat="43.99527" lon="10.7964167"><ele>958.2</ele><time>2026-04-04T13:09:35.336Z</time></trkpt><trkpt lat="43.9953733" lon="10.796375"><ele>954.8</ele><time>2026-04-04T13:09:36.334Z</time></trkpt><trkpt lat="43.995465" lon="10.7963083"><ele>951.4</ele><time>2026-04-04T13:09:37.336Z</time></trkpt><trkpt lat="43.9955383" lon="10.7962033"><ele>948.0</ele><time>2026-04-04T13:09:38.336Z</time></trkpt><trkpt lat="43.99557" lon="10.7960467"><ele>948.5999999999999</ele><time>2026-04-04T13:09:39.335Z</time></trkpt><trkpt lat="43.99559" lon="10.7958683"><ele>949.1999999999999</ele><time>2026-04-04T13:09:40.335Z</time></trkpt><trkpt lat="43.9955967" lon="10.7956983"><ele>949.8</ele><time>2026-04-04T13:09:41.336Z</time></trkpt><trkpt lat="43.9955783" lon="10.7955567"><ele>950.4</ele><time>2026-04-04T13:09:42.336Z</time></trkpt><trkpt lat="43.99554" lon="10.7954467"><ele>951.0</ele><time>2026-04-04T13:09:43.336Z</time></trkpt><trkpt lat="43.9954517" lon="10.7953517"><ele>951.0</ele><time>2026-04-04T13:09:44.335Z</time></trkpt><trkpt lat="43.99535" lon="10.7952367"><ele>951.0</ele><time>2026-04-04T13:09:45.334Z</time></trkpt><trkpt lat="43.99525" lon="10.7951067"><ele>951.0</ele><time>2026-04-04T13:09:46.335Z</time></trkpt><trkpt lat="43.99515" lon="10.7950083"><ele>951.0</ele><time>2026-04-04T13:09:47.334Z</time></trkpt><trkpt lat="43.9950433" lon="10.79494"><ele>954.3333333333333</ele><time>2026-04-04T13:09:48.333Z</time></trkpt><trkpt lat="43.9948983" lon="10.79493"><ele>957.6666666666666</ele><time>2026-04-04T13:09:49.335Z</time></trkpt><trkpt lat="43.99475" lon="10.7948983"><ele>961.0</ele><time>2026-04-04T13:09:50.334Z</time></trkpt><trkpt lat="43.9945783" lon="10.7948533"><ele>961.0</ele><time>2026-04-04T13:09:51.334Z</time></trkpt><trkpt lat="43.9944067" lon="10.7948267"><ele>961.0</ele><time>2026-04-04T13:09:52.335Z</time></trkpt><trkpt lat="43.994245" lon="10.7948017"><ele>961.0</ele><time>2026-04-04T13:09:53.334Z</time></trkpt><trkpt lat="43.9940933" lon="10.7947517"><ele>963.25</ele><time>2026-04-04T13:09:54.335Z</time></trkpt><trkpt lat="43.99395" lon="10.79467"><ele>965.5</ele><time>2026-04-04T13:09:55.335Z</time></trkpt><trkpt lat="43.9938133" lon="10.794565"><ele>967.75</ele><time>2026-04-04T13:09:56.333Z</time></trkpt><trkpt lat="43.9937083" lon="10.7944517"><ele>970.0</ele><time>2026-04-04T13:09:57.335Z</time></trkpt><trkpt lat="43.993615" lon="10.7943417"><ele>966.0</ele><time>2026-04-04T13:09:58.335Z</time></trkpt><trkpt lat="43.9935367" lon="10.7942417"><ele>962.0</ele><time>2026-04-04T13:09:59.334Z</time></trkpt><trkpt lat="43.9934433" lon="10.7941667"><ele>958.0</ele><time>2026-04-04T13:10:00.334Z</time></trkpt><trkpt lat="43.9933267" lon="10.7941333"><ele>954.0</ele><time>2026-04-04T13:10:01.334Z</time></trkpt><trkpt lat="43.9931967" lon="10.794125"><ele>954.0</ele><time>2026-04-04T13:10:02.334Z</time></trkpt><trkpt lat="43.9930633" lon="10.7941517"><ele>954.0</ele><time>2026-04-04T13:10:03.334Z</time></trkpt><trkpt lat="43.9929283" lon="10.7941983"><ele>954.0</ele><time>2026-04-04T13:10:04.334Z</time></trkpt><trkpt lat="43.9927933" lon="10.7942583"><ele>954.0</ele><time>2026-04-04T13:10:05.338Z</time></trkpt><trkpt lat="43.992665" lon="10.794325"><ele>958.75</ele><time>2026-04-04T13:10:06.334Z</time></trkpt><trkpt lat="43.9925533" lon="10.7944133"><ele>963.5</ele><time>2026-04-04T13:10:07.335Z</time></trkpt><trkpt lat="43.99245" lon="10.7945333"><ele>968.25</ele><time>2026-04-04T13:10:08.335Z</time></trkpt><trkpt lat="43.9923517" lon="10.7946633"><ele>973.0</ele><time>2026-04-04T13:10:09.334Z</time></trkpt><trkpt lat="43.9922583" lon="10.7948067"><ele>973.0</ele><time>2026-04-04T13:10:10.334Z</time></trkpt><trkpt lat="43.992165" lon="10.7949333"><ele>973.0</ele><time>2026-04-04T13:10:11.335Z</time></trkpt><trkpt lat="43.9920717" lon="10.7950433"><ele>973.0</ele><time>2026-04-04T13:10:12.334Z</time></trkpt><trkpt lat="43.99198" lon="10.795135"><ele>973.0</ele><time>2026-04-04T13:10:13.334Z</time></trkpt><trkpt lat="43.9918817" lon="10.795195"><ele>973.0</ele><time>2026-04-04T13:10:14.334Z</time></trkpt><trkpt lat="43.991775" lon="10.7952467"><ele>973.0</ele><time>2026-04-04T13:10:15.335Z</time></trkpt><trkpt lat="43.9916617" lon="10.795305"><ele>973.0</ele><time>2026-04-04T13:10:16.333Z</time></trkpt><trkpt lat="43.9915417" lon="10.7953783"><ele>973.0</ele><time>2026-04-04T13:10:17.334Z</time></trkpt><trkpt lat="43.9914167" lon="10.7954717"><ele>973.0</ele><time>2026-04-04T13:10:18.334Z</time></trkpt><trkpt lat="43.99128" lon="10.7955533"><ele>973.0</ele><time>2026-04-04T13:10:19.336Z</time></trkpt><trkpt lat="43.99114" lon="10.79562"><ele>973.0</ele><time>2026-04-04T13:10:20.333Z</time></trkpt><trkpt lat="43.991" lon="10.7956783"><ele>973.0</ele><time>2026-04-04T13:10:21.333Z</time></trkpt><trkpt lat="43.9908683" lon="10.79575"><ele>973.5</ele><time>2026-04-04T13:10:22.335Z</time></trkpt><trkpt lat="43.99076" lon="10.795865"><ele>974.0</ele><time>2026-04-04T13:10:23.334Z</time></trkpt><trkpt lat="43.9906583" lon="10.7960083"><ele>974.5</ele><time>2026-04-04T13:10:24.334Z</time></trkpt><trkpt lat="43.9905533" lon="10.796165"><ele>975.0</ele><time>2026-04-04T13:10:25.335Z</time></trkpt><trkpt lat="43.9904633" lon="10.7963283"><ele>975.0</ele><time>2026-04-04T13:10:26.333Z</time></trkpt><trkpt lat="43.9903967" lon="10.7964983"><ele>975.0</ele><time>2026-04-04T13:10:27.333Z</time></trkpt><trkpt lat="43.990345" lon="10.79666"><ele>975.0</ele><time>2026-04-04T13:10:28.334Z</time></trkpt><trkpt lat="43.9902883" lon="10.796795"><ele>975.0</ele><time>2026-04-04T13:10:29.336Z</time></trkpt><trkpt lat="43.9902267" lon="10.7968967"><ele>975.6</ele><time>2026-04-04T13:10:30.333Z</time></trkpt><trkpt lat="43.9901483" lon="10.7969483"><ele>976.2</ele><time>2026-04-04T13:10:31.335Z</time></trkpt><trkpt lat="43.990065" lon="10.7969683"><ele>976.8</ele><time>2026-04-04T13:10:32.334Z</time></trkpt><trkpt lat="43.9899667" lon="10.7969683"><ele>977.4</ele><time>2026-04-04T13:10:33.333Z</time></trkpt><trkpt lat="43.9898283" lon="10.7969417"><ele>978.0</ele><time>2026-04-04T13:10:34.335Z</time></trkpt><trkpt lat="43.9896817" lon="10.7969383"><ele>978.0</ele><time>2026-04-04T13:10:35.335Z</time></trkpt><trkpt lat="43.989545" lon="10.7969417"><ele>978.0</ele><time>2026-04-04T13:10:36.334Z</time></trkpt><trkpt lat="43.9894217" lon="10.7969617"><ele>978.0</ele><time>2026-04-04T13:10:37.335Z</time></trkpt><trkpt lat="43.9893333" lon="10.79702"><ele>978.0</ele><time>2026-04-04T13:10:38.334Z</time></trkpt><trkpt lat="43.989275" lon="10.79711"><ele>978.0</ele><time>2026-04-04T13:10:39.334Z</time></trkpt><trkpt lat="43.9892667" lon="10.79723"><ele>978.0</ele><time>2026-04-04T13:10:40.335Z</time></trkpt><trkpt lat="43.989275" lon="10.7973517"><ele>978.0</ele><time>2026-04-04T13:10:41.334Z</time></trkpt><trkpt lat="43.9892783" lon="10.797465"><ele>978.0</ele><time>2026-04-04T13:10:42.333Z</time></trkpt><trkpt lat="43.9892717" lon="10.7975717"><ele>978.0</ele><time>2026-04-04T13:10:43.335Z</time></trkpt><trkpt lat="43.98926" lon="10.7976733"><ele>978.0</ele><time>2026-04-04T13:10:44.334Z</time></trkpt><trkpt lat="43.989165" lon="10.7977883"><ele>978.0</ele><time>2026-04-04T13:10:46.333Z</time></trkpt><trkpt lat="43.9890783" lon="10.7978"><ele>978.5</ele><time>2026-04-04T13:10:47.335Z</time></trkpt><trkpt lat="43.988965" lon="10.7978083"><ele>979.0</ele><time>2026-04-04T13:10:48.335Z</time></trkpt><trkpt lat="43.9888167" lon="10.797765"><ele>979.5</ele><time>2026-04-04T13:10:49.335Z</time></trkpt><trkpt lat="43.9886883" lon="10.7977683"><ele>980.0</ele><time>2026-04-04T13:10:50.333Z</time></trkpt><trkpt lat="43.9885733" lon="10.7978167"><ele>980.0</ele><time>2026-04-04T13:10:51.334Z</time></trkpt><trkpt lat="43.9884867" lon="10.79792"><ele>980.0</ele><time>2026-04-04T13:10:52.334Z</time></trkpt><trkpt lat="43.9884283" lon="10.798055"><ele>980.0</ele><time>2026-04-04T13:10:53.335Z</time></trkpt><trkpt lat="43.9884183" lon="10.7982033"><ele>980.0</ele><time>2026-04-04T13:10:54.334Z</time></trkpt><trkpt lat="43.9884367" lon="10.7983367"><ele>980.0</ele><time>2026-04-04T13:10:55.335Z</time></trkpt><trkpt lat="43.9884383" lon="10.798445"><ele>979.2</ele><time>2026-04-04T13:10:56.334Z</time></trkpt><trkpt lat="43.988425" lon="10.798555"><ele>978.4</ele><time>2026-04-04T13:10:57.335Z</time></trkpt><trkpt lat="43.9884" lon="10.798655"><ele>977.5999999999999</ele><time>2026-04-04T13:10:58.333Z</time></trkpt><trkpt lat="43.988345" lon="10.79873"><ele>976.8</ele><time>2026-04-04T13:10:59.335Z</time></trkpt><trkpt lat="43.98827" lon="10.798765"><ele>976.0</ele><time>2026-04-04T13:11:00.333Z</time></trkpt><trkpt lat="43.988095" lon="10.7986617"><ele>976.0</ele><time>2026-04-04T13:11:01.335Z</time></trkpt><trkpt lat="43.9879683" lon="10.7986517"><ele>976.0</ele><time>2026-04-04T13:11:02.334Z</time></trkpt><trkpt lat="43.987845" lon="10.798655"><ele>976.0</ele><time>2026-04-04T13:11:03.334Z</time></trkpt><trkpt lat="43.9877417" lon="10.7986783"><ele>976.0</ele><time>2026-04-04T13:11:04.334Z</time></trkpt><trkpt lat="43.987655" lon="10.7987317"><ele>976.0</ele><time>2026-04-04T13:11:05.334Z</time></trkpt><trkpt lat="43.9875717" lon="10.7988117"><ele>975.9999999999999</ele><time>2026-04-04T13:11:06.335Z</time></trkpt><trkpt lat="43.9875117" lon="10.79895"><ele>975.9999999999999</ele><time>2026-04-04T13:11:07.334Z</time></trkpt><trkpt lat="43.9874667" lon="10.7991083"><ele>976.0</ele><time>2026-04-04T13:11:08.334Z</time></trkpt><trkpt lat="43.98741" lon="10.7992383"><ele>976.0</ele><time>2026-04-04T13:11:09.334Z</time></trkpt><trkpt lat="43.9873517" lon="10.7993467"><ele>974.1666666666666</ele><time>2026-04-04T13:11:10.339Z</time></trkpt><trkpt lat="43.9872983" lon="10.7994533"><ele>972.3333333333333</ele><time>2026-04-04T13:11:11.334Z</time></trkpt><trkpt lat="43.9872617" lon="10.79955"><ele>970.5</ele><time>2026-04-04T13:11:12.336Z</time></trkpt><trkpt lat="43.9872517" lon="10.7996417"><ele>968.6666666666667</ele><time>2026-04-04T13:11:13.335Z</time></trkpt><trkpt lat="43.9872583" lon="10.7997367"><ele>966.8333333333334</ele><time>2026-04-04T13:11:14.334Z</time></trkpt><trkpt lat="43.987275" lon="10.7998283"><ele>965.0</ele><time>2026-04-04T13:11:15.332Z</time></trkpt><trkpt lat="43.98733" lon="10.7999217"><ele>965.0000000000001</ele><time>2026-04-04T13:11:16.334Z</time></trkpt><trkpt lat="43.9873767" lon="10.8"><ele>965.0</ele><time>2026-04-04T13:11:17.333Z</time></trkpt><trkpt lat="43.9874167" lon="10.8000833"><ele>965.0</ele><time>2026-04-04T13:11:18.333Z</time></trkpt><trkpt lat="43.9874467" lon="10.8001783"><ele>965.0</ele><time>2026-04-04T13:11:19.335Z</time></trkpt><trkpt lat="43.9874617" lon="10.8002783"><ele>965.0000000000001</ele><time>2026-04-04T13:11:20.334Z</time></trkpt><trkpt lat="43.987455" lon="10.8003783"><ele>965.0</ele><time>2026-04-04T13:11:21.334Z</time></trkpt><trkpt lat="43.9873633" lon="10.8005033"><ele>966.0</ele><time>2026-04-04T13:11:23.334Z</time></trkpt><trkpt lat="43.98729" lon="10.8005183"><ele>967.0</ele><time>2026-04-04T13:11:24.334Z</time></trkpt><trkpt lat="43.987215" lon="10.8005133"><ele>968.0</ele><time>2026-04-04T13:11:25.335Z</time></trkpt><trkpt lat="43.98715" lon="10.8005"><ele>969.0</ele><time>2026-04-04T13:11:26.333Z</time></trkpt><trkpt lat="43.987085" lon="10.8004817"><ele>970.0</ele><time>2026-04-04T13:11:27.336Z</time></trkpt><trkpt lat="43.9869067" lon="10.800365"><ele>970.0</ele><time>2026-04-04T13:11:28.335Z</time></trkpt><trkpt lat="43.98675" lon="10.8002233"><ele>970.0</ele><time>2026-04-04T13:11:29.334Z</time></trkpt><trkpt lat="43.986635" lon="10.800135"><ele>970.0</ele><time>2026-04-04T13:11:30.334Z</time></trkpt><trkpt lat="43.9865233" lon="10.8000683"><ele>970.0</ele><time>2026-04-04T13:11:31.335Z</time></trkpt><trkpt lat="43.9864183" lon="10.800045"><ele>970.8</ele><time>2026-04-04T13:11:32.335Z</time></trkpt><trkpt lat="43.9863267" lon="10.8000633"><ele>971.6</ele><time>2026-04-04T13:11:33.335Z</time></trkpt><trkpt lat="43.986235" lon="10.8001133"><ele>972.4000000000001</ele><time>2026-04-04T13:11:34.333Z</time></trkpt><trkpt lat="43.9861467" lon="10.80018"><ele>973.2</ele><time>2026-04-04T13:11:35.335Z</time></trkpt><trkpt lat="43.9860667" lon="10.8002417"><ele>974.0</ele><time>2026-04-04T13:11:36.335Z</time></trkpt><trkpt lat="43.9859967" lon="10.8002917"><ele>974.0</ele><time>2026-04-04T13:11:37.336Z</time></trkpt><trkpt lat="43.9859083" lon="10.8003517"><ele>974.0000000000001</ele><time>2026-04-04T13:11:39.335Z</time></trkpt><trkpt lat="43.9858517" lon="10.800415"><ele>974.0000000000001</ele><time>2026-04-04T13:11:42.334Z</time></trkpt><trkpt lat="43.9857967" lon="10.8005683"><ele>974.0</ele><time>2026-04-04T13:14:09.333Z</time></trkpt><trkpt lat="43.985725" lon="10.8006633"><ele>974.0</ele><time>2026-04-04T13:14:11.335Z</time></trkpt><trkpt lat="43.9856683" lon="10.8007183"><ele>971.3333333333334</ele><time>2026-04-04T13:14:12.334Z</time></trkpt><trkpt lat="43.9856017" lon="10.8007833"><ele>968.6666666666667</ele><time>2026-04-04T13:14:13.335Z</time></trkpt><trkpt lat="43.98554" lon="10.8008617"><ele>966.0</ele><time>2026-04-04T13:14:14.334Z</time></trkpt><trkpt lat="43.9854833" lon="10.800955"><ele>963.3333333333333</ele><time>2026-04-04T13:14:15.334Z</time></trkpt><trkpt lat="43.9854317" lon="10.80104"><ele>960.6666666666666</ele><time>2026-04-04T13:14:16.335Z</time></trkpt><trkpt lat="43.9853983" lon="10.8011183"><ele>958.0</ele><time>2026-04-04T13:14:17.337Z</time></trkpt><trkpt lat="43.9853867" lon="10.801205"><ele>957.9999999999999</ele><time>2026-04-04T13:14:18.335Z</time></trkpt><trkpt lat="43.9853917" lon="10.8013"><ele>958.0</ele><time>2026-04-04T13:14:19.334Z</time></trkpt><trkpt lat="43.9854083" lon="10.8013983"><ele>958.0</ele><time>2026-04-04T13:14:20.333Z</time></trkpt><trkpt lat="43.9854383" lon="10.8014883"><ele>958.0</ele><time>2026-04-04T13:14:21.335Z</time></trkpt><trkpt lat="43.9854633" lon="10.801645"><ele>957.9999999999999</ele><time>2026-04-04T13:14:23.335Z</time></trkpt><trkpt lat="43.9854333" lon="10.8017967"><ele>958.0</ele><time>2026-04-04T13:14:25.338Z</time></trkpt><trkpt lat="43.9854" lon="10.8018767"><ele>957.5999999999999</ele><time>2026-04-04T13:14:26.335Z</time></trkpt><trkpt lat="43.9853517" lon="10.8019433"><ele>957.1999999999999</ele><time>2026-04-04T13:14:27.334Z</time></trkpt><trkpt lat="43.98526" lon="10.8020083"><ele>956.8</ele><time>2026-04-04T13:14:28.335Z</time></trkpt><trkpt lat="43.9851567" lon="10.8020783"><ele>956.4</ele><time>2026-04-04T13:14:29.335Z</time></trkpt><trkpt lat="43.985056" lon="10.8021482"><ele>956.0</ele><time>2026-04-04T13:14:30.335Z</time></trkpt><trkpt lat="43.9849496" lon="10.8022183"><ele>956.0</ele><time>2026-04-04T13:14:31.335Z</time></trkpt><trkpt lat="43.9848469" lon="10.8022812"><ele>955.9999999999999</ele><time>2026-04-04T13:14:32.334Z</time></trkpt><trkpt lat="43.9847484" lon="10.8023357"><ele>955.9999999999999</ele><time>2026-04-04T13:14:33.334Z</time></trkpt><trkpt lat="43.9846615" lon="10.8023907"><ele>956.0</ele><time>2026-04-04T13:14:34.333Z</time></trkpt><trkpt lat="43.9845825" lon="10.8024562"><ele>956.0</ele><time>2026-04-04T13:14:35.334Z</time></trkpt><trkpt lat="43.9845078" lon="10.8025388"><ele>956.0</ele><time>2026-04-04T13:14:36.335Z</time></trkpt><trkpt lat="43.984447" lon="10.8026362"><ele>955.9999999999999</ele><time>2026-04-04T13:14:37.335Z</time></trkpt><trkpt lat="43.984391" lon="10.802739"><ele>955.9999999999999</ele><time>2026-04-04T13:14:38.334Z</time></trkpt><trkpt lat="43.9843313" lon="10.802834"><ele>956.0</ele><time>2026-04-04T13:14:39.335Z</time></trkpt><trkpt lat="43.984269" lon="10.8029211"><ele>956.0</ele><time>2026-04-04T13:14:40.334Z</time></trkpt><trkpt lat="43.9842066" lon="10.8030035"><ele>954.1666666666667</ele><time>2026-04-04T13:14:41.334Z</time></trkpt><trkpt lat="43.9841504" lon="10.8030874"><ele>952.3333333333334</ele><time>2026-04-04T13:14:42.334Z</time></trkpt><trkpt lat="43.9841082" lon="10.8031835"><ele>950.5</ele><time>2026-04-04T13:14:43.335Z</time></trkpt><trkpt lat="43.9840681" lon="10.8032796"><ele>948.6666666666667</ele><time>2026-04-04T13:14:44.335Z</time></trkpt><trkpt lat="43.984025" lon="10.8033762"><ele>946.8333333333334</ele><time>2026-04-04T13:14:45.333Z</time></trkpt><trkpt lat="43.9839743" lon="10.8034832"><ele>945.0</ele><time>2026-04-04T13:14:46.334Z</time></trkpt><trkpt lat="43.9839261" lon="10.8035875"><ele>945.0</ele><time>2026-04-04T13:14:47.334Z</time></trkpt><trkpt lat="43.9838872" lon="10.8036843"><ele>945.0</ele><time>2026-04-04T13:14:48.335Z</time></trkpt><trkpt lat="43.9838526" lon="10.8037693"><ele>945.0</ele><time>2026-04-04T13:14:49.334Z</time></trkpt><trkpt lat="43.9838245" lon="10.80385"><ele>945.0</ele><time>2026-04-04T13:14:50.335Z</time></trkpt><trkpt lat="43.983803" lon="10.8039413"><ele>945.0</ele><time>2026-04-04T13:14:51.333Z</time></trkpt><trkpt lat="43.9837891" lon="10.8040443"><ele>945.0</ele><time>2026-04-04T13:14:52.333Z</time></trkpt><trkpt lat="43.9837844" lon="10.8041571"><ele>945.0</ele><time>2026-04-04T13:14:53.332Z</time></trkpt><trkpt lat="43.9837862" lon="10.8042786"><ele>943.8333333333334</ele><time>2026-04-04T13:14:54.333Z</time></trkpt><trkpt lat="43.9837841" lon="10.8043885"><ele>942.6666666666667</ele><time>2026-04-04T13:14:55.334Z</time></trkpt><trkpt lat="43.983783" lon="10.8044909"><ele>941.5</ele><time>2026-04-04T13:14:56.333Z</time></trkpt><trkpt lat="43.9837937" lon="10.80459"><ele>940.3333333333334</ele><time>2026-04-04T13:14:57.336Z</time></trkpt><trkpt lat="43.9838166" lon="10.8046855"><ele>939.1666666666667</ele><time>2026-04-04T13:14:58.334Z</time></trkpt><trkpt lat="43.9838534" lon="10.80478"><ele>938.0</ele><time>2026-04-04T13:14:59.333Z</time></trkpt><trkpt lat="43.983907" lon="10.8048793"><ele>938.0</ele><time>2026-04-04T13:15:00.333Z</time></trkpt><trkpt lat="43.9839766" lon="10.8049764"><ele>938.0</ele><time>2026-04-04T13:15:01.336Z</time></trkpt><trkpt lat="43.9840506" lon="10.8050574"><ele>938.0</ele><time>2026-04-04T13:15:02.334Z</time></trkpt><trkpt lat="43.9841195" lon="10.8051319"><ele>938.0</ele><time>2026-04-04T13:15:03.335Z</time></trkpt><trkpt lat="43.9841818" lon="10.8052146"><ele>938.0</ele><time>2026-04-04T13:15:04.334Z</time></trkpt><trkpt lat="43.9842371" lon="10.805321"><ele>943.4</ele><time>2026-04-04T13:15:05.335Z</time></trkpt><trkpt lat="43.9842861" lon="10.8054362"><ele>948.8</ele><time>2026-04-04T13:15:06.334Z</time></trkpt><trkpt lat="43.9843264" lon="10.805556"><ele>954.2</ele><time>2026-04-04T13:15:07.335Z</time></trkpt><trkpt lat="43.9843595" lon="10.8056846"><ele>959.6</ele><time>2026-04-04T13:15:08.333Z</time></trkpt><trkpt lat="43.9843816" lon="10.8058235"><ele>965.0</ele><time>2026-04-04T13:15:09.334Z</time></trkpt><trkpt lat="43.9843893" lon="10.8059708"><ele>961.6</ele><time>2026-04-04T13:15:10.334Z</time></trkpt><trkpt lat="43.9843842" lon="10.8061249"><ele>958.2</ele><time>2026-04-04T13:15:11.339Z</time></trkpt><trkpt lat="43.9843712" lon="10.8062686"><ele>954.8</ele><time>2026-04-04T13:15:12.334Z</time></trkpt><trkpt lat="43.9843535" lon="10.8063937"><ele>951.4</ele><time>2026-04-04T13:15:13.334Z</time></trkpt><trkpt lat="43.9843358" lon="10.8065006"><ele>948.0</ele><time>2026-04-04T13:15:14.334Z</time></trkpt><trkpt lat="43.9843222" lon="10.8065921"><ele>948.0</ele><time>2026-04-04T13:15:15.335Z</time></trkpt><trkpt lat="43.9843554" lon="10.8067574"><ele>948.0</ele><time>2026-04-04T13:15:17.335Z</time></trkpt><trkpt lat="43.984396" lon="10.8068256"><ele>948.0</ele><time>2026-04-04T13:15:18.333Z</time></trkpt><trkpt lat="43.9844614" lon="10.806881"><ele>948.0</ele><time>2026-04-04T13:15:19.335Z</time></trkpt><trkpt lat="43.9845384" lon="10.8069185"><ele>948.0</ele><time>2026-04-04T13:15:20.333Z</time></trkpt><trkpt lat="43.9846125" lon="10.8069421"><ele>948.0</ele><time>2026-04-04T13:15:21.333Z</time></trkpt><trkpt lat="43.9847329" lon="10.8069441"><ele>945.4</ele><time>2026-04-04T13:15:23.335Z</time></trkpt><trkpt lat="43.9848443" lon="10.8069859"><ele>942.8</ele><time>2026-04-04T13:15:25.336Z</time></trkpt><trkpt lat="43.9849235" lon="10.8071319"><ele>940.2</ele><time>2026-04-04T13:15:27.335Z</time></trkpt><trkpt lat="43.9849417" lon="10.8072451"><ele>937.6</ele><time>2026-04-04T13:15:28.334Z</time></trkpt><trkpt lat="43.9849434" lon="10.8073791"><ele>935.0</ele><time>2026-04-04T13:15:29.335Z</time></trkpt><trkpt lat="43.9849242" lon="10.8075227"><ele>933.4</ele><time>2026-04-04T13:15:30.334Z</time></trkpt><trkpt lat="43.9849063" lon="10.8076706"><ele>931.8</ele><time>2026-04-04T13:15:31.335Z</time></trkpt><trkpt lat="43.9848919" lon="10.8078174"><ele>930.2</ele><time>2026-04-04T13:15:32.334Z</time></trkpt><trkpt lat="43.9848812" lon="10.8079651"><ele>928.6</ele><time>2026-04-04T13:15:33.334Z</time></trkpt><trkpt lat="43.9848683" lon="10.8081177"><ele>927.0</ele><time>2026-04-04T13:15:34.333Z</time></trkpt><trkpt lat="43.9848532" lon="10.8082752"><ele>927.0</ele><time>2026-04-04T13:15:35.335Z</time></trkpt><trkpt lat="43.9848364" lon="10.8084269"><ele>927.0</ele><time>2026-04-04T13:15:36.334Z</time></trkpt><trkpt lat="43.9848174" lon="10.8085614"><ele>927.0</ele><time>2026-04-04T13:15:37.333Z</time></trkpt><trkpt lat="43.9847923" lon="10.8086762"><ele>927.0</ele><time>2026-04-04T13:15:38.334Z</time></trkpt><trkpt lat="43.9847647" lon="10.8087848"><ele>927.0</ele><time>2026-04-04T13:15:39.334Z</time></trkpt><trkpt lat="43.9847361" lon="10.8088945"><ele>927.0</ele><time>2026-04-04T13:15:40.335Z</time></trkpt><trkpt lat="43.984711" lon="10.8090035"><ele>927.0</ele><time>2026-04-04T13:15:41.333Z</time></trkpt><trkpt lat="43.9846891" lon="10.8091114"><ele>927.0</ele><time>2026-04-04T13:15:42.334Z</time></trkpt><trkpt lat="43.9846728" lon="10.809212"><ele>927.0</ele><time>2026-04-04T13:15:43.334Z</time></trkpt><trkpt lat="43.9846659" lon="10.8093069"><ele>927.0</ele><time>2026-04-04T13:15:44.334Z</time></trkpt><trkpt lat="43.9846833" lon="10.8094732"><ele>927.0</ele><time>2026-04-04T13:15:46.335Z</time></trkpt><trkpt lat="43.9846587" lon="10.8096415"><ele>927.2857142857142</ele><time>2026-04-04T13:15:48.335Z</time></trkpt><trkpt lat="43.9846251" lon="10.8097215"><ele>927.5714285714286</ele><time>2026-04-04T13:15:49.334Z</time></trkpt><trkpt lat="43.9845863" lon="10.8097904"><ele>927.8571428571429</ele><time>2026-04-04T13:15:50.334Z</time></trkpt><trkpt lat="43.984547" lon="10.8098595"><ele>928.1428571428571</ele><time>2026-04-04T13:15:51.334Z</time></trkpt><trkpt lat="43.9845123" lon="10.8099344"><ele>928.4285714285716</ele><time>2026-04-04T13:15:52.335Z</time></trkpt><trkpt lat="43.984482" lon="10.8100146"><ele>928.7142857142858</ele><time>2026-04-04T13:15:53.335Z</time></trkpt><trkpt lat="43.9844561" lon="10.8101068"><ele>929.0</ele><time>2026-04-04T13:15:54.335Z</time></trkpt><trkpt lat="43.9844351" lon="10.8102086"><ele>927.1428571428572</ele><time>2026-04-04T13:15:55.335Z</time></trkpt><trkpt lat="43.9844285" lon="10.810312"><ele>925.2857142857144</ele><time>2026-04-04T13:15:56.335Z</time></trkpt><trkpt lat="43.9844403" lon="10.810417"><ele>923.4285714285714</ele><time>2026-04-04T13:15:57.334Z</time></trkpt><trkpt lat="43.984463" lon="10.8105207"><ele>921.5714285714287</ele><time>2026-04-04T13:15:58.334Z</time></trkpt><trkpt lat="43.9844983" lon="10.8106061"><ele>919.7142857142858</ele><time>2026-04-04T13:15:59.333Z</time></trkpt><trkpt lat="43.9845481" lon="10.8106728"><ele>917.8571428571429</ele><time>2026-04-04T13:16:00.335Z</time></trkpt><trkpt lat="43.9846146" lon="10.8107291"><ele>916.0</ele><time>2026-04-04T13:16:01.335Z</time></trkpt><trkpt lat="43.9846879" lon="10.8107814"><ele>915.9999999999999</ele><time>2026-04-04T13:16:02.334Z</time></trkpt><trkpt lat="43.9847581" lon="10.8108405"><ele>916.0</ele><time>2026-04-04T13:16:03.334Z</time></trkpt><trkpt lat="43.9848217" lon="10.8109064"><ele>916.0</ele><time>2026-04-04T13:16:04.333Z</time></trkpt><trkpt lat="43.9848847" lon="10.810984"><ele>916.0</ele><time>2026-04-04T13:16:05.333Z</time></trkpt><trkpt lat="43.9849441" lon="10.8110668"><ele>915.9999999999999</ele><time>2026-04-04T13:16:06.335Z</time></trkpt><trkpt lat="43.9849965" lon="10.8111448"><ele>916.0</ele><time>2026-04-04T13:16:07.335Z</time></trkpt><trkpt lat="43.9850389" lon="10.8112196"><ele>914.5999999999999</ele><time>2026-04-04T13:16:08.334Z</time></trkpt><trkpt lat="43.9850699" lon="10.8113004"><ele>913.1999999999999</ele><time>2026-04-04T13:16:09.334Z</time></trkpt><trkpt lat="43.9850906" lon="10.8114017"><ele>911.8000000000001</ele><time>2026-04-04T13:16:10.334Z</time></trkpt><trkpt lat="43.985109" lon="10.811517"><ele>910.4000000000001</ele><time>2026-04-04T13:16:11.334Z</time></trkpt><trkpt lat="43.9851273" lon="10.811664"><ele>909.0</ele><time>2026-04-04T13:16:12.335Z</time></trkpt><trkpt lat="43.985148" lon="10.8118263"><ele>909.0</ele><time>2026-04-04T13:16:13.336Z</time></trkpt><trkpt lat="43.9851689" lon="10.8119816"><ele>909.0000000000001</ele><time>2026-04-04T13:16:14.334Z</time></trkpt><trkpt lat="43.9851789" lon="10.8121224"><ele>909.0000000000001</ele><time>2026-04-04T13:16:15.335Z</time></trkpt><trkpt lat="43.9851825" lon="10.8122516"><ele>909.0</ele><time>2026-04-04T13:16:16.335Z</time></trkpt><trkpt lat="43.9851856" lon="10.8123792"><ele>909.0</ele><time>2026-04-04T13:16:17.335Z</time></trkpt><trkpt lat="43.9851991" lon="10.8125069"><ele>909.0</ele><time>2026-04-04T13:16:18.334Z</time></trkpt><trkpt lat="43.9852417" lon="10.8126329"><ele>909.0</ele><time>2026-04-04T13:16:19.338Z</time></trkpt><trkpt lat="43.9853175" lon="10.8127481"><ele>909.0</ele><time>2026-04-04T13:16:20.334Z</time></trkpt><trkpt lat="43.9854215" lon="10.8128555"><ele>909.0</ele><time>2026-04-04T13:16:21.334Z</time></trkpt><trkpt lat="43.9855322" lon="10.8129487"><ele>906.0</ele><time>2026-04-04T13:16:22.335Z</time></trkpt><trkpt lat="43.9856357" lon="10.8130214"><ele>903.0</ele><time>2026-04-04T13:16:23.334Z</time></trkpt><trkpt lat="43.9857431" lon="10.8130774"><ele>900.0</ele><time>2026-04-04T13:16:24.335Z</time></trkpt><trkpt lat="43.9858601" lon="10.8131133"><ele>897.0</ele><time>2026-04-04T13:16:25.335Z</time></trkpt><trkpt lat="43.9859701" lon="10.8131405"><ele>897.0</ele><time>2026-04-04T13:16:26.335Z</time></trkpt><trkpt lat="43.9860638" lon="10.813192"><ele>897.0</ele><time>2026-04-04T13:16:27.334Z</time></trkpt><trkpt lat="43.9861413" lon="10.8132556"><ele>897.0</ele><time>2026-04-04T13:16:28.333Z</time></trkpt><trkpt lat="43.9862189" lon="10.8133493"><ele>897.0</ele><time>2026-04-04T13:16:29.333Z</time></trkpt><trkpt lat="43.9863034" lon="10.8134547"><ele>897.0</ele><time>2026-04-04T13:16:30.335Z</time></trkpt><trkpt lat="43.9864" lon="10.8135607"><ele>892.8</ele><time>2026-04-04T13:16:31.334Z</time></trkpt><trkpt lat="43.9864956" lon="10.8136625"><ele>888.6</ele><time>2026-04-04T13:16:32.335Z</time></trkpt><trkpt lat="43.9865789" lon="10.8137567"><ele>884.3999999999999</ele><time>2026-04-04T13:16:33.334Z</time></trkpt><trkpt lat="43.9866599" lon="10.8138274"><ele>880.1999999999999</ele><time>2026-04-04T13:16:34.336Z</time></trkpt><trkpt lat="43.9867448" lon="10.8138683"><ele>876.0</ele><time>2026-04-04T13:16:35.335Z</time></trkpt><trkpt lat="43.9868424" lon="10.8138682"><ele>876.0</ele><time>2026-04-04T13:16:36.336Z</time></trkpt><trkpt lat="43.9869464" lon="10.813828"><ele>875.9999999999999</ele><time>2026-04-04T13:16:37.334Z</time></trkpt><trkpt lat="43.9870512" lon="10.8137752"><ele>875.9999999999999</ele><time>2026-04-04T13:16:38.335Z</time></trkpt><trkpt lat="43.9871458" lon="10.813732"><ele>876.0</ele><time>2026-04-04T13:16:39.333Z</time></trkpt><trkpt lat="43.987232" lon="10.8137164"><ele>876.0</ele><time>2026-04-04T13:16:40.335Z</time></trkpt><trkpt lat="43.9873172" lon="10.8137269"><ele>876.0</ele><time>2026-04-04T13:16:41.334Z</time></trkpt><trkpt lat="43.9874033" lon="10.8137808"><ele>876.0</ele><time>2026-04-04T13:16:42.334Z</time></trkpt><trkpt lat="43.9875077" lon="10.8138761"><ele>876.0</ele><time>2026-04-04T13:16:43.334Z</time></trkpt><trkpt lat="43.9876187" lon="10.8139704"><ele>876.0</ele><time>2026-04-04T13:16:44.335Z</time></trkpt><trkpt lat="43.987726" lon="10.8140438"><ele>878.5</ele><time>2026-04-04T13:16:45.333Z</time></trkpt><trkpt lat="43.9878201" lon="10.8141111"><ele>881.0</ele><time>2026-04-04T13:16:46.335Z</time></trkpt><trkpt lat="43.9878996" lon="10.8141818"><ele>883.5</ele><time>2026-04-04T13:16:47.334Z</time></trkpt><trkpt lat="43.9879607" lon="10.8142618"><ele>886.0</ele><time>2026-04-04T13:16:48.333Z</time></trkpt><trkpt lat="43.988004" lon="10.8143503"><ele>888.5</ele><time>2026-04-04T13:16:49.334Z</time></trkpt><trkpt lat="43.9880308" lon="10.8144429"><ele>891.0</ele><time>2026-04-04T13:16:50.333Z</time></trkpt><trkpt lat="43.9880378" lon="10.814531"><ele>893.0</ele><time>2026-04-04T13:16:51.336Z</time></trkpt><trkpt lat="43.987993" lon="10.8146902"><ele>895.0</ele><time>2026-04-04T13:16:53.334Z</time></trkpt><trkpt lat="43.9879111" lon="10.8147484"><ele>897.0</ele><time>2026-04-04T13:16:54.334Z</time></trkpt><trkpt lat="43.9878061" lon="10.8147927"><ele>899.0</ele><time>2026-04-04T13:16:55.335Z</time></trkpt><trkpt lat="43.9876753" lon="10.8148223"><ele>899.0</ele><time>2026-04-04T13:16:56.335Z</time></trkpt><trkpt lat="43.9875524" lon="10.8148499"><ele>899.0</ele><time>2026-04-04T13:16:57.333Z</time></trkpt><trkpt lat="43.9874436" lon="10.8148753"><ele>899.0</ele><time>2026-04-04T13:16:58.336Z</time></trkpt><trkpt lat="43.9873389" lon="10.8149242"><ele>899.0</ele><time>2026-04-04T13:16:59.334Z</time></trkpt><trkpt lat="43.9872188" lon="10.8150128"><ele>897.75</ele><time>2026-04-04T13:17:00.334Z</time></trkpt><trkpt lat="43.9870967" lon="10.8151192"><ele>896.5</ele><time>2026-04-04T13:17:01.335Z</time></trkpt><trkpt lat="43.9869915" lon="10.8152132"><ele>895.25</ele><time>2026-04-04T13:17:02.335Z</time></trkpt><trkpt lat="43.9869046" lon="10.8152853"><ele>894.0</ele><time>2026-04-04T13:17:03.335Z</time></trkpt><trkpt lat="43.9868323" lon="10.8153346"><ele>894.0</ele><time>2026-04-04T13:17:04.335Z</time></trkpt><trkpt lat="43.9867254" lon="10.8153695"><ele>894.0000000000001</ele><time>2026-04-04T13:17:06.334Z</time></trkpt><trkpt lat="43.9866136" lon="10.8153519"><ele>894.0000000000001</ele><time>2026-04-04T13:17:08.334Z</time></trkpt><trkpt lat="43.9865442" lon="10.81534"><ele>894.0</ele><time>2026-04-04T13:17:09.334Z</time></trkpt><trkpt lat="43.9864666" lon="10.8153297"><ele>894.0</ele><time>2026-04-04T13:17:10.335Z</time></trkpt><trkpt lat="43.9863859" lon="10.8153188"><ele>890.1666666666666</ele><time>2026-04-04T13:17:11.334Z</time></trkpt><trkpt lat="43.9863079" lon="10.8153132"><ele>886.3333333333333</ele><time>2026-04-04T13:17:12.334Z</time></trkpt><trkpt lat="43.9862232" lon="10.8153151"><ele>882.5</ele><time>2026-04-04T13:17:13.334Z</time></trkpt><trkpt lat="43.9861355" lon="10.8153177"><ele>878.6666666666666</ele><time>2026-04-04T13:17:14.334Z</time></trkpt><trkpt lat="43.9860451" lon="10.815316"><ele>874.8333333333333</ele><time>2026-04-04T13:17:15.333Z</time></trkpt><trkpt lat="43.9859547" lon="10.8153069"><ele>871.0</ele><time>2026-04-04T13:17:16.334Z</time></trkpt><trkpt lat="43.9858749" lon="10.815308"><ele>866.1999999999999</ele><time>2026-04-04T13:17:17.334Z</time></trkpt><trkpt lat="43.9858081" lon="10.8153238"><ele>861.3999999999999</ele><time>2026-04-04T13:17:18.335Z</time></trkpt><trkpt lat="43.9857035" lon="10.8154263"><ele>856.6</ele><time>2026-04-04T13:17:20.334Z</time></trkpt><trkpt lat="43.9856655" lon="10.8155206"><ele>851.8</ele><time>2026-04-04T13:17:21.334Z</time></trkpt><trkpt lat="43.985638" lon="10.8156452"><ele>847.0</ele><time>2026-04-04T13:17:22.335Z</time></trkpt><trkpt lat="43.9856317" lon="10.8157993"><ele>846.9999999999999</ele><time>2026-04-04T13:17:23.333Z</time></trkpt><trkpt lat="43.9856381" lon="10.8159441"><ele>847.0</ele><time>2026-04-04T13:17:24.332Z</time></trkpt><trkpt lat="43.9856454" lon="10.8160677"><ele>847.0</ele><time>2026-04-04T13:17:25.334Z</time></trkpt><trkpt lat="43.9856468" lon="10.8161747"><ele>847.0</ele><time>2026-04-04T13:17:26.335Z</time></trkpt><trkpt lat="43.9856352" lon="10.8162741"><ele>846.9999999999999</ele><time>2026-04-04T13:17:27.333Z</time></trkpt><trkpt lat="43.9856005" lon="10.8163773"><ele>847.0</ele><time>2026-04-04T13:17:28.334Z</time></trkpt><trkpt lat="43.9855415" lon="10.8164749"><ele>847.8</ele><time>2026-04-04T13:17:29.334Z</time></trkpt><trkpt lat="43.9854672" lon="10.8165676"><ele>848.6</ele><time>2026-04-04T13:17:30.333Z</time></trkpt><trkpt lat="43.9853934" lon="10.816657"><ele>849.4</ele><time>2026-04-04T13:17:31.335Z</time></trkpt><trkpt lat="43.9853284" lon="10.8167443"><ele>850.1999999999999</ele><time>2026-04-04T13:17:32.334Z</time></trkpt><trkpt lat="43.9852695" lon="10.8168264"><ele>851.0</ele><time>2026-04-04T13:17:33.334Z</time></trkpt><trkpt lat="43.9852127" lon="10.8169063"><ele>851.0000000000001</ele><time>2026-04-04T13:17:34.334Z</time></trkpt><trkpt lat="43.9851514" lon="10.8169831"><ele>851.0</ele><time>2026-04-04T13:17:35.335Z</time></trkpt><trkpt lat="43.9850848" lon="10.8170472"><ele>851.0</ele><time>2026-04-04T13:17:36.334Z</time></trkpt><trkpt lat="43.9850117" lon="10.8170962"><ele>851.0</ele><time>2026-04-04T13:17:37.336Z</time></trkpt><trkpt lat="43.9849282" lon="10.8171374"><ele>851.0000000000001</ele><time>2026-04-04T13:17:38.334Z</time></trkpt><trkpt lat="43.984842" lon="10.8171791"><ele>851.0</ele><time>2026-04-04T13:17:39.333Z</time></trkpt><trkpt lat="43.9847611" lon="10.8172228"><ele>848.7142857142858</ele><time>2026-04-04T13:17:40.334Z</time></trkpt><trkpt lat="43.9846935" lon="10.8172751"><ele>846.4285714285714</ele><time>2026-04-04T13:17:41.334Z</time></trkpt><trkpt lat="43.9846293" lon="10.8173268"><ele>844.1428571428571</ele><time>2026-04-04T13:17:42.335Z</time></trkpt><trkpt lat="43.9845708" lon="10.8173788"><ele>841.8571428571429</ele><time>2026-04-04T13:17:43.335Z</time></trkpt><trkpt lat="43.9845128" lon="10.8174397"><ele>839.5714285714286</ele><time>2026-04-04T13:17:44.334Z</time></trkpt><trkpt lat="43.9844547" lon="10.8175069"><ele>837.2857142857143</ele><time>2026-04-04T13:17:45.334Z</time></trkpt><trkpt lat="43.9843929" lon="10.8175696"><ele>835.0</ele><time>2026-04-04T13:17:46.335Z</time></trkpt><trkpt lat="43.9843425" lon="10.8176339"><ele>835.9999999999999</ele><time>2026-04-04T13:17:47.335Z</time></trkpt><trkpt lat="43.9842885" lon="10.8176933"><ele>837.0</ele><time>2026-04-04T13:17:48.335Z</time></trkpt><trkpt lat="43.9842383" lon="10.8177506"><ele>838.0</ele><time>2026-04-04T13:17:49.335Z</time></trkpt><trkpt lat="43.9841619" lon="10.817868"><ele>839.0</ele><time>2026-04-04T13:17:51.334Z</time></trkpt><trkpt lat="43.9841105" lon="10.8180125"><ele>839.9999999999999</ele><time>2026-04-04T13:17:53.335Z</time></trkpt><trkpt lat="43.9840898" lon="10.8180965"><ele>841.0</ele><time>2026-04-04T13:17:54.334Z</time></trkpt><trkpt lat="43.9840342" lon="10.8182482"><ele>837.8</ele><time>2026-04-04T13:17:56.334Z</time></trkpt><trkpt lat="43.9839513" lon="10.8183497"><ele>834.5999999999999</ele><time>2026-04-04T13:17:58.334Z</time></trkpt><trkpt lat="43.9838327" lon="10.8184177"><ele>831.4</ele><time>2026-04-04T13:18:00.335Z</time></trkpt><trkpt lat="43.9837584" lon="10.8184321"><ele>828.2</ele><time>2026-04-04T13:18:01.335Z</time></trkpt><trkpt lat="43.9836776" lon="10.8184311"><ele>825.0</ele><time>2026-04-04T13:18:02.334Z</time></trkpt><trkpt lat="43.9835921" lon="10.818413"><ele>825.0</ele><time>2026-04-04T13:18:03.334Z</time></trkpt><trkpt lat="43.9835086" lon="10.8183858"><ele>825.0</ele><time>2026-04-04T13:18:04.335Z</time></trkpt><trkpt lat="43.9834337" lon="10.8183463"><ele>825.0</ele><time>2026-04-04T13:18:05.334Z</time></trkpt><trkpt lat="43.9833593" lon="10.8183079"><ele>825.0</ele><time>2026-04-04T13:18:06.333Z</time></trkpt><trkpt lat="43.9832833" lon="10.8182735"><ele>825.0</ele><time>2026-04-04T13:18:07.335Z</time></trkpt><trkpt lat="43.9832025" lon="10.8182475"><ele>825.0</ele><time>2026-04-04T13:18:08.333Z</time></trkpt><trkpt lat="43.983122" lon="10.8182392"><ele>825.1666666666666</ele><time>2026-04-04T13:18:09.335Z</time></trkpt><trkpt lat="43.9830422" lon="10.8182441"><ele>825.3333333333333</ele><time>2026-04-04T13:18:10.334Z</time></trkpt><trkpt lat="43.9829606" lon="10.8182591"><ele>825.5</ele><time>2026-04-04T13:18:11.336Z</time></trkpt><trkpt lat="43.9828721" lon="10.8182853"><ele>825.6666666666666</ele><time>2026-04-04T13:18:12.334Z</time></trkpt><trkpt lat="43.9828106" lon="10.8183526"><ele>825.8333333333333</ele><time>2026-04-04T13:18:13.336Z</time></trkpt><trkpt lat="43.9827505" lon="10.8184153"><ele>826.0</ele><time>2026-04-04T13:18:14.333Z</time></trkpt><trkpt lat="43.9826993" lon="10.8184916"><ele>825.9999999999999</ele><time>2026-04-04T13:18:15.334Z</time></trkpt><trkpt lat="43.9826529" lon="10.8185804"><ele>826.0</ele><time>2026-04-04T13:18:16.334Z</time></trkpt><trkpt lat="43.9826019" lon="10.8186702"><ele>826.0</ele><time>2026-04-04T13:18:17.334Z</time></trkpt><trkpt lat="43.9825624" lon="10.8187659"><ele>826.0</ele><time>2026-04-04T13:18:18.334Z</time></trkpt><trkpt lat="43.9825306" lon="10.8188797"><ele>825.9999999999999</ele><time>2026-04-04T13:18:19.335Z</time></trkpt><trkpt lat="43.982511" lon="10.819014"><ele>826.0</ele><time>2026-04-04T13:18:20.334Z</time></trkpt><trkpt lat="43.9825009" lon="10.8191597"><ele>825.1999999999999</ele><time>2026-04-04T13:18:21.335Z</time></trkpt><trkpt lat="43.9825022" lon="10.819305"><ele>824.4</ele><time>2026-04-04T13:18:22.334Z</time></trkpt><trkpt lat="43.9825136" lon="10.8194541"><ele>823.6</ele><time>2026-04-04T13:18:23.335Z</time></trkpt><trkpt lat="43.9825323" lon="10.8196044"><ele>822.8</ele><time>2026-04-04T13:18:24.334Z</time></trkpt><trkpt lat="43.9825637" lon="10.8197526"><ele>822.0</ele><time>2026-04-04T13:18:25.335Z</time></trkpt><trkpt lat="43.9826113" lon="10.8198938"><ele>822.0</ele><time>2026-04-04T13:18:26.335Z</time></trkpt><trkpt lat="43.9826679" lon="10.8200279"><ele>822.0</ele><time>2026-04-04T13:18:27.334Z</time></trkpt><trkpt lat="43.982729" lon="10.8201533"><ele>822.0</ele><time>2026-04-04T13:18:28.333Z</time></trkpt><trkpt lat="43.9827903" lon="10.8202591"><ele>822.0</ele><time>2026-04-04T13:18:29.334Z</time></trkpt><trkpt lat="43.9828482" lon="10.820344"><ele>822.0</ele><time>2026-04-04T13:18:30.334Z</time></trkpt><trkpt lat="43.9828941" lon="10.8204198"><ele>821.1666666666666</ele><time>2026-04-04T13:18:31.334Z</time></trkpt><trkpt lat="43.9829253" lon="10.8204984"><ele>820.3333333333333</ele><time>2026-04-04T13:18:32.334Z</time></trkpt><trkpt lat="43.9829232" lon="10.8206714"><ele>819.5</ele><time>2026-04-04T13:18:34.333Z</time></trkpt><trkpt lat="43.9828918" lon="10.8207487"><ele>818.6666666666666</ele><time>2026-04-04T13:18:35.334Z</time></trkpt><trkpt lat="43.9828304" lon="10.8208164"><ele>817.8333333333333</ele><time>2026-04-04T13:18:36.334Z</time></trkpt><trkpt lat="43.9827538" lon="10.8208781"><ele>817.0</ele><time>2026-04-04T13:18:37.334Z</time></trkpt><trkpt lat="43.9826794" lon="10.8209421"><ele>818.4000000000001</ele><time>2026-04-04T13:18:38.334Z</time></trkpt><trkpt lat="43.9826068" lon="10.821019"><ele>819.8000000000001</ele><time>2026-04-04T13:18:39.333Z</time></trkpt><trkpt lat="43.9825497" lon="10.8211226"><ele>821.2</ele><time>2026-04-04T13:18:40.333Z</time></trkpt><trkpt lat="43.9825053" lon="10.8212531"><ele>822.6</ele><time>2026-04-04T13:18:41.333Z</time></trkpt><trkpt lat="43.9824772" lon="10.8213952"><ele>824.0</ele><time>2026-04-04T13:18:42.332Z</time></trkpt><trkpt lat="43.9824688" lon="10.8215451"><ele>818.75</ele><time>2026-04-04T13:18:43.334Z</time></trkpt><trkpt lat="43.9824683" lon="10.8216978"><ele>813.5</ele><time>2026-04-04T13:18:44.334Z</time></trkpt><trkpt lat="43.9824649" lon="10.8218655"><ele>808.25</ele><time>2026-04-04T13:18:45.333Z</time></trkpt><trkpt lat="43.9824578" lon="10.8220369"><ele>803.0</ele><time>2026-04-04T13:18:46.333Z</time></trkpt><trkpt lat="43.9824434" lon="10.8221968"><ele>803.0000000000001</ele><time>2026-04-04T13:18:47.333Z</time></trkpt><trkpt lat="43.9824167" lon="10.8223306"><ele>803.0</ele><time>2026-04-04T13:18:48.334Z</time></trkpt><trkpt lat="43.9823819" lon="10.8224477"><ele>803.0</ele><time>2026-04-04T13:18:49.334Z</time></trkpt><trkpt lat="43.9823441" lon="10.8225376"><ele>803.0</ele><time>2026-04-04T13:18:50.333Z</time></trkpt><trkpt lat="43.9822922" lon="10.8226449"><ele>803.0000000000001</ele><time>2026-04-04T13:18:52.334Z</time></trkpt><trkpt lat="43.9822355" lon="10.8226937"><ele>803.0</ele><time>2026-04-04T13:18:55.334Z</time></trkpt><trkpt lat="43.9821699" lon="10.8227384"><ele>803.75</ele><time>2026-04-04T13:20:28.334Z</time></trkpt><trkpt lat="43.9820438" lon="10.8228885"><ele>804.5</ele><time>2026-04-04T13:20:30.335Z</time></trkpt><trkpt lat="43.9819493" lon="10.8229982"><ele>805.25</ele><time>2026-04-04T13:20:31.335Z</time></trkpt><trkpt lat="43.981858" lon="10.823104"><ele>806.0</ele><time>2026-04-04T13:20:32.333Z</time></trkpt><trkpt lat="43.981768" lon="10.8231995"><ele>806.0</ele><time>2026-04-04T13:20:33.334Z</time></trkpt><trkpt lat="43.9816862" lon="10.8232956"><ele>806.0</ele><time>2026-04-04T13:20:34.333Z</time></trkpt><trkpt lat="43.9816172" lon="10.823385"><ele>806.0</ele><time>2026-04-04T13:20:35.334Z</time></trkpt><trkpt lat="43.981553" lon="10.8234744"><ele>806.0</ele><time>2026-04-04T13:20:36.334Z</time></trkpt><trkpt lat="43.981493" lon="10.8235627"><ele>806.0</ele><time>2026-04-04T13:20:37.336Z</time></trkpt><trkpt lat="43.9814294" lon="10.8236537"><ele>803.8333333333334</ele><time>2026-04-04T13:20:38.334Z</time></trkpt><trkpt lat="43.9813686" lon="10.8237488"><ele>801.6666666666667</ele><time>2026-04-04T13:20:39.333Z</time></trkpt><trkpt lat="43.9813113" lon="10.8238418"><ele>799.5</ele><time>2026-04-04T13:20:40.333Z</time></trkpt><trkpt lat="43.9812588" lon="10.8239296"><ele>797.3333333333333</ele><time>2026-04-04T13:20:41.334Z</time></trkpt><trkpt lat="43.9812072" lon="10.8240177"><ele>795.1666666666666</ele><time>2026-04-04T13:20:42.334Z</time></trkpt><trkpt lat="43.9811533" lon="10.8241156"><ele>793.0</ele><time>2026-04-04T13:20:43.335Z</time></trkpt><trkpt lat="43.9810933" lon="10.8242251"><ele>793.5999999999999</ele><time>2026-04-04T13:20:44.333Z</time></trkpt><trkpt lat="43.981038" lon="10.82434"><ele>794.1999999999999</ele><time>2026-04-04T13:20:45.334Z</time></trkpt><trkpt lat="43.9809826" lon="10.8244589"><ele>794.8</ele><time>2026-04-04T13:20:46.335Z</time></trkpt><trkpt lat="43.9809199" lon="10.8245826"><ele>795.4</ele><time>2026-04-04T13:20:47.334Z</time></trkpt><trkpt lat="43.9808554" lon="10.8247125"><ele>796.0</ele><time>2026-04-04T13:20:48.334Z</time></trkpt><trkpt lat="43.9807948" lon="10.8248506"><ele>793.75</ele><time>2026-04-04T13:20:49.335Z</time></trkpt><trkpt lat="43.9807302" lon="10.8249899"><ele>791.5</ele><time>2026-04-04T13:20:50.334Z</time></trkpt><trkpt lat="43.9806635" lon="10.8251282"><ele>789.25</ele><time>2026-04-04T13:20:51.335Z</time></trkpt><trkpt lat="43.9805938" lon="10.8252713"><ele>787.0</ele><time>2026-04-04T13:20:52.334Z</time></trkpt><trkpt lat="43.9805237" lon="10.825414"><ele>787.0</ele><time>2026-04-04T13:20:53.335Z</time></trkpt><trkpt lat="43.9804602" lon="10.8255588"><ele>787.0</ele><time>2026-04-04T13:20:54.335Z</time></trkpt><trkpt lat="43.9803936" lon="10.8257023"><ele>787.0</ele><time>2026-04-04T13:20:55.334Z</time></trkpt><trkpt lat="43.9803252" lon="10.8258342"><ele>787.0</ele><time>2026-04-04T13:20:56.334Z</time></trkpt><trkpt lat="43.9802578" lon="10.8259604"><ele>786.0</ele><time>2026-04-04T13:20:57.335Z</time></trkpt><trkpt lat="43.9801938" lon="10.8260821"><ele>785.0</ele><time>2026-04-04T13:20:58.334Z</time></trkpt><trkpt lat="43.9801325" lon="10.8261939"><ele>784.0</ele><time>2026-04-04T13:20:59.333Z</time></trkpt><trkpt lat="43.9800783" lon="10.8262961"><ele>783.0</ele><time>2026-04-04T13:21:00.333Z</time></trkpt><trkpt lat="43.9800282" lon="10.8263968"><ele>782.0</ele><time>2026-04-04T13:21:01.333Z</time></trkpt><trkpt lat="43.9799733" lon="10.8264988"><ele>779.6</ele><time>2026-04-04T13:21:02.334Z</time></trkpt><trkpt lat="43.9799097" lon="10.8265957"><ele>777.2</ele><time>2026-04-04T13:21:03.335Z</time></trkpt><trkpt lat="43.9798376" lon="10.8266862"><ele>774.8</ele><time>2026-04-04T13:21:04.333Z</time></trkpt><trkpt lat="43.9797692" lon="10.8267606"><ele>772.4</ele><time>2026-04-04T13:21:05.334Z</time></trkpt><trkpt lat="43.979711" lon="10.8268199"><ele>770.0</ele><time>2026-04-04T13:21:06.335Z</time></trkpt><trkpt lat="43.9796245" lon="10.8268994"><ele>769.0</ele><time>2026-04-04T13:21:08.332Z</time></trkpt><trkpt lat="43.9795463" lon="10.8269628"><ele>768.0</ele><time>2026-04-04T13:21:10.333Z</time></trkpt><trkpt lat="43.9794693" lon="10.827053"><ele>767.0</ele><time>2026-04-04T13:21:12.334Z</time></trkpt><trkpt lat="43.9793629" lon="10.8271617"><ele>766.0</ele><time>2026-04-04T13:21:14.334Z</time></trkpt><trkpt lat="43.9792929" lon="10.8272181"><ele>765.0</ele><time>2026-04-04T13:21:15.334Z</time></trkpt><trkpt lat="43.9792079" lon="10.8272841"><ele>765.0</ele><time>2026-04-04T13:21:16.334Z</time></trkpt><trkpt lat="43.9791181" lon="10.8273646"><ele>765.0</ele><time>2026-04-04T13:21:17.336Z</time></trkpt><trkpt lat="43.9790189" lon="10.8274609"><ele>765.0</ele><time>2026-04-04T13:21:18.336Z</time></trkpt><trkpt lat="43.978913" lon="10.8275679"><ele>765.0</ele><time>2026-04-04T13:21:19.335Z</time></trkpt><trkpt lat="43.9788129" lon="10.8276834"><ele>763.0</ele><time>2026-04-04T13:21:20.333Z</time></trkpt><trkpt lat="43.978715" lon="10.8277957"><ele>761.0</ele><time>2026-04-04T13:21:21.335Z</time></trkpt><trkpt lat="43.9786222" lon="10.8278975"><ele>759.0</ele><time>2026-04-04T13:21:22.334Z</time></trkpt><trkpt lat="43.9785347" lon="10.8279887"><ele>757.0</ele><time>2026-04-04T13:21:23.334Z</time></trkpt><trkpt lat="43.9784565" lon="10.8280772"><ele>757.0</ele><time>2026-04-04T13:21:24.334Z</time></trkpt><trkpt lat="43.9783834" lon="10.8281634"><ele>757.0</ele><time>2026-04-04T13:21:25.335Z</time></trkpt><trkpt lat="43.9783193" lon="10.8282489"><ele>757.0</ele><time>2026-04-04T13:21:26.335Z</time></trkpt><trkpt lat="43.9782582" lon="10.8283306"><ele>757.0</ele><time>2026-04-04T13:21:27.334Z</time></trkpt><trkpt lat="43.9781931" lon="10.8284132"><ele>757.0</ele><time>2026-04-04T13:21:28.334Z</time></trkpt><trkpt lat="43.9781252" lon="10.8284972"><ele>757.0</ele><time>2026-04-04T13:21:29.335Z</time></trkpt><trkpt lat="43.9780538" lon="10.8285935"><ele>757.0</ele><time>2026-04-04T13:21:30.335Z</time></trkpt><trkpt lat="43.9779765" lon="10.8287008"><ele>757.0</ele><time>2026-04-04T13:21:31.334Z</time></trkpt><trkpt lat="43.9778921" lon="10.82882"><ele>757.0</ele><time>2026-04-04T13:21:32.334Z</time></trkpt><trkpt lat="43.9777994" lon="10.8289428"><ele>757.0</ele><time>2026-04-04T13:21:33.333Z</time></trkpt><trkpt lat="43.9776932" lon="10.8290635"><ele>757.0</ele><time>2026-04-04T13:21:34.334Z</time></trkpt><trkpt lat="43.9775757" lon="10.8291858"><ele>757.0</ele><time>2026-04-04T13:21:35.333Z</time></trkpt><trkpt lat="43.9774532" lon="10.8293151"><ele>757.0</ele><time>2026-04-04T13:21:36.334Z</time></trkpt><trkpt lat="43.9773329" lon="10.8294519"><ele>759.6666666666667</ele><time>2026-04-04T13:21:37.335Z</time></trkpt><trkpt lat="43.9772141" lon="10.8295859"><ele>762.3333333333334</ele><time>2026-04-04T13:21:38.333Z</time></trkpt><trkpt lat="43.9770982" lon="10.829721"><ele>765.0</ele><time>2026-04-04T13:21:39.334Z</time></trkpt><trkpt lat="43.9769856" lon="10.8298564"><ele>765.0</ele><time>2026-04-04T13:21:40.333Z</time></trkpt><trkpt lat="43.9768766" lon="10.8299969"><ele>765.0</ele><time>2026-04-04T13:21:41.331Z</time></trkpt><trkpt lat="43.976768" lon="10.8301387"><ele>765.0</ele><time>2026-04-04T13:21:42.333Z</time></trkpt><trkpt lat="43.9766593" lon="10.8302752"><ele>765.0</ele><time>2026-04-04T13:21:43.335Z</time></trkpt><trkpt lat="43.9765545" lon="10.8304051"><ele>767.4</ele><time>2026-04-04T13:21:44.333Z</time></trkpt><trkpt lat="43.9764629" lon="10.8305236"><ele>769.8</ele><time>2026-04-04T13:21:45.335Z</time></trkpt><trkpt lat="43.9763807" lon="10.8306349"><ele>772.2</ele><time>2026-04-04T13:21:46.335Z</time></trkpt><trkpt lat="43.9763174" lon="10.8307332"><ele>774.6</ele><time>2026-04-04T13:21:47.334Z</time></trkpt><trkpt lat="43.976266" lon="10.830827"><ele>777.0</ele><time>2026-04-04T13:21:48.335Z</time></trkpt><trkpt lat="43.9762229" lon="10.830918"><ele>776.0</ele><time>2026-04-04T13:21:49.335Z</time></trkpt><trkpt lat="43.9761771" lon="10.8310065"><ele>775.0</ele><time>2026-04-04T13:21:50.333Z</time></trkpt><trkpt lat="43.9761284" lon="10.8311081"><ele>774.0</ele><time>2026-04-04T13:21:51.332Z</time></trkpt><trkpt lat="43.9760718" lon="10.8312114"><ele>773.0</ele><time>2026-04-04T13:21:52.333Z</time></trkpt><trkpt lat="43.9760041" lon="10.8313162"><ele>772.0</ele><time>2026-04-04T13:21:53.334Z</time></trkpt><trkpt lat="43.9759279" lon="10.8314228"><ele>771.5</ele><time>2026-04-04T13:21:54.333Z</time></trkpt><trkpt lat="43.9758395" lon="10.8315341"><ele>771.0</ele><time>2026-04-04T13:21:55.334Z</time></trkpt><trkpt lat="43.9757414" lon="10.8316506"><ele>770.5</ele><time>2026-04-04T13:21:56.333Z</time></trkpt><trkpt lat="43.9756344" lon="10.8317763"><ele>770.0</ele><time>2026-04-04T13:21:57.333Z</time></trkpt><trkpt lat="43.9755189" lon="10.8319088"><ele>768.5</ele><time>2026-04-04T13:21:58.334Z</time></trkpt><trkpt lat="43.9753994" lon="10.8320446"><ele>767.0</ele><time>2026-04-04T13:21:59.333Z</time></trkpt><trkpt lat="43.975281" lon="10.8321718"><ele>765.5</ele><time>2026-04-04T13:22:00.335Z</time></trkpt><trkpt lat="43.9751663" lon="10.8322857"><ele>764.0</ele><time>2026-04-04T13:22:01.337Z</time></trkpt><trkpt lat="43.9750515" lon="10.8324017"><ele>765.25</ele><time>2026-04-04T13:22:02.334Z</time></trkpt><trkpt lat="43.9749364" lon="10.832522"><ele>766.5</ele><time>2026-04-04T13:22:03.333Z</time></trkpt><trkpt lat="43.97482" lon="10.832645"><ele>767.75</ele><time>2026-04-04T13:22:04.334Z</time></trkpt><trkpt lat="43.9747036" lon="10.8327672"><ele>769.0</ele><time>2026-04-04T13:22:05.333Z</time></trkpt><trkpt lat="43.9745913" lon="10.8328819"><ele>767.0</ele><time>2026-04-04T13:22:06.333Z</time></trkpt><trkpt lat="43.9744826" lon="10.832985"><ele>765.0</ele><time>2026-04-04T13:22:07.334Z</time></trkpt><trkpt lat="43.9743749" lon="10.833085"><ele>763.0</ele><time>2026-04-04T13:22:08.334Z</time></trkpt><trkpt lat="43.9742695" lon="10.8331802"><ele>761.0</ele><time>2026-04-04T13:22:09.334Z</time></trkpt><trkpt lat="43.9741655" lon="10.8332696"><ele>761.0</ele><time>2026-04-04T13:22:10.335Z</time></trkpt><trkpt lat="43.9740559" lon="10.8333584"><ele>761.0</ele><time>2026-04-04T13:22:11.336Z</time></trkpt><trkpt lat="43.9739414" lon="10.8334453"><ele>761.0</ele><time>2026-04-04T13:22:12.333Z</time></trkpt><trkpt lat="43.9738175" lon="10.8335401"><ele>761.0</ele><time>2026-04-04T13:22:13.334Z</time></trkpt><trkpt lat="43.9736958" lon="10.8336326"><ele>758.5</ele><time>2026-04-04T13:22:14.333Z</time></trkpt><trkpt lat="43.9735813" lon="10.833727"><ele>756.0</ele><time>2026-04-04T13:22:15.334Z</time></trkpt><trkpt lat="43.973471" lon="10.8338183"><ele>753.5</ele><time>2026-04-04T13:22:16.334Z</time></trkpt><trkpt lat="43.9733691" lon="10.8339104"><ele>751.0</ele><time>2026-04-04T13:22:17.333Z</time></trkpt><trkpt lat="43.973274" lon="10.8340065"><ele>751.0</ele><time>2026-04-04T13:22:18.334Z</time></trkpt><trkpt lat="43.9731867" lon="10.8341107"><ele>751.0</ele><time>2026-04-04T13:22:19.335Z</time></trkpt><trkpt lat="43.9731081" lon="10.8342351"><ele>751.0</ele><time>2026-04-04T13:22:20.334Z</time></trkpt><trkpt lat="43.9730442" lon="10.834379"><ele>751.0</ele><time>2026-04-04T13:22:21.334Z</time></trkpt><trkpt lat="43.972989" lon="10.8345323"><ele>749.8</ele><time>2026-04-04T13:22:22.334Z</time></trkpt><trkpt lat="43.9729396" lon="10.8346804"><ele>748.5999999999999</ele><time>2026-04-04T13:22:23.333Z</time></trkpt><trkpt lat="43.9728935" lon="10.8348179"><ele>747.4</ele><time>2026-04-04T13:22:24.332Z</time></trkpt><trkpt lat="43.9728468" lon="10.834949"><ele>746.2</ele><time>2026-04-04T13:22:25.334Z</time></trkpt><trkpt lat="43.972807" lon="10.8350718"><ele>745.0</ele><time>2026-04-04T13:22:26.334Z</time></trkpt><trkpt lat="43.9727759" lon="10.8351813"><ele>743.8333333333334</ele><time>2026-04-04T13:22:27.334Z</time></trkpt><trkpt lat="43.9727507" lon="10.8352685"><ele>742.6666666666667</ele><time>2026-04-04T13:22:28.333Z</time></trkpt><trkpt lat="43.9727386" lon="10.835375"><ele>741.5</ele><time>2026-04-04T13:22:30.333Z</time></trkpt><trkpt lat="43.9727421" lon="10.8354691"><ele>740.3333333333334</ele><time>2026-04-04T13:22:33.333Z</time></trkpt><trkpt lat="43.9727368" lon="10.8355806"><ele>739.1666666666666</ele><time>2026-04-04T13:22:37.334Z</time></trkpt><trkpt lat="43.9727271" lon="10.8356678"><ele>738.0</ele><time>2026-04-04T13:22:39.334Z</time></trkpt><trkpt lat="43.9726487" lon="10.8357774"><ele>738.0</ele><time>2026-04-04T13:22:41.334Z</time></trkpt><trkpt lat="43.9725536" lon="10.8358363"><ele>738.0</ele><time>2026-04-04T13:22:43.335Z</time></trkpt><trkpt lat="43.9724293" lon="10.8358521"><ele>738.0</ele><time>2026-04-04T13:22:45.335Z</time></trkpt><trkpt lat="43.972362" lon="10.8358501"><ele>738.0</ele><time>2026-04-04T13:22:46.334Z</time></trkpt><trkpt lat="43.9722457" lon="10.8358363"><ele>738.0</ele><time>2026-04-04T13:22:48.335Z</time></trkpt><trkpt lat="43.972142" lon="10.8358565"><ele>737.5999999999999</ele><time>2026-04-04T13:22:50.334Z</time></trkpt><trkpt lat="43.9720304" lon="10.83593"><ele>737.1999999999999</ele><time>2026-04-04T13:22:52.335Z</time></trkpt><trkpt lat="43.9719528" lon="10.8359826"><ele>736.8</ele><time>2026-04-04T13:22:53.334Z</time></trkpt><trkpt lat="43.9718749" lon="10.8360356"><ele>736.4</ele><time>2026-04-04T13:22:54.335Z</time></trkpt><trkpt lat="43.9718088" lon="10.8360955"><ele>736.0</ele><time>2026-04-04T13:22:55.334Z</time></trkpt><trkpt lat="43.9717447" lon="10.8361609"><ele>739.1666666666667</ele><time>2026-04-04T13:22:56.334Z</time></trkpt><trkpt lat="43.9716754" lon="10.8362246"><ele>742.3333333333334</ele><time>2026-04-04T13:22:57.335Z</time></trkpt><trkpt lat="43.9716027" lon="10.8362777"><ele>745.5</ele><time>2026-04-04T13:22:58.335Z</time></trkpt><trkpt lat="43.9715261" lon="10.8363276"><ele>748.6666666666666</ele><time>2026-04-04T13:22:59.335Z</time></trkpt><trkpt lat="43.9714442" lon="10.8363839"><ele>751.8333333333333</ele><time>2026-04-04T13:23:00.336Z</time></trkpt><trkpt lat="43.9713698" lon="10.8364382"><ele>755.0</ele><time>2026-04-04T13:23:01.335Z</time></trkpt><trkpt lat="43.9712921" lon="10.8364946"><ele>755.0</ele><time>2026-04-04T13:23:02.334Z</time></trkpt><trkpt lat="43.9712096" lon="10.8365528"><ele>755.0</ele><time>2026-04-04T13:23:03.335Z</time></trkpt><trkpt lat="43.971122" lon="10.8366097"><ele>755.0</ele><time>2026-04-04T13:23:04.336Z</time></trkpt><trkpt lat="43.9710362" lon="10.8366564"><ele>755.0</ele><time>2026-04-04T13:23:05.335Z</time></trkpt><trkpt lat="43.9709531" lon="10.8366949"><ele>755.0</ele><time>2026-04-04T13:23:06.334Z</time></trkpt><trkpt lat="43.9708645" lon="10.8367215"><ele>757.8333333333333</ele><time>2026-04-04T13:23:07.337Z</time></trkpt><trkpt lat="43.9707756" lon="10.8367347"><ele>760.6666666666666</ele><time>2026-04-04T13:23:08.335Z</time></trkpt><trkpt lat="43.9706922" lon="10.8367451"><ele>763.5</ele><time>2026-04-04T13:23:09.334Z</time></trkpt><trkpt lat="43.9706205" lon="10.8367566"><ele>766.3333333333333</ele><time>2026-04-04T13:23:10.336Z</time></trkpt><trkpt lat="43.9705547" lon="10.8367582"><ele>769.1666666666666</ele><time>2026-04-04T13:23:11.334Z</time></trkpt><trkpt lat="43.9704899" lon="10.8367461"><ele>772.0</ele><time>2026-04-04T13:23:12.336Z</time></trkpt><trkpt lat="43.9703869" lon="10.8367005"><ele>771.9999999999999</ele><time>2026-04-04T13:23:14.334Z</time></trkpt><trkpt lat="43.9702904" lon="10.8366311"><ele>772.0</ele><time>2026-04-04T13:23:16.333Z</time></trkpt><trkpt lat="43.9701749" lon="10.8365682"><ele>772.0</ele><time>2026-04-04T13:23:18.333Z</time></trkpt><trkpt lat="43.9701118" lon="10.8365346"><ele>772.0</ele><time>2026-04-04T13:23:19.336Z</time></trkpt><trkpt lat="43.9700445" lon="10.8364991"><ele>771.9999999999999</ele><time>2026-04-04T13:23:20.335Z</time></trkpt><trkpt lat="43.96998" lon="10.8364625"><ele>772.0</ele><time>2026-04-04T13:23:21.334Z</time></trkpt><trkpt lat="43.9699178" lon="10.8364291"><ele>771.5</ele><time>2026-04-04T13:23:22.334Z</time></trkpt><trkpt lat="43.9698" lon="10.8364042"><ele>771.0</ele><time>2026-04-04T13:23:24.335Z</time></trkpt><trkpt lat="43.9696933" lon="10.8364417"><ele>770.5</ele><time>2026-04-04T13:23:26.333Z</time></trkpt><trkpt lat="43.9696" lon="10.83653"><ele>770.0</ele><time>2026-04-04T13:23:28.335Z</time></trkpt><trkpt lat="43.9695067" lon="10.83663"><ele>770.0</ele><time>2026-04-04T13:23:30.335Z</time></trkpt><trkpt lat="43.9694183" lon="10.8367517"><ele>770.0</ele><time>2026-04-04T13:23:32.333Z</time></trkpt><trkpt lat="43.96937" lon="10.8368167"><ele>770.0</ele><time>2026-04-04T13:23:33.334Z</time></trkpt><trkpt lat="43.969285" lon="10.83693"><ele>770.0</ele><time>2026-04-04T13:23:35.335Z</time></trkpt><trkpt lat="43.9692" lon="10.8370233"><ele>770.0</ele><time>2026-04-04T13:23:37.335Z</time></trkpt><trkpt lat="43.9691233" lon="10.8370917"><ele>765.8</ele><time>2026-04-04T13:23:39.334Z</time></trkpt><trkpt lat="43.9690167" lon="10.8371617"><ele>761.6</ele><time>2026-04-04T13:23:41.333Z</time></trkpt><trkpt lat="43.9689083" lon="10.837245"><ele>757.4000000000001</ele><time>2026-04-04T13:23:43.335Z</time></trkpt><trkpt lat="43.9688217" lon="10.8373333"><ele>753.2</ele><time>2026-04-04T13:23:45.334Z</time></trkpt><trkpt lat="43.9687533" lon="10.8374183"><ele>749.0</ele><time>2026-04-04T13:23:47.334Z</time></trkpt><trkpt lat="43.9686833" lon="10.837505"><ele>749.0</ele><time>2026-04-04T13:23:49.334Z</time></trkpt><trkpt lat="43.9686183" lon="10.8376317"><ele>749.0</ele><time>2026-04-04T13:23:51.334Z</time></trkpt><trkpt lat="43.96857" lon="10.83777"><ele>749.0</ele><time>2026-04-04T13:23:53.334Z</time></trkpt><trkpt lat="43.96852" lon="10.8379017"><ele>749.0</ele><time>2026-04-04T13:23:55.335Z</time></trkpt><trkpt lat="43.968445" lon="10.8380467"><ele>748.8333333333333</ele><time>2026-04-04T13:23:57.334Z</time></trkpt><trkpt lat="43.9683883" lon="10.8381233"><ele>748.6666666666666</ele><time>2026-04-04T13:23:58.335Z</time></trkpt><trkpt lat="43.9683367" lon="10.83819"><ele>748.5</ele><time>2026-04-04T13:23:59.334Z</time></trkpt><trkpt lat="43.9682833" lon="10.83825"><ele>748.3333333333334</ele><time>2026-04-04T13:24:00.334Z</time></trkpt><trkpt lat="43.9682383" lon="10.8383133"><ele>748.1666666666667</ele><time>2026-04-04T13:24:01.336Z</time></trkpt><trkpt lat="43.968175" lon="10.8384167"><ele>748.0</ele><time>2026-04-04T13:24:03.334Z</time></trkpt><trkpt lat="43.968115" lon="10.8384867"><ele>748.0</ele><time>2026-04-04T13:24:05.333Z</time></trkpt><trkpt lat="43.96804" lon="10.83851"><ele>748.0</ele><time>2026-04-04T13:24:07.334Z</time></trkpt><trkpt lat="43.9679417" lon="10.83848"><ele>748.0</ele><time>2026-04-04T13:24:09.335Z</time></trkpt><trkpt lat="43.967875" lon="10.8384633"><ele>748.0</ele><time>2026-04-04T13:24:10.335Z</time></trkpt><trkpt lat="43.9678117" lon="10.838445"><ele>748.0</ele><time>2026-04-04T13:24:11.335Z</time></trkpt><trkpt lat="43.96769" lon="10.8383933"><ele>748.0</ele><time>2026-04-04T13:24:13.335Z</time></trkpt><trkpt lat="43.9676217" lon="10.8383433"><ele>748.0</ele><time>2026-04-04T13:24:14.333Z</time></trkpt><trkpt lat="43.96756" lon="10.838275"><ele>748.0</ele><time>2026-04-04T13:24:15.335Z</time></trkpt><trkpt lat="43.9675083" lon="10.8382133"><ele>748.0</ele><time>2026-04-04T13:24:16.335Z</time></trkpt><trkpt lat="43.9674217" lon="10.838115"><ele>748.0</ele><time>2026-04-04T13:24:18.335Z</time></trkpt><trkpt lat="43.9673383" lon="10.8380667"><ele>748.0</ele><time>2026-04-04T13:24:20.334Z</time></trkpt><trkpt lat="43.9672483" lon="10.83803"><ele>748.0</ele><time>2026-04-04T13:24:22.333Z</time></trkpt><trkpt lat="43.96718" lon="10.8380383"><ele>747.0</ele><time>2026-04-04T13:24:24.333Z</time></trkpt><trkpt lat="43.9671017" lon="10.83807"><ele>746.0</ele><time>2026-04-04T13:24:26.335Z</time></trkpt><trkpt lat="43.967025" lon="10.8380967"><ele>745.0</ele><time>2026-04-04T13:24:28.334Z</time></trkpt><trkpt lat="43.966945" lon="10.8381383"><ele>744.0</ele><time>2026-04-04T13:24:30.335Z</time></trkpt><trkpt lat="43.9668667" lon="10.838175"><ele>743.0</ele><time>2026-04-04T13:24:32.334Z</time></trkpt><trkpt lat="43.9667933" lon="10.8382333"><ele>742.0</ele><time>2026-04-04T13:24:34.335Z</time></trkpt><trkpt lat="43.966715" lon="10.8383183"><ele>738.0</ele><time>2026-04-04T13:24:36.334Z</time></trkpt><trkpt lat="43.9666417" lon="10.838395"><ele>734.0</ele><time>2026-04-04T13:24:38.333Z</time></trkpt><trkpt lat="43.9665583" lon="10.838445"><ele>730.0</ele><time>2026-04-04T13:24:40.335Z</time></trkpt><trkpt lat="43.96648" lon="10.83845"><ele>726.0</ele><time>2026-04-04T13:24:42.336Z</time></trkpt><trkpt lat="43.9664017" lon="10.83843"><ele>722.0</ele><time>2026-04-04T13:24:44.334Z</time></trkpt><trkpt lat="43.96633" lon="10.838415"><ele>718.0</ele><time>2026-04-04T13:24:46.335Z</time></trkpt><trkpt lat="43.96625" lon="10.8384383"><ele>715.0</ele><time>2026-04-04T13:24:48.335Z</time></trkpt><trkpt lat="43.9661467" lon="10.8384817"><ele>712.0</ele><time>2026-04-04T13:24:50.334Z</time></trkpt><trkpt lat="43.9660533" lon="10.8385467"><ele>709.0</ele><time>2026-04-04T13:24:52.335Z</time></trkpt><trkpt lat="43.9659867" lon="10.838615"><ele>706.0</ele><time>2026-04-04T13:24:54.333Z</time></trkpt><trkpt lat="43.9659083" lon="10.83863"><ele>703.0</ele><time>2026-04-04T13:24:56.334Z</time></trkpt><trkpt lat="43.9657983" lon="10.8385683"><ele>702.6666666666667</ele><time>2026-04-04T13:24:58.333Z</time></trkpt><trkpt lat="43.96573" lon="10.8385383"><ele>702.3333333333334</ele><time>2026-04-04T13:24:59.333Z</time></trkpt><trkpt lat="43.965655" lon="10.8385183"><ele>702.0</ele><time>2026-04-04T13:25:00.333Z</time></trkpt><trkpt lat="43.9655867" lon="10.83852"><ele>701.6666666666666</ele><time>2026-04-04T13:25:01.334Z</time></trkpt><trkpt lat="43.9655233" lon="10.83854"><ele>701.3333333333333</ele><time>2026-04-04T13:25:02.334Z</time></trkpt><trkpt lat="43.96544" lon="10.83861"><ele>701.0</ele><time>2026-04-04T13:25:04.333Z</time></trkpt><trkpt lat="43.965375" lon="10.838665"><ele>701.0</ele><time>2026-04-04T13:25:07.335Z</time></trkpt><trkpt lat="43.9652883" lon="10.838685"><ele>701.0</ele><time>2026-04-04T13:25:10.335Z</time></trkpt><trkpt lat="43.9651933" lon="10.838705"><ele>701.0</ele><time>2026-04-04T13:25:12.335Z</time></trkpt><trkpt lat="43.9650917" lon="10.8386817"><ele>701.0</ele><time>2026-04-04T13:25:14.335Z</time></trkpt><trkpt lat="43.9649917" lon="10.8386417"><ele>701.0</ele><time>2026-04-04T13:25:16.335Z</time></trkpt><trkpt lat="43.9648983" lon="10.8386033"><ele>699.5</ele><time>2026-04-04T13:25:18.334Z</time></trkpt><trkpt lat="43.9648267" lon="10.8385467"><ele>698.0</ele><time>2026-04-04T13:25:20.334Z</time></trkpt><trkpt lat="43.9647517" lon="10.8384967"><ele>696.5</ele><time>2026-04-04T13:25:22.335Z</time></trkpt><trkpt lat="43.9646867" lon="10.83843"><ele>695.0</ele><time>2026-04-04T13:25:24.335Z</time></trkpt><trkpt lat="43.9646233" lon="10.838385"><ele>693.5</ele><time>2026-04-04T13:25:26.334Z</time></trkpt><trkpt lat="43.964535" lon="10.83834"><ele>692.0</ele><time>2026-04-04T13:25:28.335Z</time></trkpt><trkpt lat="43.9644433" lon="10.8383233"><ele>692.0</ele><time>2026-04-04T13:25:30.334Z</time></trkpt><trkpt lat="43.9643467" lon="10.8383133"><ele>692.0</ele><time>2026-04-04T13:25:32.334Z</time></trkpt><trkpt lat="43.964285" lon="10.83835"><ele>692.0</ele><time>2026-04-04T13:25:34.335Z</time></trkpt><trkpt lat="43.96424" lon="10.83844"><ele>692.0</ele><time>2026-04-04T13:25:36.335Z</time></trkpt><trkpt lat="43.9642033" lon="10.838545"><ele>692.0</ele><time>2026-04-04T13:25:39.333Z</time></trkpt><trkpt lat="43.9641383" lon="10.8385917"><ele>692.0</ele><time>2026-04-04T13:25:43.334Z</time></trkpt><trkpt lat="43.9640767" lon="10.8384633"><ele>688.2</ele><time>2026-04-04T13:28:56.336Z</time></trkpt><trkpt lat="43.9640267" lon="10.838405"><ele>684.4000000000001</ele><time>2026-04-04T13:29:25.336Z</time></trkpt><trkpt lat="43.9639333" lon="10.838355"><ele>680.5999999999999</ele><time>2026-04-04T13:29:27.336Z</time></trkpt><trkpt lat="43.9638217" lon="10.8383"><ele>676.8</ele><time>2026-04-04T13:29:29.336Z</time></trkpt><trkpt lat="43.9637267" lon="10.8382333"><ele>673.0</ele><time>2026-04-04T13:29:31.335Z</time></trkpt><trkpt lat="43.9636083" lon="10.838145"><ele>673.0</ele><time>2026-04-04T13:29:33.339Z</time></trkpt><trkpt lat="43.9634833" lon="10.8380517"><ele>673.0</ele><time>2026-04-04T13:29:35.335Z</time></trkpt><trkpt lat="43.9634033" lon="10.8379983"><ele>673.0</ele><time>2026-04-04T13:29:36.336Z</time></trkpt><trkpt lat="43.9633333" lon="10.83796"><ele>673.0</ele><time>2026-04-04T13:29:37.335Z</time></trkpt><trkpt lat="43.9632667" lon="10.8379133"><ele>673.0</ele><time>2026-04-04T13:29:38.334Z</time></trkpt><trkpt lat="43.9631917" lon="10.8378583"><ele>670.3333333333334</ele><time>2026-04-04T13:29:39.335Z</time></trkpt><trkpt lat="43.963115" lon="10.8378"><ele>667.6666666666667</ele><time>2026-04-04T13:29:40.334Z</time></trkpt><trkpt lat="43.9630483" lon="10.8377383"><ele>665.0</ele><time>2026-04-04T13:29:41.333Z</time></trkpt><trkpt lat="43.962995" lon="10.8376833"><ele>662.3333333333334</ele><time>2026-04-04T13:29:42.336Z</time></trkpt><trkpt lat="43.962905" lon="10.8375667"><ele>659.6666666666666</ele><time>2026-04-04T13:29:44.334Z</time></trkpt><trkpt lat="43.9628667" lon="10.8374833"><ele>657.0</ele><time>2026-04-04T13:29:45.334Z</time></trkpt><trkpt lat="43.9628333" lon="10.837405"><ele>657.0</ele><time>2026-04-04T13:29:46.335Z</time></trkpt><trkpt lat="43.9627917" lon="10.8372933"><ele>657.0</ele><time>2026-04-04T13:29:48.334Z</time></trkpt><trkpt lat="43.9627" lon="10.83722"><ele>657.0</ele><time>2026-04-04T13:29:50.334Z</time></trkpt><trkpt lat="43.9626367" lon="10.837185"><ele>657.0</ele><time>2026-04-04T13:29:51.334Z</time></trkpt><trkpt lat="43.962555" lon="10.83715"><ele>657.0</ele><time>2026-04-04T13:29:52.335Z</time></trkpt><trkpt lat="43.9624683" lon="10.8371183"><ele>657.0</ele><time>2026-04-04T13:29:53.335Z</time></trkpt><trkpt lat="43.9623867" lon="10.837095"><ele>655.8333333333334</ele><time>2026-04-04T13:29:54.335Z</time></trkpt><trkpt lat="43.962305" lon="10.8370717"><ele>654.6666666666666</ele><time>2026-04-04T13:29:55.336Z</time></trkpt><trkpt lat="43.962225" lon="10.8370467"><ele>653.5</ele><time>2026-04-04T13:29:56.336Z</time></trkpt><trkpt lat="43.96215" lon="10.837035"><ele>652.3333333333333</ele><time>2026-04-04T13:29:57.336Z</time></trkpt><trkpt lat="43.9620833" lon="10.837005"><ele>651.1666666666666</ele><time>2026-04-04T13:29:58.336Z</time></trkpt><trkpt lat="43.9620217" lon="10.8369817"><ele>650.0</ele><time>2026-04-04T13:29:59.336Z</time></trkpt><trkpt lat="43.9619333" lon="10.8369733"><ele>650.0</ele><time>2026-04-04T13:30:01.336Z</time></trkpt><trkpt lat="43.96186" lon="10.8369883"><ele>650.0</ele><time>2026-04-04T13:30:03.335Z</time></trkpt><trkpt lat="43.9617833" lon="10.8370317"><ele>650.0</ele><time>2026-04-04T13:30:05.334Z</time></trkpt><trkpt lat="43.961695" lon="10.8370683"><ele>650.0</ele><time>2026-04-04T13:30:07.334Z</time></trkpt><trkpt lat="43.96162" lon="10.8370917"><ele>650.0</ele><time>2026-04-04T13:30:09.333Z</time></trkpt><trkpt lat="43.9615217" lon="10.8371617"><ele>650.0</ele><time>2026-04-04T13:30:11.334Z</time></trkpt><trkpt lat="43.9614183" lon="10.837225"><ele>648.25</ele><time>2026-04-04T13:30:13.335Z</time></trkpt><trkpt lat="43.9613117" lon="10.837275"><ele>646.5</ele><time>2026-04-04T13:30:15.334Z</time></trkpt><trkpt lat="43.9611983" lon="10.83732"><ele>644.75</ele><time>2026-04-04T13:30:17.333Z</time></trkpt><trkpt lat="43.9610783" lon="10.8373517"><ele>643.0</ele><time>2026-04-04T13:30:19.335Z</time></trkpt><trkpt lat="43.9609633" lon="10.8373583"><ele>643.0</ele><time>2026-04-04T13:30:21.333Z</time></trkpt><trkpt lat="43.96087" lon="10.8372833"><ele>643.0</ele><time>2026-04-04T13:30:23.334Z</time></trkpt><trkpt lat="43.9607967" lon="10.837175"><ele>643.0</ele><time>2026-04-04T13:30:25.336Z</time></trkpt><trkpt lat="43.960725" lon="10.8371117"><ele>643.0</ele><time>2026-04-04T13:30:27.334Z</time></trkpt><trkpt lat="43.960625" lon="10.8371067"><ele>643.0</ele><time>2026-04-04T13:30:29.335Z</time></trkpt><trkpt lat="43.96054" lon="10.83717"><ele>641.8333333333334</ele><time>2026-04-04T13:30:31.334Z</time></trkpt><trkpt lat="43.9605183" lon="10.8372867"><ele>640.6666666666667</ele><time>2026-04-04T13:30:34.333Z</time></trkpt><trkpt lat="43.9605217" lon="10.8373783"><ele>639.5</ele><time>2026-04-04T13:30:36.335Z</time></trkpt><trkpt lat="43.960505" lon="10.8375167"><ele>638.3333333333334</ele><time>2026-04-04T13:30:39.333Z</time></trkpt><trkpt lat="43.96049" lon="10.8376167"><ele>637.1666666666666</ele><time>2026-04-04T13:30:41.333Z</time></trkpt><trkpt lat="43.9604567" lon="10.8377133"><ele>636.0</ele><time>2026-04-04T13:30:43.333Z</time></trkpt><trkpt lat="43.9604017" lon="10.83779"><ele>631.8</ele><time>2026-04-04T13:30:46.335Z</time></trkpt><trkpt lat="43.9603183" lon="10.8378517"><ele>627.6</ele><time>2026-04-04T13:30:53.335Z</time></trkpt><trkpt lat="43.9602367" lon="10.83795"><ele>623.4</ele><time>2026-04-04T13:30:55.334Z</time></trkpt><trkpt lat="43.9601583" lon="10.8380417"><ele>619.2</ele><time>2026-04-04T13:30:57.334Z</time></trkpt><trkpt lat="43.960075" lon="10.8381133"><ele>615.0</ele><time>2026-04-04T13:30:59.334Z</time></trkpt><trkpt lat="43.96" lon="10.8382"><ele>614.4</ele><time>2026-04-04T13:31:01.336Z</time></trkpt><trkpt lat="43.9599317" lon="10.8382667"><ele>613.8</ele><time>2026-04-04T13:31:03.334Z</time></trkpt><trkpt lat="43.9598417" lon="10.83831"><ele>613.2</ele><time>2026-04-04T13:31:05.335Z</time></trkpt><trkpt lat="43.959735" lon="10.8383267"><ele>612.6</ele><time>2026-04-04T13:31:07.336Z</time></trkpt><trkpt lat="43.9596117" lon="10.83836"><ele>612.0</ele><time>2026-04-04T13:31:09.334Z</time></trkpt><trkpt lat="43.9595467" lon="10.8383733"><ele>612.0</ele><time>2026-04-04T13:31:10.335Z</time></trkpt><trkpt lat="43.9594833" lon="10.838375"><ele>612.0</ele><time>2026-04-04T13:31:11.335Z</time></trkpt><trkpt lat="43.959415" lon="10.8383733"><ele>612.0</ele><time>2026-04-04T13:31:12.335Z</time></trkpt><trkpt lat="43.95935" lon="10.8383817"><ele>612.0</ele><time>2026-04-04T13:31:13.334Z</time></trkpt><trkpt lat="43.9592817" lon="10.8384017"><ele>612.0</ele><time>2026-04-04T13:31:14.333Z</time></trkpt><trkpt lat="43.95922" lon="10.83843"><ele>612.0</ele><time>2026-04-04T13:31:15.335Z</time></trkpt><trkpt lat="43.9591533" lon="10.8384633"><ele>612.0</ele><time>2026-04-04T13:31:16.333Z</time></trkpt><trkpt lat="43.9590833" lon="10.8384983"><ele>608.2</ele><time>2026-04-04T13:31:17.335Z</time></trkpt><trkpt lat="43.9590217" lon="10.8385433"><ele>604.4000000000001</ele><time>2026-04-04T13:31:18.334Z</time></trkpt><trkpt lat="43.95891" lon="10.83859"><ele>600.5999999999999</ele><time>2026-04-04T13:31:20.334Z</time></trkpt><trkpt lat="43.9588183" lon="10.8386367"><ele>596.8</ele><time>2026-04-04T13:31:22.334Z</time></trkpt><trkpt lat="43.9587383" lon="10.8386933"><ele>593.0</ele><time>2026-04-04T13:31:24.335Z</time></trkpt><trkpt lat="43.9586733" lon="10.838805"><ele>593.0</ele><time>2026-04-04T13:31:26.333Z</time></trkpt><trkpt lat="43.9586" lon="10.8388967"><ele>593.0</ele><time>2026-04-04T13:31:28.335Z</time></trkpt><trkpt lat="43.9585217" lon="10.8389583"><ele>593.0</ele><time>2026-04-04T13:31:30.334Z</time></trkpt><trkpt lat="43.9584483" lon="10.8390417"><ele>593.0</ele><time>2026-04-04T13:31:32.333Z</time></trkpt><trkpt lat="43.9583733" lon="10.8391467"><ele>593.0</ele><time>2026-04-04T13:31:34.335Z</time></trkpt><trkpt lat="43.9582917" lon="10.8392567"><ele>587.4</ele><time>2026-04-04T13:31:36.334Z</time></trkpt><trkpt lat="43.9582067" lon="10.83935"><ele>581.8</ele><time>2026-04-04T13:31:38.334Z</time></trkpt><trkpt lat="43.958125" lon="10.8394617"><ele>576.2</ele><time>2026-04-04T13:31:40.335Z</time></trkpt><trkpt lat="43.9580317" lon="10.8395867"><ele>570.6</ele><time>2026-04-04T13:31:42.335Z</time></trkpt><trkpt lat="43.9579867" lon="10.839665"><ele>565.0</ele><time>2026-04-04T13:31:43.333Z</time></trkpt><trkpt lat="43.9579317" lon="10.8397533"><ele>565.0</ele><time>2026-04-04T13:31:44.333Z</time></trkpt><trkpt lat="43.9578667" lon="10.839845"><ele>565.0</ele><time>2026-04-04T13:31:45.332Z</time></trkpt><trkpt lat="43.957815" lon="10.8399317"><ele>565.0</ele><time>2026-04-04T13:31:46.333Z</time></trkpt><trkpt lat="43.9577517" lon="10.840005"><ele>565.0</ele><time>2026-04-04T13:31:47.335Z</time></trkpt><trkpt lat="43.9577017" lon="10.8400833"><ele>565.0</ele><time>2026-04-04T13:31:48.335Z</time></trkpt><trkpt lat="43.9576517" lon="10.8401567"><ele>565.0</ele><time>2026-04-04T13:31:49.336Z</time></trkpt><trkpt lat="43.9576083" lon="10.8402233"><ele>563.5</ele><time>2026-04-04T13:31:50.334Z</time></trkpt><trkpt lat="43.9575617" lon="10.84029"><ele>562.0</ele><time>2026-04-04T13:31:51.334Z</time></trkpt><trkpt lat="43.9575117" lon="10.8403717"><ele>560.5</ele><time>2026-04-04T13:31:52.335Z</time></trkpt><trkpt lat="43.9574567" lon="10.8404617"><ele>559.0</ele><time>2026-04-04T13:31:53.334Z</time></trkpt><trkpt lat="43.9573967" lon="10.8405583"><ele>557.5</ele><time>2026-04-04T13:31:54.334Z</time></trkpt><trkpt lat="43.9573317" lon="10.8406417"><ele>556.0</ele><time>2026-04-04T13:31:55.335Z</time></trkpt><trkpt lat="43.9572717" lon="10.8407167"><ele>556.0</ele><time>2026-04-04T13:31:56.334Z</time></trkpt><trkpt lat="43.9572133" lon="10.8407867"><ele>556.0</ele><time>2026-04-04T13:31:57.335Z</time></trkpt><trkpt lat="43.9571483" lon="10.8408583"><ele>556.0</ele><time>2026-04-04T13:31:58.333Z</time></trkpt><trkpt lat="43.957085" lon="10.8409233"><ele>556.0</ele><time>2026-04-04T13:31:59.333Z</time></trkpt><trkpt lat="43.9570167" lon="10.8409717"><ele>556.0</ele><time>2026-04-04T13:32:00.334Z</time></trkpt><trkpt lat="43.9569083" lon="10.8410467"><ele>556.0</ele><time>2026-04-04T13:32:02.334Z</time></trkpt><trkpt lat="43.9568183" lon="10.8411283"><ele>553.4</ele><time>2026-04-04T13:32:04.334Z</time></trkpt><trkpt lat="43.956735" lon="10.8411983"><ele>550.8</ele><time>2026-04-04T13:32:06.335Z</time></trkpt><trkpt lat="43.9566433" lon="10.8412583"><ele>548.1999999999999</ele><time>2026-04-04T13:32:08.335Z</time></trkpt><trkpt lat="43.95652" lon="10.841305"><ele>545.6</ele><time>2026-04-04T13:32:10.334Z</time></trkpt><trkpt lat="43.95645" lon="10.8413283"><ele>543.0</ele><time>2026-04-04T13:32:11.334Z</time></trkpt><trkpt lat="43.9563683" lon="10.8413517"><ele>543.0</ele><time>2026-04-04T13:32:12.334Z</time></trkpt><trkpt lat="43.9562983" lon="10.8413617"><ele>543.0</ele><time>2026-04-04T13:32:13.335Z</time></trkpt><trkpt lat="43.9562333" lon="10.84137"><ele>543.0</ele><time>2026-04-04T13:32:14.334Z</time></trkpt><trkpt lat="43.9561683" lon="10.8413817"><ele>543.0</ele><time>2026-04-04T13:32:15.332Z</time></trkpt><trkpt lat="43.9560967" lon="10.8413833"><ele>543.0</ele><time>2026-04-04T13:32:16.333Z</time></trkpt><trkpt lat="43.956035" lon="10.8414017"><ele>543.0</ele><time>2026-04-04T13:32:17.335Z</time></trkpt><trkpt lat="43.95592" lon="10.8413983"><ele>542.6</ele><time>2026-04-04T13:32:19.336Z</time></trkpt><trkpt lat="43.95583" lon="10.841335"><ele>542.1999999999999</ele><time>2026-04-04T13:32:21.334Z</time></trkpt><trkpt lat="43.9557483" lon="10.8412667"><ele>541.8</ele><time>2026-04-04T13:32:23.335Z</time></trkpt><trkpt lat="43.955665" lon="10.8412183"><ele>541.4</ele><time>2026-04-04T13:32:25.334Z</time></trkpt><trkpt lat="43.9555733" lon="10.8412067"><ele>541.0</ele><time>2026-04-04T13:32:27.333Z</time></trkpt><trkpt lat="43.95549" lon="10.8412133"><ele>541.0</ele><time>2026-04-04T13:32:29.334Z</time></trkpt><trkpt lat="43.9554017" lon="10.8412567"><ele>541.0</ele><time>2026-04-04T13:32:31.335Z</time></trkpt><trkpt lat="43.955325" lon="10.8413067"><ele>541.0</ele><time>2026-04-04T13:32:33.335Z</time></trkpt><trkpt lat="43.9552617" lon="10.8413467"><ele>541.0</ele><time>2026-04-04T13:32:35.334Z</time></trkpt><trkpt lat="43.95522" lon="10.8414167"><ele>541.0</ele><time>2026-04-04T13:32:37.334Z</time></trkpt><trkpt lat="43.9552" lon="10.84155"><ele>541.0</ele><time>2026-04-04T13:32:39.332Z</time></trkpt><trkpt lat="43.9551783" lon="10.8416383"><ele>541.0</ele><time>2026-04-04T13:32:40.334Z</time></trkpt><trkpt lat="43.95515" lon="10.841735"><ele>541.0</ele><time>2026-04-04T13:32:41.333Z</time></trkpt><trkpt lat="43.9551217" lon="10.84183"><ele>541.0</ele><time>2026-04-04T13:32:42.334Z</time></trkpt><trkpt lat="43.9550967" lon="10.8419233"><ele>541.0</ele><time>2026-04-04T13:32:43.334Z</time></trkpt><trkpt lat="43.9550883" lon="10.8420733"><ele>541.0</ele><time>2026-04-04T13:32:45.336Z</time></trkpt><trkpt lat="43.955135" lon="10.8421933"><ele>541.0</ele><time>2026-04-04T13:32:47.334Z</time></trkpt><trkpt lat="43.9552083" lon="10.8422333"><ele>537.4</ele><time>2026-04-04T13:32:49.335Z</time></trkpt><trkpt lat="43.95529" lon="10.842255"><ele>533.8</ele><time>2026-04-04T13:32:51.336Z</time></trkpt><trkpt lat="43.955395" lon="10.8422633"><ele>530.1999999999999</ele><time>2026-04-04T13:32:53.333Z</time></trkpt><trkpt lat="43.9555067" lon="10.84227"><ele>526.6</ele><time>2026-04-04T13:32:55.336Z</time></trkpt><trkpt lat="43.9555933" lon="10.8422967"><ele>523.0</ele><time>2026-04-04T13:32:57.334Z</time></trkpt><trkpt lat="43.9556817" lon="10.8422983"><ele>523.0</ele><time>2026-04-04T13:32:59.334Z</time></trkpt><trkpt lat="43.9557833" lon="10.8423067"><ele>523.0</ele><time>2026-04-04T13:33:01.336Z</time></trkpt><trkpt lat="43.9558733" lon="10.8423167"><ele>523.0</ele><time>2026-04-04T13:33:03.334Z</time></trkpt><trkpt lat="43.9559467" lon="10.84239"><ele>523.0</ele><time>2026-04-04T13:33:05.339Z</time></trkpt><trkpt lat="43.9560217" lon="10.842505"><ele>523.0</ele><time>2026-04-04T13:33:07.335Z</time></trkpt><trkpt lat="43.95609" lon="10.8426117"><ele>521.0</ele><time>2026-04-04T13:33:09.334Z</time></trkpt><trkpt lat="43.9561633" lon="10.8427067"><ele>519.0</ele><time>2026-04-04T13:33:11.335Z</time></trkpt><trkpt lat="43.956225" lon="10.8427567"><ele>517.0</ele><time>2026-04-04T13:33:13.338Z</time></trkpt><trkpt lat="43.956235" lon="10.8428583"><ele>515.0</ele><time>2026-04-04T13:33:16.334Z</time></trkpt><trkpt lat="43.9561483" lon="10.8428883"><ele>513.0</ele><time>2026-04-04T13:33:19.335Z</time></trkpt><trkpt lat="43.95605" lon="10.8428667"><ele>511.0</ele><time>2026-04-04T13:33:21.333Z</time></trkpt><trkpt lat="43.955985" lon="10.842865"><ele>509.8</ele><time>2026-04-04T13:33:22.334Z</time></trkpt><trkpt lat="43.95586" lon="10.8428667"><ele>508.6</ele><time>2026-04-04T13:33:24.334Z</time></trkpt><trkpt lat="43.9557883" lon="10.842855"><ele>507.4</ele><time>2026-04-04T13:33:25.335Z</time></trkpt><trkpt lat="43.9557183" lon="10.8428483"><ele>506.2</ele><time>2026-04-04T13:33:26.335Z</time></trkpt><trkpt lat="43.955645" lon="10.842855"><ele>505.0</ele><time>2026-04-04T13:33:27.334Z</time></trkpt><trkpt lat="43.9555233" lon="10.8428733"><ele>505.0</ele><time>2026-04-04T13:33:29.335Z</time></trkpt><trkpt lat="43.9554567" lon="10.8428833"><ele>504.99999999999994</ele><time>2026-04-04T13:33:30.334Z</time></trkpt><trkpt lat="43.9553867" lon="10.8428817"><ele>505.0</ele><time>2026-04-04T13:33:31.336Z</time></trkpt><trkpt lat="43.955315" lon="10.8428817"><ele>505.0</ele><time>2026-04-04T13:33:32.336Z</time></trkpt><trkpt lat="43.9552433" lon="10.8428767"><ele>504.99999999999994</ele><time>2026-04-04T13:33:33.335Z</time></trkpt><trkpt lat="43.9551733" lon="10.84288"><ele>505.0</ele><time>2026-04-04T13:33:34.334Z</time></trkpt><trkpt lat="43.955105" lon="10.842885"><ele>505.0</ele><time>2026-04-04T13:33:35.335Z</time></trkpt><trkpt lat="43.95503" lon="10.84288"><ele>504.33333333333337</ele><time>2026-04-04T13:33:36.335Z</time></trkpt><trkpt lat="43.95495" lon="10.8428717"><ele>503.6666666666667</ele><time>2026-04-04T13:33:37.336Z</time></trkpt><trkpt lat="43.95487" lon="10.84285"><ele>503.0</ele><time>2026-04-04T13:33:38.334Z</time></trkpt><trkpt lat="43.9547933" lon="10.8428367"><ele>502.33333333333337</ele><time>2026-04-04T13:33:39.335Z</time></trkpt><trkpt lat="43.9547067" lon="10.842825"><ele>501.6666666666667</ele><time>2026-04-04T13:33:40.335Z</time></trkpt><trkpt lat="43.95463" lon="10.8428167"><ele>501.0</ele><time>2026-04-04T13:33:41.335Z</time></trkpt><trkpt lat="43.9545583" lon="10.8428133"><ele>501.0</ele><time>2026-04-04T13:33:42.335Z</time></trkpt><trkpt lat="43.954485" lon="10.84281"><ele>501.0</ele><time>2026-04-04T13:33:43.337Z</time></trkpt><trkpt lat="43.9543667" lon="10.8428117"><ele>501.0</ele><time>2026-04-04T13:33:45.335Z</time></trkpt><trkpt lat="43.9542817" lon="10.8427933"><ele>501.0</ele><time>2026-04-04T13:33:47.336Z</time></trkpt><trkpt lat="43.9541867" lon="10.842695"><ele>501.0</ele><time>2026-04-04T13:33:49.336Z</time></trkpt><trkpt lat="43.9541317" lon="10.8426217"><ele>500.8333333333333</ele><time>2026-04-04T13:33:50.334Z</time></trkpt><trkpt lat="43.95408" lon="10.8425417"><ele>500.66666666666663</ele><time>2026-04-04T13:33:51.334Z</time></trkpt><trkpt lat="43.954025" lon="10.8424617"><ele>500.5</ele><time>2026-04-04T13:33:52.335Z</time></trkpt><trkpt lat="43.9539733" lon="10.8423817"><ele>500.3333333333333</ele><time>2026-04-04T13:33:53.335Z</time></trkpt><trkpt lat="43.95393" lon="10.8423117"><ele>500.16666666666663</ele><time>2026-04-04T13:33:54.335Z</time></trkpt><trkpt lat="43.9538633" lon="10.8421883"><ele>500.0</ele><time>2026-04-04T13:33:56.333Z</time></trkpt><trkpt lat="43.9537883" lon="10.84209"><ele>500.0</ele><time>2026-04-04T13:33:58.333Z</time></trkpt><trkpt lat="43.9537067" lon="10.8420733"><ele>500.0</ele><time>2026-04-04T13:34:00.333Z</time></trkpt><trkpt lat="43.9536217" lon="10.8421683"><ele>500.0</ele><time>2026-04-04T13:34:02.334Z</time></trkpt><trkpt lat="43.95356" lon="10.8422717"><ele>500.0</ele><time>2026-04-04T13:34:04.334Z</time></trkpt><trkpt lat="43.95352" lon="10.8423833"><ele>500.0</ele><time>2026-04-04T13:34:06.335Z</time></trkpt><trkpt lat="43.953485" lon="10.8425117"><ele>496.6</ele><time>2026-04-04T13:34:08.333Z</time></trkpt><trkpt lat="43.9534383" lon="10.8426617"><ele>493.2</ele><time>2026-04-04T13:34:10.334Z</time></trkpt><trkpt lat="43.9534083" lon="10.8427433"><ele>489.79999999999995</ele><time>2026-04-04T13:34:11.334Z</time></trkpt><trkpt lat="43.95338" lon="10.84283"><ele>486.4</ele><time>2026-04-04T13:34:12.332Z</time></trkpt><trkpt lat="43.953335" lon="10.84298"><ele>483.0</ele><time>2026-04-04T13:34:14.335Z</time></trkpt><trkpt lat="43.9533067" lon="10.843125"><ele>481.0</ele><time>2026-04-04T13:34:16.333Z</time></trkpt><trkpt lat="43.9533017" lon="10.8432417"><ele>479.0</ele><time>2026-04-04T13:34:18.335Z</time></trkpt><trkpt lat="43.9532483" lon="10.8433333"><ele>477.0</ele><time>2026-04-04T13:34:21.336Z</time></trkpt><trkpt lat="43.9531783" lon="10.8433483"><ele>475.0</ele><time>2026-04-04T13:34:24.336Z</time></trkpt><trkpt lat="43.9530683" lon="10.843335"><ele>473.0</ele><time>2026-04-04T13:34:26.336Z</time></trkpt><trkpt lat="43.9530033" lon="10.8433117"><ele>471.0</ele><time>2026-04-04T13:34:27.335Z</time></trkpt><trkpt lat="43.9529417" lon="10.8432933"><ele>471.0</ele><time>2026-04-04T13:34:28.335Z</time></trkpt><trkpt lat="43.9528167" lon="10.84332"><ele>471.0</ele><time>2026-04-04T13:34:30.336Z</time></trkpt><trkpt lat="43.9527367" lon="10.8433517"><ele>471.0</ele><time>2026-04-04T13:34:31.334Z</time></trkpt><trkpt lat="43.9526533" lon="10.8433717"><ele>471.0</ele><time>2026-04-04T13:34:32.336Z</time></trkpt><trkpt lat="43.95257" lon="10.8433967"><ele>471.0</ele><time>2026-04-04T13:34:33.334Z</time></trkpt><trkpt lat="43.952485" lon="10.8434217"><ele>469.1666666666667</ele><time>2026-04-04T13:34:34.335Z</time></trkpt><trkpt lat="43.9524017" lon="10.843445"><ele>467.33333333333337</ele><time>2026-04-04T13:34:35.334Z</time></trkpt><trkpt lat="43.9523183" lon="10.8434633"><ele>465.5</ele><time>2026-04-04T13:34:36.334Z</time></trkpt><trkpt lat="43.952245" lon="10.843475"><ele>463.6666666666667</ele><time>2026-04-04T13:34:37.335Z</time></trkpt><trkpt lat="43.952175" lon="10.843475"><ele>461.83333333333337</ele><time>2026-04-04T13:34:38.335Z</time></trkpt><trkpt lat="43.9521017" lon="10.84348"><ele>460.0</ele><time>2026-04-04T13:34:39.334Z</time></trkpt><trkpt lat="43.9520333" lon="10.8434933"><ele>457.0</ele><time>2026-04-04T13:34:40.335Z</time></trkpt><trkpt lat="43.9519717" lon="10.8435133"><ele>454.0</ele><time>2026-04-04T13:34:41.333Z</time></trkpt><trkpt lat="43.9518633" lon="10.843555"><ele>451.0</ele><time>2026-04-04T13:34:43.334Z</time></trkpt><trkpt lat="43.9517517" lon="10.8435983"><ele>448.0</ele><time>2026-04-04T13:34:45.334Z</time></trkpt><trkpt lat="43.9516367" lon="10.8436133"><ele>445.0</ele><time>2026-04-04T13:34:47.334Z</time></trkpt><trkpt lat="43.95153" lon="10.8436033"><ele>444.8</ele><time>2026-04-04T13:34:49.336Z</time></trkpt><trkpt lat="43.951425" lon="10.84361"><ele>444.6</ele><time>2026-04-04T13:34:51.335Z</time></trkpt><trkpt lat="43.9513283" lon="10.8436417"><ele>444.4</ele><time>2026-04-04T13:34:53.334Z</time></trkpt><trkpt lat="43.9512567" lon="10.8437333"><ele>444.2</ele><time>2026-04-04T13:34:55.335Z</time></trkpt><trkpt lat="43.9511883" lon="10.8438717"><ele>444.0</ele><time>2026-04-04T13:34:57.334Z</time></trkpt><trkpt lat="43.9511517" lon="10.84395"><ele>444.0</ele><time>2026-04-04T13:34:58.334Z</time></trkpt><trkpt lat="43.951075" lon="10.844055"><ele>444.0</ele><time>2026-04-04T13:35:00.335Z</time></trkpt><trkpt lat="43.9510267" lon="10.8441133"><ele>444.0</ele><time>2026-04-04T13:35:01.336Z</time></trkpt><trkpt lat="43.950975" lon="10.8441717"><ele>444.0</ele><time>2026-04-04T13:35:02.334Z</time></trkpt><trkpt lat="43.9509183" lon="10.844225"><ele>444.0</ele><time>2026-04-04T13:35:03.334Z</time></trkpt><trkpt lat="43.9508667" lon="10.84428"><ele>444.0</ele><time>2026-04-04T13:35:04.334Z</time></trkpt><trkpt lat="43.95076" lon="10.84437"><ele>439.79999999999995</ele><time>2026-04-04T13:35:06.333Z</time></trkpt><trkpt lat="43.9506517" lon="10.84442"><ele>435.59999999999997</ele><time>2026-04-04T13:35:08.333Z</time></trkpt><trkpt lat="43.950575" lon="10.8444467"><ele>431.4</ele><time>2026-04-04T13:35:10.333Z</time></trkpt><trkpt lat="43.9505633" lon="10.8445733"><ele>427.2</ele><time>2026-04-04T13:35:46.334Z</time></trkpt><trkpt lat="43.950675" lon="10.8446383"><ele>423.0</ele><time>2026-04-04T13:35:48.334Z</time></trkpt><trkpt lat="43.9507467" lon="10.8446633"><ele>423.0</ele><time>2026-04-04T13:35:49.333Z</time></trkpt><trkpt lat="43.950815" lon="10.8446717"><ele>423.0</ele><time>2026-04-04T13:35:50.332Z</time></trkpt><trkpt lat="43.9509283" lon="10.8446367"><ele>423.0</ele><time>2026-04-04T13:35:52.334Z</time></trkpt><trkpt lat="43.9510083" lon="10.8445817"><ele>423.0</ele><time>2026-04-04T13:35:54.334Z</time></trkpt><trkpt lat="43.9510783" lon="10.8446183"><ele>423.0</ele><time>2026-04-04T13:35:57.333Z</time></trkpt><trkpt lat="43.9510467" lon="10.8447217"><ele>423.0</ele><time>2026-04-04T13:36:00.333Z</time></trkpt><trkpt lat="43.950965" lon="10.8447867"><ele>423.0</ele><time>2026-04-04T13:36:02.333Z</time></trkpt><trkpt lat="43.9509017" lon="10.8448"><ele>423.0</ele><time>2026-04-04T13:36:03.335Z</time></trkpt><trkpt lat="43.9508367" lon="10.8448117"><ele>423.0</ele><time>2026-04-04T13:36:04.335Z</time></trkpt><trkpt lat="43.9507733" lon="10.8448217"><ele>423.0</ele><time>2026-04-04T13:36:05.333Z</time></trkpt><trkpt lat="43.9506567" lon="10.8448417"><ele>423.0</ele><time>2026-04-04T13:36:07.334Z</time></trkpt><trkpt lat="43.9505983" lon="10.8448817"><ele>423.0</ele><time>2026-04-04T13:36:08.332Z</time></trkpt><trkpt lat="43.9505467" lon="10.8449483"><ele>423.0</ele><time>2026-04-04T13:36:09.336Z</time></trkpt><trkpt lat="43.9504967" lon="10.8450217"><ele>418.2</ele><time>2026-04-04T13:36:10.333Z</time></trkpt><trkpt lat="43.9504183" lon="10.8451467"><ele>413.4</ele><time>2026-04-04T13:36:12.333Z</time></trkpt><trkpt lat="43.9503367" lon="10.8452417"><ele>408.59999999999997</ele><time>2026-04-04T13:36:14.332Z</time></trkpt><trkpt lat="43.9502567" lon="10.8453067"><ele>403.79999999999995</ele><time>2026-04-04T13:36:16.335Z</time></trkpt><trkpt lat="43.9501917" lon="10.845345"><ele>399.0</ele><time>2026-04-04T13:36:19.334Z</time></trkpt><trkpt lat="43.95011" lon="10.8453717"><ele>400.8333333333333</ele><time>2026-04-04T13:36:42.333Z</time></trkpt><trkpt lat="43.94998" lon="10.8454067"><ele>402.66666666666663</ele><time>2026-04-04T13:36:44.333Z</time></trkpt><trkpt lat="43.9499033" lon="10.8454167"><ele>404.5</ele><time>2026-04-04T13:36:45.334Z</time></trkpt><trkpt lat="43.9498267" lon="10.8454183"><ele>406.3333333333333</ele><time>2026-04-04T13:36:46.334Z</time></trkpt><trkpt lat="43.9497417" lon="10.845415"><ele>408.16666666666663</ele><time>2026-04-04T13:36:47.333Z</time></trkpt><trkpt lat="43.949665" lon="10.8454183"><ele>410.0</ele><time>2026-04-04T13:36:48.335Z</time></trkpt><trkpt lat="43.949595" lon="10.8454233"><ele>409.99999999999994</ele><time>2026-04-04T13:36:49.334Z</time></trkpt><trkpt lat="43.94953" lon="10.8454433"><ele>410.0</ele><time>2026-04-04T13:36:50.334Z</time></trkpt><trkpt lat="43.949475" lon="10.8455017"><ele>410.0</ele><time>2026-04-04T13:36:51.333Z</time></trkpt><trkpt lat="43.9494183" lon="10.8455867"><ele>410.0</ele><time>2026-04-04T13:36:52.332Z</time></trkpt><trkpt lat="43.9493633" lon="10.8456917"><ele>409.99999999999994</ele><time>2026-04-04T13:36:53.332Z</time></trkpt><trkpt lat="43.94932" lon="10.8457933"><ele>410.0</ele><time>2026-04-04T13:36:54.334Z</time></trkpt><trkpt lat="43.9492833" lon="10.845885"><ele>408.66666666666663</ele><time>2026-04-04T13:36:55.335Z</time></trkpt><trkpt lat="43.9492517" lon="10.8459733"><ele>407.3333333333333</ele><time>2026-04-04T13:36:56.334Z</time></trkpt><trkpt lat="43.9492283" lon="10.8460617"><ele>406.0</ele><time>2026-04-04T13:36:57.333Z</time></trkpt><trkpt lat="43.9492167" lon="10.84615"><ele>404.66666666666663</ele><time>2026-04-04T13:36:58.334Z</time></trkpt><trkpt lat="43.9492133" lon="10.8462383"><ele>403.3333333333333</ele><time>2026-04-04T13:36:59.334Z</time></trkpt><trkpt lat="43.94921" lon="10.8463717"><ele>402.0</ele><time>2026-04-04T13:37:01.334Z</time></trkpt><trkpt lat="43.94917" lon="10.8464833"><ele>402.0</ele><time>2026-04-04T13:37:03.332Z</time></trkpt><trkpt lat="43.9490833" lon="10.846565"><ele>402.0</ele><time>2026-04-04T13:37:05.333Z</time></trkpt><trkpt lat="43.949025" lon="10.8466067"><ele>402.0</ele><time>2026-04-04T13:37:06.334Z</time></trkpt><trkpt lat="43.948945" lon="10.846635"><ele>402.0</ele><time>2026-04-04T13:37:07.333Z</time></trkpt><trkpt lat="43.9488617" lon="10.84664"><ele>402.0</ele><time>2026-04-04T13:37:08.333Z</time></trkpt><trkpt lat="43.948775" lon="10.8466317"><ele>402.0</ele><time>2026-04-04T13:37:09.333Z</time></trkpt><trkpt lat="43.9486883" lon="10.84661"><ele>402.0</ele><time>2026-04-04T13:37:10.334Z</time></trkpt><trkpt lat="43.9485883" lon="10.84656"><ele>402.0</ele><time>2026-04-04T13:37:11.333Z</time></trkpt><trkpt lat="43.9484883" lon="10.8464967"><ele>402.0</ele><time>2026-04-04T13:37:12.336Z</time></trkpt><trkpt lat="43.9483883" lon="10.8464417"><ele>402.0</ele><time>2026-04-04T13:37:13.335Z</time></trkpt><trkpt lat="43.9482917" lon="10.8463933"><ele>402.0</ele><time>2026-04-04T13:37:14.334Z</time></trkpt><trkpt lat="43.9482" lon="10.84635"><ele>400.3333333333333</ele><time>2026-04-04T13:37:15.335Z</time></trkpt><trkpt lat="43.9481083" lon="10.8463133"><ele>398.66666666666663</ele><time>2026-04-04T13:37:16.335Z</time></trkpt><trkpt lat="43.9480217" lon="10.8462933"><ele>397.0</ele><time>2026-04-04T13:37:17.334Z</time></trkpt><trkpt lat="43.9479433" lon="10.846295"><ele>395.3333333333333</ele><time>2026-04-04T13:37:18.333Z</time></trkpt><trkpt lat="43.94787" lon="10.84631"><ele>393.66666666666663</ele><time>2026-04-04T13:37:19.335Z</time></trkpt><trkpt lat="43.9478" lon="10.8463267"><ele>392.0</ele><time>2026-04-04T13:37:20.334Z</time></trkpt><trkpt lat="43.9477333" lon="10.8463333"><ele>391.99999999999994</ele><time>2026-04-04T13:37:21.332Z</time></trkpt><trkpt lat="43.9476667" lon="10.8463267"><ele>392.0</ele><time>2026-04-04T13:37:22.333Z</time></trkpt><trkpt lat="43.9475983" lon="10.846305"><ele>392.0</ele><time>2026-04-04T13:37:23.334Z</time></trkpt><trkpt lat="43.9475283" lon="10.8462733"><ele>392.0</ele><time>2026-04-04T13:37:24.335Z</time></trkpt><trkpt lat="43.94742" lon="10.8462317"><ele>391.99999999999994</ele><time>2026-04-04T13:37:26.333Z</time></trkpt><trkpt lat="43.9473483" lon="10.8462883"><ele>392.0</ele><time>2026-04-04T13:37:28.334Z</time></trkpt><trkpt lat="43.9473433" lon="10.8464133"><ele>390.40000000000003</ele><time>2026-04-04T13:37:30.334Z</time></trkpt><trkpt lat="43.947395" lon="10.8465233"><ele>388.8</ele><time>2026-04-04T13:37:32.334Z</time></trkpt><trkpt lat="43.9474033" lon="10.8466367"><ele>387.2</ele><time>2026-04-04T13:37:34.335Z</time></trkpt><trkpt lat="43.9473517" lon="10.8468017"><ele>385.6</ele><time>2026-04-04T13:37:36.333Z</time></trkpt><trkpt lat="43.9473117" lon="10.8469017"><ele>384.0</ele><time>2026-04-04T13:37:37.335Z</time></trkpt><trkpt lat="43.947245" lon="10.8470133"><ele>382.4</ele><time>2026-04-04T13:37:38.332Z</time></trkpt><trkpt lat="43.947185" lon="10.8471283"><ele>380.79999999999995</ele><time>2026-04-04T13:37:39.333Z</time></trkpt><trkpt lat="43.9471333" lon="10.8472367"><ele>379.20000000000005</ele><time>2026-04-04T13:37:40.333Z</time></trkpt><trkpt lat="43.9470917" lon="10.8473433"><ele>377.6</ele><time>2026-04-04T13:37:41.332Z</time></trkpt><trkpt lat="43.9470617" lon="10.84745"><ele>376.0</ele><time>2026-04-04T13:37:42.334Z</time></trkpt><trkpt lat="43.9470283" lon="10.8475717"><ele>372.0</ele><time>2026-04-04T13:37:43.334Z</time></trkpt><trkpt lat="43.9469933" lon="10.847705"><ele>368.0</ele><time>2026-04-04T13:37:44.332Z</time></trkpt><trkpt lat="43.9469583" lon="10.847845"><ele>364.0</ele><time>2026-04-04T13:37:45.334Z</time></trkpt><trkpt lat="43.9469217" lon="10.8479733"><ele>360.0</ele><time>2026-04-04T13:37:46.333Z</time></trkpt><trkpt lat="43.9468883" lon="10.8480917"><ele>356.0</ele><time>2026-04-04T13:37:47.333Z</time></trkpt><trkpt lat="43.9468533" lon="10.8481983"><ele>356.0</ele><time>2026-04-04T13:37:48.333Z</time></trkpt><trkpt lat="43.9468067" lon="10.8482983"><ele>356.0</ele><time>2026-04-04T13:37:49.336Z</time></trkpt><trkpt lat="43.9467517" lon="10.848395"><ele>356.0</ele><time>2026-04-04T13:37:50.333Z</time></trkpt><trkpt lat="43.94669" lon="10.848465"><ele>356.0</ele><time>2026-04-04T13:37:51.333Z</time></trkpt><trkpt lat="43.9466233" lon="10.848515"><ele>356.0</ele><time>2026-04-04T13:37:52.336Z</time></trkpt><trkpt lat="43.94655" lon="10.8485483"><ele>356.0</ele><time>2026-04-04T13:37:53.335Z</time></trkpt><trkpt lat="43.9464717" lon="10.8485617"><ele>355.8</ele><time>2026-04-04T13:37:54.333Z</time></trkpt><trkpt lat="43.9463783" lon="10.8485617"><ele>355.6</ele><time>2026-04-04T13:37:55.336Z</time></trkpt><trkpt lat="43.9462733" lon="10.8485483"><ele>355.4</ele><time>2026-04-04T13:37:56.335Z</time></trkpt><trkpt lat="43.9461633" lon="10.8485567"><ele>355.2</ele><time>2026-04-04T13:37:57.334Z</time></trkpt><trkpt lat="43.9460517" lon="10.8485783"><ele>355.0</ele><time>2026-04-04T13:37:58.336Z</time></trkpt><trkpt lat="43.9459483" lon="10.8486183"><ele>354.66666666666663</ele><time>2026-04-04T13:37:59.335Z</time></trkpt><trkpt lat="43.945855" lon="10.8486533"><ele>354.3333333333333</ele><time>2026-04-04T13:38:00.335Z</time></trkpt><trkpt lat="43.9457567" lon="10.8486667"><ele>354.0</ele><time>2026-04-04T13:38:01.335Z</time></trkpt><trkpt lat="43.945665" lon="10.848645"><ele>353.6666666666667</ele><time>2026-04-04T13:38:02.334Z</time></trkpt><trkpt lat="43.9455867" lon="10.848615"><ele>353.33333333333337</ele><time>2026-04-04T13:38:03.336Z</time></trkpt><trkpt lat="43.9455083" lon="10.8485983"><ele>353.0</ele><time>2026-04-04T13:38:04.335Z</time></trkpt><trkpt lat="43.9454233" lon="10.8486733"><ele>353.0</ele><time>2026-04-04T13:38:06.333Z</time></trkpt><trkpt lat="43.94544" lon="10.8488433"><ele>353.0</ele><time>2026-04-04T13:38:08.334Z</time></trkpt><trkpt lat="43.9454967" lon="10.8489333"><ele>353.0</ele><time>2026-04-04T13:38:09.333Z</time></trkpt><trkpt lat="43.9455783" lon="10.8490167"><ele>353.0</ele><time>2026-04-04T13:38:10.333Z</time></trkpt><trkpt lat="43.9456667" lon="10.8490783"><ele>353.0</ele><time>2026-04-04T13:38:11.333Z</time></trkpt><trkpt lat="43.94575" lon="10.84912"><ele>353.0</ele><time>2026-04-04T13:38:12.332Z</time></trkpt><trkpt lat="43.945835" lon="10.8491467"><ele>353.0</ele><time>2026-04-04T13:38:13.335Z</time></trkpt><trkpt lat="43.94592" lon="10.8491667"><ele>353.0</ele><time>2026-04-04T13:38:14.333Z</time></trkpt><trkpt lat="43.9460117" lon="10.84919"><ele>353.0</ele><time>2026-04-04T13:38:15.334Z</time></trkpt><trkpt lat="43.9461033" lon="10.8492"><ele>353.0</ele><time>2026-04-04T13:38:16.333Z</time></trkpt><trkpt lat="43.9461917" lon="10.8492133"><ele>353.0</ele><time>2026-04-04T13:38:17.333Z</time></trkpt><trkpt lat="43.9462933" lon="10.8492367"><ele>353.4</ele><time>2026-04-04T13:38:18.333Z</time></trkpt><trkpt lat="43.9464" lon="10.8492733"><ele>353.79999999999995</ele><time>2026-04-04T13:38:19.335Z</time></trkpt><trkpt lat="43.9465017" lon="10.84931"><ele>354.2</ele><time>2026-04-04T13:38:20.334Z</time></trkpt><trkpt lat="43.9466017" lon="10.8493583"><ele>354.6</ele><time>2026-04-04T13:38:21.334Z</time></trkpt><trkpt lat="43.946695" lon="10.8493967"><ele>355.0</ele><time>2026-04-04T13:38:22.333Z</time></trkpt><trkpt lat="43.946785" lon="10.849445"><ele>348.5</ele><time>2026-04-04T13:38:23.333Z</time></trkpt><trkpt lat="43.9468717" lon="10.8494833"><ele>342.0</ele><time>2026-04-04T13:38:24.335Z</time></trkpt><trkpt lat="43.9469533" lon="10.8495067"><ele>335.5</ele><time>2026-04-04T13:38:25.335Z</time></trkpt><trkpt lat="43.94703" lon="10.8494917"><ele>329.0</ele><time>2026-04-04T13:38:26.334Z</time></trkpt><trkpt lat="43.9471033" lon="10.8494533"><ele>322.5</ele><time>2026-04-04T13:38:27.333Z</time></trkpt><trkpt lat="43.94718" lon="10.8494117"><ele>316.0</ele><time>2026-04-04T13:38:28.335Z</time></trkpt><trkpt lat="43.9472533" lon="10.8493183"><ele>319.16666666666663</ele><time>2026-04-04T13:38:29.335Z</time></trkpt><trkpt lat="43.9473" lon="10.84917"><ele>322.3333333333333</ele><time>2026-04-04T13:38:30.337Z</time></trkpt><trkpt lat="43.9473433" lon="10.84905"><ele>325.5</ele><time>2026-04-04T13:38:31.336Z</time></trkpt><trkpt lat="43.9473917" lon="10.84896"><ele>328.6666666666667</ele><time>2026-04-04T13:38:32.336Z</time></trkpt><trkpt lat="43.9474367" lon="10.848885"><ele>331.83333333333337</ele><time>2026-04-04T13:38:33.336Z</time></trkpt><trkpt lat="43.9475017" lon="10.8488433"><ele>335.0</ele><time>2026-04-04T13:38:35.335Z</time></trkpt><trkpt lat="43.9474717" lon="10.8490533"><ele>335.0</ele><time>2026-04-04T13:38:38.334Z</time></trkpt><trkpt lat="43.947435" lon="10.8491783"><ele>335.0</ele><time>2026-04-04T13:38:39.335Z</time></trkpt><trkpt lat="43.9473717" lon="10.8493633"><ele>335.0</ele><time>2026-04-04T13:38:40.335Z</time></trkpt><trkpt lat="43.94732" lon="10.849525"><ele>335.0</ele><time>2026-04-04T13:38:41.335Z</time></trkpt><trkpt lat="43.9472883" lon="10.8496717"><ele>331.2</ele><time>2026-04-04T13:38:42.335Z</time></trkpt><trkpt lat="43.9472683" lon="10.849815"><ele>327.4</ele><time>2026-04-04T13:38:43.334Z</time></trkpt><trkpt lat="43.947265" lon="10.849965"><ele>323.6</ele><time>2026-04-04T13:38:44.336Z</time></trkpt><trkpt lat="43.9472767" lon="10.85012"><ele>319.8</ele><time>2026-04-04T13:38:45.333Z</time></trkpt><trkpt lat="43.947285" lon="10.85027"><ele>316.0</ele><time>2026-04-04T13:38:46.334Z</time></trkpt><trkpt lat="43.9472883" lon="10.850425"><ele>314.3333333333333</ele><time>2026-04-04T13:38:47.334Z</time></trkpt><trkpt lat="43.94729" lon="10.8505667"><ele>312.66666666666663</ele><time>2026-04-04T13:38:48.333Z</time></trkpt><trkpt lat="43.9472833" lon="10.8507083"><ele>311.0</ele><time>2026-04-04T13:38:49.333Z</time></trkpt><trkpt lat="43.9472783" lon="10.85083"><ele>309.3333333333333</ele><time>2026-04-04T13:38:50.333Z</time></trkpt><trkpt lat="43.9472783" lon="10.85094"><ele>307.6666666666667</ele><time>2026-04-04T13:38:51.334Z</time></trkpt><trkpt lat="43.9472817" lon="10.8510417"><ele>306.0</ele><time>2026-04-04T13:38:52.333Z</time></trkpt><trkpt lat="43.9472967" lon="10.851135"><ele>305.6666666666667</ele><time>2026-04-04T13:38:53.334Z</time></trkpt><trkpt lat="43.9473217" lon="10.85123"><ele>305.3333333333333</ele><time>2026-04-04T13:38:54.334Z</time></trkpt><trkpt lat="43.94735" lon="10.8513283"><ele>305.0</ele><time>2026-04-04T13:38:55.334Z</time></trkpt><trkpt lat="43.947375" lon="10.8514283"><ele>304.66666666666663</ele><time>2026-04-04T13:38:56.333Z</time></trkpt><trkpt lat="43.94739" lon="10.85153"><ele>304.3333333333333</ele><time>2026-04-04T13:38:57.334Z</time></trkpt><trkpt lat="43.9473817" lon="10.8516183"><ele>304.0</ele><time>2026-04-04T13:38:58.332Z</time></trkpt><trkpt lat="43.9473" lon="10.851745"><ele>304.0</ele><time>2026-04-04T13:39:00.334Z</time></trkpt><trkpt lat="43.9472317" lon="10.8517667"><ele>304.0</ele><time>2026-04-04T13:39:01.335Z</time></trkpt><trkpt lat="43.947155" lon="10.8517733"><ele>304.0</ele><time>2026-04-04T13:39:02.333Z</time></trkpt><trkpt lat="43.94707" lon="10.8517583"><ele>304.0</ele><time>2026-04-04T13:39:03.335Z</time></trkpt><trkpt lat="43.9469717" lon="10.8517167"><ele>304.0</ele><time>2026-04-04T13:39:04.334Z</time></trkpt><trkpt lat="43.946885" lon="10.8516817"><ele>304.0</ele><time>2026-04-04T13:39:05.334Z</time></trkpt><trkpt lat="43.9468083" lon="10.851635"><ele>304.0</ele><time>2026-04-04T13:39:06.334Z</time></trkpt><trkpt lat="43.9467433" lon="10.8515833"><ele>304.0</ele><time>2026-04-04T13:39:07.334Z</time></trkpt><trkpt lat="43.946685" lon="10.8514983"><ele>304.0</ele><time>2026-04-04T13:39:08.334Z</time></trkpt><trkpt lat="43.946635" lon="10.851405"><ele>304.0</ele><time>2026-04-04T13:39:09.333Z</time></trkpt><trkpt lat="43.9465867" lon="10.8513267"><ele>304.0</ele><time>2026-04-04T13:39:10.335Z</time></trkpt><trkpt lat="43.9464867" lon="10.8513267"><ele>304.0</ele><time>2026-04-04T13:39:12.335Z</time></trkpt><trkpt lat="43.9464483" lon="10.85142"><ele>303.4</ele><time>2026-04-04T13:39:13.334Z</time></trkpt><trkpt lat="43.9464183" lon="10.8515333"><ele>302.79999999999995</ele><time>2026-04-04T13:39:14.333Z</time></trkpt><trkpt lat="43.9464217" lon="10.8516867"><ele>302.20000000000005</ele><time>2026-04-04T13:39:15.333Z</time></trkpt><trkpt lat="43.9464517" lon="10.8518583"><ele>301.6</ele><time>2026-04-04T13:39:16.334Z</time></trkpt><trkpt lat="43.9464967" lon="10.852015"><ele>301.0</ele><time>2026-04-04T13:39:17.334Z</time></trkpt><trkpt lat="43.9465517" lon="10.852165"><ele>298.0</ele><time>2026-04-04T13:39:18.333Z</time></trkpt><trkpt lat="43.9466033" lon="10.852295"><ele>295.0</ele><time>2026-04-04T13:39:19.334Z</time></trkpt><trkpt lat="43.9466483" lon="10.852425"><ele>292.0</ele><time>2026-04-04T13:39:20.335Z</time></trkpt><trkpt lat="43.9466783" lon="10.852565"><ele>289.0</ele><time>2026-04-04T13:39:21.335Z</time></trkpt><trkpt lat="43.9466917" lon="10.85271"><ele>286.0</ele><time>2026-04-04T13:39:22.336Z</time></trkpt><trkpt lat="43.946695" lon="10.8528567"><ele>283.8</ele><time>2026-04-04T13:39:23.336Z</time></trkpt><trkpt lat="43.9466983" lon="10.8529967"><ele>281.6</ele><time>2026-04-04T13:39:24.336Z</time></trkpt><trkpt lat="43.9467033" lon="10.8531217"><ele>279.4</ele><time>2026-04-04T13:39:25.335Z</time></trkpt><trkpt lat="43.94672" lon="10.8532383"><ele>277.2</ele><time>2026-04-04T13:39:26.336Z</time></trkpt><trkpt lat="43.9467583" lon="10.8533483"><ele>275.0</ele><time>2026-04-04T13:39:27.334Z</time></trkpt><trkpt lat="43.946825" lon="10.8534417"><ele>272.0</ele><time>2026-04-04T13:39:28.334Z</time></trkpt><trkpt lat="43.9469117" lon="10.8535183"><ele>269.0</ele><time>2026-04-04T13:39:29.334Z</time></trkpt><trkpt lat="43.9470017" lon="10.8535883"><ele>266.0</ele><time>2026-04-04T13:39:30.333Z</time></trkpt><trkpt lat="43.9470883" lon="10.85365"><ele>263.0</ele><time>2026-04-04T13:39:31.333Z</time></trkpt><trkpt lat="43.94717" lon="10.853705"><ele>260.0</ele><time>2026-04-04T13:39:32.334Z</time></trkpt><trkpt lat="43.947245" lon="10.85375"><ele>260.0</ele><time>2026-04-04T13:39:33.334Z</time></trkpt><trkpt lat="43.9473133" lon="10.8537767"><ele>260.0</ele><time>2026-04-04T13:39:34.334Z</time></trkpt><trkpt lat="43.9474067" lon="10.8538667"><ele>260.0</ele><time>2026-04-04T13:39:36.334Z</time></trkpt><trkpt lat="43.9473817" lon="10.85396"><ele>260.0</ele><time>2026-04-04T13:39:38.335Z</time></trkpt><trkpt lat="43.947325" lon="10.854"><ele>260.0</ele><time>2026-04-04T13:39:39.334Z</time></trkpt><trkpt lat="43.9472633" lon="10.8540317"><ele>260.0</ele><time>2026-04-04T13:39:40.335Z</time></trkpt><trkpt lat="43.9471817" lon="10.8540417"><ele>260.0</ele><time>2026-04-04T13:39:41.336Z</time></trkpt><trkpt lat="43.9470967" lon="10.8540367"><ele>260.0</ele><time>2026-04-04T13:39:42.335Z</time></trkpt><trkpt lat="43.9470167" lon="10.8540283"><ele>260.0</ele><time>2026-04-04T13:39:43.335Z</time></trkpt><trkpt lat="43.946945" lon="10.8540317"><ele>260.0</ele><time>2026-04-04T13:39:44.335Z</time></trkpt><trkpt lat="43.9468567" lon="10.8541167"><ele>260.0</ele><time>2026-04-04T13:39:46.334Z</time></trkpt><trkpt lat="43.9468467" lon="10.8542333"><ele>260.0</ele><time>2026-04-04T13:39:48.334Z</time></trkpt><trkpt lat="43.94694" lon="10.854245"><ele>260.0</ele><time>2026-04-04T13:39:49.335Z</time></trkpt><trkpt lat="43.9470283" lon="10.8542533"><ele>260.0</ele><time>2026-04-04T13:39:50.335Z</time></trkpt><trkpt lat="43.9471233" lon="10.8542767"><ele>260.0</ele><time>2026-04-04T13:39:51.334Z</time></trkpt><trkpt lat="43.9472117" lon="10.8543333"><ele>260.0</ele><time>2026-04-04T13:39:52.335Z</time></trkpt><trkpt lat="43.9472883" lon="10.8544283"><ele>260.0</ele><time>2026-04-04T13:39:53.334Z</time></trkpt><trkpt lat="43.947345" lon="10.854545"><ele>258.0</ele><time>2026-04-04T13:39:54.334Z</time></trkpt><trkpt lat="43.9473883" lon="10.854655"><ele>256.0</ele><time>2026-04-04T13:39:55.337Z</time></trkpt><trkpt lat="43.9474333" lon="10.8547483"><ele>254.0</ele><time>2026-04-04T13:39:56.335Z</time></trkpt><trkpt lat="43.9474867" lon="10.8548133"><ele>252.0</ele><time>2026-04-04T13:39:57.335Z</time></trkpt><trkpt lat="43.94761" lon="10.8547583"><ele>250.0</ele><time>2026-04-04T13:39:59.334Z</time></trkpt><trkpt lat="43.947675" lon="10.8546633"><ele>249.4</ele><time>2026-04-04T13:40:00.334Z</time></trkpt><trkpt lat="43.9477317" lon="10.8545483"><ele>248.8</ele><time>2026-04-04T13:40:01.336Z</time></trkpt><trkpt lat="43.9477767" lon="10.8544083"><ele>248.2</ele><time>2026-04-04T13:40:02.334Z</time></trkpt><trkpt lat="43.9478183" lon="10.8542767"><ele>247.6</ele><time>2026-04-04T13:40:03.334Z</time></trkpt><trkpt lat="43.9478633" lon="10.854165"><ele>247.0</ele><time>2026-04-04T13:40:04.334Z</time></trkpt><trkpt lat="43.9479117" lon="10.8540633"><ele>247.0</ele><time>2026-04-04T13:40:05.333Z</time></trkpt><trkpt lat="43.9479667" lon="10.8539633"><ele>247.0</ele><time>2026-04-04T13:40:06.335Z</time></trkpt><trkpt lat="43.9480267" lon="10.8538617"><ele>247.0</ele><time>2026-04-04T13:40:07.334Z</time></trkpt><trkpt lat="43.9481" lon="10.8537533"><ele>247.0</ele><time>2026-04-04T13:40:08.333Z</time></trkpt><trkpt lat="43.94818" lon="10.8536317"><ele>247.0</ele><time>2026-04-04T13:40:09.334Z</time></trkpt><trkpt lat="43.9482617" lon="10.8534917"><ele>249.0</ele><time>2026-04-04T13:40:10.332Z</time></trkpt><trkpt lat="43.9483283" lon="10.8533517"><ele>251.0</ele><time>2026-04-04T13:40:11.332Z</time></trkpt><trkpt lat="43.9483867" lon="10.853225"><ele>253.0</ele><time>2026-04-04T13:40:12.334Z</time></trkpt><trkpt lat="43.94844" lon="10.8530967"><ele>255.0</ele><time>2026-04-04T13:40:13.334Z</time></trkpt><trkpt lat="43.9484883" lon="10.85296"><ele>257.0</ele><time>2026-04-04T13:40:14.333Z</time></trkpt><trkpt lat="43.9485233" lon="10.85281"><ele>254.39999999999998</ele><time>2026-04-04T13:40:15.333Z</time></trkpt><trkpt lat="43.9485467" lon="10.8526567"><ele>251.79999999999998</ele><time>2026-04-04T13:40:16.333Z</time></trkpt><trkpt lat="43.9485717" lon="10.8525167"><ele>249.2</ele><time>2026-04-04T13:40:17.334Z</time></trkpt><trkpt lat="43.9486033" lon="10.8523967"><ele>246.6</ele><time>2026-04-04T13:40:18.335Z</time></trkpt><trkpt lat="43.9486367" lon="10.8522967"><ele>244.0</ele><time>2026-04-04T13:40:19.334Z</time></trkpt><trkpt lat="43.948685" lon="10.8522233"><ele>243.99999999999997</ele><time>2026-04-04T13:40:20.333Z</time></trkpt><trkpt lat="43.9487467" lon="10.852165"><ele>244.0</ele><time>2026-04-04T13:40:21.333Z</time></trkpt><trkpt lat="43.9488083" lon="10.8520917"><ele>244.0</ele><time>2026-04-04T13:40:22.334Z</time></trkpt><trkpt lat="43.9488683" lon="10.8519933"><ele>244.0</ele><time>2026-04-04T13:40:23.334Z</time></trkpt><trkpt lat="43.9489033" lon="10.8518633"><ele>243.99999999999997</ele><time>2026-04-04T13:40:24.334Z</time></trkpt><trkpt lat="43.94892" lon="10.851725"><ele>244.0</ele><time>2026-04-04T13:40:25.336Z</time></trkpt><trkpt lat="43.9489283" lon="10.851595"><ele>247.2</ele><time>2026-04-04T13:40:26.334Z</time></trkpt><trkpt lat="43.948935" lon="10.8514767"><ele>250.39999999999998</ele><time>2026-04-04T13:40:27.334Z</time></trkpt><trkpt lat="43.9489483" lon="10.8513717"><ele>253.6</ele><time>2026-04-04T13:40:28.334Z</time></trkpt><trkpt lat="43.9489733" lon="10.85128"><ele>256.8</ele><time>2026-04-04T13:40:29.333Z</time></trkpt><trkpt lat="43.9490133" lon="10.8512117"><ele>260.0</ele><time>2026-04-04T13:40:30.334Z</time></trkpt><trkpt lat="43.9491667" lon="10.8511983"><ele>258.25</ele><time>2026-04-04T13:40:32.337Z</time></trkpt><trkpt lat="43.94931" lon="10.851225"><ele>256.5</ele><time>2026-04-04T13:40:33.335Z</time></trkpt><trkpt lat="43.949425" lon="10.85125"><ele>254.75</ele><time>2026-04-04T13:40:34.335Z</time></trkpt><trkpt lat="43.9495233" lon="10.8513"><ele>253.0</ele><time>2026-04-04T13:40:35.334Z</time></trkpt><trkpt lat="43.94961" lon="10.8513633"><ele>253.0</ele><time>2026-04-04T13:40:36.334Z</time></trkpt><trkpt lat="43.9496483" lon="10.8515"><ele>253.0</ele><time>2026-04-04T13:40:37.334Z</time></trkpt><trkpt lat="43.9496667" lon="10.8516717"><ele>253.0</ele><time>2026-04-04T13:40:38.333Z</time></trkpt><trkpt lat="43.94965" lon="10.851835"><ele>253.0</ele><time>2026-04-04T13:40:39.334Z</time></trkpt><trkpt lat="43.9496183" lon="10.8519883"><ele>250.8</ele><time>2026-04-04T13:40:40.335Z</time></trkpt><trkpt lat="43.94958" lon="10.8521417"><ele>248.60000000000002</ele><time>2026-04-04T13:40:41.335Z</time></trkpt><trkpt lat="43.9495567" lon="10.8522933"><ele>246.39999999999998</ele><time>2026-04-04T13:40:42.333Z</time></trkpt><trkpt lat="43.9495467" lon="10.8524417"><ele>244.2</ele><time>2026-04-04T13:40:43.335Z</time></trkpt><trkpt lat="43.9495517" lon="10.8525833"><ele>242.0</ele><time>2026-04-04T13:40:44.334Z</time></trkpt><trkpt lat="43.9495583" lon="10.8527267"><ele>240.33333333333334</ele><time>2026-04-04T13:40:45.332Z</time></trkpt><trkpt lat="43.9495667" lon="10.8528517"><ele>238.66666666666669</ele><time>2026-04-04T13:40:46.333Z</time></trkpt><trkpt lat="43.94958" lon="10.852965"><ele>237.0</ele><time>2026-04-04T13:40:47.334Z</time></trkpt><trkpt lat="43.9496133" lon="10.8530683"><ele>235.33333333333331</ele><time>2026-04-04T13:40:48.334Z</time></trkpt><trkpt lat="43.94966" lon="10.8531617"><ele>233.66666666666666</ele><time>2026-04-04T13:40:49.337Z</time></trkpt><trkpt lat="43.94973" lon="10.853245"><ele>232.0</ele><time>2026-04-04T13:40:50.332Z</time></trkpt><trkpt lat="43.9498117" lon="10.8532967"><ele>231.99999999999997</ele><time>2026-04-04T13:40:51.335Z</time></trkpt><trkpt lat="43.9499067" lon="10.8533167"><ele>232.0</ele><time>2026-04-04T13:40:52.335Z</time></trkpt><trkpt lat="43.9500017" lon="10.8533333"><ele>232.0</ele><time>2026-04-04T13:40:53.334Z</time></trkpt><trkpt lat="43.9500867" lon="10.8533317"><ele>232.0</ele><time>2026-04-04T13:40:54.335Z</time></trkpt><trkpt lat="43.9501517" lon="10.8533433"><ele>231.99999999999997</ele><time>2026-04-04T13:40:55.336Z</time></trkpt><trkpt lat="43.9502217" lon="10.853415"><ele>232.0</ele><time>2026-04-04T13:40:57.334Z</time></trkpt><trkpt lat="43.9502217" lon="10.85354"><ele>227.5</ele><time>2026-04-04T13:40:59.334Z</time></trkpt><trkpt lat="43.9500383" lon="10.853655"><ele>223.0</ele><time>2026-04-04T13:41:01.335Z</time></trkpt><trkpt lat="43.9499267" lon="10.8536967"><ele>218.5</ele><time>2026-04-04T13:41:02.334Z</time></trkpt><trkpt lat="43.94982" lon="10.8537117"><ele>214.0</ele><time>2026-04-04T13:41:03.335Z</time></trkpt><trkpt lat="43.94972" lon="10.8537083"><ele>214.0</ele><time>2026-04-04T13:41:04.335Z</time></trkpt><trkpt lat="43.949645" lon="10.8537"><ele>213.99999999999997</ele><time>2026-04-04T13:41:05.335Z</time></trkpt><trkpt lat="43.9495283" lon="10.8537183"><ele>213.99999999999997</ele><time>2026-04-04T13:41:07.335Z</time></trkpt><trkpt lat="43.9494567" lon="10.8537683"><ele>214.0</ele><time>2026-04-04T13:41:09.334Z</time></trkpt><trkpt lat="43.949595" lon="10.8538883"><ele>214.0</ele><time>2026-04-04T13:41:11.334Z</time></trkpt><trkpt lat="43.9496867" lon="10.85396"><ele>214.0</ele><time>2026-04-04T13:41:12.335Z</time></trkpt><trkpt lat="43.9497767" lon="10.8540267"><ele>213.99999999999997</ele><time>2026-04-04T13:41:13.335Z</time></trkpt><trkpt lat="43.9498317" lon="10.8540917"><ele>213.99999999999997</ele><time>2026-04-04T13:41:14.334Z</time></trkpt><trkpt lat="43.9498833" lon="10.854235"><ele>214.0</ele><time>2026-04-04T13:41:16.334Z</time></trkpt><trkpt lat="43.9497783" lon="10.8542367"><ele>214.0</ele><time>2026-04-04T13:41:19.334Z</time></trkpt><trkpt lat="43.9496733" lon="10.8542767"><ele>212.6</ele><time>2026-04-04T13:41:21.334Z</time></trkpt><trkpt lat="43.9496633" lon="10.854425"><ele>211.2</ele><time>2026-04-04T13:41:23.334Z</time></trkpt><trkpt lat="43.9497267" lon="10.8545733"><ele>209.79999999999998</ele><time>2026-04-04T13:41:25.333Z</time></trkpt><trkpt lat="43.9497617" lon="10.8546583"><ele>208.39999999999998</ele><time>2026-04-04T13:41:26.334Z</time></trkpt><trkpt lat="43.9497883" lon="10.85475"><ele>207.0</ele><time>2026-04-04T13:41:27.333Z</time></trkpt><trkpt lat="43.949815" lon="10.8548633"><ele>207.0</ele><time>2026-04-04T13:41:28.335Z</time></trkpt><trkpt lat="43.9498433" lon="10.8550083"><ele>207.0</ele><time>2026-04-04T13:41:29.333Z</time></trkpt><trkpt lat="43.9498667" lon="10.85519"><ele>207.0</ele><time>2026-04-04T13:41:30.334Z</time></trkpt><trkpt lat="43.949895" lon="10.8553833"><ele>207.0</ele><time>2026-04-04T13:41:31.335Z</time></trkpt><trkpt lat="43.9499317" lon="10.8555733"><ele>204.5</ele><time>2026-04-04T13:41:32.334Z</time></trkpt><trkpt lat="43.949975" lon="10.8557633"><ele>202.0</ele><time>2026-04-04T13:41:33.333Z</time></trkpt><trkpt lat="43.95002" lon="10.8559433"><ele>199.5</ele><time>2026-04-04T13:41:34.334Z</time></trkpt><trkpt lat="43.9500483" lon="10.8560933"><ele>197.0</ele><time>2026-04-04T13:41:35.334Z</time></trkpt><trkpt lat="43.9500667" lon="10.8562483"><ele>197.0</ele><time>2026-04-04T13:41:36.335Z</time></trkpt><trkpt lat="43.9500667" lon="10.85639"><ele>197.0</ele><time>2026-04-04T13:41:37.334Z</time></trkpt><trkpt lat="43.95005" lon="10.856535"><ele>197.0</ele><time>2026-04-04T13:41:38.333Z</time></trkpt><trkpt lat="43.950015" lon="10.8566767"><ele>197.0</ele><time>2026-04-04T13:41:39.334Z</time></trkpt><trkpt lat="43.949975" lon="10.856805"><ele>197.0</ele><time>2026-04-04T13:41:40.334Z</time></trkpt><trkpt lat="43.9499517" lon="10.8569283"><ele>193.2</ele><time>2026-04-04T13:41:41.334Z</time></trkpt><trkpt lat="43.949965" lon="10.85707"><ele>189.39999999999998</ele><time>2026-04-04T13:41:42.335Z</time></trkpt><trkpt lat="43.9499967" lon="10.8572283"><ele>185.60000000000002</ele><time>2026-04-04T13:41:43.335Z</time></trkpt><trkpt lat="43.9500183" lon="10.857385"><ele>181.8</ele><time>2026-04-04T13:41:44.333Z</time></trkpt><trkpt lat="43.950035" lon="10.85753"><ele>178.0</ele><time>2026-04-04T13:41:45.334Z</time></trkpt><trkpt lat="43.9500483" lon="10.85766"><ele>176.7142857142857</ele><time>2026-04-04T13:41:46.335Z</time></trkpt><trkpt lat="43.9500633" lon="10.8577783"><ele>175.42857142857142</ele><time>2026-04-04T13:41:47.335Z</time></trkpt><trkpt lat="43.95008" lon="10.8578817"><ele>174.14285714285714</ele><time>2026-04-04T13:41:48.334Z</time></trkpt><trkpt lat="43.9500967" lon="10.857975"><ele>172.85714285714283</ele><time>2026-04-04T13:41:49.335Z</time></trkpt><trkpt lat="43.9501067" lon="10.8580633"><ele>171.57142857142856</ele><time>2026-04-04T13:41:50.334Z</time></trkpt><trkpt lat="43.9501067" lon="10.8581517"><ele>170.28571428571428</ele><time>2026-04-04T13:41:51.335Z</time></trkpt><trkpt lat="43.9500917" lon="10.8582433"><ele>169.0</ele><time>2026-04-04T13:41:52.334Z</time></trkpt><trkpt lat="43.9500583" lon="10.8583483"><ele>167.75</ele><time>2026-04-04T13:41:53.334Z</time></trkpt><trkpt lat="43.9499983" lon="10.8584983"><ele>166.5</ele><time>2026-04-04T13:41:54.336Z</time></trkpt><trkpt lat="43.9499317" lon="10.8586617"><ele>165.25</ele><time>2026-04-04T13:41:55.336Z</time></trkpt><trkpt lat="43.949865" lon="10.85882"><ele>164.0</ele><time>2026-04-04T13:41:56.333Z</time></trkpt><trkpt lat="43.949795" lon="10.8589633"><ele>164.0</ele><time>2026-04-04T13:41:57.334Z</time></trkpt><trkpt lat="43.9497233" lon="10.859095"><ele>164.0</ele><time>2026-04-04T13:41:58.334Z</time></trkpt><trkpt lat="43.9496683" lon="10.8592217"><ele>164.0</ele><time>2026-04-04T13:41:59.334Z</time></trkpt><trkpt lat="43.949625" lon="10.8593483"><ele>164.0</ele><time>2026-04-04T13:42:00.333Z</time></trkpt><trkpt lat="43.94959" lon="10.859475"><ele>164.0</ele><time>2026-04-04T13:42:01.335Z</time></trkpt><trkpt lat="43.9495667" lon="10.8596217"><ele>163.0</ele><time>2026-04-04T13:42:02.334Z</time></trkpt><trkpt lat="43.9495433" lon="10.8597783"><ele>162.0</ele><time>2026-04-04T13:42:03.334Z</time></trkpt><trkpt lat="43.9495267" lon="10.8599467"><ele>161.0</ele><time>2026-04-04T13:42:04.335Z</time></trkpt><trkpt lat="43.94952" lon="10.8601117"><ele>160.0</ele><time>2026-04-04T13:42:05.335Z</time></trkpt><trkpt lat="43.9495233" lon="10.8602683"><ele>159.4</ele><time>2026-04-04T13:42:06.335Z</time></trkpt><trkpt lat="43.9495283" lon="10.8604167"><ele>158.8</ele><time>2026-04-04T13:42:07.334Z</time></trkpt><trkpt lat="43.9495317" lon="10.860555"><ele>158.2</ele><time>2026-04-04T13:42:08.334Z</time></trkpt><trkpt lat="43.9495383" lon="10.8606833"><ele>157.6</ele><time>2026-04-04T13:42:09.335Z</time></trkpt><trkpt lat="43.9495367" lon="10.860805"><ele>157.0</ele><time>2026-04-04T13:42:10.335Z</time></trkpt><trkpt lat="43.949525" lon="10.860925"><ele>156.4</ele><time>2026-04-04T13:42:11.335Z</time></trkpt><trkpt lat="43.949495" lon="10.861055"><ele>155.79999999999998</ele><time>2026-04-04T13:42:12.334Z</time></trkpt><trkpt lat="43.94946" lon="10.86119"><ele>155.2</ele><time>2026-04-04T13:42:13.334Z</time></trkpt><trkpt lat="43.9494283" lon="10.8613333"><ele>154.6</ele><time>2026-04-04T13:42:14.335Z</time></trkpt><trkpt lat="43.9493883" lon="10.8614617"><ele>154.0</ele><time>2026-04-04T13:42:15.335Z</time></trkpt><trkpt lat="43.949355" lon="10.861585"><ele>154.0</ele><time>2026-04-04T13:42:16.335Z</time></trkpt><trkpt lat="43.9493333" lon="10.8617033"><ele>154.0</ele><time>2026-04-04T13:42:17.335Z</time></trkpt><trkpt lat="43.94933" lon="10.8618233"><ele>154.0</ele><time>2026-04-04T13:42:18.334Z</time></trkpt><trkpt lat="43.9493583" lon="10.8619383"><ele>154.0</ele><time>2026-04-04T13:42:19.335Z</time></trkpt><trkpt lat="43.9494117" lon="10.8620567"><ele>154.0</ele><time>2026-04-04T13:42:20.334Z</time></trkpt><trkpt lat="43.9494683" lon="10.8621917"><ele>153.4</ele><time>2026-04-04T13:42:21.335Z</time></trkpt><trkpt lat="43.94951" lon="10.8623467"><ele>152.8</ele><time>2026-04-04T13:42:22.335Z</time></trkpt><trkpt lat="43.9495467" lon="10.8625"><ele>152.2</ele><time>2026-04-04T13:42:23.335Z</time></trkpt><trkpt lat="43.9495817" lon="10.8626417"><ele>151.6</ele><time>2026-04-04T13:42:24.335Z</time></trkpt><trkpt lat="43.94962" lon="10.8627717"><ele>151.0</ele><time>2026-04-04T13:42:25.335Z</time></trkpt><trkpt lat="43.94965" lon="10.86288"><ele>150.33333333333334</ele><time>2026-04-04T13:42:26.335Z</time></trkpt><trkpt lat="43.94968" lon="10.8629817"><ele>149.66666666666669</ele><time>2026-04-04T13:42:27.334Z</time></trkpt><trkpt lat="43.9497083" lon="10.8630833"><ele>149.0</ele><time>2026-04-04T13:42:28.332Z</time></trkpt><trkpt lat="43.9497333" lon="10.8632"><ele>148.33333333333334</ele><time>2026-04-04T13:42:29.334Z</time></trkpt><trkpt lat="43.9497517" lon="10.8633267"><ele>147.66666666666666</ele><time>2026-04-04T13:42:30.333Z</time></trkpt><trkpt lat="43.9497683" lon="10.86345"><ele>147.0</ele><time>2026-04-04T13:42:31.335Z</time></trkpt><trkpt lat="43.949785" lon="10.8635633"><ele>146.33333333333334</ele><time>2026-04-04T13:42:32.333Z</time></trkpt><trkpt lat="43.9497983" lon="10.8636667"><ele>145.66666666666666</ele><time>2026-04-04T13:42:33.333Z</time></trkpt><trkpt lat="43.9498017" lon="10.8637733"><ele>145.0</ele><time>2026-04-04T13:42:34.333Z</time></trkpt><trkpt lat="43.94979" lon="10.86389"><ele>144.33333333333331</ele><time>2026-04-04T13:42:35.334Z</time></trkpt><trkpt lat="43.94976" lon="10.8640133"><ele>143.66666666666666</ele><time>2026-04-04T13:42:36.333Z</time></trkpt><trkpt lat="43.9497267" lon="10.8641333"><ele>143.0</ele><time>2026-04-04T13:42:37.333Z</time></trkpt><trkpt lat="43.949695" lon="10.8642383"><ele>143.5</ele><time>2026-04-04T13:42:38.333Z</time></trkpt><trkpt lat="43.9496633" lon="10.8643383"><ele>144.0</ele><time>2026-04-04T13:42:39.334Z</time></trkpt><trkpt lat="43.9496367" lon="10.8644367"><ele>144.5</ele><time>2026-04-04T13:42:40.333Z</time></trkpt><trkpt lat="43.9496067" lon="10.86454"><ele>145.0</ele><time>2026-04-04T13:42:41.333Z</time></trkpt><trkpt lat="43.9495683" lon="10.8646583"><ele>145.5</ele><time>2026-04-04T13:42:42.334Z</time></trkpt><trkpt lat="43.9495267" lon="10.8647817"><ele>146.0</ele><time>2026-04-04T13:42:43.333Z</time></trkpt><trkpt lat="43.9494817" lon="10.864915"><ele>146.0</ele><time>2026-04-04T13:42:44.334Z</time></trkpt><trkpt lat="43.94944" lon="10.8650417"><ele>146.0</ele><time>2026-04-04T13:42:45.335Z</time></trkpt><trkpt lat="43.9494017" lon="10.865165"><ele>146.0</ele><time>2026-04-04T13:42:46.335Z</time></trkpt><trkpt lat="43.949355" lon="10.8652933"><ele>146.0</ele><time>2026-04-04T13:42:47.333Z</time></trkpt><trkpt lat="43.9493117" lon="10.8654267"><ele>146.0</ele><time>2026-04-04T13:42:48.334Z</time></trkpt><trkpt lat="43.9492667" lon="10.8655683"><ele>146.4</ele><time>2026-04-04T13:42:49.334Z</time></trkpt><trkpt lat="43.9492233" lon="10.8657083"><ele>146.8</ele><time>2026-04-04T13:42:50.335Z</time></trkpt><trkpt lat="43.94918" lon="10.865845"><ele>147.20000000000002</ele><time>2026-04-04T13:42:51.335Z</time></trkpt><trkpt lat="43.9491433" lon="10.86599"><ele>147.6</ele><time>2026-04-04T13:42:52.335Z</time></trkpt><trkpt lat="43.9491067" lon="10.8661333"><ele>148.0</ele><time>2026-04-04T13:42:53.332Z</time></trkpt><trkpt lat="43.9490733" lon="10.8662733"><ele>145.4</ele><time>2026-04-04T13:42:54.334Z</time></trkpt><trkpt lat="43.949045" lon="10.866415"><ele>142.8</ele><time>2026-04-04T13:42:55.334Z</time></trkpt><trkpt lat="43.94902" lon="10.8665533"><ele>140.2</ele><time>2026-04-04T13:42:56.334Z</time></trkpt><trkpt lat="43.9489983" lon="10.86669"><ele>137.6</ele><time>2026-04-04T13:42:57.333Z</time></trkpt><trkpt lat="43.9489817" lon="10.8668217"><ele>135.0</ele><time>2026-04-04T13:42:58.333Z</time></trkpt><trkpt lat="43.9489683" lon="10.866955"><ele>130.0</ele><time>2026-04-04T13:42:59.337Z</time></trkpt><trkpt lat="43.948955" lon="10.8670867"><ele>130.0</ele><time>2026-04-04T13:43:00.334Z</time></trkpt></trkseg></trk></gpx>